<?xml version='1.0' encoding='UTF-8'?><gpx version="1.1" creator="JPX - https://github.com/jenetics/jpx" xmlns="http://www.topografix.com/GPX/1/1"><trk><trkseg><trkpt lat="43.3260467" lon="10.6284933"><ele>241.0</ele><time>2026-05-05T08:00:01.645Z</time></trkpt><trkpt lat="43.3261217" lon="10.6285483"><ele>241.00000000000003</ele><time>2026-05-05T08:00:03.645Z</time></trkpt><trkpt lat="43.3262017" lon="10.6285933"><ele>241.00000000000003</ele><time>2026-05-05T08:00:05.646Z</time></trkpt><trkpt lat="43.3262933" lon="10.6286533"><ele>241.0</ele><time>2026-05-05T08:00:07.646Z</time></trkpt><trkpt lat="43.3263617" lon="10.628725"><ele>241.0</ele><time>2026-05-05T08:00:09.646Z</time></trkpt><trkpt lat="43.3264" lon="10.62884"><ele>242.0</ele><time>2026-05-05T08:00:11.646Z</time></trkpt><trkpt lat="43.32638" lon="10.6289767"><ele>243.0</ele><time>2026-05-05T08:00:13.646Z</time></trkpt><trkpt lat="43.32634" lon="10.6291217"><ele>244.0</ele><time>2026-05-05T08:00:15.646Z</time></trkpt><trkpt lat="43.3262917" lon="10.6292767"><ele>245.0</ele><time>2026-05-05T08:00:17.646Z</time></trkpt><trkpt lat="43.3262517" lon="10.62943"><ele>244.8</ele><time>2026-05-05T08:00:19.646Z</time></trkpt><trkpt lat="43.3262417" lon="10.629525"><ele>244.6</ele><time>2026-05-05T08:00:20.646Z</time></trkpt><trkpt lat="43.3261917" lon="10.6296733"><ele>244.39999999999998</ele><time>2026-05-05T08:00:22.646Z</time></trkpt><trkpt lat="43.326135" lon="10.6298183"><ele>244.2</ele><time>2026-05-05T08:00:24.646Z</time></trkpt><trkpt lat="43.3260633" lon="10.6299383"><ele>244.0</ele><time>2026-05-05T08:00:26.646Z</time></trkpt><trkpt lat="43.325965" lon="10.630055"><ele>243.99999999999997</ele><time>2026-05-05T08:00:28.646Z</time></trkpt><trkpt lat="43.3259017" lon="10.6301383"><ele>244.0</ele><time>2026-05-05T08:00:29.646Z</time></trkpt><trkpt lat="43.325865" lon="10.6302183"><ele>244.0</ele><time>2026-05-05T08:00:30.646Z</time></trkpt><trkpt lat="43.3258183" lon="10.6303"><ele>244.0</ele><time>2026-05-05T08:00:31.646Z</time></trkpt><trkpt lat="43.3257617" lon="10.63039"><ele>243.99999999999997</ele><time>2026-05-05T08:00:32.646Z</time></trkpt><trkpt lat="43.3257083" lon="10.6304933"><ele>244.0</ele><time>2026-05-05T08:00:33.646Z</time></trkpt><trkpt lat="43.32567" lon="10.6306"><ele>242.66666666666666</ele><time>2026-05-05T08:00:34.645Z</time></trkpt><trkpt lat="43.3256433" lon="10.6307017"><ele>241.33333333333331</ele><time>2026-05-05T08:00:35.646Z</time></trkpt><trkpt lat="43.32562" lon="10.6308017"><ele>240.0</ele><time>2026-05-05T08:00:36.646Z</time></trkpt><trkpt lat="43.3256017" lon="10.6309033"><ele>238.66666666666669</ele><time>2026-05-05T08:00:37.645Z</time></trkpt><trkpt lat="43.3255867" lon="10.6310017"><ele>237.33333333333334</ele><time>2026-05-05T08:00:38.644Z</time></trkpt><trkpt lat="43.325575" lon="10.6310917"><ele>236.0</ele><time>2026-05-05T08:00:39.645Z</time></trkpt><trkpt lat="43.3255983" lon="10.63124"><ele>234.4</ele><time>2026-05-05T08:00:41.644Z</time></trkpt><trkpt lat="43.3256733" lon="10.631305"><ele>232.8</ele><time>2026-05-05T08:00:43.644Z</time></trkpt><trkpt lat="43.3257767" lon="10.6312967"><ele>231.20000000000002</ele><time>2026-05-05T08:00:45.645Z</time></trkpt><trkpt lat="43.3258717" lon="10.6312683"><ele>229.60000000000002</ele><time>2026-05-05T08:00:47.645Z</time></trkpt><trkpt lat="43.3259733" lon="10.6312233"><ele>228.0</ele><time>2026-05-05T08:00:49.644Z</time></trkpt><trkpt lat="43.3260967" lon="10.6311833"><ele>228.0</ele><time>2026-05-05T08:00:51.644Z</time></trkpt><trkpt lat="43.32616" lon="10.6311783"><ele>228.0</ele><time>2026-05-05T08:00:52.644Z</time></trkpt><trkpt lat="43.3262383" lon="10.6311917"><ele>228.0</ele><time>2026-05-05T08:00:53.645Z</time></trkpt><trkpt lat="43.326325" lon="10.631195"><ele>228.0</ele><time>2026-05-05T08:00:54.645Z</time></trkpt><trkpt lat="43.3264067" lon="10.6312133"><ele>228.0</ele><time>2026-05-05T08:00:55.645Z</time></trkpt><trkpt lat="43.3264917" lon="10.63124"><ele>228.0</ele><time>2026-05-05T08:00:56.645Z</time></trkpt><trkpt lat="43.3265783" lon="10.6312683"><ele>228.4</ele><time>2026-05-05T08:00:57.644Z</time></trkpt><trkpt lat="43.32666" lon="10.63129"><ele>228.8</ele><time>2026-05-05T08:00:58.645Z</time></trkpt><trkpt lat="43.3267417" lon="10.6313183"><ele>229.2</ele><time>2026-05-05T08:00:59.644Z</time></trkpt><trkpt lat="43.3268433" lon="10.631335"><ele>229.6</ele><time>2026-05-05T08:01:00.644Z</time></trkpt><trkpt lat="43.32695" lon="10.6313667"><ele>230.0</ele><time>2026-05-05T08:01:01.644Z</time></trkpt><trkpt lat="43.3270517" lon="10.6314017"><ele>230.0</ele><time>2026-05-05T08:01:02.644Z</time></trkpt><trkpt lat="43.3271533" lon="10.6314333"><ele>230.0</ele><time>2026-05-05T08:01:03.644Z</time></trkpt><trkpt lat="43.3272467" lon="10.6314733"><ele>230.0</ele><time>2026-05-05T08:01:04.645Z</time></trkpt><trkpt lat="43.3273367" lon="10.6315167"><ele>230.0</ele><time>2026-05-05T08:01:05.644Z</time></trkpt><trkpt lat="43.32742" lon="10.63156"><ele>230.0</ele><time>2026-05-05T08:01:06.645Z</time></trkpt><trkpt lat="43.3274983" lon="10.631615"><ele>228.66666666666669</ele><time>2026-05-05T08:01:07.645Z</time></trkpt><trkpt lat="43.327575" lon="10.631685"><ele>227.33333333333334</ele><time>2026-05-05T08:01:08.644Z</time></trkpt><trkpt lat="43.3276433" lon="10.6317583"><ele>226.0</ele><time>2026-05-05T08:01:09.644Z</time></trkpt><trkpt lat="43.32771" lon="10.631835"><ele>224.66666666666669</ele><time>2026-05-05T08:01:10.645Z</time></trkpt><trkpt lat="43.3277667" lon="10.631885"><ele>223.33333333333334</ele><time>2026-05-05T08:01:11.645Z</time></trkpt><trkpt lat="43.3278267" lon="10.6319183"><ele>222.0</ele><time>2026-05-05T08:01:12.645Z</time></trkpt><trkpt lat="43.3278933" lon="10.6319467"><ele>222.0</ele><time>2026-05-05T08:01:13.644Z</time></trkpt><trkpt lat="43.3280233" lon="10.6319433"><ele>222.0</ele><time>2026-05-05T08:01:15.645Z</time></trkpt><trkpt lat="43.3280983" lon="10.631925"><ele>222.0</ele><time>2026-05-05T08:01:16.645Z</time></trkpt><trkpt lat="43.3281833" lon="10.6318517"><ele>222.0</ele><time>2026-05-05T08:01:17.645Z</time></trkpt><trkpt lat="43.3282667" lon="10.6317667"><ele>222.0</ele><time>2026-05-05T08:01:18.645Z</time></trkpt><trkpt lat="43.3283583" lon="10.63169"><ele>220.39999999999998</ele><time>2026-05-05T08:01:19.645Z</time></trkpt><trkpt lat="43.3284417" lon="10.6316217"><ele>218.79999999999998</ele><time>2026-05-05T08:01:20.645Z</time></trkpt><trkpt lat="43.3285183" lon="10.631565"><ele>217.2</ele><time>2026-05-05T08:01:21.644Z</time></trkpt><trkpt lat="43.3286117" lon="10.6315117"><ele>215.6</ele><time>2026-05-05T08:01:23.644Z</time></trkpt><trkpt lat="43.3286583" lon="10.6316283"><ele>214.0</ele><time>2026-05-05T08:01:26.645Z</time></trkpt><trkpt lat="43.3286467" lon="10.6317917"><ele>214.0</ele><time>2026-05-05T08:01:28.645Z</time></trkpt><trkpt lat="43.3286367" lon="10.63189"><ele>213.99999999999997</ele><time>2026-05-05T08:01:29.644Z</time></trkpt><trkpt lat="43.3286233" lon="10.6319933"><ele>213.99999999999997</ele><time>2026-05-05T08:01:30.645Z</time></trkpt><trkpt lat="43.3286" lon="10.632105"><ele>214.0</ele><time>2026-05-05T08:01:31.644Z</time></trkpt><trkpt lat="43.3285583" lon="10.6322617"><ele>214.0</ele><time>2026-05-05T08:01:32.645Z</time></trkpt><trkpt lat="43.328505" lon="10.632435"><ele>212.39999999999998</ele><time>2026-05-05T08:01:33.644Z</time></trkpt><trkpt lat="43.3284667" lon="10.6325867"><ele>210.79999999999998</ele><time>2026-05-05T08:01:34.645Z</time></trkpt><trkpt lat="43.328435" lon="10.6327183"><ele>209.2</ele><time>2026-05-05T08:01:35.645Z</time></trkpt><trkpt lat="43.3284" lon="10.6328517"><ele>207.60000000000002</ele><time>2026-05-05T08:01:36.645Z</time></trkpt><trkpt lat="43.3283633" lon="10.6329883"><ele>206.0</ele><time>2026-05-05T08:01:37.645Z</time></trkpt><trkpt lat="43.3283083" lon="10.63314"><ele>203.66666666666669</ele><time>2026-05-05T08:01:38.644Z</time></trkpt><trkpt lat="43.32831" lon="10.63328"><ele>201.33333333333334</ele><time>2026-05-05T08:01:39.645Z</time></trkpt><trkpt lat="43.328305" lon="10.633405"><ele>199.0</ele><time>2026-05-05T08:01:40.645Z</time></trkpt><trkpt lat="43.3283117" lon="10.633515"><ele>196.66666666666669</ele><time>2026-05-05T08:01:41.644Z</time></trkpt><trkpt lat="43.3283167" lon="10.6336267"><ele>194.33333333333334</ele><time>2026-05-05T08:01:42.645Z</time></trkpt><trkpt lat="43.328325" lon="10.6337333"><ele>192.0</ele><time>2026-05-05T08:01:43.645Z</time></trkpt><trkpt lat="43.3283333" lon="10.633835"><ele>189.2</ele><time>2026-05-05T08:01:44.644Z</time></trkpt><trkpt lat="43.3283483" lon="10.63392"><ele>186.39999999999998</ele><time>2026-05-05T08:01:45.645Z</time></trkpt><trkpt lat="43.328415" lon="10.6340633"><ele>183.60000000000002</ele><time>2026-05-05T08:01:47.645Z</time></trkpt><trkpt lat="43.3284567" lon="10.63413"><ele>180.8</ele><time>2026-05-05T08:01:48.645Z</time></trkpt><trkpt lat="43.3285433" lon="10.6342383"><ele>178.0</ele><time>2026-05-05T08:01:50.645Z</time></trkpt><trkpt lat="43.3286267" lon="10.6343233"><ele>178.0</ele><time>2026-05-05T08:01:52.645Z</time></trkpt><trkpt lat="43.32871" lon="10.6344117"><ele>178.0</ele><time>2026-05-05T08:01:54.645Z</time></trkpt><trkpt lat="43.3288" lon="10.6345083"><ele>178.0</ele><time>2026-05-05T08:01:56.644Z</time></trkpt><trkpt lat="43.328865" lon="10.6345667"><ele>178.0</ele><time>2026-05-05T08:01:57.644Z</time></trkpt><trkpt lat="43.32892" lon="10.6346117"><ele>178.0</ele><time>2026-05-05T08:01:58.644Z</time></trkpt><trkpt lat="43.3290033" lon="10.6346967"><ele>174.8</ele><time>2026-05-05T08:02:00.645Z</time></trkpt><trkpt lat="43.32908" lon="10.6347917"><ele>171.60000000000002</ele><time>2026-05-05T08:02:02.645Z</time></trkpt><trkpt lat="43.3291583" lon="10.6348967"><ele>168.39999999999998</ele><time>2026-05-05T08:02:04.645Z</time></trkpt><trkpt lat="43.3292367" lon="10.6350017"><ele>165.2</ele><time>2026-05-05T08:02:06.644Z</time></trkpt><trkpt lat="43.32931" lon="10.6351067"><ele>162.0</ele><time>2026-05-05T08:02:08.644Z</time></trkpt><trkpt lat="43.3293717" lon="10.635205"><ele>160.0</ele><time>2026-05-05T08:02:10.645Z</time></trkpt><trkpt lat="43.3294267" lon="10.6353133"><ele>158.0</ele><time>2026-05-05T08:02:12.644Z</time></trkpt><trkpt lat="43.3294933" lon="10.6354317"><ele>156.0</ele><time>2026-05-05T08:02:14.644Z</time></trkpt><trkpt lat="43.329565" lon="10.6355583"><ele>154.0</ele><time>2026-05-05T08:02:16.644Z</time></trkpt><trkpt lat="43.3296417" lon="10.6356583"><ele>152.0</ele><time>2026-05-05T08:02:18.645Z</time></trkpt><trkpt lat="43.329715" lon="10.63575"><ele>150.6</ele><time>2026-05-05T08:02:20.644Z</time></trkpt><trkpt lat="43.329795" lon="10.63585"><ele>149.2</ele><time>2026-05-05T08:02:22.645Z</time></trkpt><trkpt lat="43.3298833" lon="10.6359333"><ele>147.8</ele><time>2026-05-05T08:02:24.645Z</time></trkpt><trkpt lat="43.32997" lon="10.6360217"><ele>146.4</ele><time>2026-05-05T08:02:26.644Z</time></trkpt><trkpt lat="43.3300733" lon="10.6361183"><ele>145.0</ele><time>2026-05-05T08:02:28.645Z</time></trkpt><trkpt lat="43.3301633" lon="10.6362017"><ele>142.8</ele><time>2026-05-05T08:02:30.645Z</time></trkpt><trkpt lat="43.330245" lon="10.6362833"><ele>140.6</ele><time>2026-05-05T08:02:32.645Z</time></trkpt><trkpt lat="43.3303217" lon="10.63639"><ele>138.4</ele><time>2026-05-05T08:02:34.645Z</time></trkpt><trkpt lat="43.3303817" lon="10.6365067"><ele>136.2</ele><time>2026-05-05T08:02:36.645Z</time></trkpt><trkpt lat="43.330445" lon="10.6366383"><ele>134.0</ele><time>2026-05-05T08:02:38.645Z</time></trkpt><trkpt lat="43.3305117" lon="10.636755"><ele>133.16666666666666</ele><time>2026-05-05T08:02:40.645Z</time></trkpt><trkpt lat="43.33057" lon="10.63684"><ele>132.33333333333331</ele><time>2026-05-05T08:02:42.645Z</time></trkpt><trkpt lat="43.3306383" lon="10.6369233"><ele>131.5</ele><time>2026-05-05T08:02:44.644Z</time></trkpt><trkpt lat="43.3307383" lon="10.6370067"><ele>130.66666666666666</ele><time>2026-05-05T08:02:46.645Z</time></trkpt><trkpt lat="43.330795" lon="10.637045"><ele>129.83333333333334</ele><time>2026-05-05T08:02:47.645Z</time></trkpt><trkpt lat="43.3308517" lon="10.6370833"><ele>129.0</ele><time>2026-05-05T08:02:48.644Z</time></trkpt><trkpt lat="43.3309083" lon="10.6371417"><ele>127.83333333333333</ele><time>2026-05-05T08:02:49.644Z</time></trkpt><trkpt lat="43.3310183" lon="10.6372167"><ele>126.66666666666666</ele><time>2026-05-05T08:02:51.644Z</time></trkpt><trkpt lat="43.33107" lon="10.6372717"><ele>125.5</ele><time>2026-05-05T08:02:52.644Z</time></trkpt><trkpt lat="43.3311217" lon="10.6373383"><ele>124.33333333333333</ele><time>2026-05-05T08:02:53.644Z</time></trkpt><trkpt lat="43.331175" lon="10.6373917"><ele>123.16666666666666</ele><time>2026-05-05T08:02:54.645Z</time></trkpt><trkpt lat="43.3312217" lon="10.6374517"><ele>122.0</ele><time>2026-05-05T08:02:55.645Z</time></trkpt><trkpt lat="43.331275" lon="10.63751"><ele>121.99999999999999</ele><time>2026-05-05T08:02:56.645Z</time></trkpt><trkpt lat="43.3313317" lon="10.6375767"><ele>122.0</ele><time>2026-05-05T08:02:57.645Z</time></trkpt><trkpt lat="43.3313783" lon="10.6376433"><ele>122.0</ele><time>2026-05-05T08:02:58.644Z</time></trkpt><trkpt lat="43.3314267" lon="10.63771"><ele>122.0</ele><time>2026-05-05T08:02:59.645Z</time></trkpt><trkpt lat="43.3314683" lon="10.637775"><ele>121.99999999999999</ele><time>2026-05-05T08:03:00.645Z</time></trkpt><trkpt lat="43.3315117" lon="10.637845"><ele>122.0</ele><time>2026-05-05T08:03:01.644Z</time></trkpt><trkpt lat="43.3315967" lon="10.6379567"><ele>119.6</ele><time>2026-05-05T08:03:03.644Z</time></trkpt><trkpt lat="43.3316867" lon="10.6380317"><ele>117.19999999999999</ele><time>2026-05-05T08:03:05.645Z</time></trkpt><trkpt lat="43.331795" lon="10.6380717"><ele>114.8</ele><time>2026-05-05T08:03:07.644Z</time></trkpt><trkpt lat="43.3318617" lon="10.63813"><ele>112.4</ele><time>2026-05-05T08:03:09.644Z</time></trkpt><trkpt lat="43.3318467" lon="10.6382267"><ele>110.0</ele><time>2026-05-05T08:03:11.644Z</time></trkpt><trkpt lat="43.3317517" lon="10.6383083"><ele>109.99999999999999</ele><time>2026-05-05T08:03:13.645Z</time></trkpt><trkpt lat="43.3316267" lon="10.6383467"><ele>110.0</ele><time>2026-05-05T08:03:15.644Z</time></trkpt><trkpt lat="43.3315667" lon="10.638375"><ele>110.0</ele><time>2026-05-05T08:03:16.645Z</time></trkpt><trkpt lat="43.3315083" lon="10.6384167"><ele>110.0</ele><time>2026-05-05T08:03:17.645Z</time></trkpt><trkpt lat="43.3314467" lon="10.6385"><ele>109.99999999999999</ele><time>2026-05-05T08:03:19.645Z</time></trkpt><trkpt lat="43.3314383" lon="10.6386333"><ele>110.0</ele><time>2026-05-05T08:03:21.644Z</time></trkpt><trkpt lat="43.3314367" lon="10.6387283"><ele>107.66666666666666</ele><time>2026-05-05T08:03:22.645Z</time></trkpt><trkpt lat="43.33144" lon="10.638815"><ele>105.33333333333333</ele><time>2026-05-05T08:03:23.644Z</time></trkpt><trkpt lat="43.3314433" lon="10.63897"><ele>103.0</ele><time>2026-05-05T08:03:25.645Z</time></trkpt><trkpt lat="43.3314383" lon="10.6390583"><ele>100.66666666666666</ele><time>2026-05-05T08:03:26.644Z</time></trkpt><trkpt lat="43.3314283" lon="10.6391483"><ele>98.33333333333333</ele><time>2026-05-05T08:03:27.644Z</time></trkpt><trkpt lat="43.331435" lon="10.63924"><ele>96.0</ele><time>2026-05-05T08:03:28.645Z</time></trkpt><trkpt lat="43.3314467" lon="10.6394217"><ele>93.4</ele><time>2026-05-05T08:03:30.644Z</time></trkpt><trkpt lat="43.33144" lon="10.6395267"><ele>90.8</ele><time>2026-05-05T08:03:31.644Z</time></trkpt><trkpt lat="43.3314333" lon="10.639635"><ele>88.2</ele><time>2026-05-05T08:03:32.644Z</time></trkpt><trkpt lat="43.3314183" lon="10.639735"><ele>85.60000000000001</ele><time>2026-05-05T08:03:33.644Z</time></trkpt><trkpt lat="43.3313883" lon="10.6398967"><ele>83.0</ele><time>2026-05-05T08:03:35.645Z</time></trkpt><trkpt lat="43.33139" lon="10.640045"><ele>83.0</ele><time>2026-05-05T08:03:37.644Z</time></trkpt><trkpt lat="43.331455" lon="10.6401783"><ele>83.0</ele><time>2026-05-05T08:03:39.644Z</time></trkpt><trkpt lat="43.3314933" lon="10.640255"><ele>83.0</ele><time>2026-05-05T08:03:40.645Z</time></trkpt><trkpt lat="43.3315283" lon="10.640335"><ele>83.0</ele><time>2026-05-05T08:03:41.644Z</time></trkpt><trkpt lat="43.33156" lon="10.6404233"><ele>83.0</ele><time>2026-05-05T08:03:42.645Z</time></trkpt><trkpt lat="43.33158" lon="10.6405133"><ele>83.0</ele><time>2026-05-05T08:03:43.644Z</time></trkpt><trkpt lat="43.3316317" lon="10.6406467"><ele>79.80000000000001</ele><time>2026-05-05T08:03:45.645Z</time></trkpt><trkpt lat="43.3317283" lon="10.640715"><ele>76.60000000000001</ele><time>2026-05-05T08:03:47.645Z</time></trkpt><trkpt lat="43.3318483" lon="10.6407283"><ele>73.4</ele><time>2026-05-05T08:03:49.645Z</time></trkpt><trkpt lat="43.331915" lon="10.6407417"><ele>70.2</ele><time>2026-05-05T08:03:50.645Z</time></trkpt><trkpt lat="43.3319783" lon="10.6407533"><ele>67.0</ele><time>2026-05-05T08:03:51.645Z</time></trkpt><trkpt lat="43.3320617" lon="10.6408117"><ele>67.0</ele><time>2026-05-05T08:03:53.645Z</time></trkpt><trkpt lat="43.3320867" lon="10.640895"><ele>67.0</ele><time>2026-05-05T08:03:55.645Z</time></trkpt><trkpt lat="43.33205" lon="10.6410167"><ele>67.0</ele><time>2026-05-05T08:03:57.645Z</time></trkpt><trkpt lat="43.3319917" lon="10.6411333"><ele>67.0</ele><time>2026-05-05T08:03:59.645Z</time></trkpt><trkpt lat="43.33194" lon="10.641245"><ele>67.0</ele><time>2026-05-05T08:04:01.644Z</time></trkpt><trkpt lat="43.3319117" lon="10.6413633"><ele>63.75</ele><time>2026-05-05T08:04:03.644Z</time></trkpt><trkpt lat="43.3318817" lon="10.6415283"><ele>60.5</ele><time>2026-05-05T08:04:05.645Z</time></trkpt><trkpt lat="43.33185" lon="10.6416817"><ele>57.25</ele><time>2026-05-05T08:04:07.644Z</time></trkpt><trkpt lat="43.331825" lon="10.6418383"><ele>54.0</ele><time>2026-05-05T08:04:09.645Z</time></trkpt><trkpt lat="43.3317983" lon="10.6419817"><ele>51.800000000000004</ele><time>2026-05-05T08:04:11.645Z</time></trkpt><trkpt lat="43.3317767" lon="10.6421233"><ele>49.60000000000001</ele><time>2026-05-05T08:04:13.645Z</time></trkpt><trkpt lat="43.3317583" lon="10.6422217"><ele>47.4</ele><time>2026-05-05T08:04:14.645Z</time></trkpt><trkpt lat="43.3317517" lon="10.6423217"><ele>45.2</ele><time>2026-05-05T08:04:15.644Z</time></trkpt><trkpt lat="43.33175" lon="10.6424917"><ele>43.0</ele><time>2026-05-05T08:04:17.645Z</time></trkpt><trkpt lat="43.3317633" lon="10.64265"><ele>42.25</ele><time>2026-05-05T08:04:19.645Z</time></trkpt><trkpt lat="43.331765" lon="10.6428083"><ele>41.5</ele><time>2026-05-05T08:04:21.644Z</time></trkpt><trkpt lat="43.331785" lon="10.6429617"><ele>40.75</ele><time>2026-05-05T08:04:23.645Z</time></trkpt><trkpt lat="43.3318133" lon="10.6431267"><ele>40.0</ele><time>2026-05-05T08:04:25.645Z</time></trkpt><trkpt lat="43.3318367" lon="10.64328"><ele>40.0</ele><time>2026-05-05T08:04:27.645Z</time></trkpt><trkpt lat="43.3318533" lon="10.643425"><ele>40.0</ele><time>2026-05-05T08:04:29.644Z</time></trkpt><trkpt lat="43.3318733" lon="10.643575"><ele>40.0</ele><time>2026-05-05T08:04:31.645Z</time></trkpt><trkpt lat="43.3318883" lon="10.6436633"><ele>40.0</ele><time>2026-05-05T08:04:32.645Z</time></trkpt><trkpt lat="43.3319083" lon="10.6437533"><ele>40.0</ele><time>2026-05-05T08:04:33.644Z</time></trkpt><trkpt lat="43.3319467" lon="10.643895"><ele>39.0</ele><time>2026-05-05T08:04:35.645Z</time></trkpt><trkpt lat="43.3319633" lon="10.6440417"><ele>38.0</ele><time>2026-05-05T08:04:37.645Z</time></trkpt><trkpt lat="43.331975" lon="10.644185"><ele>37.0</ele><time>2026-05-05T08:04:39.645Z</time></trkpt><trkpt lat="43.3319667" lon="10.6443067"><ele>36.0</ele><time>2026-05-05T08:04:41.645Z</time></trkpt><trkpt lat="43.3319417" lon="10.644395"><ele>35.0</ele><time>2026-05-05T08:04:43.645Z</time></trkpt><trkpt lat="43.331875" lon="10.644445"><ele>34.0</ele><time>2026-05-05T08:04:45.644Z</time></trkpt><trkpt lat="43.3317817" lon="10.6444467"><ele>34.0</ele><time>2026-05-05T08:04:47.644Z</time></trkpt><trkpt lat="43.33167" lon="10.6444617"><ele>34.0</ele><time>2026-05-05T08:04:49.644Z</time></trkpt><trkpt lat="43.331555" lon="10.6444867"><ele>34.0</ele><time>2026-05-05T08:04:51.645Z</time></trkpt><trkpt lat="43.33146" lon="10.6445417"><ele>34.0</ele><time>2026-05-05T08:04:53.645Z</time></trkpt><trkpt lat="43.33141" lon="10.644635"><ele>34.0</ele><time>2026-05-05T08:04:55.644Z</time></trkpt><trkpt lat="43.3313667" lon="10.6447333"><ele>33.5</ele><time>2026-05-05T08:04:57.644Z</time></trkpt><trkpt lat="43.331325" lon="10.64482"><ele>33.0</ele><time>2026-05-05T08:04:59.645Z</time></trkpt><trkpt lat="43.33128" lon="10.6449283"><ele>32.5</ele><time>2026-05-05T08:05:01.645Z</time></trkpt><trkpt lat="43.33123" lon="10.6450367"><ele>32.0</ele><time>2026-05-05T08:05:03.644Z</time></trkpt><trkpt lat="43.3311833" lon="10.645135"><ele>31.500000000000004</ele><time>2026-05-05T08:05:05.644Z</time></trkpt><trkpt lat="43.3311317" lon="10.6452367"><ele>31.0</ele><time>2026-05-05T08:05:07.645Z</time></trkpt><trkpt lat="43.3310933" lon="10.6453267"><ele>30.8</ele><time>2026-05-05T08:05:09.645Z</time></trkpt><trkpt lat="43.3310467" lon="10.6454033"><ele>30.6</ele><time>2026-05-05T08:05:11.645Z</time></trkpt><trkpt lat="43.3310067" lon="10.64549"><ele>30.4</ele><time>2026-05-05T08:05:13.645Z</time></trkpt><trkpt lat="43.330955" lon="10.6455983"><ele>30.2</ele><time>2026-05-05T08:05:15.645Z</time></trkpt><trkpt lat="43.3308917" lon="10.6457083"><ele>30.0</ele><time>2026-05-05T08:05:17.645Z</time></trkpt><trkpt lat="43.3308267" lon="10.645825"><ele>30.0</ele><time>2026-05-05T08:05:19.645Z</time></trkpt><trkpt lat="43.3307633" lon="10.6459683"><ele>30.0</ele><time>2026-05-05T08:05:21.644Z</time></trkpt><trkpt lat="43.3306883" lon="10.6460967"><ele>30.0</ele><time>2026-05-05T08:05:23.645Z</time></trkpt><trkpt lat="43.3306367" lon="10.646225"><ele>30.0</ele><time>2026-05-05T08:05:25.644Z</time></trkpt><trkpt lat="43.3305767" lon="10.6463383"><ele>30.333333333333332</ele><time>2026-05-05T08:05:27.645Z</time></trkpt><trkpt lat="43.3305133" lon="10.6464483"><ele>30.666666666666664</ele><time>2026-05-05T08:05:29.645Z</time></trkpt><trkpt lat="43.3304467" lon="10.6465167"><ele>31.0</ele><time>2026-05-05T08:05:31.644Z</time></trkpt><trkpt lat="43.3303883" lon="10.6465717"><ele>31.333333333333332</ele><time>2026-05-05T08:05:33.645Z</time></trkpt><trkpt lat="43.3303" lon="10.64661"><ele>31.666666666666664</ele><time>2026-05-05T08:05:36.644Z</time></trkpt><trkpt lat="43.33028" lon="10.64671"><ele>32.0</ele><time>2026-05-05T08:05:39.645Z</time></trkpt><trkpt lat="43.33033" lon="10.646775"><ele>32.0</ele><time>2026-05-05T08:05:41.645Z</time></trkpt><trkpt lat="43.3303833" lon="10.6468567"><ele>32.0</ele><time>2026-05-05T08:05:43.645Z</time></trkpt><trkpt lat="43.33042" lon="10.646955"><ele>32.0</ele><time>2026-05-05T08:05:45.644Z</time></trkpt><trkpt lat="43.3304617" lon="10.647075"><ele>32.0</ele><time>2026-05-05T08:05:47.643Z</time></trkpt><trkpt lat="43.3305183" lon="10.647195"><ele>32.0</ele><time>2026-05-05T08:05:49.643Z</time></trkpt><trkpt lat="43.3305833" lon="10.6473467"><ele>31.999999999999996</ele><time>2026-05-05T08:05:51.644Z</time></trkpt><trkpt lat="43.33061" lon="10.6474367"><ele>32.0</ele><time>2026-05-05T08:05:52.644Z</time></trkpt><trkpt lat="43.330645" lon="10.64752"><ele>32.0</ele><time>2026-05-05T08:05:53.643Z</time></trkpt><trkpt lat="43.3306783" lon="10.6476"><ele>32.0</ele><time>2026-05-05T08:05:54.643Z</time></trkpt><trkpt lat="43.330715" lon="10.6476783"><ele>31.999999999999996</ele><time>2026-05-05T08:05:55.643Z</time></trkpt><trkpt lat="43.3307533" lon="10.6477533"><ele>32.0</ele><time>2026-05-05T08:05:56.644Z</time></trkpt><trkpt lat="43.3308133" lon="10.64788"><ele>31.999999999999996</ele><time>2026-05-05T08:05:58.644Z</time></trkpt><trkpt lat="43.3308267" lon="10.6479833"><ele>32.0</ele><time>2026-05-05T08:06:00.644Z</time></trkpt><trkpt lat="43.33078" lon="10.64805"><ele>32.0</ele><time>2026-05-05T08:06:02.644Z</time></trkpt><trkpt lat="43.33069" lon="10.648055"><ele>32.0</ele><time>2026-05-05T08:06:04.644Z</time></trkpt><trkpt lat="43.3306217" lon="10.64806"><ele>31.999999999999996</ele><time>2026-05-05T08:06:05.643Z</time></trkpt><trkpt lat="43.3305417" lon="10.64806"><ele>32.0</ele><time>2026-05-05T08:06:06.644Z</time></trkpt><trkpt lat="43.3304567" lon="10.64807"><ele>32.0</ele><time>2026-05-05T08:06:07.643Z</time></trkpt><trkpt lat="43.33037" lon="10.6480783"><ele>32.0</ele><time>2026-05-05T08:06:08.644Z</time></trkpt><trkpt lat="43.330285" lon="10.6480967"><ele>32.0</ele><time>2026-05-05T08:06:09.643Z</time></trkpt><trkpt lat="43.3301917" lon="10.6480983"><ele>32.0</ele><time>2026-05-05T08:06:10.643Z</time></trkpt><trkpt lat="43.33009" lon="10.6481117"><ele>32.0</ele><time>2026-05-05T08:06:11.643Z</time></trkpt><trkpt lat="43.3299867" lon="10.6481317"><ele>32.0</ele><time>2026-05-05T08:06:12.644Z</time></trkpt><trkpt lat="43.3298933" lon="10.648145"><ele>32.0</ele><time>2026-05-05T08:06:13.644Z</time></trkpt><trkpt lat="43.329805" lon="10.6481583"><ele>32.0</ele><time>2026-05-05T08:06:14.644Z</time></trkpt><trkpt lat="43.3297117" lon="10.6481783"><ele>32.0</ele><time>2026-05-05T08:06:15.644Z</time></trkpt><trkpt lat="43.3296167" lon="10.6481867"><ele>32.0</ele><time>2026-05-05T08:06:16.643Z</time></trkpt><trkpt lat="43.329515" lon="10.648195"><ele>32.4</ele><time>2026-05-05T08:06:17.643Z</time></trkpt><trkpt lat="43.3294133" lon="10.6482067"><ele>32.800000000000004</ele><time>2026-05-05T08:06:18.643Z</time></trkpt><trkpt lat="43.3293083" lon="10.6482233"><ele>33.2</ele><time>2026-05-05T08:06:19.643Z</time></trkpt><trkpt lat="43.32921" lon="10.6482383"><ele>33.6</ele><time>2026-05-05T08:06:20.644Z</time></trkpt><trkpt lat="43.3291067" lon="10.64825"><ele>34.0</ele><time>2026-05-05T08:06:21.643Z</time></trkpt><trkpt lat="43.329" lon="10.6482683"><ele>34.0</ele><time>2026-05-05T08:06:22.643Z</time></trkpt><trkpt lat="43.328895" lon="10.64829"><ele>34.0</ele><time>2026-05-05T08:06:23.643Z</time></trkpt><trkpt lat="43.3287933" lon="10.648315"><ele>34.0</ele><time>2026-05-05T08:06:24.644Z</time></trkpt><trkpt lat="43.3287033" lon="10.64833"><ele>34.0</ele><time>2026-05-05T08:06:25.644Z</time></trkpt><trkpt lat="43.3286167" lon="10.6483333"><ele>34.0</ele><time>2026-05-05T08:06:26.644Z</time></trkpt><trkpt lat="43.328535" lon="10.648345"><ele>34.0</ele><time>2026-05-05T08:06:27.644Z</time></trkpt><trkpt lat="43.3284533" lon="10.64837"><ele>34.0</ele><time>2026-05-05T08:06:28.643Z</time></trkpt><trkpt lat="43.32837" lon="10.6484067"><ele>34.0</ele><time>2026-05-05T08:06:29.644Z</time></trkpt><trkpt lat="43.3282883" lon="10.64843"><ele>34.0</ele><time>2026-05-05T08:06:30.644Z</time></trkpt><trkpt lat="43.3282067" lon="10.6484717"><ele>34.0</ele><time>2026-05-05T08:06:31.644Z</time></trkpt><trkpt lat="43.3281217" lon="10.648515"><ele>34.0</ele><time>2026-05-05T08:06:32.643Z</time></trkpt><trkpt lat="43.328035" lon="10.648565"><ele>33.833333333333336</ele><time>2026-05-05T08:06:33.644Z</time></trkpt><trkpt lat="43.3279483" lon="10.6486083"><ele>33.66666666666667</ele><time>2026-05-05T08:06:34.644Z</time></trkpt><trkpt lat="43.327865" lon="10.64865"><ele>33.5</ele><time>2026-05-05T08:06:35.643Z</time></trkpt><trkpt lat="43.3277783" lon="10.6486933"><ele>33.333333333333336</ele><time>2026-05-05T08:06:36.644Z</time></trkpt><trkpt lat="43.3276917" lon="10.648735"><ele>33.166666666666664</ele><time>2026-05-05T08:06:37.644Z</time></trkpt><trkpt lat="43.3276217" lon="10.6487717"><ele>33.0</ele><time>2026-05-05T08:06:38.643Z</time></trkpt><trkpt lat="43.327555" lon="10.6488"><ele>33.0</ele><time>2026-05-05T08:06:39.643Z</time></trkpt><trkpt lat="43.327485" lon="10.648825"><ele>33.0</ele><time>2026-05-05T08:06:40.644Z</time></trkpt><trkpt lat="43.3274133" lon="10.6488467"><ele>33.0</ele><time>2026-05-05T08:06:41.644Z</time></trkpt><trkpt lat="43.3273383" lon="10.64885"><ele>33.0</ele><time>2026-05-05T08:06:42.644Z</time></trkpt><trkpt lat="43.3272733" lon="10.64883"><ele>33.0</ele><time>2026-05-05T08:06:43.643Z</time></trkpt><trkpt lat="43.3272" lon="10.648795"><ele>33.0</ele><time>2026-05-05T08:06:44.643Z</time></trkpt><trkpt lat="43.32713" lon="10.6487517"><ele>33.0</ele><time>2026-05-05T08:06:45.644Z</time></trkpt><trkpt lat="43.3270533" lon="10.6487117"><ele>33.199999999999996</ele><time>2026-05-05T08:06:46.643Z</time></trkpt><trkpt lat="43.3269767" lon="10.6486667"><ele>33.4</ele><time>2026-05-05T08:06:47.643Z</time></trkpt><trkpt lat="43.3268917" lon="10.6486183"><ele>33.599999999999994</ele><time>2026-05-05T08:06:48.643Z</time></trkpt><trkpt lat="43.3268033" lon="10.6485717"><ele>33.8</ele><time>2026-05-05T08:06:49.644Z</time></trkpt><trkpt lat="43.326715" lon="10.6485183"><ele>34.0</ele><time>2026-05-05T08:06:50.643Z</time></trkpt><trkpt lat="43.3266283" lon="10.6484683"><ele>34.0</ele><time>2026-05-05T08:06:51.644Z</time></trkpt><trkpt lat="43.3265383" lon="10.648425"><ele>34.0</ele><time>2026-05-05T08:06:52.644Z</time></trkpt><trkpt lat="43.3264433" lon="10.6483883"><ele>34.0</ele><time>2026-05-05T08:06:53.644Z</time></trkpt><trkpt lat="43.3263467" lon="10.6483517"><ele>34.0</ele><time>2026-05-05T08:06:54.644Z</time></trkpt><trkpt lat="43.3262583" lon="10.648315"><ele>34.0</ele><time>2026-05-05T08:06:55.644Z</time></trkpt><trkpt lat="43.326175" lon="10.6482767"><ele>34.833333333333336</ele><time>2026-05-05T08:06:56.643Z</time></trkpt><trkpt lat="43.3260883" lon="10.64824"><ele>35.66666666666667</ele><time>2026-05-05T08:06:57.644Z</time></trkpt><trkpt lat="43.3260083" lon="10.6482017"><ele>36.5</ele><time>2026-05-05T08:06:58.644Z</time></trkpt><trkpt lat="43.32594" lon="10.6481633"><ele>37.333333333333336</ele><time>2026-05-05T08:06:59.643Z</time></trkpt><trkpt lat="43.325875" lon="10.64813"><ele>38.166666666666664</ele><time>2026-05-05T08:07:00.644Z</time></trkpt><trkpt lat="43.32581" lon="10.6481017"><ele>39.0</ele><time>2026-05-05T08:07:01.643Z</time></trkpt><trkpt lat="43.3257383" lon="10.6480683"><ele>39.0</ele><time>2026-05-05T08:07:02.643Z</time></trkpt><trkpt lat="43.3256633" lon="10.64803"><ele>39.0</ele><time>2026-05-05T08:07:03.644Z</time></trkpt><trkpt lat="43.3255733" lon="10.6480067"><ele>39.0</ele><time>2026-05-05T08:07:04.643Z</time></trkpt><trkpt lat="43.3254967" lon="10.6479717"><ele>39.0</ele><time>2026-05-05T08:07:05.644Z</time></trkpt><trkpt lat="43.3254167" lon="10.6479383"><ele>39.0</ele><time>2026-05-05T08:07:06.644Z</time></trkpt><trkpt lat="43.3253333" lon="10.6479017"><ele>39.0</ele><time>2026-05-05T08:07:07.644Z</time></trkpt><trkpt lat="43.325245" lon="10.6478617"><ele>39.166666666666664</ele><time>2026-05-05T08:07:08.644Z</time></trkpt><trkpt lat="43.3251567" lon="10.6478217"><ele>39.333333333333336</ele><time>2026-05-05T08:07:09.644Z</time></trkpt><trkpt lat="43.3250733" lon="10.6477717"><ele>39.5</ele><time>2026-05-05T08:07:10.643Z</time></trkpt><trkpt lat="43.32499" lon="10.6477333"><ele>39.66666666666667</ele><time>2026-05-05T08:07:11.644Z</time></trkpt><trkpt lat="43.3249183" lon="10.6477117"><ele>39.833333333333336</ele><time>2026-05-05T08:07:12.644Z</time></trkpt><trkpt lat="43.3248533" lon="10.6476883"><ele>40.0</ele><time>2026-05-05T08:07:13.644Z</time></trkpt><trkpt lat="43.3247767" lon="10.6476733"><ele>40.0</ele><time>2026-05-05T08:07:14.644Z</time></trkpt><trkpt lat="43.3247067" lon="10.64766"><ele>40.0</ele><time>2026-05-05T08:07:15.644Z</time></trkpt><trkpt lat="43.3246383" lon="10.6476667"><ele>40.0</ele><time>2026-05-05T08:07:16.643Z</time></trkpt><trkpt lat="43.3245167" lon="10.64773"><ele>40.0</ele><time>2026-05-05T08:07:18.644Z</time></trkpt><trkpt lat="43.32445" lon="10.647795"><ele>40.0</ele><time>2026-05-05T08:07:19.644Z</time></trkpt><trkpt lat="43.3243733" lon="10.647855"><ele>40.0</ele><time>2026-05-05T08:07:20.644Z</time></trkpt><trkpt lat="43.3242933" lon="10.6479167"><ele>40.0</ele><time>2026-05-05T08:07:21.644Z</time></trkpt><trkpt lat="43.324215" lon="10.6479867"><ele>40.0</ele><time>2026-05-05T08:07:22.644Z</time></trkpt><trkpt lat="43.3241367" lon="10.6480583"><ele>40.0</ele><time>2026-05-05T08:07:23.643Z</time></trkpt><trkpt lat="43.3240567" lon="10.6481467"><ele>40.0</ele><time>2026-05-05T08:07:24.644Z</time></trkpt><trkpt lat="43.3239667" lon="10.6482267"><ele>40.0</ele><time>2026-05-05T08:07:25.643Z</time></trkpt><trkpt lat="43.3238867" lon="10.6483033"><ele>39.833333333333336</ele><time>2026-05-05T08:07:26.643Z</time></trkpt><trkpt lat="43.3238083" lon="10.6483767"><ele>39.66666666666667</ele><time>2026-05-05T08:07:27.644Z</time></trkpt><trkpt lat="43.323735" lon="10.6484533"><ele>39.5</ele><time>2026-05-05T08:07:28.643Z</time></trkpt><trkpt lat="43.3236633" lon="10.6485283"><ele>39.333333333333336</ele><time>2026-05-05T08:07:29.643Z</time></trkpt><trkpt lat="43.323595" lon="10.6485983"><ele>39.166666666666664</ele><time>2026-05-05T08:07:30.644Z</time></trkpt><trkpt lat="43.3235267" lon="10.6486483"><ele>39.0</ele><time>2026-05-05T08:07:31.644Z</time></trkpt><trkpt lat="43.323435" lon="10.6487067"><ele>38.6</ele><time>2026-05-05T08:07:32.643Z</time></trkpt><trkpt lat="43.323335" lon="10.6487833"><ele>38.2</ele><time>2026-05-05T08:07:33.643Z</time></trkpt><trkpt lat="43.3232517" lon="10.648845"><ele>37.800000000000004</ele><time>2026-05-05T08:07:34.644Z</time></trkpt><trkpt lat="43.3231717" lon="10.648905"><ele>37.4</ele><time>2026-05-05T08:07:35.643Z</time></trkpt><trkpt lat="43.3231" lon="10.6489717"><ele>37.0</ele><time>2026-05-05T08:07:36.644Z</time></trkpt><trkpt lat="43.3230317" lon="10.6490383"><ele>37.833333333333336</ele><time>2026-05-05T08:07:37.644Z</time></trkpt><trkpt lat="43.3229717" lon="10.6491117"><ele>38.66666666666667</ele><time>2026-05-05T08:07:38.644Z</time></trkpt><trkpt lat="43.3229117" lon="10.6491983"><ele>39.5</ele><time>2026-05-05T08:07:39.644Z</time></trkpt><trkpt lat="43.3228767" lon="10.64929"><ele>40.333333333333336</ele><time>2026-05-05T08:07:40.643Z</time></trkpt><trkpt lat="43.3228417" lon="10.6494167"><ele>41.166666666666664</ele><time>2026-05-05T08:07:41.644Z</time></trkpt><trkpt lat="43.3228283" lon="10.6495483"><ele>42.0</ele><time>2026-05-05T08:07:42.644Z</time></trkpt><trkpt lat="43.3228283" lon="10.649655"><ele>42.0</ele><time>2026-05-05T08:07:43.643Z</time></trkpt><trkpt lat="43.3228267" lon="10.6497733"><ele>42.0</ele><time>2026-05-05T08:07:44.644Z</time></trkpt><trkpt lat="43.3228283" lon="10.6498733"><ele>42.0</ele><time>2026-05-05T08:07:45.644Z</time></trkpt><trkpt lat="43.32282" lon="10.6499667"><ele>42.0</ele><time>2026-05-05T08:07:46.644Z</time></trkpt><trkpt lat="43.3227867" lon="10.6500767"><ele>42.0</ele><time>2026-05-05T08:07:47.644Z</time></trkpt><trkpt lat="43.3227533" lon="10.6501567"><ele>42.0</ele><time>2026-05-05T08:07:48.643Z</time></trkpt><trkpt lat="43.3226517" lon="10.6502617"><ele>41.857142857142854</ele><time>2026-05-05T08:07:50.643Z</time></trkpt><trkpt lat="43.3225933" lon="10.6503017"><ele>41.714285714285715</ele><time>2026-05-05T08:07:51.644Z</time></trkpt><trkpt lat="43.3225283" lon="10.6503383"><ele>41.57142857142857</ele><time>2026-05-05T08:07:52.643Z</time></trkpt><trkpt lat="43.32246" lon="10.6503683"><ele>41.42857142857143</ele><time>2026-05-05T08:07:53.644Z</time></trkpt><trkpt lat="43.3223967" lon="10.6504067"><ele>41.285714285714285</ele><time>2026-05-05T08:07:54.643Z</time></trkpt><trkpt lat="43.3223283" lon="10.6504467"><ele>41.14285714285714</ele><time>2026-05-05T08:07:55.644Z</time></trkpt><trkpt lat="43.322255" lon="10.650495"><ele>41.0</ele><time>2026-05-05T08:07:56.644Z</time></trkpt><trkpt lat="43.3221967" lon="10.65054"><ele>42.199999999999996</ele><time>2026-05-05T08:07:57.644Z</time></trkpt><trkpt lat="43.3221217" lon="10.6505983"><ele>43.4</ele><time>2026-05-05T08:07:58.643Z</time></trkpt><trkpt lat="43.322055" lon="10.6506367"><ele>44.6</ele><time>2026-05-05T08:07:59.643Z</time></trkpt><trkpt lat="43.321945" lon="10.6506617"><ele>45.8</ele><time>2026-05-05T08:08:01.644Z</time></trkpt><trkpt lat="43.3218333" lon="10.6506267"><ele>47.0</ele><time>2026-05-05T08:08:03.644Z</time></trkpt><trkpt lat="43.3217433" lon="10.6505267"><ele>47.0</ele><time>2026-05-05T08:08:05.644Z</time></trkpt><trkpt lat="43.32171" lon="10.6503917"><ele>47.0</ele><time>2026-05-05T08:08:07.643Z</time></trkpt><trkpt lat="43.3217233" lon="10.650225"><ele>47.0</ele><time>2026-05-05T08:08:09.643Z</time></trkpt><trkpt lat="43.3217267" lon="10.650055"><ele>47.0</ele><time>2026-05-05T08:08:11.644Z</time></trkpt><trkpt lat="43.3217017" lon="10.649895"><ele>47.666666666666664</ele><time>2026-05-05T08:08:13.643Z</time></trkpt><trkpt lat="43.321645" lon="10.6497683"><ele>48.33333333333333</ele><time>2026-05-05T08:08:15.644Z</time></trkpt><trkpt lat="43.3215933" lon="10.6497117"><ele>49.0</ele><time>2026-05-05T08:08:16.643Z</time></trkpt><trkpt lat="43.3215367" lon="10.6496617"><ele>49.666666666666664</ele><time>2026-05-05T08:08:17.644Z</time></trkpt><trkpt lat="43.3214667" lon="10.6496333"><ele>50.333333333333336</ele><time>2026-05-05T08:08:18.644Z</time></trkpt><trkpt lat="43.3213967" lon="10.6496217"><ele>51.0</ele><time>2026-05-05T08:08:19.644Z</time></trkpt><trkpt lat="43.32133" lon="10.6496117"><ele>51.0</ele><time>2026-05-05T08:08:20.643Z</time></trkpt><trkpt lat="43.32121" lon="10.6495667"><ele>51.0</ele><time>2026-05-05T08:08:22.643Z</time></trkpt><trkpt lat="43.3211483" lon="10.649515"><ele>51.0</ele><time>2026-05-05T08:08:23.644Z</time></trkpt><trkpt lat="43.3210817" lon="10.6494583"><ele>51.0</ele><time>2026-05-05T08:08:24.644Z</time></trkpt><trkpt lat="43.3210167" lon="10.64938"><ele>51.0</ele><time>2026-05-05T08:08:25.644Z</time></trkpt><trkpt lat="43.320945" lon="10.64929"><ele>52.666666666666664</ele><time>2026-05-05T08:08:26.644Z</time></trkpt><trkpt lat="43.320885" lon="10.6492217"><ele>54.33333333333333</ele><time>2026-05-05T08:08:27.644Z</time></trkpt><trkpt lat="43.3208217" lon="10.64913"><ele>56.0</ele><time>2026-05-05T08:08:28.644Z</time></trkpt><trkpt lat="43.3207583" lon="10.6490433"><ele>57.666666666666664</ele><time>2026-05-05T08:08:29.643Z</time></trkpt><trkpt lat="43.32069" lon="10.6489533"><ele>59.33333333333333</ele><time>2026-05-05T08:08:30.644Z</time></trkpt><trkpt lat="43.32064" lon="10.6488533"><ele>61.0</ele><time>2026-05-05T08:08:31.643Z</time></trkpt><trkpt lat="43.3205917" lon="10.64875"><ele>60.83333333333333</ele><time>2026-05-05T08:08:32.644Z</time></trkpt><trkpt lat="43.3205483" lon="10.6486317"><ele>60.666666666666664</ele><time>2026-05-05T08:08:33.643Z</time></trkpt><trkpt lat="43.3205183" lon="10.6485233"><ele>60.5</ele><time>2026-05-05T08:08:34.644Z</time></trkpt><trkpt lat="43.3204783" lon="10.6484283"><ele>60.33333333333333</ele><time>2026-05-05T08:08:35.643Z</time></trkpt><trkpt lat="43.32044" lon="10.648335"><ele>60.166666666666664</ele><time>2026-05-05T08:08:36.643Z</time></trkpt><trkpt lat="43.32039" lon="10.6482533"><ele>60.0</ele><time>2026-05-05T08:08:37.644Z</time></trkpt><trkpt lat="43.3203333" lon="10.64817"><ele>60.0</ele><time>2026-05-05T08:08:38.644Z</time></trkpt><trkpt lat="43.3202667" lon="10.6480883"><ele>60.0</ele><time>2026-05-05T08:08:39.644Z</time></trkpt><trkpt lat="43.3201967" lon="10.6480033"><ele>60.0</ele><time>2026-05-05T08:08:40.643Z</time></trkpt><trkpt lat="43.3201267" lon="10.6479133"><ele>60.0</ele><time>2026-05-05T08:08:41.644Z</time></trkpt><trkpt lat="43.3200567" lon="10.6478367"><ele>60.0</ele><time>2026-05-05T08:08:42.644Z</time></trkpt><trkpt lat="43.3199767" lon="10.647745"><ele>60.8</ele><time>2026-05-05T08:08:43.644Z</time></trkpt><trkpt lat="43.3198983" lon="10.647665"><ele>61.6</ele><time>2026-05-05T08:08:44.644Z</time></trkpt><trkpt lat="43.3198183" lon="10.6475817"><ele>62.400000000000006</ele><time>2026-05-05T08:08:45.644Z</time></trkpt><trkpt lat="43.319745" lon="10.6475"><ele>63.2</ele><time>2026-05-05T08:08:46.644Z</time></trkpt><trkpt lat="43.3196633" lon="10.6474133"><ele>64.0</ele><time>2026-05-05T08:08:47.644Z</time></trkpt><trkpt lat="43.3195867" lon="10.6473233"><ele>64.75</ele><time>2026-05-05T08:08:48.643Z</time></trkpt><trkpt lat="43.31951" lon="10.6472367"><ele>65.5</ele><time>2026-05-05T08:08:49.643Z</time></trkpt><trkpt lat="43.3193933" lon="10.64708"><ele>66.25</ele><time>2026-05-05T08:08:51.643Z</time></trkpt><trkpt lat="43.3193183" lon="10.646975"><ele>67.0</ele><time>2026-05-05T08:08:52.643Z</time></trkpt><trkpt lat="43.3192517" lon="10.64689"><ele>67.0</ele><time>2026-05-05T08:08:53.643Z</time></trkpt><trkpt lat="43.3191733" lon="10.6468083"><ele>67.0</ele><time>2026-05-05T08:08:54.643Z</time></trkpt><trkpt lat="43.3190933" lon="10.6467317"><ele>67.0</ele><time>2026-05-05T08:08:55.644Z</time></trkpt><trkpt lat="43.31901" lon="10.6466683"><ele>67.0</ele><time>2026-05-05T08:08:56.643Z</time></trkpt><trkpt lat="43.3189333" lon="10.6466217"><ele>67.0</ele><time>2026-05-05T08:08:57.643Z</time></trkpt><trkpt lat="43.3188483" lon="10.6465783"><ele>69.4</ele><time>2026-05-05T08:08:58.643Z</time></trkpt><trkpt lat="43.3187517" lon="10.646535"><ele>71.80000000000001</ele><time>2026-05-05T08:08:59.644Z</time></trkpt><trkpt lat="43.3186567" lon="10.6465"><ele>74.2</ele><time>2026-05-05T08:09:00.643Z</time></trkpt><trkpt lat="43.3185667" lon="10.6464583"><ele>76.60000000000001</ele><time>2026-05-05T08:09:01.643Z</time></trkpt><trkpt lat="43.31848" lon="10.646415"><ele>79.0</ele><time>2026-05-05T08:09:02.644Z</time></trkpt><trkpt lat="43.3183917" lon="10.6463733"><ele>79.0</ele><time>2026-05-05T08:09:03.644Z</time></trkpt><trkpt lat="43.31831" lon="10.6463333"><ele>79.0</ele><time>2026-05-05T08:09:04.644Z</time></trkpt><trkpt lat="43.3182283" lon="10.6462983"><ele>79.0</ele><time>2026-05-05T08:09:05.644Z</time></trkpt><trkpt lat="43.318145" lon="10.646265"><ele>79.0</ele><time>2026-05-05T08:09:06.643Z</time></trkpt><trkpt lat="43.3180633" lon="10.6462367"><ele>79.0</ele><time>2026-05-05T08:09:07.643Z</time></trkpt><trkpt lat="43.3179783" lon="10.6462117"><ele>79.0</ele><time>2026-05-05T08:09:08.644Z</time></trkpt><trkpt lat="43.317895" lon="10.6461917"><ele>80.16666666666666</ele><time>2026-05-05T08:09:09.644Z</time></trkpt><trkpt lat="43.317825" lon="10.64617"><ele>81.33333333333333</ele><time>2026-05-05T08:09:10.644Z</time></trkpt><trkpt lat="43.3177633" lon="10.6461467"><ele>82.5</ele><time>2026-05-05T08:09:11.644Z</time></trkpt><trkpt lat="43.3176583" lon="10.6461167"><ele>83.66666666666667</ele><time>2026-05-05T08:09:13.644Z</time></trkpt><trkpt lat="43.31756" lon="10.6461067"><ele>84.83333333333334</ele><time>2026-05-05T08:09:15.644Z</time></trkpt><trkpt lat="43.317505" lon="10.6461733"><ele>86.0</ele><time>2026-05-05T08:09:17.644Z</time></trkpt><trkpt lat="43.317515" lon="10.6463283"><ele>86.00000000000001</ele><time>2026-05-05T08:09:19.644Z</time></trkpt><trkpt lat="43.3175433" lon="10.6464217"><ele>86.0</ele><time>2026-05-05T08:09:20.644Z</time></trkpt><trkpt lat="43.3175683" lon="10.64652"><ele>86.0</ele><time>2026-05-05T08:09:21.644Z</time></trkpt><trkpt lat="43.3176" lon="10.6466167"><ele>86.0</ele><time>2026-05-05T08:09:22.643Z</time></trkpt><trkpt lat="43.3176217" lon="10.64672"><ele>86.0</ele><time>2026-05-05T08:09:23.643Z</time></trkpt><trkpt lat="43.3176283" lon="10.646815"><ele>86.00000000000001</ele><time>2026-05-05T08:09:24.644Z</time></trkpt><trkpt lat="43.3176267" lon="10.6469083"><ele>86.0</ele><time>2026-05-05T08:09:25.644Z</time></trkpt><trkpt lat="43.3176217" lon="10.6470083"><ele>85.6</ele><time>2026-05-05T08:09:26.644Z</time></trkpt><trkpt lat="43.3176067" lon="10.6471517"><ele>85.19999999999999</ele><time>2026-05-05T08:09:28.644Z</time></trkpt><trkpt lat="43.317595" lon="10.64727"><ele>84.80000000000001</ele><time>2026-05-05T08:09:30.644Z</time></trkpt><trkpt lat="43.317565" lon="10.6473567"><ele>84.4</ele><time>2026-05-05T08:09:32.643Z</time></trkpt><trkpt lat="43.3175217" lon="10.6474533"><ele>84.0</ele><time>2026-05-05T08:09:34.644Z</time></trkpt><trkpt lat="43.3174917" lon="10.6476133"><ele>84.0</ele><time>2026-05-05T08:09:36.644Z</time></trkpt><trkpt lat="43.3174783" lon="10.647715"><ele>84.0</ele><time>2026-05-05T08:09:37.644Z</time></trkpt><trkpt lat="43.317475" lon="10.6478333"><ele>84.0</ele><time>2026-05-05T08:09:38.643Z</time></trkpt><trkpt lat="43.3174733" lon="10.6479667"><ele>84.0</ele><time>2026-05-05T08:09:39.644Z</time></trkpt><trkpt lat="43.3174617" lon="10.648125"><ele>84.0</ele><time>2026-05-05T08:09:40.644Z</time></trkpt><trkpt lat="43.3174583" lon="10.6482783"><ele>82.75</ele><time>2026-05-05T08:09:41.643Z</time></trkpt><trkpt lat="43.317455" lon="10.6484567"><ele>81.5</ele><time>2026-05-05T08:09:42.643Z</time></trkpt><trkpt lat="43.3174567" lon="10.6486233"><ele>80.25</ele><time>2026-05-05T08:09:43.644Z</time></trkpt><trkpt lat="43.3174567" lon="10.6488033"><ele>79.0</ele><time>2026-05-05T08:09:44.644Z</time></trkpt><trkpt lat="43.3174533" lon="10.6489933"><ele>78.66666666666666</ele><time>2026-05-05T08:09:45.643Z</time></trkpt><trkpt lat="43.317445" lon="10.649195"><ele>78.33333333333333</ele><time>2026-05-05T08:09:46.644Z</time></trkpt><trkpt lat="43.3174417" lon="10.6494017"><ele>78.0</ele><time>2026-05-05T08:09:47.644Z</time></trkpt><trkpt lat="43.31744" lon="10.6496283"><ele>77.66666666666667</ele><time>2026-05-05T08:09:48.644Z</time></trkpt><trkpt lat="43.3174333" lon="10.6498567"><ele>77.33333333333334</ele><time>2026-05-05T08:09:49.643Z</time></trkpt><trkpt lat="43.317435" lon="10.6500717"><ele>77.0</ele><time>2026-05-05T08:09:50.644Z</time></trkpt><trkpt lat="43.3174317" lon="10.6502883"><ele>77.66666666666667</ele><time>2026-05-05T08:09:51.644Z</time></trkpt><trkpt lat="43.317425" lon="10.650505"><ele>78.33333333333333</ele><time>2026-05-05T08:09:52.644Z</time></trkpt><trkpt lat="43.31742" lon="10.6507367"><ele>79.0</ele><time>2026-05-05T08:09:53.644Z</time></trkpt><trkpt lat="43.3174167" lon="10.65097"><ele>79.0</ele><time>2026-05-05T08:09:54.643Z</time></trkpt><trkpt lat="43.3174117" lon="10.6511933"><ele>79.0</ele><time>2026-05-05T08:09:55.644Z</time></trkpt><trkpt lat="43.31739" lon="10.6514067"><ele>79.0</ele><time>2026-05-05T08:09:56.644Z</time></trkpt><trkpt lat="43.3173767" lon="10.6516117"><ele>79.0</ele><time>2026-05-05T08:09:57.644Z</time></trkpt><trkpt lat="43.3173633" lon="10.651825"><ele>79.0</ele><time>2026-05-05T08:09:58.644Z</time></trkpt><trkpt lat="43.317355" lon="10.65205"><ele>79.0</ele><time>2026-05-05T08:09:59.644Z</time></trkpt><trkpt lat="43.3173483" lon="10.6522583"><ele>78.25</ele><time>2026-05-05T08:10:00.643Z</time></trkpt><trkpt lat="43.31735" lon="10.6524633"><ele>77.5</ele><time>2026-05-05T08:10:01.644Z</time></trkpt><trkpt lat="43.3173483" lon="10.652665"><ele>76.75</ele><time>2026-05-05T08:10:02.643Z</time></trkpt><trkpt lat="43.317345" lon="10.6528633"><ele>76.0</ele><time>2026-05-05T08:10:03.644Z</time></trkpt><trkpt lat="43.317335" lon="10.6530683"><ele>75.0</ele><time>2026-05-05T08:10:04.644Z</time></trkpt><trkpt lat="43.3173367" lon="10.6532783"><ele>74.0</ele><time>2026-05-05T08:10:05.643Z</time></trkpt><trkpt lat="43.317325" lon="10.6534717"><ele>73.0</ele><time>2026-05-05T08:10:06.644Z</time></trkpt><trkpt lat="43.31732" lon="10.6536817"><ele>72.0</ele><time>2026-05-05T08:10:07.644Z</time></trkpt><trkpt lat="43.31733" lon="10.65389"><ele>71.0</ele><time>2026-05-05T08:10:08.644Z</time></trkpt><trkpt lat="43.3173483" lon="10.6540767"><ele>70.0</ele><time>2026-05-05T08:10:09.644Z</time></trkpt><trkpt lat="43.31739" lon="10.654255"><ele>69.0</ele><time>2026-05-05T08:10:10.644Z</time></trkpt><trkpt lat="43.3174467" lon="10.6544233"><ele>68.0</ele><time>2026-05-05T08:10:11.644Z</time></trkpt><trkpt lat="43.3175067" lon="10.6545867"><ele>67.5</ele><time>2026-05-05T08:10:12.644Z</time></trkpt><trkpt lat="43.3175833" lon="10.65474"><ele>67.0</ele><time>2026-05-05T08:10:13.644Z</time></trkpt><trkpt lat="43.317675" lon="10.654875"><ele>66.5</ele><time>2026-05-05T08:10:14.643Z</time></trkpt><trkpt lat="43.3177833" lon="10.6549867"><ele>66.0</ele><time>2026-05-05T08:10:15.644Z</time></trkpt><trkpt lat="43.3178917" lon="10.6550883"><ele>66.0</ele><time>2026-05-05T08:10:16.644Z</time></trkpt><trkpt lat="43.318005" lon="10.6551983"><ele>66.0</ele><time>2026-05-05T08:10:17.643Z</time></trkpt><trkpt lat="43.3181033" lon="10.6553167"><ele>66.0</ele><time>2026-05-05T08:10:18.643Z</time></trkpt><trkpt lat="43.318205" lon="10.6554533"><ele>66.0</ele><time>2026-05-05T08:10:19.643Z</time></trkpt><trkpt lat="43.3183017" lon="10.6556083"><ele>64.33333333333333</ele><time>2026-05-05T08:10:20.642Z</time></trkpt><trkpt lat="43.31838" lon="10.6557833"><ele>62.666666666666664</ele><time>2026-05-05T08:10:21.643Z</time></trkpt><trkpt lat="43.31846" lon="10.6559667"><ele>61.0</ele><time>2026-05-05T08:10:22.643Z</time></trkpt><trkpt lat="43.3185267" lon="10.6561683"><ele>59.666666666666664</ele><time>2026-05-05T08:10:23.642Z</time></trkpt><trkpt lat="43.31859" lon="10.6563717"><ele>58.33333333333333</ele><time>2026-05-05T08:10:24.643Z</time></trkpt><trkpt lat="43.3186583" lon="10.6565717"><ele>57.0</ele><time>2026-05-05T08:10:25.643Z</time></trkpt><trkpt lat="43.3187233" lon="10.656785"><ele>56.0</ele><time>2026-05-05T08:10:26.643Z</time></trkpt><trkpt lat="43.31879" lon="10.6570167"><ele>55.0</ele><time>2026-05-05T08:10:27.642Z</time></trkpt><trkpt lat="43.3188583" lon="10.65726"><ele>54.0</ele><time>2026-05-05T08:10:28.643Z</time></trkpt><trkpt lat="43.3189133" lon="10.6575"><ele>52.0</ele><time>2026-05-05T08:10:29.643Z</time></trkpt><trkpt lat="43.318985" lon="10.6577233"><ele>50.0</ele><time>2026-05-05T08:10:30.643Z</time></trkpt><trkpt lat="43.319065" lon="10.657965"><ele>48.0</ele><time>2026-05-05T08:10:31.643Z</time></trkpt><trkpt lat="43.3191467" lon="10.6582117"><ele>47.0</ele><time>2026-05-05T08:10:32.642Z</time></trkpt><trkpt lat="43.319225" lon="10.6584633"><ele>46.0</ele><time>2026-05-05T08:10:33.643Z</time></trkpt><trkpt lat="43.3193033" lon="10.6587183"><ele>45.0</ele><time>2026-05-05T08:10:34.643Z</time></trkpt><trkpt lat="43.319385" lon="10.6589717"><ele>43.666666666666664</ele><time>2026-05-05T08:10:35.643Z</time></trkpt><trkpt lat="43.3194717" lon="10.6592333"><ele>42.33333333333333</ele><time>2026-05-05T08:10:36.643Z</time></trkpt><trkpt lat="43.3195467" lon="10.6595"><ele>41.0</ele><time>2026-05-05T08:10:37.642Z</time></trkpt><trkpt lat="43.3196317" lon="10.6597617"><ele>40.666666666666664</ele><time>2026-05-05T08:10:38.642Z</time></trkpt><trkpt lat="43.3197067" lon="10.6600167"><ele>40.333333333333336</ele><time>2026-05-05T08:10:39.643Z</time></trkpt><trkpt lat="43.3197717" lon="10.6602517"><ele>40.0</ele><time>2026-05-05T08:10:40.643Z</time></trkpt><trkpt lat="43.3198283" lon="10.6605017"><ele>38.66666666666667</ele><time>2026-05-05T08:10:41.642Z</time></trkpt><trkpt lat="43.3198633" lon="10.66077"><ele>37.333333333333336</ele><time>2026-05-05T08:10:42.642Z</time></trkpt><trkpt lat="43.319895" lon="10.66102"><ele>36.0</ele><time>2026-05-05T08:10:43.643Z</time></trkpt><trkpt lat="43.3198967" lon="10.6612833"><ele>36.0</ele><time>2026-05-05T08:10:44.643Z</time></trkpt><trkpt lat="43.3198967" lon="10.6615517"><ele>36.0</ele><time>2026-05-05T08:10:45.643Z</time></trkpt><trkpt lat="43.3198883" lon="10.6618183"><ele>36.0</ele><time>2026-05-05T08:10:46.642Z</time></trkpt><trkpt lat="43.31988" lon="10.6621033"><ele>35.333333333333336</ele><time>2026-05-05T08:10:47.643Z</time></trkpt><trkpt lat="43.319875" lon="10.66239"><ele>34.66666666666667</ele><time>2026-05-05T08:10:48.643Z</time></trkpt><trkpt lat="43.3198667" lon="10.6626817"><ele>34.0</ele><time>2026-05-05T08:10:49.642Z</time></trkpt><trkpt lat="43.3198567" lon="10.6629767"><ele>33.66666666666667</ele><time>2026-05-05T08:10:50.642Z</time></trkpt><trkpt lat="43.3198483" lon="10.6632667"><ele>33.333333333333336</ele><time>2026-05-05T08:10:51.643Z</time></trkpt><trkpt lat="43.3198483" lon="10.6635633"><ele>33.0</ele><time>2026-05-05T08:10:52.643Z</time></trkpt><trkpt lat="43.3198433" lon="10.66386"><ele>33.0</ele><time>2026-05-05T08:10:53.643Z</time></trkpt><trkpt lat="43.3198367" lon="10.664155"><ele>33.0</ele><time>2026-05-05T08:10:54.643Z</time></trkpt><trkpt lat="43.3198333" lon="10.6644433"><ele>33.0</ele><time>2026-05-05T08:10:55.643Z</time></trkpt><trkpt lat="43.319825" lon="10.6647383"><ele>34.0</ele><time>2026-05-05T08:10:56.643Z</time></trkpt><trkpt lat="43.3198233" lon="10.6650333"><ele>35.0</ele><time>2026-05-05T08:10:57.642Z</time></trkpt><trkpt lat="43.3198267" lon="10.66533"><ele>36.0</ele><time>2026-05-05T08:10:58.642Z</time></trkpt><trkpt lat="43.31981" lon="10.66562"><ele>36.0</ele><time>2026-05-05T08:10:59.643Z</time></trkpt><trkpt lat="43.3198067" lon="10.6659067"><ele>36.0</ele><time>2026-05-05T08:11:00.643Z</time></trkpt><trkpt lat="43.3198" lon="10.66619"><ele>36.0</ele><time>2026-05-05T08:11:01.643Z</time></trkpt><trkpt lat="43.3197983" lon="10.66647"><ele>36.0</ele><time>2026-05-05T08:11:02.643Z</time></trkpt><trkpt lat="43.3197917" lon="10.6667433"><ele>36.0</ele><time>2026-05-05T08:11:03.642Z</time></trkpt><trkpt lat="43.3198033" lon="10.6670183"><ele>36.0</ele><time>2026-05-05T08:11:04.642Z</time></trkpt><trkpt lat="43.3198267" lon="10.6672917"><ele>36.0</ele><time>2026-05-05T08:11:05.643Z</time></trkpt><trkpt lat="43.31986" lon="10.6675617"><ele>36.0</ele><time>2026-05-05T08:11:06.643Z</time></trkpt><trkpt lat="43.3199017" lon="10.6678267"><ele>36.0</ele><time>2026-05-05T08:11:07.643Z</time></trkpt><trkpt lat="43.31994" lon="10.6680933"><ele>35.666666666666664</ele><time>2026-05-05T08:11:08.642Z</time></trkpt><trkpt lat="43.3199733" lon="10.6683483"><ele>35.33333333333333</ele><time>2026-05-05T08:11:09.643Z</time></trkpt><trkpt lat="43.3199933" lon="10.6685917"><ele>35.0</ele><time>2026-05-05T08:11:10.643Z</time></trkpt><trkpt lat="43.3200133" lon="10.66882"><ele>34.666666666666664</ele><time>2026-05-05T08:11:11.643Z</time></trkpt><trkpt lat="43.3200483" lon="10.6690433"><ele>34.333333333333336</ele><time>2026-05-05T08:11:12.643Z</time></trkpt><trkpt lat="43.3200783" lon="10.6692483"><ele>34.0</ele><time>2026-05-05T08:11:13.643Z</time></trkpt><trkpt lat="43.3200983" lon="10.669435"><ele>34.6</ele><time>2026-05-05T08:11:14.643Z</time></trkpt><trkpt lat="43.3201133" lon="10.6696133"><ele>35.2</ele><time>2026-05-05T08:11:15.642Z</time></trkpt><trkpt lat="43.320125" lon="10.669755"><ele>35.800000000000004</ele><time>2026-05-05T08:11:16.642Z</time></trkpt><trkpt lat="43.3201283" lon="10.669865"><ele>36.4</ele><time>2026-05-05T08:11:17.642Z</time></trkpt><trkpt lat="43.3201133" lon="10.670005"><ele>37.0</ele><time>2026-05-05T08:11:19.642Z</time></trkpt><trkpt lat="43.3200333" lon="10.6700433"><ele>37.0</ele><time>2026-05-05T08:11:27.643Z</time></trkpt><trkpt lat="43.31997" lon="10.670065"><ele>37.0</ele><time>2026-05-05T08:11:28.643Z</time></trkpt><trkpt lat="43.3198917" lon="10.6700783"><ele>37.0</ele><time>2026-05-05T08:11:29.643Z</time></trkpt><trkpt lat="43.3197967" lon="10.6700967"><ele>37.0</ele><time>2026-05-05T08:11:30.642Z</time></trkpt><trkpt lat="43.3196933" lon="10.6701283"><ele>37.0</ele><time>2026-05-05T08:11:31.643Z</time></trkpt><trkpt lat="43.319585" lon="10.670155"><ele>36.75</ele><time>2026-05-05T08:11:32.643Z</time></trkpt><trkpt lat="43.319465" lon="10.6701917"><ele>36.5</ele><time>2026-05-05T08:11:33.643Z</time></trkpt><trkpt lat="43.31934" lon="10.6702317"><ele>36.25</ele><time>2026-05-05T08:11:34.643Z</time></trkpt><trkpt lat="43.3192" lon="10.6702767"><ele>36.0</ele><time>2026-05-05T08:11:35.642Z</time></trkpt><trkpt lat="43.3190583" lon="10.6703383"><ele>36.0</ele><time>2026-05-05T08:11:36.642Z</time></trkpt><trkpt lat="43.3189067" lon="10.670405"><ele>36.0</ele><time>2026-05-05T08:11:37.643Z</time></trkpt><trkpt lat="43.3187417" lon="10.6704717"><ele>36.0</ele><time>2026-05-05T08:11:38.643Z</time></trkpt><trkpt lat="43.3185783" lon="10.670555"><ele>36.0</ele><time>2026-05-05T08:11:39.643Z</time></trkpt><trkpt lat="43.3184117" lon="10.6706267"><ele>36.0</ele><time>2026-05-05T08:11:40.643Z</time></trkpt><trkpt lat="43.3182467" lon="10.6707183"><ele>36.0</ele><time>2026-05-05T08:11:41.642Z</time></trkpt><trkpt lat="43.31807" lon="10.6708117"><ele>36.333333333333336</ele><time>2026-05-05T08:11:42.643Z</time></trkpt><trkpt lat="43.3178983" lon="10.670915"><ele>36.66666666666667</ele><time>2026-05-05T08:11:43.643Z</time></trkpt><trkpt lat="43.3177183" lon="10.6710383"><ele>37.0</ele><time>2026-05-05T08:11:44.642Z</time></trkpt><trkpt lat="43.3175483" lon="10.6711767"><ele>37.333333333333336</ele><time>2026-05-05T08:11:45.643Z</time></trkpt><trkpt lat="43.31738" lon="10.6713017"><ele>37.666666666666664</ele><time>2026-05-05T08:11:46.643Z</time></trkpt><trkpt lat="43.3172067" lon="10.67144"><ele>38.0</ele><time>2026-05-05T08:11:47.643Z</time></trkpt><trkpt lat="43.3170333" lon="10.6715783"><ele>38.33333333333333</ele><time>2026-05-05T08:11:48.642Z</time></trkpt><trkpt lat="43.3168667" lon="10.6717217"><ele>38.666666666666664</ele><time>2026-05-05T08:11:49.642Z</time></trkpt><trkpt lat="43.3166967" lon="10.671875"><ele>39.0</ele><time>2026-05-05T08:11:50.642Z</time></trkpt><trkpt lat="43.316525" lon="10.6720333"><ele>39.0</ele><time>2026-05-05T08:11:51.643Z</time></trkpt><trkpt lat="43.3163533" lon="10.6721883"><ele>39.0</ele><time>2026-05-05T08:11:52.643Z</time></trkpt><trkpt lat="43.3161833" lon="10.6723483"><ele>39.0</ele><time>2026-05-05T08:11:53.643Z</time></trkpt><trkpt lat="43.3160067" lon="10.6725"><ele>39.0</ele><time>2026-05-05T08:11:54.643Z</time></trkpt><trkpt lat="43.3158317" lon="10.6726483"><ele>39.0</ele><time>2026-05-05T08:11:55.643Z</time></trkpt><trkpt lat="43.3156617" lon="10.6728"><ele>39.0</ele><time>2026-05-05T08:11:56.643Z</time></trkpt><trkpt lat="43.31548" lon="10.6729567"><ele>39.666666666666664</ele><time>2026-05-05T08:11:57.643Z</time></trkpt><trkpt lat="43.3153117" lon="10.6731117"><ele>40.33333333333333</ele><time>2026-05-05T08:11:58.643Z</time></trkpt><trkpt lat="43.3151417" lon="10.6732533"><ele>41.0</ele><time>2026-05-05T08:11:59.642Z</time></trkpt><trkpt lat="43.3149733" lon="10.6734"><ele>41.0</ele><time>2026-05-05T08:12:00.643Z</time></trkpt><trkpt lat="43.314815" lon="10.6735433"><ele>41.0</ele><time>2026-05-05T08:12:01.643Z</time></trkpt><trkpt lat="43.3146583" lon="10.6736783"><ele>41.0</ele><time>2026-05-05T08:12:02.643Z</time></trkpt><trkpt lat="43.3145133" lon="10.673815"><ele>40.0</ele><time>2026-05-05T08:12:03.642Z</time></trkpt><trkpt lat="43.3143683" lon="10.673955"><ele>39.0</ele><time>2026-05-05T08:12:04.643Z</time></trkpt><trkpt lat="43.314235" lon="10.67411"><ele>38.0</ele><time>2026-05-05T08:12:05.642Z</time></trkpt><trkpt lat="43.3141" lon="10.6742617"><ele>38.0</ele><time>2026-05-05T08:12:06.643Z</time></trkpt><trkpt lat="43.3139633" lon="10.6744217"><ele>38.0</ele><time>2026-05-05T08:12:07.643Z</time></trkpt><trkpt lat="43.3138383" lon="10.67457"><ele>38.0</ele><time>2026-05-05T08:12:08.643Z</time></trkpt><trkpt lat="43.3137183" lon="10.674715"><ele>39.0</ele><time>2026-05-05T08:12:09.643Z</time></trkpt><trkpt lat="43.3136033" lon="10.6748533"><ele>40.0</ele><time>2026-05-05T08:12:10.643Z</time></trkpt><trkpt lat="43.313485" lon="10.6749967"><ele>41.0</ele><time>2026-05-05T08:12:11.642Z</time></trkpt><trkpt lat="43.3133667" lon="10.6751383"><ele>41.0</ele><time>2026-05-05T08:12:12.643Z</time></trkpt><trkpt lat="43.3132633" lon="10.675265"><ele>41.0</ele><time>2026-05-05T08:12:13.642Z</time></trkpt><trkpt lat="43.3131683" lon="10.6753917"><ele>41.0</ele><time>2026-05-05T08:12:14.643Z</time></trkpt><trkpt lat="43.313075" lon="10.6755083"><ele>41.0</ele><time>2026-05-05T08:12:15.642Z</time></trkpt><trkpt lat="43.3130033" lon="10.6756033"><ele>40.666666666666664</ele><time>2026-05-05T08:12:16.643Z</time></trkpt><trkpt lat="43.3129267" lon="10.6756817"><ele>40.33333333333333</ele><time>2026-05-05T08:12:17.642Z</time></trkpt><trkpt lat="43.3128567" lon="10.675755"><ele>40.0</ele><time>2026-05-05T08:12:18.643Z</time></trkpt><trkpt lat="43.3127967" lon="10.675825"><ele>39.666666666666664</ele><time>2026-05-05T08:12:19.642Z</time></trkpt><trkpt lat="43.3127633" lon="10.6759"><ele>39.333333333333336</ele><time>2026-05-05T08:12:20.642Z</time></trkpt><trkpt lat="43.312775" lon="10.6760267"><ele>39.0</ele><time>2026-05-05T08:12:22.642Z</time></trkpt><trkpt lat="43.3129" lon="10.676105"><ele>38.8</ele><time>2026-05-05T08:12:24.643Z</time></trkpt><trkpt lat="43.312995" lon="10.6761417"><ele>38.599999999999994</ele><time>2026-05-05T08:12:25.642Z</time></trkpt><trkpt lat="43.313105" lon="10.6762017"><ele>38.4</ele><time>2026-05-05T08:12:26.642Z</time></trkpt><trkpt lat="43.3132033" lon="10.6762717"><ele>38.199999999999996</ele><time>2026-05-05T08:12:27.643Z</time></trkpt><trkpt lat="43.3133033" lon="10.67634"><ele>38.0</ele><time>2026-05-05T08:12:28.643Z</time></trkpt><trkpt lat="43.3134" lon="10.6764133"><ele>38.4</ele><time>2026-05-05T08:12:29.643Z</time></trkpt><trkpt lat="43.3134883" lon="10.6764917"><ele>38.8</ele><time>2026-05-05T08:12:30.642Z</time></trkpt><trkpt lat="43.3135617" lon="10.6765967"><ele>39.2</ele><time>2026-05-05T08:12:31.643Z</time></trkpt><trkpt lat="43.31363" lon="10.6766933"><ele>39.6</ele><time>2026-05-05T08:12:32.643Z</time></trkpt><trkpt lat="43.31371" lon="10.6768383"><ele>40.0</ele><time>2026-05-05T08:12:33.643Z</time></trkpt><trkpt lat="43.3137733" lon="10.67699"><ele>40.0</ele><time>2026-05-05T08:12:34.643Z</time></trkpt><trkpt lat="43.3138183" lon="10.677155"><ele>40.0</ele><time>2026-05-05T08:12:35.643Z</time></trkpt><trkpt lat="43.3138533" lon="10.6773283"><ele>40.0</ele><time>2026-05-05T08:12:36.643Z</time></trkpt><trkpt lat="43.3138883" lon="10.6775033"><ele>40.0</ele><time>2026-05-05T08:12:37.643Z</time></trkpt><trkpt lat="43.3139317" lon="10.6776767"><ele>39.75</ele><time>2026-05-05T08:12:38.643Z</time></trkpt><trkpt lat="43.3139833" lon="10.6778517"><ele>39.5</ele><time>2026-05-05T08:12:39.642Z</time></trkpt><trkpt lat="43.31403" lon="10.6780333"><ele>39.25</ele><time>2026-05-05T08:12:40.642Z</time></trkpt><trkpt lat="43.3140833" lon="10.67822"><ele>39.0</ele><time>2026-05-05T08:12:41.643Z</time></trkpt><trkpt lat="43.3141383" lon="10.6784083"><ele>39.0</ele><time>2026-05-05T08:12:42.643Z</time></trkpt><trkpt lat="43.31418" lon="10.6786017"><ele>39.0</ele><time>2026-05-05T08:12:43.642Z</time></trkpt><trkpt lat="43.31423" lon="10.6787933"><ele>39.0</ele><time>2026-05-05T08:12:44.643Z</time></trkpt><trkpt lat="43.3142783" lon="10.6789733"><ele>39.0</ele><time>2026-05-05T08:12:45.643Z</time></trkpt><trkpt lat="43.3143233" lon="10.6791617"><ele>39.0</ele><time>2026-05-05T08:12:46.643Z</time></trkpt><trkpt lat="43.3143667" lon="10.679345"><ele>39.0</ele><time>2026-05-05T08:12:47.643Z</time></trkpt><trkpt lat="43.3144133" lon="10.6795267"><ele>39.0</ele><time>2026-05-05T08:12:48.642Z</time></trkpt><trkpt lat="43.3144433" lon="10.6797083"><ele>39.0</ele><time>2026-05-05T08:12:49.643Z</time></trkpt><trkpt lat="43.31445" lon="10.6798883"><ele>39.5</ele><time>2026-05-05T08:12:50.643Z</time></trkpt><trkpt lat="43.3144383" lon="10.68008"><ele>40.0</ele><time>2026-05-05T08:12:51.643Z</time></trkpt><trkpt lat="43.3144117" lon="10.6802683"><ele>40.5</ele><time>2026-05-05T08:12:52.643Z</time></trkpt><trkpt lat="43.3143833" lon="10.6804717"><ele>41.0</ele><time>2026-05-05T08:12:53.643Z</time></trkpt><trkpt lat="43.3143467" lon="10.6806767"><ele>41.33333333333333</ele><time>2026-05-05T08:12:54.642Z</time></trkpt><trkpt lat="43.31431" lon="10.6808783"><ele>41.666666666666664</ele><time>2026-05-05T08:12:55.643Z</time></trkpt><trkpt lat="43.31428" lon="10.6810833"><ele>42.0</ele><time>2026-05-05T08:12:56.642Z</time></trkpt><trkpt lat="43.3142617" lon="10.6812983"><ele>42.0</ele><time>2026-05-05T08:12:57.643Z</time></trkpt><trkpt lat="43.3142467" lon="10.6815067"><ele>42.0</ele><time>2026-05-05T08:12:58.643Z</time></trkpt><trkpt lat="43.3142183" lon="10.68173"><ele>42.0</ele><time>2026-05-05T08:12:59.643Z</time></trkpt><trkpt lat="43.31419" lon="10.6819433"><ele>42.333333333333336</ele><time>2026-05-05T08:13:00.643Z</time></trkpt><trkpt lat="43.314155" lon="10.6821467"><ele>42.66666666666667</ele><time>2026-05-05T08:13:01.642Z</time></trkpt><trkpt lat="43.3141133" lon="10.6823633"><ele>43.0</ele><time>2026-05-05T08:13:02.642Z</time></trkpt><trkpt lat="43.3140783" lon="10.6825717"><ele>43.25</ele><time>2026-05-05T08:13:03.642Z</time></trkpt><trkpt lat="43.3140417" lon="10.6827817"><ele>43.5</ele><time>2026-05-05T08:13:04.643Z</time></trkpt><trkpt lat="43.3140067" lon="10.6829817"><ele>43.75</ele><time>2026-05-05T08:13:05.643Z</time></trkpt><trkpt lat="43.3139767" lon="10.68316"><ele>44.0</ele><time>2026-05-05T08:13:06.643Z</time></trkpt><trkpt lat="43.3139567" lon="10.683335"><ele>44.0</ele><time>2026-05-05T08:13:07.642Z</time></trkpt><trkpt lat="43.3139683" lon="10.683485"><ele>44.0</ele><time>2026-05-05T08:13:08.643Z</time></trkpt><trkpt lat="43.3139867" lon="10.6836433"><ele>44.0</ele><time>2026-05-05T08:13:09.643Z</time></trkpt><trkpt lat="43.3140267" lon="10.6838267"><ele>44.0</ele><time>2026-05-05T08:13:10.643Z</time></trkpt><trkpt lat="43.31408" lon="10.6840167"><ele>45.0</ele><time>2026-05-05T08:13:11.643Z</time></trkpt><trkpt lat="43.3141483" lon="10.6842183"><ele>46.0</ele><time>2026-05-05T08:13:12.642Z</time></trkpt><trkpt lat="43.314215" lon="10.6844183"><ele>47.0</ele><time>2026-05-05T08:13:13.643Z</time></trkpt><trkpt lat="43.3142717" lon="10.6846133"><ele>47.25</ele><time>2026-05-05T08:13:14.643Z</time></trkpt><trkpt lat="43.3143217" lon="10.6848017"><ele>47.5</ele><time>2026-05-05T08:13:15.642Z</time></trkpt><trkpt lat="43.314375" lon="10.684985"><ele>47.75</ele><time>2026-05-05T08:13:16.642Z</time></trkpt><trkpt lat="43.314415" lon="10.6851683"><ele>48.0</ele><time>2026-05-05T08:13:17.643Z</time></trkpt><trkpt lat="43.3144567" lon="10.6853517"><ele>49.0</ele><time>2026-05-05T08:13:18.642Z</time></trkpt><trkpt lat="43.3144767" lon="10.685535"><ele>50.0</ele><time>2026-05-05T08:13:19.643Z</time></trkpt><trkpt lat="43.3144633" lon="10.6857167"><ele>51.0</ele><time>2026-05-05T08:13:20.643Z</time></trkpt><trkpt lat="43.31444" lon="10.6858967"><ele>52.0</ele><time>2026-05-05T08:13:21.643Z</time></trkpt><trkpt lat="43.314405" lon="10.686075"><ele>52.75</ele><time>2026-05-05T08:13:22.643Z</time></trkpt><trkpt lat="43.314365" lon="10.68625"><ele>53.5</ele><time>2026-05-05T08:13:23.643Z</time></trkpt><trkpt lat="43.3143267" lon="10.6864317"><ele>54.25</ele><time>2026-05-05T08:13:24.643Z</time></trkpt><trkpt lat="43.31429" lon="10.68661"><ele>55.0</ele><time>2026-05-05T08:13:25.643Z</time></trkpt><trkpt lat="43.3142383" lon="10.68678"><ele>56.5</ele><time>2026-05-05T08:13:26.643Z</time></trkpt><trkpt lat="43.314185" lon="10.686945"><ele>58.0</ele><time>2026-05-05T08:13:27.642Z</time></trkpt><trkpt lat="43.314125" lon="10.6870983"><ele>59.5</ele><time>2026-05-05T08:13:28.643Z</time></trkpt><trkpt lat="43.3140617" lon="10.6872383"><ele>61.0</ele><time>2026-05-05T08:13:29.642Z</time></trkpt><trkpt lat="43.314015" lon="10.687375"><ele>61.0</ele><time>2026-05-05T08:13:30.643Z</time></trkpt><trkpt lat="43.31399" lon="10.68751"><ele>60.99999999999999</ele><time>2026-05-05T08:13:31.643Z</time></trkpt><trkpt lat="43.3139783" lon="10.6876433"><ele>60.99999999999999</ele><time>2026-05-05T08:13:32.643Z</time></trkpt><trkpt lat="43.3139783" lon="10.6877783"><ele>61.0</ele><time>2026-05-05T08:13:33.643Z</time></trkpt><trkpt lat="43.3139933" lon="10.6879283"><ele>61.0</ele><time>2026-05-05T08:13:34.643Z</time></trkpt><trkpt lat="43.3140167" lon="10.6880783"><ele>61.25</ele><time>2026-05-05T08:13:35.642Z</time></trkpt><trkpt lat="43.3140417" lon="10.6882383"><ele>61.5</ele><time>2026-05-05T08:13:36.643Z</time></trkpt><trkpt lat="43.3141" lon="10.6883883"><ele>61.75</ele><time>2026-05-05T08:13:37.643Z</time></trkpt><trkpt lat="43.31417" lon="10.6885283"><ele>62.0</ele><time>2026-05-05T08:13:38.643Z</time></trkpt><trkpt lat="43.3142517" lon="10.6886617"><ele>62.75</ele><time>2026-05-05T08:13:39.643Z</time></trkpt><trkpt lat="43.31433" lon="10.6887867"><ele>63.5</ele><time>2026-05-05T08:13:40.642Z</time></trkpt><trkpt lat="43.3143933" lon="10.688915"><ele>64.25</ele><time>2026-05-05T08:13:41.643Z</time></trkpt><trkpt lat="43.3144367" lon="10.689055"><ele>65.0</ele><time>2026-05-05T08:13:42.642Z</time></trkpt><trkpt lat="43.3144817" lon="10.6892"><ele>65.0</ele><time>2026-05-05T08:13:43.642Z</time></trkpt><trkpt lat="43.3145167" lon="10.68939"><ele>65.0</ele><time>2026-05-05T08:13:44.642Z</time></trkpt><trkpt lat="43.3145433" lon="10.6895883"><ele>65.0</ele><time>2026-05-05T08:13:45.643Z</time></trkpt><trkpt lat="43.3145533" lon="10.68978"><ele>65.0</ele><time>2026-05-05T08:13:46.642Z</time></trkpt><trkpt lat="43.314555" lon="10.689965"><ele>66.5</ele><time>2026-05-05T08:13:47.643Z</time></trkpt><trkpt lat="43.3145467" lon="10.6901583"><ele>68.0</ele><time>2026-05-05T08:13:48.643Z</time></trkpt><trkpt lat="43.3145433" lon="10.69034"><ele>69.5</ele><time>2026-05-05T08:13:49.643Z</time></trkpt><trkpt lat="43.3145283" lon="10.6905183"><ele>71.0</ele><time>2026-05-05T08:13:50.643Z</time></trkpt><trkpt lat="43.3145017" lon="10.6907033"><ele>70.75</ele><time>2026-05-05T08:13:51.643Z</time></trkpt><trkpt lat="43.314475" lon="10.6908817"><ele>70.5</ele><time>2026-05-05T08:13:52.643Z</time></trkpt><trkpt lat="43.3144417" lon="10.691065"><ele>70.25</ele><time>2026-05-05T08:13:53.643Z</time></trkpt><trkpt lat="43.3143933" lon="10.6912367"><ele>70.0</ele><time>2026-05-05T08:13:54.643Z</time></trkpt><trkpt lat="43.314335" lon="10.6914183"><ele>70.0</ele><time>2026-05-05T08:13:55.643Z</time></trkpt><trkpt lat="43.31428" lon="10.6915883"><ele>70.0</ele><time>2026-05-05T08:13:56.642Z</time></trkpt><trkpt lat="43.3142167" lon="10.691755"><ele>70.0</ele><time>2026-05-05T08:13:57.642Z</time></trkpt><trkpt lat="43.314175" lon="10.691905"><ele>70.0</ele><time>2026-05-05T08:13:58.643Z</time></trkpt><trkpt lat="43.31414" lon="10.6920617"><ele>70.0</ele><time>2026-05-05T08:13:59.642Z</time></trkpt><trkpt lat="43.314115" lon="10.692215"><ele>70.0</ele><time>2026-05-05T08:14:00.642Z</time></trkpt><trkpt lat="43.31409" lon="10.692365"><ele>70.0</ele><time>2026-05-05T08:14:01.643Z</time></trkpt><trkpt lat="43.3140633" lon="10.6925333"><ele>70.0</ele><time>2026-05-05T08:14:02.643Z</time></trkpt><trkpt lat="43.3140267" lon="10.6926967"><ele>70.25</ele><time>2026-05-05T08:14:03.642Z</time></trkpt><trkpt lat="43.313975" lon="10.6928667"><ele>70.5</ele><time>2026-05-05T08:14:04.643Z</time></trkpt><trkpt lat="43.3139033" lon="10.693035"><ele>70.75</ele><time>2026-05-05T08:14:05.643Z</time></trkpt><trkpt lat="43.31383" lon="10.6931967"><ele>71.0</ele><time>2026-05-05T08:14:06.643Z</time></trkpt><trkpt lat="43.31376" lon="10.69337"><ele>74.0</ele><time>2026-05-05T08:14:07.642Z</time></trkpt><trkpt lat="43.3136867" lon="10.6935317"><ele>77.0</ele><time>2026-05-05T08:14:08.643Z</time></trkpt><trkpt lat="43.3136167" lon="10.6936933"><ele>80.0</ele><time>2026-05-05T08:14:09.643Z</time></trkpt><trkpt lat="43.31355" lon="10.6938533"><ele>83.0</ele><time>2026-05-05T08:14:10.642Z</time></trkpt><trkpt lat="43.3135" lon="10.6940017"><ele>83.0</ele><time>2026-05-05T08:14:11.642Z</time></trkpt><trkpt lat="43.31347" lon="10.6941317"><ele>83.0</ele><time>2026-05-05T08:14:12.643Z</time></trkpt><trkpt lat="43.3134667" lon="10.694245"><ele>83.0</ele><time>2026-05-05T08:14:13.643Z</time></trkpt><trkpt lat="43.3134883" lon="10.6943717"><ele>83.0</ele><time>2026-05-05T08:14:14.643Z</time></trkpt><trkpt lat="43.313545" lon="10.6944983"><ele>83.0</ele><time>2026-05-05T08:14:15.642Z</time></trkpt><trkpt lat="43.3136167" lon="10.69461"><ele>84.0</ele><time>2026-05-05T08:14:16.643Z</time></trkpt><trkpt lat="43.31371" lon="10.6946883"><ele>85.0</ele><time>2026-05-05T08:14:17.643Z</time></trkpt><trkpt lat="43.3137983" lon="10.69476"><ele>86.0</ele><time>2026-05-05T08:14:18.643Z</time></trkpt><trkpt lat="43.3138717" lon="10.6948483"><ele>87.0</ele><time>2026-05-05T08:14:19.643Z</time></trkpt><trkpt lat="43.3139283" lon="10.694955"><ele>88.0</ele><time>2026-05-05T08:14:20.643Z</time></trkpt><trkpt lat="43.313965" lon="10.695085"><ele>88.0</ele><time>2026-05-05T08:14:21.642Z</time></trkpt><trkpt lat="43.3139617" lon="10.69523"><ele>88.0</ele><time>2026-05-05T08:14:22.642Z</time></trkpt><trkpt lat="43.3139217" lon="10.69538"><ele>88.0</ele><time>2026-05-05T08:14:23.642Z</time></trkpt><trkpt lat="43.3138583" lon="10.695515"><ele>88.0</ele><time>2026-05-05T08:14:24.643Z</time></trkpt><trkpt lat="43.3137767" lon="10.6956533"><ele>88.0</ele><time>2026-05-05T08:14:25.642Z</time></trkpt><trkpt lat="43.3136883" lon="10.6958033"><ele>88.0</ele><time>2026-05-05T08:14:26.642Z</time></trkpt><trkpt lat="43.3135917" lon="10.6959517"><ele>88.0</ele><time>2026-05-05T08:14:27.643Z</time></trkpt><trkpt lat="43.313495" lon="10.6960917"><ele>88.0</ele><time>2026-05-05T08:14:28.643Z</time></trkpt><trkpt lat="43.3133917" lon="10.6962467"><ele>87.25</ele><time>2026-05-05T08:14:29.643Z</time></trkpt><trkpt lat="43.3133067" lon="10.6964033"><ele>86.5</ele><time>2026-05-05T08:14:30.641Z</time></trkpt><trkpt lat="43.3132333" lon="10.69656"><ele>85.75</ele><time>2026-05-05T08:14:31.642Z</time></trkpt><trkpt lat="43.313175" lon="10.696705"><ele>85.0</ele><time>2026-05-05T08:14:32.641Z</time></trkpt><trkpt lat="43.3131267" lon="10.6968333"><ele>85.5</ele><time>2026-05-05T08:14:33.641Z</time></trkpt><trkpt lat="43.31309" lon="10.6969367"><ele>86.0</ele><time>2026-05-05T08:14:34.642Z</time></trkpt><trkpt lat="43.3130867" lon="10.697055"><ele>86.5</ele><time>2026-05-05T08:14:35.642Z</time></trkpt><trkpt lat="43.3130967" lon="10.6971767"><ele>87.0</ele><time>2026-05-05T08:14:36.642Z</time></trkpt><trkpt lat="43.3131383" lon="10.69727"><ele>87.5</ele><time>2026-05-05T08:14:37.642Z</time></trkpt><trkpt lat="43.3131933" lon="10.6973267"><ele>88.0</ele><time>2026-05-05T08:14:38.641Z</time></trkpt><trkpt lat="43.31325" lon="10.6973717"><ele>88.0</ele><time>2026-05-05T08:14:39.642Z</time></trkpt><trkpt lat="43.313355" lon="10.6972983"><ele>88.0</ele><time>2026-05-05T08:14:40.641Z</time></trkpt><trkpt lat="43.31345" lon="10.6972183"><ele>88.0</ele><time>2026-05-05T08:14:41.642Z</time></trkpt><trkpt lat="43.3135467" lon="10.6971383"><ele>88.0</ele><time>2026-05-05T08:14:42.641Z</time></trkpt><trkpt lat="43.3136567" lon="10.6970867"><ele>88.0</ele><time>2026-05-05T08:14:43.642Z</time></trkpt><trkpt lat="43.31376" lon="10.6970567"><ele>88.0</ele><time>2026-05-05T08:14:44.642Z</time></trkpt><trkpt lat="43.3138617" lon="10.697055"><ele>88.0</ele><time>2026-05-05T08:14:45.642Z</time></trkpt><trkpt lat="43.3139633" lon="10.6970933"><ele>88.0</ele><time>2026-05-05T08:14:46.641Z</time></trkpt><trkpt lat="43.3140267" lon="10.6971833"><ele>88.0</ele><time>2026-05-05T08:14:47.641Z</time></trkpt><trkpt lat="43.3140633" lon="10.6973"><ele>87.60000000000001</ele><time>2026-05-05T08:14:48.642Z</time></trkpt><trkpt lat="43.3140783" lon="10.69743"><ele>87.2</ele><time>2026-05-05T08:14:49.642Z</time></trkpt><trkpt lat="43.3140733" lon="10.6975833"><ele>86.8</ele><time>2026-05-05T08:14:50.641Z</time></trkpt><trkpt lat="43.3140667" lon="10.6977367"><ele>86.4</ele><time>2026-05-05T08:14:51.642Z</time></trkpt><trkpt lat="43.3140683" lon="10.6978983"><ele>86.0</ele><time>2026-05-05T08:14:52.642Z</time></trkpt><trkpt lat="43.3140617" lon="10.6980567"><ele>86.0</ele><time>2026-05-05T08:14:53.641Z</time></trkpt><trkpt lat="43.3140517" lon="10.6982283"><ele>86.0</ele><time>2026-05-05T08:14:54.642Z</time></trkpt><trkpt lat="43.3140467" lon="10.6984"><ele>86.0</ele><time>2026-05-05T08:14:55.642Z</time></trkpt><trkpt lat="43.3140367" lon="10.6985883"><ele>86.0</ele><time>2026-05-05T08:14:56.642Z</time></trkpt><trkpt lat="43.3140383" lon="10.6987633"><ele>87.5</ele><time>2026-05-05T08:14:57.642Z</time></trkpt><trkpt lat="43.3140267" lon="10.6989433"><ele>89.0</ele><time>2026-05-05T08:14:58.642Z</time></trkpt><trkpt lat="43.3140033" lon="10.699125"><ele>90.5</ele><time>2026-05-05T08:14:59.642Z</time></trkpt><trkpt lat="43.313965" lon="10.6993"><ele>92.0</ele><time>2026-05-05T08:15:00.641Z</time></trkpt><trkpt lat="43.313905" lon="10.6994717"><ele>93.25</ele><time>2026-05-05T08:15:01.642Z</time></trkpt><trkpt lat="43.313845" lon="10.6996467"><ele>94.5</ele><time>2026-05-05T08:15:02.642Z</time></trkpt><trkpt lat="43.3137933" lon="10.6998283"><ele>95.75</ele><time>2026-05-05T08:15:03.642Z</time></trkpt><trkpt lat="43.3137517" lon="10.7000067"><ele>97.0</ele><time>2026-05-05T08:15:04.642Z</time></trkpt><trkpt lat="43.3137133" lon="10.7001733"><ele>96.5</ele><time>2026-05-05T08:15:05.642Z</time></trkpt><trkpt lat="43.3136933" lon="10.7003567"><ele>96.0</ele><time>2026-05-05T08:15:06.641Z</time></trkpt><trkpt lat="43.3136767" lon="10.7005333"><ele>95.5</ele><time>2026-05-05T08:15:07.641Z</time></trkpt><trkpt lat="43.3136633" lon="10.70072"><ele>95.0</ele><time>2026-05-05T08:15:08.642Z</time></trkpt><trkpt lat="43.3136633" lon="10.7009"><ele>95.0</ele><time>2026-05-05T08:15:09.641Z</time></trkpt><trkpt lat="43.3136783" lon="10.7010633"><ele>95.0</ele><time>2026-05-05T08:15:10.641Z</time></trkpt><trkpt lat="43.3137183" lon="10.7012217"><ele>95.0</ele><time>2026-05-05T08:15:11.642Z</time></trkpt><trkpt lat="43.3137767" lon="10.7013533"><ele>95.0</ele><time>2026-05-05T08:15:12.642Z</time></trkpt><trkpt lat="43.3138467" lon="10.7014533"><ele>92.8</ele><time>2026-05-05T08:15:13.642Z</time></trkpt><trkpt lat="43.3139367" lon="10.701525"><ele>90.6</ele><time>2026-05-05T08:15:14.641Z</time></trkpt><trkpt lat="43.314015" lon="10.701595"><ele>88.4</ele><time>2026-05-05T08:15:15.642Z</time></trkpt><trkpt lat="43.3140883" lon="10.701675"><ele>86.2</ele><time>2026-05-05T08:15:16.642Z</time></trkpt><trkpt lat="43.3141283" lon="10.7017917"><ele>84.0</ele><time>2026-05-05T08:15:17.641Z</time></trkpt><trkpt lat="43.314145" lon="10.70192"><ele>82.75</ele><time>2026-05-05T08:15:18.642Z</time></trkpt><trkpt lat="43.31413" lon="10.7020633"><ele>81.5</ele><time>2026-05-05T08:15:19.642Z</time></trkpt><trkpt lat="43.3140933" lon="10.7022133"><ele>80.25</ele><time>2026-05-05T08:15:20.642Z</time></trkpt><trkpt lat="43.3140367" lon="10.702375"><ele>79.0</ele><time>2026-05-05T08:15:21.642Z</time></trkpt><trkpt lat="43.3139783" lon="10.702545"><ele>79.0</ele><time>2026-05-05T08:15:22.641Z</time></trkpt><trkpt lat="43.313925" lon="10.7027167"><ele>79.0</ele><time>2026-05-05T08:15:23.642Z</time></trkpt><trkpt lat="43.313865" lon="10.7028933"><ele>79.0</ele><time>2026-05-05T08:15:24.642Z</time></trkpt><trkpt lat="43.3137933" lon="10.7030867"><ele>79.0</ele><time>2026-05-05T08:15:25.642Z</time></trkpt><trkpt lat="43.313725" lon="10.7032783"><ele>79.5</ele><time>2026-05-05T08:15:26.641Z</time></trkpt><trkpt lat="43.31366" lon="10.7034483"><ele>80.0</ele><time>2026-05-05T08:15:27.642Z</time></trkpt><trkpt lat="43.313585" lon="10.7036033"><ele>80.5</ele><time>2026-05-05T08:15:28.641Z</time></trkpt><trkpt lat="43.3135" lon="10.7037867"><ele>81.0</ele><time>2026-05-05T08:15:29.642Z</time></trkpt><trkpt lat="43.3134217" lon="10.703945"><ele>79.33333333333333</ele><time>2026-05-05T08:15:30.641Z</time></trkpt><trkpt lat="43.313345" lon="10.7041233"><ele>77.66666666666666</ele><time>2026-05-05T08:15:31.642Z</time></trkpt><trkpt lat="43.3132733" lon="10.7043117"><ele>76.0</ele><time>2026-05-05T08:15:32.642Z</time></trkpt><trkpt lat="43.3132133" lon="10.704505"><ele>74.75</ele><time>2026-05-05T08:15:33.642Z</time></trkpt><trkpt lat="43.3131533" lon="10.704685"><ele>73.5</ele><time>2026-05-05T08:15:34.642Z</time></trkpt><trkpt lat="43.31311" lon="10.7048667"><ele>72.25</ele><time>2026-05-05T08:15:35.642Z</time></trkpt><trkpt lat="43.3130733" lon="10.7050567"><ele>71.0</ele><time>2026-05-05T08:15:36.641Z</time></trkpt><trkpt lat="43.313045" lon="10.7052617"><ele>70.66666666666667</ele><time>2026-05-05T08:15:37.642Z</time></trkpt><trkpt lat="43.3130117" lon="10.70547"><ele>70.33333333333333</ele><time>2026-05-05T08:15:38.642Z</time></trkpt><trkpt lat="43.312975" lon="10.7056817"><ele>70.0</ele><time>2026-05-05T08:15:39.641Z</time></trkpt><trkpt lat="43.3129233" lon="10.7059117"><ele>68.0</ele><time>2026-05-05T08:15:40.641Z</time></trkpt><trkpt lat="43.312865" lon="10.70611"><ele>66.0</ele><time>2026-05-05T08:15:41.641Z</time></trkpt><trkpt lat="43.3128033" lon="10.7062967"><ele>64.0</ele><time>2026-05-05T08:15:42.641Z</time></trkpt><trkpt lat="43.3127367" lon="10.706505"><ele>64.0</ele><time>2026-05-05T08:15:43.642Z</time></trkpt><trkpt lat="43.3126767" lon="10.7067267"><ele>64.0</ele><time>2026-05-05T08:15:44.642Z</time></trkpt><trkpt lat="43.3126167" lon="10.70693"><ele>64.0</ele><time>2026-05-05T08:15:45.641Z</time></trkpt><trkpt lat="43.3125367" lon="10.70713"><ele>63.33333333333333</ele><time>2026-05-05T08:15:46.642Z</time></trkpt><trkpt lat="43.3124567" lon="10.70732"><ele>62.66666666666667</ele><time>2026-05-05T08:15:47.642Z</time></trkpt><trkpt lat="43.3123733" lon="10.707515"><ele>62.0</ele><time>2026-05-05T08:15:48.642Z</time></trkpt><trkpt lat="43.312295" lon="10.7077233"><ele>61.333333333333336</ele><time>2026-05-05T08:15:49.642Z</time></trkpt><trkpt lat="43.3122217" lon="10.7079333"><ele>60.66666666666667</ele><time>2026-05-05T08:15:50.642Z</time></trkpt><trkpt lat="43.3121567" lon="10.7081267"><ele>60.0</ele><time>2026-05-05T08:15:51.642Z</time></trkpt><trkpt lat="43.3120783" lon="10.7083367"><ele>60.0</ele><time>2026-05-05T08:15:52.642Z</time></trkpt><trkpt lat="43.3120017" lon="10.7085333"><ele>60.0</ele><time>2026-05-05T08:15:53.642Z</time></trkpt><trkpt lat="43.3119233" lon="10.7087367"><ele>60.0</ele><time>2026-05-05T08:15:54.641Z</time></trkpt><trkpt lat="43.311845" lon="10.7089467"><ele>60.33333333333333</ele><time>2026-05-05T08:15:55.642Z</time></trkpt><trkpt lat="43.3117633" lon="10.709155"><ele>60.666666666666664</ele><time>2026-05-05T08:15:56.642Z</time></trkpt><trkpt lat="43.3116867" lon="10.70936"><ele>61.0</ele><time>2026-05-05T08:15:57.642Z</time></trkpt><trkpt lat="43.3116067" lon="10.7095733"><ele>61.0</ele><time>2026-05-05T08:15:58.641Z</time></trkpt><trkpt lat="43.3115317" lon="10.709775"><ele>61.0</ele><time>2026-05-05T08:15:59.641Z</time></trkpt><trkpt lat="43.31146" lon="10.7099717"><ele>61.0</ele><time>2026-05-05T08:16:00.642Z</time></trkpt><trkpt lat="43.3113867" lon="10.71017"><ele>61.33333333333333</ele><time>2026-05-05T08:16:01.641Z</time></trkpt><trkpt lat="43.3113167" lon="10.7103717"><ele>61.66666666666667</ele><time>2026-05-05T08:16:02.642Z</time></trkpt><trkpt lat="43.311245" lon="10.7105767"><ele>62.0</ele><time>2026-05-05T08:16:03.641Z</time></trkpt><trkpt lat="43.3111733" lon="10.710775"><ele>62.0</ele><time>2026-05-05T08:16:04.642Z</time></trkpt><trkpt lat="43.3111067" lon="10.71096"><ele>62.0</ele><time>2026-05-05T08:16:05.641Z</time></trkpt><trkpt lat="43.311045" lon="10.711145"><ele>62.0</ele><time>2026-05-05T08:16:06.642Z</time></trkpt><trkpt lat="43.3109683" lon="10.7113267"><ele>62.333333333333336</ele><time>2026-05-05T08:16:07.641Z</time></trkpt><trkpt lat="43.3109017" lon="10.7115133"><ele>62.66666666666667</ele><time>2026-05-05T08:16:08.642Z</time></trkpt><trkpt lat="43.310825" lon="10.7117017"><ele>63.0</ele><time>2026-05-05T08:16:09.642Z</time></trkpt><trkpt lat="43.3107483" lon="10.7118817"><ele>63.0</ele><time>2026-05-05T08:16:10.642Z</time></trkpt><trkpt lat="43.3106783" lon="10.7120767"><ele>63.0</ele><time>2026-05-05T08:16:11.642Z</time></trkpt><trkpt lat="43.3106" lon="10.7122617"><ele>63.0</ele><time>2026-05-05T08:16:12.641Z</time></trkpt><trkpt lat="43.3105417" lon="10.7124467"><ele>63.0</ele><time>2026-05-05T08:16:13.642Z</time></trkpt><trkpt lat="43.3104867" lon="10.7126367"><ele>63.0</ele><time>2026-05-05T08:16:14.641Z</time></trkpt><trkpt lat="43.3104517" lon="10.7128383"><ele>63.0</ele><time>2026-05-05T08:16:15.641Z</time></trkpt><trkpt lat="43.3104183" lon="10.7130467"><ele>63.66666666666667</ele><time>2026-05-05T08:16:16.642Z</time></trkpt><trkpt lat="43.3104217" lon="10.7132517"><ele>64.33333333333334</ele><time>2026-05-05T08:16:17.642Z</time></trkpt><trkpt lat="43.3104317" lon="10.7134633"><ele>65.0</ele><time>2026-05-05T08:16:18.642Z</time></trkpt><trkpt lat="43.310435" lon="10.71369"><ele>66.0</ele><time>2026-05-05T08:16:19.642Z</time></trkpt><trkpt lat="43.310445" lon="10.71392"><ele>67.0</ele><time>2026-05-05T08:16:20.642Z</time></trkpt><trkpt lat="43.3104433" lon="10.7141467"><ele>68.0</ele><time>2026-05-05T08:16:21.642Z</time></trkpt><trkpt lat="43.3104433" lon="10.71436"><ele>67.75</ele><time>2026-05-05T08:16:22.641Z</time></trkpt><trkpt lat="43.3104533" lon="10.71457"><ele>67.5</ele><time>2026-05-05T08:16:23.641Z</time></trkpt><trkpt lat="43.3104783" lon="10.7147667"><ele>67.25</ele><time>2026-05-05T08:16:24.641Z</time></trkpt><trkpt lat="43.310515" lon="10.714965"><ele>67.0</ele><time>2026-05-05T08:16:25.642Z</time></trkpt><trkpt lat="43.3105667" lon="10.7151767"><ele>69.0</ele><time>2026-05-05T08:16:26.642Z</time></trkpt><trkpt lat="43.3106233" lon="10.71537"><ele>71.0</ele><time>2026-05-05T08:16:27.642Z</time></trkpt><trkpt lat="43.3106783" lon="10.71558"><ele>73.0</ele><time>2026-05-05T08:16:28.642Z</time></trkpt><trkpt lat="43.3107467" lon="10.715785"><ele>73.0</ele><time>2026-05-05T08:16:29.642Z</time></trkpt><trkpt lat="43.3107983" lon="10.7159817"><ele>73.0</ele><time>2026-05-05T08:16:30.642Z</time></trkpt><trkpt lat="43.3108533" lon="10.7161783"><ele>73.0</ele><time>2026-05-05T08:16:31.641Z</time></trkpt><trkpt lat="43.310885" lon="10.7163867"><ele>74.0</ele><time>2026-05-05T08:16:32.642Z</time></trkpt><trkpt lat="43.3109083" lon="10.7165817"><ele>75.0</ele><time>2026-05-05T08:16:33.641Z</time></trkpt><trkpt lat="43.3109183" lon="10.7167867"><ele>76.0</ele><time>2026-05-05T08:16:34.641Z</time></trkpt><trkpt lat="43.3108983" lon="10.716985"><ele>77.0</ele><time>2026-05-05T08:16:35.642Z</time></trkpt><trkpt lat="43.3108883" lon="10.71719"><ele>78.25</ele><time>2026-05-05T08:16:36.642Z</time></trkpt><trkpt lat="43.3108667" lon="10.7173883"><ele>79.5</ele><time>2026-05-05T08:16:37.642Z</time></trkpt><trkpt lat="43.31085" lon="10.7175833"><ele>80.75</ele><time>2026-05-05T08:16:38.642Z</time></trkpt><trkpt lat="43.31085" lon="10.7177867"><ele>82.0</ele><time>2026-05-05T08:16:39.641Z</time></trkpt><trkpt lat="43.3108783" lon="10.7179717"><ele>82.0</ele><time>2026-05-05T08:16:40.642Z</time></trkpt><trkpt lat="43.310905" lon="10.71816"><ele>82.0</ele><time>2026-05-05T08:16:41.641Z</time></trkpt><trkpt lat="43.3109583" lon="10.7183467"><ele>82.0</ele><time>2026-05-05T08:16:42.641Z</time></trkpt><trkpt lat="43.3110267" lon="10.718515"><ele>82.0</ele><time>2026-05-05T08:16:43.642Z</time></trkpt><trkpt lat="43.3111033" lon="10.71868"><ele>82.0</ele><time>2026-05-05T08:16:44.642Z</time></trkpt><trkpt lat="43.3111767" lon="10.71885"><ele>82.0</ele><time>2026-05-05T08:16:45.641Z</time></trkpt><trkpt lat="43.3112533" lon="10.718995"><ele>82.0</ele><time>2026-05-05T08:16:46.642Z</time></trkpt><trkpt lat="43.3113183" lon="10.71917"><ele>82.0</ele><time>2026-05-05T08:16:47.641Z</time></trkpt><trkpt lat="43.3113867" lon="10.7193333"><ele>84.5</ele><time>2026-05-05T08:16:48.642Z</time></trkpt><trkpt lat="43.3114633" lon="10.71949"><ele>87.0</ele><time>2026-05-05T08:16:49.642Z</time></trkpt><trkpt lat="43.31154" lon="10.719655"><ele>89.5</ele><time>2026-05-05T08:16:50.641Z</time></trkpt><trkpt lat="43.3116217" lon="10.7198383"><ele>92.0</ele><time>2026-05-05T08:16:51.642Z</time></trkpt><trkpt lat="43.3116983" lon="10.7200267"><ele>92.0</ele><time>2026-05-05T08:16:52.642Z</time></trkpt><trkpt lat="43.311775" lon="10.720205"><ele>92.0</ele><time>2026-05-05T08:16:53.641Z</time></trkpt><trkpt lat="43.31185" lon="10.7203983"><ele>92.0</ele><time>2026-05-05T08:16:54.642Z</time></trkpt><trkpt lat="43.3119183" lon="10.720575"><ele>92.5</ele><time>2026-05-05T08:16:55.641Z</time></trkpt><trkpt lat="43.311985" lon="10.7207517"><ele>93.0</ele><time>2026-05-05T08:16:56.642Z</time></trkpt><trkpt lat="43.3120467" lon="10.7209133"><ele>93.5</ele><time>2026-05-05T08:16:57.642Z</time></trkpt><trkpt lat="43.3121167" lon="10.7210583"><ele>94.0</ele><time>2026-05-05T08:16:58.642Z</time></trkpt><trkpt lat="43.3121917" lon="10.7211817"><ele>94.25</ele><time>2026-05-05T08:16:59.641Z</time></trkpt><trkpt lat="43.3122833" lon="10.72129"><ele>94.5</ele><time>2026-05-05T08:17:00.642Z</time></trkpt><trkpt lat="43.3123917" lon="10.7213917"><ele>94.75</ele><time>2026-05-05T08:17:01.642Z</time></trkpt><trkpt lat="43.312505" lon="10.7214983"><ele>95.0</ele><time>2026-05-05T08:17:02.642Z</time></trkpt><trkpt lat="43.3126233" lon="10.7216033"><ele>95.0</ele><time>2026-05-05T08:17:03.642Z</time></trkpt><trkpt lat="43.312745" lon="10.7217017"><ele>95.0</ele><time>2026-05-05T08:17:04.642Z</time></trkpt><trkpt lat="43.3128667" lon="10.7218033"><ele>95.0</ele><time>2026-05-05T08:17:05.642Z</time></trkpt><trkpt lat="43.3129933" lon="10.7219233"><ele>95.0</ele><time>2026-05-05T08:17:06.642Z</time></trkpt><trkpt lat="43.3131217" lon="10.722035"><ele>93.5</ele><time>2026-05-05T08:17:07.642Z</time></trkpt><trkpt lat="43.31325" lon="10.7221133"><ele>92.0</ele><time>2026-05-05T08:17:08.642Z</time></trkpt><trkpt lat="43.3133783" lon="10.7221783"><ele>90.5</ele><time>2026-05-05T08:17:09.642Z</time></trkpt><trkpt lat="43.3135033" lon="10.7222367"><ele>89.0</ele><time>2026-05-05T08:17:10.642Z</time></trkpt><trkpt lat="43.3136233" lon="10.7222967"><ele>89.0</ele><time>2026-05-05T08:17:11.641Z</time></trkpt><trkpt lat="43.31373" lon="10.722335"><ele>89.0</ele><time>2026-05-05T08:17:12.642Z</time></trkpt><trkpt lat="43.3138317" lon="10.7223583"><ele>89.0</ele><time>2026-05-05T08:17:13.642Z</time></trkpt><trkpt lat="43.31392" lon="10.7223517"><ele>89.0</ele><time>2026-05-05T08:17:14.642Z</time></trkpt><trkpt lat="43.3139983" lon="10.7223067"><ele>89.0</ele><time>2026-05-05T08:17:15.642Z</time></trkpt><trkpt lat="43.3140667" lon="10.722245"><ele>87.4</ele><time>2026-05-05T08:17:16.642Z</time></trkpt><trkpt lat="43.3141417" lon="10.7221433"><ele>85.80000000000001</ele><time>2026-05-05T08:17:17.642Z</time></trkpt><trkpt lat="43.31422" lon="10.7220617"><ele>84.19999999999999</ele><time>2026-05-05T08:17:18.641Z</time></trkpt><trkpt lat="43.3143117" lon="10.7219967"><ele>82.6</ele><time>2026-05-05T08:17:19.642Z</time></trkpt><trkpt lat="43.314415" lon="10.7219483"><ele>81.0</ele><time>2026-05-05T08:17:20.641Z</time></trkpt><trkpt lat="43.31452" lon="10.7219283"><ele>81.0</ele><time>2026-05-05T08:17:21.641Z</time></trkpt><trkpt lat="43.3146217" lon="10.72194"><ele>81.0</ele><time>2026-05-05T08:17:22.642Z</time></trkpt><trkpt lat="43.314725" lon="10.7219767"><ele>81.0</ele><time>2026-05-05T08:17:23.642Z</time></trkpt><trkpt lat="43.3148083" lon="10.7220533"><ele>81.0</ele><time>2026-05-05T08:17:24.642Z</time></trkpt><trkpt lat="43.3148767" lon="10.7221433"><ele>81.0</ele><time>2026-05-05T08:17:25.642Z</time></trkpt><trkpt lat="43.3149133" lon="10.7222733"><ele>81.25</ele><time>2026-05-05T08:17:26.642Z</time></trkpt><trkpt lat="43.3149367" lon="10.7224367"><ele>81.5</ele><time>2026-05-05T08:17:27.642Z</time></trkpt><trkpt lat="43.3149583" lon="10.7226133"><ele>81.75</ele><time>2026-05-05T08:17:28.642Z</time></trkpt><trkpt lat="43.31499" lon="10.7228"><ele>82.0</ele><time>2026-05-05T08:17:29.642Z</time></trkpt><trkpt lat="43.3150333" lon="10.722985"><ele>80.25</ele><time>2026-05-05T08:17:30.642Z</time></trkpt><trkpt lat="43.3150833" lon="10.7231733"><ele>78.5</ele><time>2026-05-05T08:17:31.641Z</time></trkpt><trkpt lat="43.3151267" lon="10.7233633"><ele>76.75</ele><time>2026-05-05T08:17:32.641Z</time></trkpt><trkpt lat="43.31517" lon="10.7235533"><ele>75.0</ele><time>2026-05-05T08:17:33.642Z</time></trkpt><trkpt lat="43.31522" lon="10.7237333"><ele>74.75</ele><time>2026-05-05T08:17:34.641Z</time></trkpt><trkpt lat="43.3152783" lon="10.7239267"><ele>74.5</ele><time>2026-05-05T08:17:35.641Z</time></trkpt><trkpt lat="43.3153417" lon="10.72409"><ele>74.25</ele><time>2026-05-05T08:17:36.641Z</time></trkpt><trkpt lat="43.315425" lon="10.72423"><ele>74.0</ele><time>2026-05-05T08:17:37.641Z</time></trkpt><trkpt lat="43.3155167" lon="10.7243533"><ele>73.75</ele><time>2026-05-05T08:17:38.642Z</time></trkpt><trkpt lat="43.3156133" lon="10.7244667"><ele>73.5</ele><time>2026-05-05T08:17:39.642Z</time></trkpt><trkpt lat="43.3157067" lon="10.7245683"><ele>73.25</ele><time>2026-05-05T08:17:40.642Z</time></trkpt><trkpt lat="43.3157917" lon="10.7246667"><ele>73.0</ele><time>2026-05-05T08:17:41.641Z</time></trkpt><trkpt lat="43.315855" lon="10.7247783"><ele>73.0</ele><time>2026-05-05T08:17:42.642Z</time></trkpt><trkpt lat="43.3159" lon="10.7249133"><ele>73.0</ele><time>2026-05-05T08:17:43.642Z</time></trkpt><trkpt lat="43.3159167" lon="10.7250683"><ele>73.0</ele><time>2026-05-05T08:17:44.642Z</time></trkpt><trkpt lat="43.3159267" lon="10.72522"><ele>73.0</ele><time>2026-05-05T08:17:45.642Z</time></trkpt><trkpt lat="43.3159533" lon="10.7253617"><ele>73.0</ele><time>2026-05-05T08:17:46.642Z</time></trkpt><trkpt lat="43.315995" lon="10.7255083"><ele>75.5</ele><time>2026-05-05T08:17:47.642Z</time></trkpt><trkpt lat="43.3160633" lon="10.7256567"><ele>78.0</ele><time>2026-05-05T08:17:48.642Z</time></trkpt><trkpt lat="43.316145" lon="10.7257967"><ele>80.5</ele><time>2026-05-05T08:17:49.642Z</time></trkpt><trkpt lat="43.3162333" lon="10.7259167"><ele>83.0</ele><time>2026-05-05T08:17:50.641Z</time></trkpt><trkpt lat="43.316335" lon="10.72604"><ele>82.0</ele><time>2026-05-05T08:17:51.641Z</time></trkpt><trkpt lat="43.3164517" lon="10.726165"><ele>81.0</ele><time>2026-05-05T08:17:52.641Z</time></trkpt><trkpt lat="43.3165683" lon="10.72628"><ele>80.0</ele><time>2026-05-05T08:17:53.641Z</time></trkpt><trkpt lat="43.316695" lon="10.7263933"><ele>79.0</ele><time>2026-05-05T08:17:54.642Z</time></trkpt><trkpt lat="43.3168183" lon="10.726515"><ele>79.0</ele><time>2026-05-05T08:17:55.642Z</time></trkpt><trkpt lat="43.31694" lon="10.72664"><ele>79.0</ele><time>2026-05-05T08:17:56.642Z</time></trkpt><trkpt lat="43.31706" lon="10.7267983"><ele>79.0</ele><time>2026-05-05T08:17:57.641Z</time></trkpt><trkpt lat="43.3171583" lon="10.7269267"><ele>76.0</ele><time>2026-05-05T08:17:58.642Z</time></trkpt><trkpt lat="43.31726" lon="10.72704"><ele>73.0</ele><time>2026-05-05T08:17:59.641Z</time></trkpt><trkpt lat="43.31735" lon="10.72717"><ele>70.0</ele><time>2026-05-05T08:18:00.642Z</time></trkpt><trkpt lat="43.3174433" lon="10.7273"><ele>67.0</ele><time>2026-05-05T08:18:01.641Z</time></trkpt><trkpt lat="43.317545" lon="10.7273917"><ele>67.0</ele><time>2026-05-05T08:18:02.642Z</time></trkpt><trkpt lat="43.3176683" lon="10.7274583"><ele>67.0</ele><time>2026-05-05T08:18:03.642Z</time></trkpt><trkpt lat="43.3177967" lon="10.7274883"><ele>67.0</ele><time>2026-05-05T08:18:04.642Z</time></trkpt><trkpt lat="43.317935" lon="10.72751"><ele>67.0</ele><time>2026-05-05T08:18:05.642Z</time></trkpt><trkpt lat="43.3180783" lon="10.7275317"><ele>65.33333333333333</ele><time>2026-05-05T08:18:06.642Z</time></trkpt><trkpt lat="43.3182483" lon="10.7275517"><ele>63.66666666666667</ele><time>2026-05-05T08:18:07.642Z</time></trkpt><trkpt lat="43.31841" lon="10.7275633"><ele>62.0</ele><time>2026-05-05T08:18:08.641Z</time></trkpt><trkpt lat="43.31857" lon="10.7275833"><ele>62.0</ele><time>2026-05-05T08:18:09.641Z</time></trkpt><trkpt lat="43.3187433" lon="10.7276017"><ele>62.0</ele><time>2026-05-05T08:18:10.64Z</time></trkpt><trkpt lat="43.318905" lon="10.72763"><ele>62.0</ele><time>2026-05-05T08:18:11.641Z</time></trkpt><trkpt lat="43.3190767" lon="10.727645"><ele>61.0</ele><time>2026-05-05T08:18:12.641Z</time></trkpt><trkpt lat="43.3192517" lon="10.727665"><ele>60.0</ele><time>2026-05-05T08:18:13.641Z</time></trkpt><trkpt lat="43.3194183" lon="10.7276733"><ele>59.0</ele><time>2026-05-05T08:18:14.64Z</time></trkpt><trkpt lat="43.3195933" lon="10.72769"><ele>58.333333333333336</ele><time>2026-05-05T08:18:15.641Z</time></trkpt><trkpt lat="43.3197667" lon="10.7277"><ele>57.66666666666667</ele><time>2026-05-05T08:18:16.641Z</time></trkpt><trkpt lat="43.31993" lon="10.7277483"><ele>57.0</ele><time>2026-05-05T08:18:17.641Z</time></trkpt><trkpt lat="43.3200933" lon="10.7277767"><ele>58.0</ele><time>2026-05-05T08:18:18.641Z</time></trkpt><trkpt lat="43.3202517" lon="10.7278033"><ele>59.0</ele><time>2026-05-05T08:18:19.641Z</time></trkpt><trkpt lat="43.3204067" lon="10.727835"><ele>60.0</ele><time>2026-05-05T08:18:20.641Z</time></trkpt><trkpt lat="43.3205683" lon="10.7278683"><ele>60.0</ele><time>2026-05-05T08:18:21.64Z</time></trkpt><trkpt lat="43.320735" lon="10.7278883"><ele>60.0</ele><time>2026-05-05T08:18:22.64Z</time></trkpt><trkpt lat="43.3209017" lon="10.727905"><ele>60.0</ele><time>2026-05-05T08:18:23.64Z</time></trkpt><trkpt lat="43.3210617" lon="10.727925"><ele>60.0</ele><time>2026-05-05T08:18:24.641Z</time></trkpt><trkpt lat="43.32121" lon="10.7279417"><ele>60.0</ele><time>2026-05-05T08:18:25.641Z</time></trkpt><trkpt lat="43.3213517" lon="10.7279583"><ele>60.0</ele><time>2026-05-05T08:18:26.64Z</time></trkpt><trkpt lat="43.3214883" lon="10.7279633"><ele>60.0</ele><time>2026-05-05T08:18:27.641Z</time></trkpt><trkpt lat="43.3216117" lon="10.7279667"><ele>59.25</ele><time>2026-05-05T08:18:28.641Z</time></trkpt><trkpt lat="43.3217283" lon="10.7279517"><ele>58.5</ele><time>2026-05-05T08:18:29.641Z</time></trkpt><trkpt lat="43.3218433" lon="10.7279267"><ele>57.75</ele><time>2026-05-05T08:18:30.641Z</time></trkpt><trkpt lat="43.3219533" lon="10.7278717"><ele>57.0</ele><time>2026-05-05T08:18:31.641Z</time></trkpt><trkpt lat="43.3220617" lon="10.7277783"><ele>57.25</ele><time>2026-05-05T08:18:32.64Z</time></trkpt><trkpt lat="43.3221733" lon="10.7276617"><ele>57.5</ele><time>2026-05-05T08:18:33.641Z</time></trkpt><trkpt lat="43.322265" lon="10.72753"><ele>57.75</ele><time>2026-05-05T08:18:34.64Z</time></trkpt><trkpt lat="43.32235" lon="10.7273933"><ele>58.0</ele><time>2026-05-05T08:18:35.64Z</time></trkpt><trkpt lat="43.3224267" lon="10.72726"><ele>58.0</ele><time>2026-05-05T08:18:36.641Z</time></trkpt><trkpt lat="43.32252" lon="10.7271233"><ele>58.0</ele><time>2026-05-05T08:18:37.641Z</time></trkpt><trkpt lat="43.3226467" lon="10.727015"><ele>58.0</ele><time>2026-05-05T08:18:38.64Z</time></trkpt><trkpt lat="43.3227817" lon="10.7269167"><ele>58.0</ele><time>2026-05-05T08:18:39.641Z</time></trkpt><trkpt lat="43.3229217" lon="10.7268383"><ele>56.0</ele><time>2026-05-05T08:18:40.64Z</time></trkpt><trkpt lat="43.3230517" lon="10.726765"><ele>54.0</ele><time>2026-05-05T08:18:41.641Z</time></trkpt><trkpt lat="43.3231983" lon="10.7266883"><ele>52.0</ele><time>2026-05-05T08:18:42.641Z</time></trkpt><trkpt lat="43.3233417" lon="10.7266033"><ele>52.0</ele><time>2026-05-05T08:18:43.641Z</time></trkpt><trkpt lat="43.323475" lon="10.7265333"><ele>52.0</ele><time>2026-05-05T08:18:44.64Z</time></trkpt><trkpt lat="43.323595" lon="10.7264617"><ele>52.0</ele><time>2026-05-05T08:18:45.641Z</time></trkpt><trkpt lat="43.3237183" lon="10.7263983"><ele>52.0</ele><time>2026-05-05T08:18:46.641Z</time></trkpt><trkpt lat="43.3238417" lon="10.7263417"><ele>52.75</ele><time>2026-05-05T08:18:47.641Z</time></trkpt><trkpt lat="43.3239617" lon="10.7262883"><ele>53.5</ele><time>2026-05-05T08:18:48.641Z</time></trkpt><trkpt lat="43.324095" lon="10.7262333"><ele>54.25</ele><time>2026-05-05T08:18:49.64Z</time></trkpt><trkpt lat="43.32422" lon="10.7261917"><ele>55.0</ele><time>2026-05-05T08:18:50.641Z</time></trkpt><trkpt lat="43.32434" lon="10.7261817"><ele>55.0</ele><time>2026-05-05T08:18:51.64Z</time></trkpt><trkpt lat="43.32447" lon="10.7261533"><ele>55.0</ele><time>2026-05-05T08:18:52.641Z</time></trkpt><trkpt lat="43.3245983" lon="10.7261617"><ele>55.0</ele><time>2026-05-05T08:18:53.64Z</time></trkpt><trkpt lat="43.3247233" lon="10.7261917"><ele>55.0</ele><time>2026-05-05T08:18:54.641Z</time></trkpt><trkpt lat="43.3248433" lon="10.72622"><ele>55.5</ele><time>2026-05-05T08:18:55.641Z</time></trkpt><trkpt lat="43.3249867" lon="10.726275"><ele>56.0</ele><time>2026-05-05T08:18:56.641Z</time></trkpt><trkpt lat="43.325125" lon="10.726365"><ele>56.5</ele><time>2026-05-05T08:18:57.641Z</time></trkpt><trkpt lat="43.3252467" lon="10.7264383"><ele>57.0</ele><time>2026-05-05T08:18:58.64Z</time></trkpt><trkpt lat="43.3253733" lon="10.7265233"><ele>57.0</ele><time>2026-05-05T08:18:59.641Z</time></trkpt><trkpt lat="43.32548" lon="10.7266183"><ele>57.0</ele><time>2026-05-05T08:19:00.64Z</time></trkpt><trkpt lat="43.32559" lon="10.7267083"><ele>57.0</ele><time>2026-05-05T08:19:01.64Z</time></trkpt><trkpt lat="43.3256917" lon="10.7267833"><ele>57.0</ele><time>2026-05-05T08:19:02.641Z</time></trkpt><trkpt lat="43.325805" lon="10.7269017"><ele>57.75</ele><time>2026-05-05T08:19:03.641Z</time></trkpt><trkpt lat="43.3259083" lon="10.726995"><ele>58.5</ele><time>2026-05-05T08:19:04.64Z</time></trkpt><trkpt lat="43.3260233" lon="10.7270833"><ele>59.25</ele><time>2026-05-05T08:19:05.641Z</time></trkpt><trkpt lat="43.3261367" lon="10.7271633"><ele>60.0</ele><time>2026-05-05T08:19:06.641Z</time></trkpt><trkpt lat="43.326255" lon="10.7272333"><ele>60.0</ele><time>2026-05-05T08:19:07.641Z</time></trkpt><trkpt lat="43.3263783" lon="10.7272817"><ele>60.0</ele><time>2026-05-05T08:19:08.641Z</time></trkpt><trkpt lat="43.3265067" lon="10.7273083"><ele>60.0</ele><time>2026-05-05T08:19:09.64Z</time></trkpt><trkpt lat="43.3266417" lon="10.7273383"><ele>60.0</ele><time>2026-05-05T08:19:10.641Z</time></trkpt><trkpt lat="43.3267833" lon="10.7273533"><ele>60.0</ele><time>2026-05-05T08:19:11.641Z</time></trkpt><trkpt lat="43.3269183" lon="10.727365"><ele>60.0</ele><time>2026-05-05T08:19:12.64Z</time></trkpt><trkpt lat="43.327055" lon="10.7274083"><ele>60.0</ele><time>2026-05-05T08:19:13.64Z</time></trkpt><trkpt lat="43.3271817" lon="10.72748"><ele>60.0</ele><time>2026-05-05T08:19:14.641Z</time></trkpt><trkpt lat="43.3273" lon="10.7276"><ele>60.0</ele><time>2026-05-05T08:19:15.641Z</time></trkpt><trkpt lat="43.327405" lon="10.727715"><ele>60.0</ele><time>2026-05-05T08:19:16.64Z</time></trkpt><trkpt lat="43.3275067" lon="10.72783"><ele>60.0</ele><time>2026-05-05T08:19:17.641Z</time></trkpt><trkpt lat="43.3275983" lon="10.7279067"><ele>60.0</ele><time>2026-05-05T08:19:18.641Z</time></trkpt><trkpt lat="43.3276867" lon="10.7279667"><ele>61.6</ele><time>2026-05-05T08:19:19.641Z</time></trkpt><trkpt lat="43.32778" lon="10.7279967"><ele>63.2</ele><time>2026-05-05T08:19:20.641Z</time></trkpt><trkpt lat="43.3278833" lon="10.7279967"><ele>64.8</ele><time>2026-05-05T08:19:21.641Z</time></trkpt><trkpt lat="43.327985" lon="10.72799"><ele>66.4</ele><time>2026-05-05T08:19:22.64Z</time></trkpt><trkpt lat="43.328095" lon="10.72799"><ele>68.0</ele><time>2026-05-05T08:19:23.641Z</time></trkpt><trkpt lat="43.3282" lon="10.7280067"><ele>68.0</ele><time>2026-05-05T08:19:24.641Z</time></trkpt><trkpt lat="43.328295" lon="10.7280233"><ele>68.0</ele><time>2026-05-05T08:19:25.641Z</time></trkpt><trkpt lat="43.3283767" lon="10.7280867"><ele>68.0</ele><time>2026-05-05T08:19:26.641Z</time></trkpt><trkpt lat="43.3284267" lon="10.7281483"><ele>68.0</ele><time>2026-05-05T08:19:27.641Z</time></trkpt><trkpt lat="43.3284333" lon="10.7282617"><ele>68.0</ele><time>2026-05-05T08:19:29.641Z</time></trkpt><trkpt lat="43.3283733" lon="10.72829"><ele>68.0</ele><time>2026-05-05T08:19:30.64Z</time></trkpt><trkpt lat="43.3282967" lon="10.7283"><ele>68.0</ele><time>2026-05-05T08:19:31.641Z</time></trkpt><trkpt lat="43.3282167" lon="10.7282867"><ele>68.0</ele><time>2026-05-05T08:19:32.641Z</time></trkpt><trkpt lat="43.32813" lon="10.7282733"><ele>68.0</ele><time>2026-05-05T08:19:33.641Z</time></trkpt><trkpt lat="43.3280317" lon="10.7282767"><ele>68.0</ele><time>2026-05-05T08:19:34.641Z</time></trkpt><trkpt lat="43.3279417" lon="10.7282783"><ele>68.0</ele><time>2026-05-05T08:19:35.641Z</time></trkpt><trkpt lat="43.3278417" lon="10.7283283"><ele>68.0</ele><time>2026-05-05T08:19:36.641Z</time></trkpt><trkpt lat="43.3277583" lon="10.7284217"><ele>68.0</ele><time>2026-05-05T08:19:37.641Z</time></trkpt><trkpt lat="43.32771" lon="10.7285667"><ele>68.0</ele><time>2026-05-05T08:19:38.641Z</time></trkpt><trkpt lat="43.32766" lon="10.7287033"><ele>68.0</ele><time>2026-05-05T08:19:39.64Z</time></trkpt><trkpt lat="43.3276083" lon="10.7288433"><ele>68.0</ele><time>2026-05-05T08:19:40.641Z</time></trkpt><trkpt lat="43.3275483" lon="10.72897"><ele>69.25</ele><time>2026-05-05T08:19:41.641Z</time></trkpt><trkpt lat="43.3274617" lon="10.7290867"><ele>70.5</ele><time>2026-05-05T08:19:42.641Z</time></trkpt><trkpt lat="43.3273717" lon="10.7291717"><ele>71.75</ele><time>2026-05-05T08:19:43.641Z</time></trkpt><trkpt lat="43.327255" lon="10.7292517"><ele>73.0</ele><time>2026-05-05T08:19:44.64Z</time></trkpt><trkpt lat="43.3271367" lon="10.7293183"><ele>73.6</ele><time>2026-05-05T08:19:45.641Z</time></trkpt><trkpt lat="43.32703" lon="10.729385"><ele>74.19999999999999</ele><time>2026-05-05T08:19:46.641Z</time></trkpt><trkpt lat="43.32694" lon="10.7294567"><ele>74.8</ele><time>2026-05-05T08:19:47.641Z</time></trkpt><trkpt lat="43.32687" lon="10.7295467"><ele>75.39999999999999</ele><time>2026-05-05T08:19:48.64Z</time></trkpt><trkpt lat="43.3268317" lon="10.729665"><ele>76.0</ele><time>2026-05-05T08:19:49.64Z</time></trkpt><trkpt lat="43.32682" lon="10.7298033"><ele>76.25</ele><time>2026-05-05T08:19:50.64Z</time></trkpt><trkpt lat="43.3268367" lon="10.7299733"><ele>76.5</ele><time>2026-05-05T08:19:51.641Z</time></trkpt><trkpt lat="43.3268817" lon="10.73015"><ele>76.75</ele><time>2026-05-05T08:19:52.641Z</time></trkpt><trkpt lat="43.326945" lon="10.7303317"><ele>77.0</ele><time>2026-05-05T08:19:53.641Z</time></trkpt><trkpt lat="43.3270067" lon="10.73052"><ele>77.33333333333334</ele><time>2026-05-05T08:19:54.641Z</time></trkpt><trkpt lat="43.32706" lon="10.7307217"><ele>77.66666666666667</ele><time>2026-05-05T08:19:55.64Z</time></trkpt><trkpt lat="43.32711" lon="10.730925"><ele>78.0</ele><time>2026-05-05T08:19:56.641Z</time></trkpt><trkpt lat="43.32716" lon="10.7311283"><ele>78.25</ele><time>2026-05-05T08:19:57.641Z</time></trkpt><trkpt lat="43.3272067" lon="10.731325"><ele>78.5</ele><time>2026-05-05T08:19:58.64Z</time></trkpt><trkpt lat="43.327255" lon="10.7315133"><ele>78.75</ele><time>2026-05-05T08:19:59.641Z</time></trkpt><trkpt lat="43.3272917" lon="10.7317117"><ele>79.0</ele><time>2026-05-05T08:20:00.641Z</time></trkpt><trkpt lat="43.3273283" lon="10.7319183"><ele>78.5</ele><time>2026-05-05T08:20:01.641Z</time></trkpt><trkpt lat="43.327365" lon="10.7321117"><ele>78.0</ele><time>2026-05-05T08:20:02.641Z</time></trkpt><trkpt lat="43.3274033" lon="10.73229"><ele>77.5</ele><time>2026-05-05T08:20:03.64Z</time></trkpt><trkpt lat="43.32744" lon="10.732465"><ele>77.0</ele><time>2026-05-05T08:20:04.641Z</time></trkpt><trkpt lat="43.32748" lon="10.7326167"><ele>77.25</ele><time>2026-05-05T08:20:05.641Z</time></trkpt><trkpt lat="43.3275317" lon="10.732765"><ele>77.5</ele><time>2026-05-05T08:20:06.64Z</time></trkpt><trkpt lat="43.3276033" lon="10.7328867"><ele>77.75</ele><time>2026-05-05T08:20:07.641Z</time></trkpt><trkpt lat="43.3277033" lon="10.7329567"><ele>78.0</ele><time>2026-05-05T08:20:08.641Z</time></trkpt><trkpt lat="43.327825" lon="10.733015"><ele>78.0</ele><time>2026-05-05T08:20:09.64Z</time></trkpt><trkpt lat="43.3279533" lon="10.73305"><ele>78.0</ele><time>2026-05-05T08:20:10.64Z</time></trkpt><trkpt lat="43.328095" lon="10.73307"><ele>78.0</ele><time>2026-05-05T08:20:11.641Z</time></trkpt><trkpt lat="43.32824" lon="10.7330983"><ele>78.0</ele><time>2026-05-05T08:20:12.64Z</time></trkpt><trkpt lat="43.3283917" lon="10.73314"><ele>78.66666666666667</ele><time>2026-05-05T08:20:13.641Z</time></trkpt><trkpt lat="43.32855" lon="10.7331583"><ele>79.33333333333334</ele><time>2026-05-05T08:20:14.641Z</time></trkpt><trkpt lat="43.3287067" lon="10.73319"><ele>80.0</ele><time>2026-05-05T08:20:15.641Z</time></trkpt><trkpt lat="43.3288633" lon="10.733225"><ele>81.66666666666667</ele><time>2026-05-05T08:20:16.64Z</time></trkpt><trkpt lat="43.3290167" lon="10.7332683"><ele>83.33333333333333</ele><time>2026-05-05T08:20:17.641Z</time></trkpt><trkpt lat="43.329175" lon="10.733315"><ele>85.0</ele><time>2026-05-05T08:20:18.641Z</time></trkpt><trkpt lat="43.3293417" lon="10.73338"><ele>85.0</ele><time>2026-05-05T08:20:19.64Z</time></trkpt><trkpt lat="43.3294983" lon="10.73343"><ele>85.0</ele><time>2026-05-05T08:20:20.64Z</time></trkpt><trkpt lat="43.329645" lon="10.73347"><ele>85.0</ele><time>2026-05-05T08:20:21.641Z</time></trkpt><trkpt lat="43.32979" lon="10.733515"><ele>83.25</ele><time>2026-05-05T08:20:22.641Z</time></trkpt><trkpt lat="43.3299383" lon="10.7335617"><ele>81.5</ele><time>2026-05-05T08:20:23.641Z</time></trkpt><trkpt lat="43.33008" lon="10.7335967"><ele>79.75</ele><time>2026-05-05T08:20:24.641Z</time></trkpt><trkpt lat="43.3302283" lon="10.7336283"><ele>78.0</ele><time>2026-05-05T08:20:25.64Z</time></trkpt><trkpt lat="43.3303717" lon="10.7336633"><ele>78.0</ele><time>2026-05-05T08:20:26.641Z</time></trkpt><trkpt lat="43.33051" lon="10.7337017"><ele>78.0</ele><time>2026-05-05T08:20:27.641Z</time></trkpt><trkpt lat="43.3306367" lon="10.7337417"><ele>78.0</ele><time>2026-05-05T08:20:28.641Z</time></trkpt><trkpt lat="43.3307583" lon="10.7337867"><ele>78.0</ele><time>2026-05-05T08:20:29.641Z</time></trkpt><trkpt lat="43.3308767" lon="10.7338383"><ele>78.0</ele><time>2026-05-05T08:20:30.641Z</time></trkpt><trkpt lat="43.3309683" lon="10.7339033"><ele>78.0</ele><time>2026-05-05T08:20:31.64Z</time></trkpt><trkpt lat="43.3310317" lon="10.73399"><ele>78.0</ele><time>2026-05-05T08:20:32.64Z</time></trkpt><trkpt lat="43.331075" lon="10.7341033"><ele>78.0</ele><time>2026-05-05T08:20:33.641Z</time></trkpt><trkpt lat="43.3310583" lon="10.7342417"><ele>78.0</ele><time>2026-05-05T08:20:34.641Z</time></trkpt><trkpt lat="43.33101" lon="10.734365"><ele>77.0</ele><time>2026-05-05T08:20:35.64Z</time></trkpt><trkpt lat="43.3309433" lon="10.7344733"><ele>76.0</ele><time>2026-05-05T08:20:36.641Z</time></trkpt><trkpt lat="43.3308683" lon="10.7345617"><ele>75.0</ele><time>2026-05-05T08:20:37.641Z</time></trkpt><trkpt lat="43.3307983" lon="10.734655"><ele>74.0</ele><time>2026-05-05T08:20:38.641Z</time></trkpt><trkpt lat="43.3307433" lon="10.73477"><ele>73.0</ele><time>2026-05-05T08:20:39.641Z</time></trkpt><trkpt lat="43.3307117" lon="10.7349067"><ele>73.0</ele><time>2026-05-05T08:20:40.64Z</time></trkpt><trkpt lat="43.3306917" lon="10.7350483"><ele>73.0</ele><time>2026-05-05T08:20:41.641Z</time></trkpt><trkpt lat="43.3306817" lon="10.7351883"><ele>73.0</ele><time>2026-05-05T08:20:42.641Z</time></trkpt><trkpt lat="43.3306633" lon="10.7353433"><ele>73.0</ele><time>2026-05-05T08:20:43.64Z</time></trkpt><trkpt lat="43.3306383" lon="10.7355067"><ele>73.0</ele><time>2026-05-05T08:20:44.641Z</time></trkpt><trkpt lat="43.3306267" lon="10.735655"><ele>72.8</ele><time>2026-05-05T08:20:45.641Z</time></trkpt><trkpt lat="43.3306233" lon="10.7358017"><ele>72.6</ele><time>2026-05-05T08:20:46.64Z</time></trkpt><trkpt lat="43.3306217" lon="10.7359333"><ele>72.4</ele><time>2026-05-05T08:20:47.641Z</time></trkpt><trkpt lat="43.3306233" lon="10.7360233"><ele>72.2</ele><time>2026-05-05T08:20:48.64Z</time></trkpt><trkpt lat="43.3305733" lon="10.7361733"><ele>72.0</ele><time>2026-05-05T08:20:50.641Z</time></trkpt><trkpt lat="43.3304567" lon="10.7362667"><ele>72.0</ele><time>2026-05-05T08:20:52.641Z</time></trkpt><trkpt lat="43.330375" lon="10.7363017"><ele>72.0</ele><time>2026-05-05T08:20:53.64Z</time></trkpt><trkpt lat="43.3302767" lon="10.736335"><ele>72.0</ele><time>2026-05-05T08:20:54.64Z</time></trkpt><trkpt lat="43.33017" lon="10.7363733"><ele>72.0</ele><time>2026-05-05T08:20:55.641Z</time></trkpt><trkpt lat="43.3300633" lon="10.736425"><ele>72.0</ele><time>2026-05-05T08:20:56.64Z</time></trkpt><trkpt lat="43.3299567" lon="10.7364833"><ele>72.0</ele><time>2026-05-05T08:20:57.641Z</time></trkpt><trkpt lat="43.3298533" lon="10.7365383"><ele>72.0</ele><time>2026-05-05T08:20:58.641Z</time></trkpt><trkpt lat="43.3297467" lon="10.7365883"><ele>72.0</ele><time>2026-05-05T08:20:59.641Z</time></trkpt><trkpt lat="43.329625" lon="10.736645"><ele>72.0</ele><time>2026-05-05T08:21:00.641Z</time></trkpt><trkpt lat="43.3295017" lon="10.7367017"><ele>72.25</ele><time>2026-05-05T08:21:01.641Z</time></trkpt><trkpt lat="43.32937" lon="10.7367617"><ele>72.5</ele><time>2026-05-05T08:21:02.641Z</time></trkpt><trkpt lat="43.3292417" lon="10.7368333"><ele>72.75</ele><time>2026-05-05T08:21:03.641Z</time></trkpt><trkpt lat="43.3291117" lon="10.7369183"><ele>73.0</ele><time>2026-05-05T08:21:04.641Z</time></trkpt><trkpt lat="43.3289717" lon="10.7369983"><ele>73.75</ele><time>2026-05-05T08:21:05.641Z</time></trkpt><trkpt lat="43.3288333" lon="10.7370517"><ele>74.5</ele><time>2026-05-05T08:21:06.641Z</time></trkpt><trkpt lat="43.3286967" lon="10.7371267"><ele>75.25</ele><time>2026-05-05T08:21:07.641Z</time></trkpt><trkpt lat="43.32856" lon="10.7372"><ele>76.0</ele><time>2026-05-05T08:21:08.64Z</time></trkpt><trkpt lat="43.3284233" lon="10.7372733"><ele>76.0</ele><time>2026-05-05T08:21:09.641Z</time></trkpt><trkpt lat="43.3282883" lon="10.7373583"><ele>76.0</ele><time>2026-05-05T08:21:10.641Z</time></trkpt><trkpt lat="43.3281567" lon="10.737435"><ele>76.0</ele><time>2026-05-05T08:21:11.64Z</time></trkpt><trkpt lat="43.3280267" lon="10.737505"><ele>76.0</ele><time>2026-05-05T08:21:12.64Z</time></trkpt><trkpt lat="43.3278983" lon="10.73757"><ele>76.25</ele><time>2026-05-05T08:21:13.641Z</time></trkpt><trkpt lat="43.3277717" lon="10.7376433"><ele>76.5</ele><time>2026-05-05T08:21:14.641Z</time></trkpt><trkpt lat="43.3276433" lon="10.73772"><ele>76.75</ele><time>2026-05-05T08:21:15.64Z</time></trkpt><trkpt lat="43.3275167" lon="10.7377933"><ele>77.0</ele><time>2026-05-05T08:21:16.641Z</time></trkpt><trkpt lat="43.3273933" lon="10.73788"><ele>77.0</ele><time>2026-05-05T08:21:17.64Z</time></trkpt><trkpt lat="43.327275" lon="10.7379333"><ele>77.0</ele><time>2026-05-05T08:21:18.64Z</time></trkpt><trkpt lat="43.3271483" lon="10.7380067"><ele>77.0</ele><time>2026-05-05T08:21:19.641Z</time></trkpt><trkpt lat="43.32703" lon="10.738055"><ele>77.0</ele><time>2026-05-05T08:21:20.641Z</time></trkpt><trkpt lat="43.3269117" lon="10.7381267"><ele>77.25</ele><time>2026-05-05T08:21:21.641Z</time></trkpt><trkpt lat="43.3267833" lon="10.7381967"><ele>77.5</ele><time>2026-05-05T08:21:22.641Z</time></trkpt><trkpt lat="43.326655" lon="10.7382733"><ele>77.75</ele><time>2026-05-05T08:21:23.641Z</time></trkpt><trkpt lat="43.32653" lon="10.7383633"><ele>78.0</ele><time>2026-05-05T08:21:24.641Z</time></trkpt><trkpt lat="43.3263983" lon="10.7384383"><ele>78.25</ele><time>2026-05-05T08:21:25.64Z</time></trkpt><trkpt lat="43.3262733" lon="10.738495"><ele>78.5</ele><time>2026-05-05T08:21:26.641Z</time></trkpt><trkpt lat="43.3261583" lon="10.738555"><ele>78.75</ele><time>2026-05-05T08:21:27.641Z</time></trkpt><trkpt lat="43.3260283" lon="10.738585"><ele>79.0</ele><time>2026-05-05T08:21:28.641Z</time></trkpt><trkpt lat="43.3259" lon="10.7386383"><ele>79.0</ele><time>2026-05-05T08:21:29.641Z</time></trkpt><trkpt lat="43.3257933" lon="10.73869"><ele>79.0</ele><time>2026-05-05T08:21:30.641Z</time></trkpt><trkpt lat="43.3257" lon="10.7387233"><ele>79.0</ele><time>2026-05-05T08:21:31.641Z</time></trkpt><trkpt lat="43.3256117" lon="10.738745"><ele>79.0</ele><time>2026-05-05T08:21:32.641Z</time></trkpt><trkpt lat="43.3255167" lon="10.7387333"><ele>79.0</ele><time>2026-05-05T08:21:33.64Z</time></trkpt><trkpt lat="43.325425" lon="10.7387083"><ele>80.33333333333333</ele><time>2026-05-05T08:21:34.641Z</time></trkpt><trkpt lat="43.3253317" lon="10.73869"><ele>81.66666666666666</ele><time>2026-05-05T08:21:35.641Z</time></trkpt><trkpt lat="43.325255" lon="10.7387117"><ele>83.0</ele><time>2026-05-05T08:21:36.64Z</time></trkpt><trkpt lat="43.3251783" lon="10.7387617"><ele>84.33333333333333</ele><time>2026-05-05T08:21:37.641Z</time></trkpt><trkpt lat="43.3251233" lon="10.7388367"><ele>85.66666666666667</ele><time>2026-05-05T08:21:38.639Z</time></trkpt><trkpt lat="43.3250833" lon="10.73894"><ele>87.0</ele><time>2026-05-05T08:21:39.639Z</time></trkpt><trkpt lat="43.3250483" lon="10.739075"><ele>87.0</ele><time>2026-05-05T08:21:40.639Z</time></trkpt><trkpt lat="43.3250033" lon="10.73922"><ele>87.0</ele><time>2026-05-05T08:21:41.64Z</time></trkpt><trkpt lat="43.3249567" lon="10.739345"><ele>87.0</ele><time>2026-05-05T08:21:42.64Z</time></trkpt><trkpt lat="43.3249067" lon="10.739455"><ele>87.0</ele><time>2026-05-05T08:21:43.64Z</time></trkpt><trkpt lat="43.324835" lon="10.7395467"><ele>87.0</ele><time>2026-05-05T08:21:44.639Z</time></trkpt><trkpt lat="43.32473" lon="10.7395967"><ele>87.0</ele><time>2026-05-05T08:21:45.64Z</time></trkpt><trkpt lat="43.3246117" lon="10.7396433"><ele>87.0</ele><time>2026-05-05T08:21:46.64Z</time></trkpt><trkpt lat="43.32448" lon="10.7397033"><ele>87.0</ele><time>2026-05-05T08:21:47.639Z</time></trkpt><trkpt lat="43.3243533" lon="10.7397717"><ele>87.0</ele><time>2026-05-05T08:21:48.64Z</time></trkpt><trkpt lat="43.32423" lon="10.7398467"><ele>87.0</ele><time>2026-05-05T08:21:49.639Z</time></trkpt><trkpt lat="43.3241033" lon="10.7399317"><ele>87.0</ele><time>2026-05-05T08:21:50.64Z</time></trkpt><trkpt lat="43.32396" lon="10.7400217"><ele>87.0</ele><time>2026-05-05T08:21:51.639Z</time></trkpt><trkpt lat="43.3238333" lon="10.7401133"><ele>87.0</ele><time>2026-05-05T08:21:52.64Z</time></trkpt><trkpt lat="43.32371" lon="10.7402033"><ele>87.0</ele><time>2026-05-05T08:21:53.639Z</time></trkpt><trkpt lat="43.3235717" lon="10.740295"><ele>87.0</ele><time>2026-05-05T08:21:54.64Z</time></trkpt><trkpt lat="43.32344" lon="10.7403983"><ele>87.0</ele><time>2026-05-05T08:21:55.639Z</time></trkpt><trkpt lat="43.3233083" lon="10.7404933"><ele>87.0</ele><time>2026-05-05T08:21:56.639Z</time></trkpt><trkpt lat="43.32318" lon="10.7405883"><ele>87.0</ele><time>2026-05-05T08:21:57.639Z</time></trkpt><trkpt lat="43.3230467" lon="10.740695"><ele>87.0</ele><time>2026-05-05T08:21:58.639Z</time></trkpt><trkpt lat="43.3229217" lon="10.740815"><ele>87.75</ele><time>2026-05-05T08:21:59.639Z</time></trkpt><trkpt lat="43.3227917" lon="10.7409233"><ele>88.5</ele><time>2026-05-05T08:22:00.64Z</time></trkpt><trkpt lat="43.322675" lon="10.7410383"><ele>89.25</ele><time>2026-05-05T08:22:01.64Z</time></trkpt><trkpt lat="43.3225567" lon="10.741145"><ele>90.0</ele><time>2026-05-05T08:22:02.64Z</time></trkpt><trkpt lat="43.3224483" lon="10.7412617"><ele>90.0</ele><time>2026-05-05T08:22:03.639Z</time></trkpt><trkpt lat="43.322345" lon="10.741365"><ele>90.0</ele><time>2026-05-05T08:22:04.64Z</time></trkpt><trkpt lat="43.32224" lon="10.7414667"><ele>90.0</ele><time>2026-05-05T08:22:05.64Z</time></trkpt><trkpt lat="43.3221317" lon="10.741565"><ele>90.0</ele><time>2026-05-05T08:22:06.64Z</time></trkpt><trkpt lat="43.3220317" lon="10.74166"><ele>92.5</ele><time>2026-05-05T08:22:07.64Z</time></trkpt><trkpt lat="43.3219317" lon="10.7417517"><ele>95.0</ele><time>2026-05-05T08:22:08.64Z</time></trkpt><trkpt lat="43.321845" lon="10.7418517"><ele>97.5</ele><time>2026-05-05T08:22:09.639Z</time></trkpt><trkpt lat="43.3217567" lon="10.7419683"><ele>100.0</ele><time>2026-05-05T08:22:10.64Z</time></trkpt><trkpt lat="43.3216817" lon="10.742085"><ele>100.0</ele><time>2026-05-05T08:22:11.64Z</time></trkpt><trkpt lat="43.321615" lon="10.742215"><ele>100.0</ele><time>2026-05-05T08:22:12.64Z</time></trkpt><trkpt lat="43.321545" lon="10.7423367"><ele>100.0</ele><time>2026-05-05T08:22:13.64Z</time></trkpt><trkpt lat="43.32148" lon="10.742455"><ele>100.0</ele><time>2026-05-05T08:22:14.64Z</time></trkpt><trkpt lat="43.3214133" lon="10.742575"><ele>100.0</ele><time>2026-05-05T08:22:15.64Z</time></trkpt><trkpt lat="43.3213533" lon="10.7427"><ele>103.0</ele><time>2026-05-05T08:22:16.64Z</time></trkpt><trkpt lat="43.3212783" lon="10.7428233"><ele>106.0</ele><time>2026-05-05T08:22:17.64Z</time></trkpt><trkpt lat="43.3211917" lon="10.7429267"><ele>109.0</ele><time>2026-05-05T08:22:18.639Z</time></trkpt><trkpt lat="43.3210917" lon="10.7430133"><ele>112.0</ele><time>2026-05-05T08:22:19.64Z</time></trkpt><trkpt lat="43.3209883" lon="10.7430883"><ele>112.0</ele><time>2026-05-05T08:22:20.639Z</time></trkpt><trkpt lat="43.32089" lon="10.7431633"><ele>111.99999999999999</ele><time>2026-05-05T08:22:21.64Z</time></trkpt><trkpt lat="43.3207933" lon="10.74323"><ele>111.99999999999999</ele><time>2026-05-05T08:22:22.64Z</time></trkpt><trkpt lat="43.320705" lon="10.743305"><ele>112.0</ele><time>2026-05-05T08:22:23.639Z</time></trkpt><trkpt lat="43.3206167" lon="10.7433867"><ele>112.0</ele><time>2026-05-05T08:22:24.64Z</time></trkpt><trkpt lat="43.32054" lon="10.7434917"><ele>110.8</ele><time>2026-05-05T08:22:25.64Z</time></trkpt><trkpt lat="43.3204817" lon="10.7436083"><ele>109.6</ele><time>2026-05-05T08:22:26.639Z</time></trkpt><trkpt lat="43.320425" lon="10.7437183"><ele>108.39999999999999</ele><time>2026-05-05T08:22:27.64Z</time></trkpt><trkpt lat="43.3203633" lon="10.7437983"><ele>107.19999999999999</ele><time>2026-05-05T08:22:28.64Z</time></trkpt><trkpt lat="43.3202867" lon="10.74386"><ele>106.0</ele><time>2026-05-05T08:22:29.639Z</time></trkpt><trkpt lat="43.3202117" lon="10.743905"><ele>106.0</ele><time>2026-05-05T08:22:30.64Z</time></trkpt><trkpt lat="43.32013" lon="10.743925"><ele>106.0</ele><time>2026-05-05T08:22:31.64Z</time></trkpt><trkpt lat="43.32004" lon="10.7439283"><ele>106.0</ele><time>2026-05-05T08:22:32.64Z</time></trkpt><trkpt lat="43.31994" lon="10.7439083"><ele>106.0</ele><time>2026-05-05T08:22:33.64Z</time></trkpt><trkpt lat="43.31983" lon="10.7438767"><ele>106.0</ele><time>2026-05-05T08:22:34.64Z</time></trkpt><trkpt lat="43.319725" lon="10.7438567"><ele>106.75</ele><time>2026-05-05T08:22:35.64Z</time></trkpt><trkpt lat="43.319605" lon="10.74382"><ele>107.5</ele><time>2026-05-05T08:22:36.639Z</time></trkpt><trkpt lat="43.3194833" lon="10.7437817"><ele>108.25</ele><time>2026-05-05T08:22:37.639Z</time></trkpt><trkpt lat="43.31936" lon="10.74373"><ele>109.0</ele><time>2026-05-05T08:22:38.64Z</time></trkpt><trkpt lat="43.3192417" lon="10.7436783"><ele>109.0</ele><time>2026-05-05T08:22:39.639Z</time></trkpt><trkpt lat="43.3191233" lon="10.7436233"><ele>109.0</ele><time>2026-05-05T08:22:40.64Z</time></trkpt><trkpt lat="43.31902" lon="10.74355"><ele>109.0</ele><time>2026-05-05T08:22:41.64Z</time></trkpt><trkpt lat="43.3189333" lon="10.743465"><ele>109.0</ele><time>2026-05-05T08:22:42.639Z</time></trkpt><trkpt lat="43.3188583" lon="10.7433567"><ele>110.50000000000001</ele><time>2026-05-05T08:22:43.639Z</time></trkpt><trkpt lat="43.3187967" lon="10.74325"><ele>112.0</ele><time>2026-05-05T08:22:44.64Z</time></trkpt><trkpt lat="43.3187367" lon="10.7431483"><ele>113.5</ele><time>2026-05-05T08:22:45.639Z</time></trkpt><trkpt lat="43.3186683" lon="10.7430717"><ele>115.0</ele><time>2026-05-05T08:22:46.639Z</time></trkpt><trkpt lat="43.3186" lon="10.7430233"><ele>116.50000000000001</ele><time>2026-05-05T08:22:47.64Z</time></trkpt><trkpt lat="43.318525" lon="10.7430317"><ele>118.0</ele><time>2026-05-05T08:22:48.64Z</time></trkpt><trkpt lat="43.318445" lon="10.7431267"><ele>118.0</ele><time>2026-05-05T08:22:49.64Z</time></trkpt><trkpt lat="43.3183667" lon="10.7432033"><ele>118.0</ele><time>2026-05-05T08:22:50.64Z</time></trkpt><trkpt lat="43.3182767" lon="10.7432883"><ele>118.0</ele><time>2026-05-05T08:22:51.639Z</time></trkpt><trkpt lat="43.3181717" lon="10.7434067"><ele>118.0</ele><time>2026-05-05T08:22:52.64Z</time></trkpt><trkpt lat="43.31807" lon="10.7435117"><ele>117.75</ele><time>2026-05-05T08:22:53.64Z</time></trkpt><trkpt lat="43.3179783" lon="10.7436117"><ele>117.5</ele><time>2026-05-05T08:22:54.64Z</time></trkpt><trkpt lat="43.3178883" lon="10.7437383"><ele>117.25</ele><time>2026-05-05T08:22:55.64Z</time></trkpt><trkpt lat="43.3177983" lon="10.74384"><ele>117.0</ele><time>2026-05-05T08:22:56.639Z</time></trkpt><trkpt lat="43.3176967" lon="10.74394"><ele>117.0</ele><time>2026-05-05T08:22:57.639Z</time></trkpt><trkpt lat="43.3176133" lon="10.744"><ele>116.99999999999999</ele><time>2026-05-05T08:22:58.64Z</time></trkpt><trkpt lat="43.3175217" lon="10.74404"><ele>116.99999999999999</ele><time>2026-05-05T08:22:59.64Z</time></trkpt><trkpt lat="43.317435" lon="10.744055"><ele>117.0</ele><time>2026-05-05T08:23:00.64Z</time></trkpt><trkpt lat="43.3173467" lon="10.74404"><ele>117.0</ele><time>2026-05-05T08:23:01.64Z</time></trkpt><trkpt lat="43.317255" lon="10.74401"><ele>117.0</ele><time>2026-05-05T08:23:02.64Z</time></trkpt><trkpt lat="43.31716" lon="10.7439583"><ele>117.0</ele><time>2026-05-05T08:23:03.64Z</time></trkpt><trkpt lat="43.31707" lon="10.7438733"><ele>117.0</ele><time>2026-05-05T08:23:04.64Z</time></trkpt><trkpt lat="43.3169883" lon="10.7437567"><ele>117.0</ele><time>2026-05-05T08:23:05.64Z</time></trkpt><trkpt lat="43.3169033" lon="10.7436217"><ele>118.5</ele><time>2026-05-05T08:23:06.64Z</time></trkpt><trkpt lat="43.3168117" lon="10.7434967"><ele>120.0</ele><time>2026-05-05T08:23:07.64Z</time></trkpt><trkpt lat="43.3167283" lon="10.74335"><ele>121.5</ele><time>2026-05-05T08:23:08.639Z</time></trkpt><trkpt lat="43.31666" lon="10.7432"><ele>123.0</ele><time>2026-05-05T08:23:09.639Z</time></trkpt><trkpt lat="43.3165917" lon="10.7430533"><ele>123.0</ele><time>2026-05-05T08:23:10.64Z</time></trkpt><trkpt lat="43.3165233" lon="10.742895"><ele>123.0</ele><time>2026-05-05T08:23:11.64Z</time></trkpt><trkpt lat="43.316455" lon="10.7427383"><ele>123.0</ele><time>2026-05-05T08:23:12.64Z</time></trkpt><trkpt lat="43.3163867" lon="10.74259"><ele>123.0</ele><time>2026-05-05T08:23:13.64Z</time></trkpt><trkpt lat="43.3163217" lon="10.7424567"><ele>126.0</ele><time>2026-05-05T08:23:14.639Z</time></trkpt><trkpt lat="43.3162583" lon="10.7423283"><ele>129.0</ele><time>2026-05-05T08:23:15.639Z</time></trkpt><trkpt lat="43.3162" lon="10.7422133"><ele>132.0</ele><time>2026-05-05T08:23:16.64Z</time></trkpt><trkpt lat="43.3161367" lon="10.7421083"><ele>135.0</ele><time>2026-05-05T08:23:17.64Z</time></trkpt><trkpt lat="43.3160683" lon="10.74201"><ele>138.0</ele><time>2026-05-05T08:23:18.64Z</time></trkpt><trkpt lat="43.3159917" lon="10.7419517"><ele>138.0</ele><time>2026-05-05T08:23:19.64Z</time></trkpt><trkpt lat="43.3159083" lon="10.7419167"><ele>138.0</ele><time>2026-05-05T08:23:20.639Z</time></trkpt><trkpt lat="43.31584" lon="10.7419383"><ele>138.0</ele><time>2026-05-05T08:23:21.64Z</time></trkpt><trkpt lat="43.3158" lon="10.7420217"><ele>138.0</ele><time>2026-05-05T08:23:22.64Z</time></trkpt><trkpt lat="43.3157717" lon="10.742115"><ele>138.0</ele><time>2026-05-05T08:23:23.639Z</time></trkpt><trkpt lat="43.31573" lon="10.7422783"><ele>138.0</ele><time>2026-05-05T08:23:25.64Z</time></trkpt><trkpt lat="43.315715" lon="10.74238"><ele>138.0</ele><time>2026-05-05T08:23:26.64Z</time></trkpt><trkpt lat="43.3156883" lon="10.7424933"><ele>138.0</ele><time>2026-05-05T08:23:27.64Z</time></trkpt><trkpt lat="43.3156583" lon="10.74261"><ele>138.0</ele><time>2026-05-05T08:23:28.639Z</time></trkpt><trkpt lat="43.315615" lon="10.74273"><ele>138.0</ele><time>2026-05-05T08:23:29.64Z</time></trkpt><trkpt lat="43.31557" lon="10.7428283"><ele>138.0</ele><time>2026-05-05T08:23:30.639Z</time></trkpt><trkpt lat="43.3155017" lon="10.7429267"><ele>140.0</ele><time>2026-05-05T08:23:31.639Z</time></trkpt><trkpt lat="43.3154233" lon="10.7430233"><ele>142.0</ele><time>2026-05-05T08:23:32.639Z</time></trkpt><trkpt lat="43.3153317" lon="10.7431167"><ele>144.0</ele><time>2026-05-05T08:23:33.639Z</time></trkpt><trkpt lat="43.31525" lon="10.743215"><ele>146.0</ele><time>2026-05-05T08:23:34.64Z</time></trkpt><trkpt lat="43.3151667" lon="10.7433267"><ele>148.0</ele><time>2026-05-05T08:23:35.64Z</time></trkpt><trkpt lat="43.31508" lon="10.74343"><ele>148.0</ele><time>2026-05-05T08:23:36.64Z</time></trkpt><trkpt lat="43.3150033" lon="10.7435333"><ele>148.0</ele><time>2026-05-05T08:23:37.639Z</time></trkpt><trkpt lat="43.3149333" lon="10.74363"><ele>148.0</ele><time>2026-05-05T08:23:38.64Z</time></trkpt><trkpt lat="43.3148617" lon="10.7437267"><ele>148.0</ele><time>2026-05-05T08:23:39.639Z</time></trkpt><trkpt lat="43.3147817" lon="10.74383"><ele>148.0</ele><time>2026-05-05T08:23:40.639Z</time></trkpt><trkpt lat="43.3146967" lon="10.7439233"><ele>149.0</ele><time>2026-05-05T08:23:41.64Z</time></trkpt><trkpt lat="43.3146167" lon="10.7440117"><ele>150.0</ele><time>2026-05-05T08:23:42.64Z</time></trkpt><trkpt lat="43.31454" lon="10.7441033"><ele>151.0</ele><time>2026-05-05T08:23:43.64Z</time></trkpt><trkpt lat="43.3144567" lon="10.7442033"><ele>152.0</ele><time>2026-05-05T08:23:44.64Z</time></trkpt><trkpt lat="43.314365" lon="10.7442983"><ele>153.0</ele><time>2026-05-05T08:23:45.639Z</time></trkpt><trkpt lat="43.3142633" lon="10.7443817"><ele>153.0</ele><time>2026-05-05T08:23:46.64Z</time></trkpt><trkpt lat="43.314155" lon="10.7444633"><ele>153.0</ele><time>2026-05-05T08:23:47.639Z</time></trkpt><trkpt lat="43.3140433" lon="10.7445267"><ele>153.0</ele><time>2026-05-05T08:23:48.64Z</time></trkpt><trkpt lat="43.31394" lon="10.74458"><ele>153.0</ele><time>2026-05-05T08:23:49.64Z</time></trkpt><trkpt lat="43.3138433" lon="10.744625"><ele>153.33333333333334</ele><time>2026-05-05T08:23:50.64Z</time></trkpt><trkpt lat="43.3137617" lon="10.7446717"><ele>153.66666666666666</ele><time>2026-05-05T08:23:51.64Z</time></trkpt><trkpt lat="43.3136867" lon="10.74471"><ele>154.0</ele><time>2026-05-05T08:23:52.64Z</time></trkpt><trkpt lat="43.3136183" lon="10.744735"><ele>154.33333333333331</ele><time>2026-05-05T08:23:53.639Z</time></trkpt><trkpt lat="43.3135067" lon="10.7447283"><ele>154.66666666666666</ele><time>2026-05-05T08:23:55.64Z</time></trkpt><trkpt lat="43.3134533" lon="10.74468"><ele>155.0</ele><time>2026-05-05T08:23:56.639Z</time></trkpt><trkpt lat="43.3134117" lon="10.744595"><ele>155.0</ele><time>2026-05-05T08:23:57.639Z</time></trkpt><trkpt lat="43.3133917" lon="10.7445083"><ele>155.0</ele><time>2026-05-05T08:23:58.639Z</time></trkpt><trkpt lat="43.31342" lon="10.7443667"><ele>155.0</ele><time>2026-05-05T08:23:59.64Z</time></trkpt><trkpt lat="43.3134467" lon="10.7442267"><ele>155.0</ele><time>2026-05-05T08:24:00.64Z</time></trkpt><trkpt lat="43.3134867" lon="10.74408"><ele>155.0</ele><time>2026-05-05T08:24:01.64Z</time></trkpt><trkpt lat="43.3135233" lon="10.7439417"><ele>155.6</ele><time>2026-05-05T08:24:02.64Z</time></trkpt><trkpt lat="43.3135667" lon="10.7437967"><ele>156.2</ele><time>2026-05-05T08:24:03.639Z</time></trkpt><trkpt lat="43.313605" lon="10.7436467"><ele>156.8</ele><time>2026-05-05T08:24:04.64Z</time></trkpt><trkpt lat="43.3136433" lon="10.7435083"><ele>157.4</ele><time>2026-05-05T08:24:05.64Z</time></trkpt><trkpt lat="43.3136833" lon="10.7433717"><ele>158.0</ele><time>2026-05-05T08:24:06.639Z</time></trkpt><trkpt lat="43.31371" lon="10.7432333"><ele>158.20000000000002</ele><time>2026-05-05T08:24:07.639Z</time></trkpt><trkpt lat="43.3137067" lon="10.7431033"><ele>158.4</ele><time>2026-05-05T08:24:08.64Z</time></trkpt><trkpt lat="43.3136833" lon="10.74297"><ele>158.60000000000002</ele><time>2026-05-05T08:24:09.64Z</time></trkpt><trkpt lat="43.31363" lon="10.742855"><ele>158.8</ele><time>2026-05-05T08:24:10.64Z</time></trkpt><trkpt lat="43.313565" lon="10.7427617"><ele>159.0</ele><time>2026-05-05T08:24:11.639Z</time></trkpt><trkpt lat="43.3134967" lon="10.7426833"><ele>160.8</ele><time>2026-05-05T08:24:12.64Z</time></trkpt><trkpt lat="43.3134083" lon="10.7425967"><ele>162.60000000000002</ele><time>2026-05-05T08:24:13.64Z</time></trkpt><trkpt lat="43.31332" lon="10.7425267"><ele>164.4</ele><time>2026-05-05T08:24:14.64Z</time></trkpt><trkpt lat="43.3132333" lon="10.742435"><ele>166.20000000000002</ele><time>2026-05-05T08:24:15.64Z</time></trkpt><trkpt lat="43.31316" lon="10.742355"><ele>168.0</ele><time>2026-05-05T08:24:16.64Z</time></trkpt><trkpt lat="43.31308" lon="10.7422583"><ele>167.0</ele><time>2026-05-05T08:24:17.64Z</time></trkpt><trkpt lat="43.3130117" lon="10.7421467"><ele>166.0</ele><time>2026-05-05T08:24:18.64Z</time></trkpt><trkpt lat="43.31295" lon="10.7420267"><ele>165.0</ele><time>2026-05-05T08:24:19.64Z</time></trkpt><trkpt lat="43.3128933" lon="10.7419167"><ele>164.0</ele><time>2026-05-05T08:24:20.64Z</time></trkpt><trkpt lat="43.31283" lon="10.7418283"><ele>163.0</ele><time>2026-05-05T08:24:21.64Z</time></trkpt><trkpt lat="43.312755" lon="10.7417833"><ele>165.8</ele><time>2026-05-05T08:24:22.639Z</time></trkpt><trkpt lat="43.312665" lon="10.7417483"><ele>168.60000000000002</ele><time>2026-05-05T08:24:23.64Z</time></trkpt><trkpt lat="43.3125533" lon="10.7417433"><ele>171.39999999999998</ele><time>2026-05-05T08:24:24.639Z</time></trkpt><trkpt lat="43.31244" lon="10.741735"><ele>174.2</ele><time>2026-05-05T08:24:25.64Z</time></trkpt><trkpt lat="43.3123217" lon="10.74172"><ele>177.0</ele><time>2026-05-05T08:24:26.639Z</time></trkpt><trkpt lat="43.3122033" lon="10.7416783"><ele>177.0</ele><time>2026-05-05T08:24:27.64Z</time></trkpt><trkpt lat="43.3120883" lon="10.741625"><ele>177.0</ele><time>2026-05-05T08:24:28.639Z</time></trkpt><trkpt lat="43.3119583" lon="10.7415633"><ele>177.0</ele><time>2026-05-05T08:24:29.64Z</time></trkpt><trkpt lat="43.3118183" lon="10.7414867"><ele>177.0</ele><time>2026-05-05T08:24:30.64Z</time></trkpt><trkpt lat="43.3116967" lon="10.7414117"><ele>177.0</ele><time>2026-05-05T08:24:31.639Z</time></trkpt><trkpt lat="43.31158" lon="10.74134"><ele>177.0</ele><time>2026-05-05T08:24:32.64Z</time></trkpt><trkpt lat="43.311475" lon="10.741265"><ele>177.0</ele><time>2026-05-05T08:24:33.64Z</time></trkpt><trkpt lat="43.3113683" lon="10.7411917"><ele>177.0</ele><time>2026-05-05T08:24:34.64Z</time></trkpt><trkpt lat="43.3112567" lon="10.7411433"><ele>177.5</ele><time>2026-05-05T08:24:35.64Z</time></trkpt><trkpt lat="43.3111383" lon="10.7411"><ele>178.0</ele><time>2026-05-05T08:24:36.639Z</time></trkpt><trkpt lat="43.31102" lon="10.74107"><ele>178.5</ele><time>2026-05-05T08:24:37.64Z</time></trkpt><trkpt lat="43.3109083" lon="10.7410567"><ele>179.0</ele><time>2026-05-05T08:24:38.639Z</time></trkpt><trkpt lat="43.3107967" lon="10.74107"><ele>179.0</ele><time>2026-05-05T08:24:39.64Z</time></trkpt><trkpt lat="43.3106883" lon="10.7411183"><ele>179.0</ele><time>2026-05-05T08:24:40.639Z</time></trkpt><trkpt lat="43.3105867" lon="10.741185"><ele>179.0</ele><time>2026-05-05T08:24:41.64Z</time></trkpt><trkpt lat="43.310495" lon="10.7412717"><ele>179.0</ele><time>2026-05-05T08:24:42.64Z</time></trkpt><trkpt lat="43.3103933" lon="10.7413667"><ele>183.0</ele><time>2026-05-05T08:24:43.639Z</time></trkpt><trkpt lat="43.3102883" lon="10.7414517"><ele>187.0</ele><time>2026-05-05T08:24:44.64Z</time></trkpt><trkpt lat="43.31018" lon="10.741535"><ele>191.0</ele><time>2026-05-05T08:24:45.639Z</time></trkpt><trkpt lat="43.310085" lon="10.7416333"><ele>195.0</ele><time>2026-05-05T08:24:46.64Z</time></trkpt><trkpt lat="43.3100033" lon="10.7417317"><ele>195.0</ele><time>2026-05-05T08:24:47.64Z</time></trkpt><trkpt lat="43.3099283" lon="10.741815"><ele>195.0</ele><time>2026-05-05T08:24:48.64Z</time></trkpt><trkpt lat="43.3098417" lon="10.7418783"><ele>195.0</ele><time>2026-05-05T08:24:49.64Z</time></trkpt><trkpt lat="43.3097467" lon="10.7419367"><ele>195.0</ele><time>2026-05-05T08:24:50.64Z</time></trkpt><trkpt lat="43.3096433" lon="10.741995"><ele>195.0</ele><time>2026-05-05T08:24:51.64Z</time></trkpt><trkpt lat="43.309535" lon="10.74205"><ele>192.75</ele><time>2026-05-05T08:24:52.64Z</time></trkpt><trkpt lat="43.309425" lon="10.7421133"><ele>190.5</ele><time>2026-05-05T08:24:53.64Z</time></trkpt><trkpt lat="43.3093167" lon="10.74219"><ele>188.25</ele><time>2026-05-05T08:24:54.64Z</time></trkpt><trkpt lat="43.3092033" lon="10.74227"><ele>186.0</ele><time>2026-05-05T08:24:55.64Z</time></trkpt><trkpt lat="43.30909" lon="10.7423517"><ele>186.0</ele><time>2026-05-05T08:24:56.639Z</time></trkpt><trkpt lat="43.3089733" lon="10.7424283"><ele>186.0</ele><time>2026-05-05T08:24:57.64Z</time></trkpt><trkpt lat="43.30885" lon="10.742505"><ele>186.0</ele><time>2026-05-05T08:24:58.64Z</time></trkpt><trkpt lat="43.3087383" lon="10.7425833"><ele>186.0</ele><time>2026-05-05T08:24:59.64Z</time></trkpt><trkpt lat="43.308635" lon="10.7426583"><ele>183.5</ele><time>2026-05-05T08:25:00.639Z</time></trkpt><trkpt lat="43.3085217" lon="10.7427417"><ele>181.0</ele><time>2026-05-05T08:25:01.639Z</time></trkpt><trkpt lat="43.3084033" lon="10.742805"><ele>178.5</ele><time>2026-05-05T08:25:02.639Z</time></trkpt><trkpt lat="43.3082917" lon="10.7428583"><ele>176.0</ele><time>2026-05-05T08:25:03.639Z</time></trkpt><trkpt lat="43.3081667" lon="10.7429017"><ele>177.75</ele><time>2026-05-05T08:25:04.638Z</time></trkpt><trkpt lat="43.308035" lon="10.7429417"><ele>179.5</ele><time>2026-05-05T08:25:05.639Z</time></trkpt><trkpt lat="43.3079017" lon="10.7429817"><ele>181.25</ele><time>2026-05-05T08:25:06.639Z</time></trkpt><trkpt lat="43.3077633" lon="10.74302"><ele>183.0</ele><time>2026-05-05T08:25:07.638Z</time></trkpt><trkpt lat="43.30763" lon="10.7430567"><ele>183.0</ele><time>2026-05-05T08:25:08.639Z</time></trkpt><trkpt lat="43.3075" lon="10.743075"><ele>183.0</ele><time>2026-05-05T08:25:09.638Z</time></trkpt><trkpt lat="43.307375" lon="10.74311"><ele>183.0</ele><time>2026-05-05T08:25:10.638Z</time></trkpt><trkpt lat="43.3072567" lon="10.7431383"><ele>183.0</ele><time>2026-05-05T08:25:11.638Z</time></trkpt><trkpt lat="43.3071467" lon="10.743165"><ele>184.4</ele><time>2026-05-05T08:25:12.638Z</time></trkpt><trkpt lat="43.3070317" lon="10.7431667"><ele>185.8</ele><time>2026-05-05T08:25:13.639Z</time></trkpt><trkpt lat="43.3069267" lon="10.74316"><ele>187.2</ele><time>2026-05-05T08:25:14.638Z</time></trkpt><trkpt lat="43.3068333" lon="10.7431233"><ele>188.6</ele><time>2026-05-05T08:25:15.638Z</time></trkpt><trkpt lat="43.306735" lon="10.7430983"><ele>190.0</ele><time>2026-05-05T08:25:16.639Z</time></trkpt><trkpt lat="43.3066367" lon="10.7431017"><ele>190.0</ele><time>2026-05-05T08:25:17.638Z</time></trkpt><trkpt lat="43.306545" lon="10.7431317"><ele>190.0</ele><time>2026-05-05T08:25:18.639Z</time></trkpt><trkpt lat="43.3064467" lon="10.7432017"><ele>190.0</ele><time>2026-05-05T08:25:19.639Z</time></trkpt><trkpt lat="43.3063567" lon="10.743305"><ele>190.0</ele><time>2026-05-05T08:25:20.639Z</time></trkpt><trkpt lat="43.30628" lon="10.743425"><ele>190.0</ele><time>2026-05-05T08:25:21.639Z</time></trkpt><trkpt lat="43.3062133" lon="10.74353"><ele>190.8</ele><time>2026-05-05T08:25:22.639Z</time></trkpt><trkpt lat="43.3061483" lon="10.743625"><ele>191.6</ele><time>2026-05-05T08:25:23.638Z</time></trkpt><trkpt lat="43.306075" lon="10.7437217"><ele>192.39999999999998</ele><time>2026-05-05T08:25:24.638Z</time></trkpt><trkpt lat="43.3059967" lon="10.7438133"><ele>193.2</ele><time>2026-05-05T08:25:25.639Z</time></trkpt><trkpt lat="43.3059167" lon="10.743905"><ele>194.0</ele><time>2026-05-05T08:25:26.639Z</time></trkpt><trkpt lat="43.305835" lon="10.7439867"><ele>194.0</ele><time>2026-05-05T08:25:27.639Z</time></trkpt><trkpt lat="43.3057517" lon="10.7440617"><ele>194.0</ele><time>2026-05-05T08:25:28.638Z</time></trkpt><trkpt lat="43.3056433" lon="10.7441"><ele>194.0</ele><time>2026-05-05T08:25:29.638Z</time></trkpt><trkpt lat="43.3055417" lon="10.74413"><ele>194.0</ele><time>2026-05-05T08:25:30.639Z</time></trkpt><trkpt lat="43.3054433" lon="10.7441717"><ele>194.0</ele><time>2026-05-05T08:25:31.639Z</time></trkpt><trkpt lat="43.3053583" lon="10.7442267"><ele>194.66666666666669</ele><time>2026-05-05T08:25:32.639Z</time></trkpt><trkpt lat="43.3052717" lon="10.7442917"><ele>195.33333333333334</ele><time>2026-05-05T08:25:33.638Z</time></trkpt><trkpt lat="43.3051933" lon="10.7443617"><ele>196.0</ele><time>2026-05-05T08:25:34.639Z</time></trkpt><trkpt lat="43.305115" lon="10.7444333"><ele>196.66666666666669</ele><time>2026-05-05T08:25:35.639Z</time></trkpt><trkpt lat="43.3050417" lon="10.7444833"><ele>197.33333333333334</ele><time>2026-05-05T08:25:36.639Z</time></trkpt><trkpt lat="43.3049717" lon="10.74451"><ele>198.0</ele><time>2026-05-05T08:25:37.638Z</time></trkpt><trkpt lat="43.3049017" lon="10.7445"><ele>198.16666666666666</ele><time>2026-05-05T08:25:38.638Z</time></trkpt><trkpt lat="43.3048417" lon="10.7444683"><ele>198.33333333333331</ele><time>2026-05-05T08:25:39.639Z</time></trkpt><trkpt lat="43.3047817" lon="10.7444083"><ele>198.5</ele><time>2026-05-05T08:25:40.638Z</time></trkpt><trkpt lat="43.304715" lon="10.7443283"><ele>198.66666666666666</ele><time>2026-05-05T08:25:41.639Z</time></trkpt><trkpt lat="43.3046467" lon="10.7442617"><ele>198.83333333333331</ele><time>2026-05-05T08:25:42.638Z</time></trkpt><trkpt lat="43.304575" lon="10.744215"><ele>199.0</ele><time>2026-05-05T08:25:43.639Z</time></trkpt><trkpt lat="43.30451" lon="10.7441983"><ele>199.0</ele><time>2026-05-05T08:25:44.639Z</time></trkpt><trkpt lat="43.3044317" lon="10.7442133"><ele>199.0</ele><time>2026-05-05T08:25:45.639Z</time></trkpt><trkpt lat="43.304345" lon="10.7442667"><ele>199.0</ele><time>2026-05-05T08:25:46.638Z</time></trkpt><trkpt lat="43.3042583" lon="10.744345"><ele>199.0</ele><time>2026-05-05T08:25:47.639Z</time></trkpt><trkpt lat="43.3041683" lon="10.744445"><ele>199.0</ele><time>2026-05-05T08:25:48.639Z</time></trkpt><trkpt lat="43.3040667" lon="10.7445517"><ele>200.2</ele><time>2026-05-05T08:25:49.639Z</time></trkpt><trkpt lat="43.3039733" lon="10.7446467"><ele>201.39999999999998</ele><time>2026-05-05T08:25:50.639Z</time></trkpt><trkpt lat="43.3038917" lon="10.7447283"><ele>202.6</ele><time>2026-05-05T08:25:51.639Z</time></trkpt><trkpt lat="43.3037983" lon="10.7447867"><ele>203.8</ele><time>2026-05-05T08:25:52.639Z</time></trkpt><trkpt lat="43.3036933" lon="10.7448233"><ele>205.0</ele><time>2026-05-05T08:25:53.639Z</time></trkpt><trkpt lat="43.303575" lon="10.7448283"><ele>205.0</ele><time>2026-05-05T08:25:54.639Z</time></trkpt><trkpt lat="43.303455" lon="10.7448217"><ele>205.0</ele><time>2026-05-05T08:25:55.639Z</time></trkpt><trkpt lat="43.303345" lon="10.7448083"><ele>205.0</ele><time>2026-05-05T08:25:56.639Z</time></trkpt><trkpt lat="43.3032467" lon="10.7448"><ele>205.0</ele><time>2026-05-05T08:25:57.639Z</time></trkpt><trkpt lat="43.3031367" lon="10.744775"><ele>205.0</ele><time>2026-05-05T08:25:58.639Z</time></trkpt><trkpt lat="43.3030367" lon="10.7447367"><ele>204.0</ele><time>2026-05-05T08:25:59.639Z</time></trkpt><trkpt lat="43.3029367" lon="10.7446883"><ele>203.0</ele><time>2026-05-05T08:26:00.638Z</time></trkpt><trkpt lat="43.3028417" lon="10.744645"><ele>202.0</ele><time>2026-05-05T08:26:01.639Z</time></trkpt><trkpt lat="43.3027367" lon="10.7446"><ele>201.0</ele><time>2026-05-05T08:26:02.639Z</time></trkpt><trkpt lat="43.3026533" lon="10.74455"><ele>200.0</ele><time>2026-05-05T08:26:03.639Z</time></trkpt><trkpt lat="43.3025883" lon="10.7444733"><ele>200.00000000000003</ele><time>2026-05-05T08:26:04.639Z</time></trkpt><trkpt lat="43.3025333" lon="10.7443883"><ele>200.0</ele><time>2026-05-05T08:26:05.639Z</time></trkpt><trkpt lat="43.3024933" lon="10.74429"><ele>200.0</ele><time>2026-05-05T08:26:06.639Z</time></trkpt><trkpt lat="43.3024383" lon="10.7442033"><ele>200.0</ele><time>2026-05-05T08:26:07.638Z</time></trkpt><trkpt lat="43.3023817" lon="10.74414"><ele>200.00000000000003</ele><time>2026-05-05T08:26:08.639Z</time></trkpt><trkpt lat="43.3023117" lon="10.7441"><ele>200.0</ele><time>2026-05-05T08:26:09.639Z</time></trkpt><trkpt lat="43.30223" lon="10.7440867"><ele>201.16666666666669</ele><time>2026-05-05T08:26:10.639Z</time></trkpt><trkpt lat="43.30215" lon="10.7440733"><ele>202.33333333333334</ele><time>2026-05-05T08:26:11.639Z</time></trkpt><trkpt lat="43.3020733" lon="10.7440383"><ele>203.5</ele><time>2026-05-05T08:26:12.638Z</time></trkpt><trkpt lat="43.3019833" lon="10.7439867"><ele>204.66666666666669</ele><time>2026-05-05T08:26:13.639Z</time></trkpt><trkpt lat="43.30191" lon="10.7439183"><ele>205.83333333333334</ele><time>2026-05-05T08:26:14.639Z</time></trkpt><trkpt lat="43.301845" lon="10.743825"><ele>207.0</ele><time>2026-05-05T08:26:15.639Z</time></trkpt><trkpt lat="43.30179" lon="10.7437133"><ele>207.0</ele><time>2026-05-05T08:26:16.639Z</time></trkpt><trkpt lat="43.3017383" lon="10.7435817"><ele>207.0</ele><time>2026-05-05T08:26:17.638Z</time></trkpt><trkpt lat="43.3016983" lon="10.7434317"><ele>207.0</ele><time>2026-05-05T08:26:18.638Z</time></trkpt><trkpt lat="43.301645" lon="10.743285"><ele>207.0</ele><time>2026-05-05T08:26:19.639Z</time></trkpt><trkpt lat="43.3015917" lon="10.7431433"><ele>208.25</ele><time>2026-05-05T08:26:20.639Z</time></trkpt><trkpt lat="43.30154" lon="10.7429917"><ele>209.5</ele><time>2026-05-05T08:26:21.638Z</time></trkpt><trkpt lat="43.3014883" lon="10.74284"><ele>210.75</ele><time>2026-05-05T08:26:22.639Z</time></trkpt><trkpt lat="43.3014467" lon="10.742685"><ele>212.0</ele><time>2026-05-05T08:26:23.639Z</time></trkpt><trkpt lat="43.3013983" lon="10.742535"><ele>212.0</ele><time>2026-05-05T08:26:24.638Z</time></trkpt><trkpt lat="43.3013483" lon="10.7423967"><ele>212.0</ele><time>2026-05-05T08:26:25.639Z</time></trkpt><trkpt lat="43.3012983" lon="10.7422683"><ele>212.0</ele><time>2026-05-05T08:26:26.639Z</time></trkpt><trkpt lat="43.301235" lon="10.7421417"><ele>212.0</ele><time>2026-05-05T08:26:27.639Z</time></trkpt><trkpt lat="43.3011717" lon="10.7420267"><ele>212.0</ele><time>2026-05-05T08:26:28.639Z</time></trkpt><trkpt lat="43.3010967" lon="10.7419117"><ele>212.5</ele><time>2026-05-05T08:26:29.638Z</time></trkpt><trkpt lat="43.3010067" lon="10.7417983"><ele>213.0</ele><time>2026-05-05T08:26:30.639Z</time></trkpt><trkpt lat="43.3009017" lon="10.7416867"><ele>213.5</ele><time>2026-05-05T08:26:31.639Z</time></trkpt><trkpt lat="43.300805" lon="10.741605"><ele>214.0</ele><time>2026-05-05T08:26:32.638Z</time></trkpt><trkpt lat="43.3007033" lon="10.7415333"><ele>214.0</ele><time>2026-05-05T08:26:33.639Z</time></trkpt><trkpt lat="43.3006183" lon="10.7414367"><ele>213.99999999999997</ele><time>2026-05-05T08:26:34.638Z</time></trkpt><trkpt lat="43.3005383" lon="10.741345"><ele>213.99999999999997</ele><time>2026-05-05T08:26:35.638Z</time></trkpt><trkpt lat="43.3004783" lon="10.7412283"><ele>214.0</ele><time>2026-05-05T08:26:36.639Z</time></trkpt><trkpt lat="43.30045" lon="10.7410917"><ele>214.0</ele><time>2026-05-05T08:26:37.639Z</time></trkpt><trkpt lat="43.300445" lon="10.74094"><ele>216.75</ele><time>2026-05-05T08:26:38.638Z</time></trkpt><trkpt lat="43.3004617" lon="10.7407767"><ele>219.5</ele><time>2026-05-05T08:26:39.638Z</time></trkpt><trkpt lat="43.3004783" lon="10.7406083"><ele>222.25</ele><time>2026-05-05T08:26:40.639Z</time></trkpt><trkpt lat="43.30049" lon="10.74043"><ele>225.0</ele><time>2026-05-05T08:26:41.639Z</time></trkpt><trkpt lat="43.300495" lon="10.7402617"><ele>226.75</ele><time>2026-05-05T08:26:42.639Z</time></trkpt><trkpt lat="43.3005083" lon="10.7400967"><ele>228.5</ele><time>2026-05-05T08:26:43.639Z</time></trkpt><trkpt lat="43.3005233" lon="10.7399333"><ele>230.25</ele><time>2026-05-05T08:26:44.639Z</time></trkpt><trkpt lat="43.300525" lon="10.7397783"><ele>232.0</ele><time>2026-05-05T08:26:45.639Z</time></trkpt><trkpt lat="43.3005333" lon="10.739625"><ele>232.0</ele><time>2026-05-05T08:26:46.638Z</time></trkpt><trkpt lat="43.300535" lon="10.739455"><ele>232.0</ele><time>2026-05-05T08:26:47.638Z</time></trkpt><trkpt lat="43.3005433" lon="10.7392983"><ele>232.0</ele><time>2026-05-05T08:26:48.639Z</time></trkpt><trkpt lat="43.3005583" lon="10.739145"><ele>232.0</ele><time>2026-05-05T08:26:49.639Z</time></trkpt><trkpt lat="43.300575" lon="10.7389833"><ele>229.5</ele><time>2026-05-05T08:26:50.639Z</time></trkpt><trkpt lat="43.30061" lon="10.73883"><ele>227.0</ele><time>2026-05-05T08:26:51.639Z</time></trkpt><trkpt lat="43.3006617" lon="10.7386833"><ele>224.5</ele><time>2026-05-05T08:26:52.638Z</time></trkpt><trkpt lat="43.3006933" lon="10.7385317"><ele>222.0</ele><time>2026-05-05T08:26:53.638Z</time></trkpt><trkpt lat="43.3006983" lon="10.7383833"><ele>222.0</ele><time>2026-05-05T08:26:54.638Z</time></trkpt><trkpt lat="43.3006967" lon="10.73824"><ele>222.0</ele><time>2026-05-05T08:26:55.638Z</time></trkpt><trkpt lat="43.3006833" lon="10.7381"><ele>222.0</ele><time>2026-05-05T08:26:56.638Z</time></trkpt><trkpt lat="43.3006717" lon="10.7379633"><ele>222.0</ele><time>2026-05-05T08:26:57.639Z</time></trkpt><trkpt lat="43.3006667" lon="10.7378283"><ele>222.0</ele><time>2026-05-05T08:26:58.639Z</time></trkpt><trkpt lat="43.30065" lon="10.7376883"><ele>222.5</ele><time>2026-05-05T08:26:59.639Z</time></trkpt><trkpt lat="43.3006433" lon="10.7375433"><ele>223.0</ele><time>2026-05-05T08:27:00.638Z</time></trkpt><trkpt lat="43.3006333" lon="10.7374033"><ele>223.5</ele><time>2026-05-05T08:27:01.639Z</time></trkpt><trkpt lat="43.30061" lon="10.7372767"><ele>224.0</ele><time>2026-05-05T08:27:02.639Z</time></trkpt><trkpt lat="43.3005817" lon="10.7371767"><ele>224.5</ele><time>2026-05-05T08:27:03.639Z</time></trkpt><trkpt lat="43.3005567" lon="10.7370933"><ele>225.0</ele><time>2026-05-05T08:27:04.639Z</time></trkpt><trkpt lat="43.3005067" lon="10.737015"><ele>227.8</ele><time>2026-05-05T08:27:05.638Z</time></trkpt><trkpt lat="43.30046" lon="10.7369367"><ele>230.6</ele><time>2026-05-05T08:27:06.638Z</time></trkpt><trkpt lat="43.3003867" lon="10.7368817"><ele>233.39999999999998</ele><time>2026-05-05T08:27:07.639Z</time></trkpt><trkpt lat="43.3002817" lon="10.7368717"><ele>236.2</ele><time>2026-05-05T08:27:08.639Z</time></trkpt><trkpt lat="43.3001783" lon="10.7368717"><ele>239.0</ele><time>2026-05-05T08:27:09.638Z</time></trkpt><trkpt lat="43.3000817" lon="10.736865"><ele>239.0</ele><time>2026-05-05T08:27:10.639Z</time></trkpt><trkpt lat="43.2999883" lon="10.736845"><ele>238.99999999999997</ele><time>2026-05-05T08:27:11.639Z</time></trkpt><trkpt lat="43.2998967" lon="10.7368083"><ele>238.99999999999997</ele><time>2026-05-05T08:27:12.639Z</time></trkpt><trkpt lat="43.299815" lon="10.7367567"><ele>239.0</ele><time>2026-05-05T08:27:13.639Z</time></trkpt><trkpt lat="43.2997267" lon="10.7366783"><ele>239.0</ele><time>2026-05-05T08:27:14.639Z</time></trkpt><trkpt lat="43.299685" lon="10.7365383"><ele>240.39999999999998</ele><time>2026-05-05T08:27:15.639Z</time></trkpt><trkpt lat="43.2996383" lon="10.73641"><ele>241.79999999999998</ele><time>2026-05-05T08:27:16.638Z</time></trkpt><trkpt lat="43.29959" lon="10.73626"><ele>243.20000000000002</ele><time>2026-05-05T08:27:17.639Z</time></trkpt><trkpt lat="43.29955" lon="10.73614"><ele>244.60000000000002</ele><time>2026-05-05T08:27:18.639Z</time></trkpt><trkpt lat="43.299485" lon="10.73605"><ele>246.0</ele><time>2026-05-05T08:27:19.639Z</time></trkpt><trkpt lat="43.2994183" lon="10.7359867"><ele>246.0</ele><time>2026-05-05T08:27:20.639Z</time></trkpt><trkpt lat="43.2993367" lon="10.7359667"><ele>246.0</ele><time>2026-05-05T08:27:21.639Z</time></trkpt><trkpt lat="43.2992583" lon="10.7359817"><ele>246.0</ele><time>2026-05-05T08:27:22.638Z</time></trkpt><trkpt lat="43.2992" lon="10.7360283"><ele>246.0</ele><time>2026-05-05T08:27:23.639Z</time></trkpt><trkpt lat="43.2991483" lon="10.7361017"><ele>246.0</ele><time>2026-05-05T08:27:24.639Z</time></trkpt><trkpt lat="43.2991233" lon="10.736215"><ele>246.0</ele><time>2026-05-05T08:27:25.638Z</time></trkpt><trkpt lat="43.2990983" lon="10.7363217"><ele>246.0</ele><time>2026-05-05T08:27:26.639Z</time></trkpt><trkpt lat="43.2990733" lon="10.7364267"><ele>246.0</ele><time>2026-05-05T08:27:27.638Z</time></trkpt><trkpt lat="43.29905" lon="10.7365367"><ele>246.0</ele><time>2026-05-05T08:27:28.639Z</time></trkpt><trkpt lat="43.2990017" lon="10.736635"><ele>246.0</ele><time>2026-05-05T08:27:29.638Z</time></trkpt><trkpt lat="43.2989417" lon="10.73672"><ele>246.0</ele><time>2026-05-05T08:27:30.639Z</time></trkpt><trkpt lat="43.2988733" lon="10.73681"><ele>246.0</ele><time>2026-05-05T08:27:31.638Z</time></trkpt><trkpt lat="43.2987867" lon="10.7368967"><ele>247.4</ele><time>2026-05-05T08:27:32.639Z</time></trkpt><trkpt lat="43.2987033" lon="10.7369733"><ele>248.8</ele><time>2026-05-05T08:27:33.638Z</time></trkpt><trkpt lat="43.2986233" lon="10.7370417"><ele>250.20000000000002</ele><time>2026-05-05T08:27:34.639Z</time></trkpt><trkpt lat="43.2985433" lon="10.73711"><ele>251.60000000000002</ele><time>2026-05-05T08:27:35.639Z</time></trkpt><trkpt lat="43.29847" lon="10.7371717"><ele>253.0</ele><time>2026-05-05T08:27:36.639Z</time></trkpt><trkpt lat="43.29837" lon="10.7371817"><ele>253.0</ele><time>2026-05-05T08:27:37.639Z</time></trkpt><trkpt lat="43.2982517" lon="10.7371733"><ele>253.0</ele><time>2026-05-05T08:27:38.639Z</time></trkpt><trkpt lat="43.298135" lon="10.7371533"><ele>253.0</ele><time>2026-05-05T08:27:39.639Z</time></trkpt><trkpt lat="43.2980383" lon="10.737145"><ele>253.0</ele><time>2026-05-05T08:27:40.639Z</time></trkpt><trkpt lat="43.2979433" lon="10.73711"><ele>253.0</ele><time>2026-05-05T08:27:41.639Z</time></trkpt><trkpt lat="43.2978533" lon="10.7370633"><ele>253.4</ele><time>2026-05-05T08:27:42.638Z</time></trkpt><trkpt lat="43.2977517" lon="10.737005"><ele>253.8</ele><time>2026-05-05T08:27:43.638Z</time></trkpt><trkpt lat="43.2976717" lon="10.7369467"><ele>254.2</ele><time>2026-05-05T08:27:44.639Z</time></trkpt><trkpt lat="43.2975933" lon="10.7368567"><ele>254.6</ele><time>2026-05-05T08:27:45.638Z</time></trkpt><trkpt lat="43.2975583" lon="10.7367333"><ele>255.0</ele><time>2026-05-05T08:27:46.638Z</time></trkpt><trkpt lat="43.2975417" lon="10.7366133"><ele>255.0</ele><time>2026-05-05T08:27:47.639Z</time></trkpt><trkpt lat="43.297525" lon="10.736505"><ele>255.0</ele><time>2026-05-05T08:27:48.639Z</time></trkpt><trkpt lat="43.297525" lon="10.7364117"><ele>255.0</ele><time>2026-05-05T08:27:49.639Z</time></trkpt><trkpt lat="43.2975183" lon="10.7363017"><ele>255.0</ele><time>2026-05-05T08:27:50.639Z</time></trkpt><trkpt lat="43.2975067" lon="10.7361917"><ele>255.0</ele><time>2026-05-05T08:27:51.639Z</time></trkpt><trkpt lat="43.2974967" lon="10.736075"><ele>255.0</ele><time>2026-05-05T08:27:52.639Z</time></trkpt><trkpt lat="43.2974833" lon="10.73594"><ele>253.66666666666666</ele><time>2026-05-05T08:27:53.638Z</time></trkpt><trkpt lat="43.297455" lon="10.7358067"><ele>252.33333333333331</ele><time>2026-05-05T08:27:54.639Z</time></trkpt><trkpt lat="43.2974217" lon="10.7356883"><ele>251.0</ele><time>2026-05-05T08:27:55.639Z</time></trkpt><trkpt lat="43.2973767" lon="10.735595"><ele>249.66666666666666</ele><time>2026-05-05T08:27:56.639Z</time></trkpt><trkpt lat="43.2973117" lon="10.735535"><ele>248.33333333333331</ele><time>2026-05-05T08:27:57.639Z</time></trkpt><trkpt lat="43.2972383" lon="10.73548"><ele>247.0</ele><time>2026-05-05T08:27:58.638Z</time></trkpt><trkpt lat="43.2971717" lon="10.735435"><ele>249.83333333333331</ele><time>2026-05-05T08:27:59.638Z</time></trkpt><trkpt lat="43.2971133" lon="10.735385"><ele>252.66666666666666</ele><time>2026-05-05T08:28:00.639Z</time></trkpt><trkpt lat="43.2970433" lon="10.7352783"><ele>255.5</ele><time>2026-05-05T08:28:02.638Z</time></trkpt><trkpt lat="43.2970183" lon="10.735195"><ele>258.3333333333333</ele><time>2026-05-05T08:28:03.639Z</time></trkpt><trkpt lat="43.2969967" lon="10.7350983"><ele>261.1666666666667</ele><time>2026-05-05T08:28:04.639Z</time></trkpt><trkpt lat="43.2969733" lon="10.734985"><ele>264.0</ele><time>2026-05-05T08:28:05.638Z</time></trkpt><trkpt lat="43.2969317" lon="10.7348933"><ele>264.0</ele><time>2026-05-05T08:28:06.639Z</time></trkpt><trkpt lat="43.296885" lon="10.734795"><ele>264.0</ele><time>2026-05-05T08:28:07.639Z</time></trkpt><trkpt lat="43.2968183" lon="10.73472"><ele>264.0</ele><time>2026-05-05T08:28:08.639Z</time></trkpt><trkpt lat="43.2967367" lon="10.7346567"><ele>264.0</ele><time>2026-05-05T08:28:09.639Z</time></trkpt><trkpt lat="43.296655" lon="10.734575"><ele>264.0</ele><time>2026-05-05T08:28:10.639Z</time></trkpt><trkpt lat="43.2965667" lon="10.73449"><ele>264.0</ele><time>2026-05-05T08:28:11.639Z</time></trkpt><trkpt lat="43.2964867" lon="10.734405"><ele>264.0</ele><time>2026-05-05T08:28:12.639Z</time></trkpt><trkpt lat="43.29641" lon="10.7342733"><ele>264.0</ele><time>2026-05-05T08:28:13.639Z</time></trkpt><trkpt lat="43.2963233" lon="10.7341317"><ele>264.0</ele><time>2026-05-05T08:28:14.639Z</time></trkpt><trkpt lat="43.296235" lon="10.7339883"><ele>266.0</ele><time>2026-05-05T08:28:15.639Z</time></trkpt><trkpt lat="43.296155" lon="10.7338633"><ele>268.0</ele><time>2026-05-05T08:28:16.637Z</time></trkpt><trkpt lat="43.296075" lon="10.733725"><ele>270.0</ele><time>2026-05-05T08:28:17.637Z</time></trkpt><trkpt lat="43.296005" lon="10.7335983"><ele>272.0</ele><time>2026-05-05T08:28:18.637Z</time></trkpt><trkpt lat="43.2959267" lon="10.733475"><ele>266.0</ele><time>2026-05-05T08:28:19.637Z</time></trkpt><trkpt lat="43.29585" lon="10.73335"><ele>260.0</ele><time>2026-05-05T08:28:20.638Z</time></trkpt><trkpt lat="43.2957767" lon="10.7332217"><ele>254.0</ele><time>2026-05-05T08:28:21.638Z</time></trkpt><trkpt lat="43.2957083" lon="10.7330783"><ele>248.0</ele><time>2026-05-05T08:28:22.638Z</time></trkpt><trkpt lat="43.29564" lon="10.7329567"><ele>249.60000000000002</ele><time>2026-05-05T08:28:23.638Z</time></trkpt><trkpt lat="43.2955817" lon="10.7328183"><ele>251.20000000000002</ele><time>2026-05-05T08:28:24.637Z</time></trkpt><trkpt lat="43.295525" lon="10.73268"><ele>252.8</ele><time>2026-05-05T08:28:25.638Z</time></trkpt><trkpt lat="43.295455" lon="10.7325783"><ele>254.4</ele><time>2026-05-05T08:28:26.638Z</time></trkpt><trkpt lat="43.2953917" lon="10.7324683"><ele>256.0</ele><time>2026-05-05T08:28:27.638Z</time></trkpt><trkpt lat="43.29531" lon="10.7323717"><ele>256.0</ele><time>2026-05-05T08:28:28.637Z</time></trkpt><trkpt lat="43.2952133" lon="10.732285"><ele>256.0</ele><time>2026-05-05T08:28:29.637Z</time></trkpt><trkpt lat="43.295115" lon="10.7322133"><ele>256.0</ele><time>2026-05-05T08:28:30.637Z</time></trkpt><trkpt lat="43.2950083" lon="10.7321333"><ele>256.0</ele><time>2026-05-05T08:28:31.638Z</time></trkpt><trkpt lat="43.2948967" lon="10.7320567"><ele>256.0</ele><time>2026-05-05T08:28:32.638Z</time></trkpt><trkpt lat="43.2947917" lon="10.731995"><ele>256.0</ele><time>2026-05-05T08:28:33.638Z</time></trkpt><trkpt lat="43.294685" lon="10.7319317"><ele>256.0</ele><time>2026-05-05T08:28:34.637Z</time></trkpt><trkpt lat="43.2945783" lon="10.73184"><ele>256.0</ele><time>2026-05-05T08:28:35.638Z</time></trkpt><trkpt lat="43.2944933" lon="10.731795"><ele>256.0</ele><time>2026-05-05T08:28:36.638Z</time></trkpt><trkpt lat="43.294425" lon="10.7317233"><ele>255.16666666666666</ele><time>2026-05-05T08:28:37.637Z</time></trkpt><trkpt lat="43.2943583" lon="10.73166"><ele>254.33333333333331</ele><time>2026-05-05T08:28:38.637Z</time></trkpt><trkpt lat="43.2943033" lon="10.7315733"><ele>253.5</ele><time>2026-05-05T08:28:39.637Z</time></trkpt><trkpt lat="43.294275" lon="10.731485"><ele>252.66666666666669</ele><time>2026-05-05T08:28:40.638Z</time></trkpt><trkpt lat="43.29428" lon="10.7313783"><ele>251.83333333333334</ele><time>2026-05-05T08:28:41.638Z</time></trkpt><trkpt lat="43.2943117" lon="10.7312633"><ele>251.0</ele><time>2026-05-05T08:28:42.638Z</time></trkpt><trkpt lat="43.2943833" lon="10.7311283"><ele>252.25</ele><time>2026-05-05T08:28:43.637Z</time></trkpt><trkpt lat="43.2944717" lon="10.7309917"><ele>253.5</ele><time>2026-05-05T08:28:44.638Z</time></trkpt><trkpt lat="43.2945833" lon="10.7308567"><ele>254.75</ele><time>2026-05-05T08:28:45.638Z</time></trkpt><trkpt lat="43.2946417" lon="10.73074"><ele>256.0</ele><time>2026-05-05T08:28:46.638Z</time></trkpt><trkpt lat="43.2946883" lon="10.7306067"><ele>255.99999999999997</ele><time>2026-05-05T08:28:47.638Z</time></trkpt><trkpt lat="43.2947083" lon="10.7304783"><ele>256.0</ele><time>2026-05-05T08:28:48.638Z</time></trkpt><trkpt lat="43.2947067" lon="10.7303417"><ele>256.0</ele><time>2026-05-05T08:28:49.638Z</time></trkpt><trkpt lat="43.2946817" lon="10.73022"><ele>256.0</ele><time>2026-05-05T08:28:50.638Z</time></trkpt><trkpt lat="43.2946567" lon="10.7301183"><ele>255.99999999999997</ele><time>2026-05-05T08:28:51.638Z</time></trkpt><trkpt lat="43.294635" lon="10.7300283"><ele>256.0</ele><time>2026-05-05T08:28:52.637Z</time></trkpt><trkpt lat="43.2945983" lon="10.7299033"><ele>255.60000000000002</ele><time>2026-05-05T08:28:54.637Z</time></trkpt><trkpt lat="43.2946117" lon="10.7298017"><ele>255.20000000000002</ele><time>2026-05-05T08:29:17.638Z</time></trkpt><trkpt lat="43.2946867" lon="10.72974"><ele>254.79999999999998</ele><time>2026-05-05T08:29:20.638Z</time></trkpt><trkpt lat="43.2947117" lon="10.729605"><ele>254.39999999999998</ele><time>2026-05-05T08:29:23.637Z</time></trkpt><trkpt lat="43.2947283" lon="10.729505"><ele>254.0</ele><time>2026-05-05T08:29:25.638Z</time></trkpt><trkpt lat="43.2948133" lon="10.7293867"><ele>252.33333333333334</ele><time>2026-05-05T08:29:27.638Z</time></trkpt><trkpt lat="43.2948783" lon="10.7293267"><ele>250.66666666666669</ele><time>2026-05-05T08:29:28.638Z</time></trkpt><trkpt lat="43.294945" lon="10.7292733"><ele>249.0</ele><time>2026-05-05T08:29:29.638Z</time></trkpt><trkpt lat="43.29502" lon="10.7292117"><ele>247.33333333333331</ele><time>2026-05-05T08:29:30.637Z</time></trkpt><trkpt lat="43.2950917" lon="10.7291567"><ele>245.66666666666666</ele><time>2026-05-05T08:29:31.638Z</time></trkpt><trkpt lat="43.2951667" lon="10.7290933"><ele>244.0</ele><time>2026-05-05T08:29:32.637Z</time></trkpt><trkpt lat="43.29524" lon="10.72903"><ele>243.99999999999997</ele><time>2026-05-05T08:29:33.638Z</time></trkpt><trkpt lat="43.2953033" lon="10.7289617"><ele>244.0</ele><time>2026-05-05T08:29:34.637Z</time></trkpt><trkpt lat="43.2953717" lon="10.7288883"><ele>244.0</ele><time>2026-05-05T08:29:35.638Z</time></trkpt><trkpt lat="43.29544" lon="10.7288117"><ele>244.0</ele><time>2026-05-05T08:29:36.638Z</time></trkpt><trkpt lat="43.2954933" lon="10.7287417"><ele>243.99999999999997</ele><time>2026-05-05T08:29:37.638Z</time></trkpt><trkpt lat="43.2955483" lon="10.7286317"><ele>244.0</ele><time>2026-05-05T08:29:39.638Z</time></trkpt><trkpt lat="43.2955833" lon="10.728545"><ele>240.7142857142857</ele><time>2026-05-05T08:29:41.638Z</time></trkpt><trkpt lat="43.2956283" lon="10.7284567"><ele>237.42857142857142</ele><time>2026-05-05T08:29:44.638Z</time></trkpt><trkpt lat="43.2956583" lon="10.7283433"><ele>234.14285714285714</ele><time>2026-05-05T08:29:46.638Z</time></trkpt><trkpt lat="43.29569" lon="10.7282567"><ele>230.85714285714283</ele><time>2026-05-05T08:29:47.638Z</time></trkpt><trkpt lat="43.2957283" lon="10.7281817"><ele>227.57142857142856</ele><time>2026-05-05T08:29:48.638Z</time></trkpt><trkpt lat="43.2957667" lon="10.7281"><ele>224.2857142857143</ele><time>2026-05-05T08:29:49.638Z</time></trkpt><trkpt lat="43.2958083" lon="10.728015"><ele>221.0</ele><time>2026-05-05T08:29:50.637Z</time></trkpt><trkpt lat="43.2958417" lon="10.72794"><ele>221.00000000000003</ele><time>2026-05-05T08:29:51.637Z</time></trkpt><trkpt lat="43.2958633" lon="10.7277983"><ele>221.0</ele><time>2026-05-05T08:29:53.638Z</time></trkpt><trkpt lat="43.2958117" lon="10.7276517"><ele>221.0</ele><time>2026-05-05T08:29:55.637Z</time></trkpt><trkpt lat="43.2957667" lon="10.72759"><ele>221.0</ele><time>2026-05-05T08:29:56.638Z</time></trkpt><trkpt lat="43.29571" lon="10.7275417"><ele>221.00000000000003</ele><time>2026-05-05T08:29:57.638Z</time></trkpt><trkpt lat="43.2956517" lon="10.7274817"><ele>221.0</ele><time>2026-05-05T08:29:58.637Z</time></trkpt><trkpt lat="43.2955917" lon="10.72742"><ele>219.66666666666669</ele><time>2026-05-05T08:29:59.638Z</time></trkpt><trkpt lat="43.2955233" lon="10.7273567"><ele>218.33333333333334</ele><time>2026-05-05T08:30:00.638Z</time></trkpt><trkpt lat="43.295465" lon="10.7273033"><ele>217.0</ele><time>2026-05-05T08:30:01.638Z</time></trkpt><trkpt lat="43.2954133" lon="10.7272367"><ele>215.66666666666669</ele><time>2026-05-05T08:30:02.638Z</time></trkpt><trkpt lat="43.2953417" lon="10.7271133"><ele>214.33333333333334</ele><time>2026-05-05T08:30:04.637Z</time></trkpt><trkpt lat="43.2953267" lon="10.7269767"><ele>213.0</ele><time>2026-05-05T08:30:06.638Z</time></trkpt><trkpt lat="43.295415" lon="10.7268433"><ele>212.99999999999997</ele><time>2026-05-05T08:30:08.638Z</time></trkpt><trkpt lat="43.2954733" lon="10.7267767"><ele>213.0</ele><time>2026-05-05T08:30:09.637Z</time></trkpt><trkpt lat="43.2955317" lon="10.7267183"><ele>213.0</ele><time>2026-05-05T08:30:10.638Z</time></trkpt><trkpt lat="43.295595" lon="10.7266817"><ele>213.0</ele><time>2026-05-05T08:30:11.638Z</time></trkpt><trkpt lat="43.2956583" lon="10.726675"><ele>213.0</ele><time>2026-05-05T08:30:12.638Z</time></trkpt><trkpt lat="43.295725" lon="10.7267017"><ele>212.99999999999997</ele><time>2026-05-05T08:30:13.638Z</time></trkpt><trkpt lat="43.295795" lon="10.7267517"><ele>213.0</ele><time>2026-05-05T08:30:14.637Z</time></trkpt><trkpt lat="43.29586" lon="10.7268117"><ele>213.5</ele><time>2026-05-05T08:30:15.638Z</time></trkpt><trkpt lat="43.2959333" lon="10.7268733"><ele>214.0</ele><time>2026-05-05T08:30:16.637Z</time></trkpt><trkpt lat="43.2960083" lon="10.72693"><ele>214.5</ele><time>2026-05-05T08:30:17.638Z</time></trkpt><trkpt lat="43.2960767" lon="10.7269933"><ele>215.0</ele><time>2026-05-05T08:30:18.638Z</time></trkpt><trkpt lat="43.296145" lon="10.72706"><ele>215.5</ele><time>2026-05-05T08:30:19.638Z</time></trkpt><trkpt lat="43.2962067" lon="10.7271217"><ele>216.0</ele><time>2026-05-05T08:30:20.638Z</time></trkpt><trkpt lat="43.2963067" lon="10.7271933"><ele>216.0</ele><time>2026-05-05T08:30:22.638Z</time></trkpt><trkpt lat="43.29637" lon="10.7271367"><ele>216.0</ele><time>2026-05-05T08:30:24.638Z</time></trkpt><trkpt lat="43.2963733" lon="10.7270033"><ele>216.0</ele><time>2026-05-05T08:30:26.638Z</time></trkpt><trkpt lat="43.2963667" lon="10.7269117"><ele>216.0</ele><time>2026-05-05T08:30:27.638Z</time></trkpt><trkpt lat="43.2963767" lon="10.7268033"><ele>216.0</ele><time>2026-05-05T08:30:28.638Z</time></trkpt><trkpt lat="43.29639" lon="10.7267033"><ele>216.0</ele><time>2026-05-05T08:30:29.638Z</time></trkpt><trkpt lat="43.29642" lon="10.726595"><ele>212.83333333333334</ele><time>2026-05-05T08:30:30.638Z</time></trkpt><trkpt lat="43.2964617" lon="10.72648"><ele>209.66666666666669</ele><time>2026-05-05T08:30:31.638Z</time></trkpt><trkpt lat="43.296505" lon="10.7263767"><ele>206.5</ele><time>2026-05-05T08:30:32.638Z</time></trkpt><trkpt lat="43.2965367" lon="10.7262917"><ele>203.33333333333334</ele><time>2026-05-05T08:30:33.638Z</time></trkpt><trkpt lat="43.2965567" lon="10.7262067"><ele>200.16666666666669</ele><time>2026-05-05T08:30:34.638Z</time></trkpt><trkpt lat="43.2965533" lon="10.726115"><ele>197.0</ele><time>2026-05-05T08:30:35.638Z</time></trkpt><trkpt lat="43.2965233" lon="10.72602"><ele>197.00000000000003</ele><time>2026-05-05T08:30:36.637Z</time></trkpt><trkpt lat="43.2964733" lon="10.7259467"><ele>197.0</ele><time>2026-05-05T08:30:37.638Z</time></trkpt><trkpt lat="43.29642" lon="10.7258667"><ele>197.0</ele><time>2026-05-05T08:30:38.638Z</time></trkpt><trkpt lat="43.2963867" lon="10.72578"><ele>197.0</ele><time>2026-05-05T08:30:39.638Z</time></trkpt><trkpt lat="43.2963717" lon="10.725685"><ele>197.00000000000003</ele><time>2026-05-05T08:30:40.638Z</time></trkpt><trkpt lat="43.2963867" lon="10.7255867"><ele>197.0</ele><time>2026-05-05T08:30:41.638Z</time></trkpt><trkpt lat="43.2964233" lon="10.7254833"><ele>195.39999999999998</ele><time>2026-05-05T08:30:42.638Z</time></trkpt><trkpt lat="43.2964783" lon="10.72538"><ele>193.79999999999998</ele><time>2026-05-05T08:30:43.637Z</time></trkpt><trkpt lat="43.2965333" lon="10.7252717"><ele>192.2</ele><time>2026-05-05T08:30:44.637Z</time></trkpt><trkpt lat="43.2965917" lon="10.7251767"><ele>190.6</ele><time>2026-05-05T08:30:45.638Z</time></trkpt><trkpt lat="43.2966567" lon="10.725095"><ele>189.0</ele><time>2026-05-05T08:30:46.637Z</time></trkpt><trkpt lat="43.296735" lon="10.72503"><ele>188.2</ele><time>2026-05-05T08:30:47.638Z</time></trkpt><trkpt lat="43.2968267" lon="10.7249767"><ele>187.39999999999998</ele><time>2026-05-05T08:30:48.637Z</time></trkpt><trkpt lat="43.2969233" lon="10.7249367"><ele>186.6</ele><time>2026-05-05T08:30:49.638Z</time></trkpt><trkpt lat="43.29702" lon="10.7248933"><ele>185.8</ele><time>2026-05-05T08:30:50.637Z</time></trkpt><trkpt lat="43.2971117" lon="10.7248617"><ele>185.0</ele><time>2026-05-05T08:30:51.637Z</time></trkpt><trkpt lat="43.29721" lon="10.72482"><ele>185.0</ele><time>2026-05-05T08:30:52.637Z</time></trkpt><trkpt lat="43.2973133" lon="10.7247833"><ele>185.0</ele><time>2026-05-05T08:30:53.638Z</time></trkpt><trkpt lat="43.297405" lon="10.724755"><ele>185.0</ele><time>2026-05-05T08:30:54.637Z</time></trkpt><trkpt lat="43.297485" lon="10.7247233"><ele>185.0</ele><time>2026-05-05T08:30:55.637Z</time></trkpt><trkpt lat="43.2975567" lon="10.7246983"><ele>185.0</ele><time>2026-05-05T08:30:56.637Z</time></trkpt><trkpt lat="43.297665" lon="10.7246367"><ele>185.0</ele><time>2026-05-05T08:30:58.637Z</time></trkpt><trkpt lat="43.29771" lon="10.7245567"><ele>185.0</ele><time>2026-05-05T08:31:00.638Z</time></trkpt><trkpt lat="43.29769" lon="10.72443"><ele>185.0</ele><time>2026-05-05T08:31:02.638Z</time></trkpt><trkpt lat="43.297615" lon="10.7242767"><ele>185.0</ele><time>2026-05-05T08:31:04.637Z</time></trkpt><trkpt lat="43.2975633" lon="10.7241883"><ele>185.0</ele><time>2026-05-05T08:31:05.638Z</time></trkpt><trkpt lat="43.2974983" lon="10.7240933"><ele>185.4</ele><time>2026-05-05T08:31:06.638Z</time></trkpt><trkpt lat="43.2974367" lon="10.7239933"><ele>185.8</ele><time>2026-05-05T08:31:07.637Z</time></trkpt><trkpt lat="43.2973983" lon="10.723895"><ele>186.2</ele><time>2026-05-05T08:31:08.638Z</time></trkpt><trkpt lat="43.297355" lon="10.7237867"><ele>186.6</ele><time>2026-05-05T08:31:09.637Z</time></trkpt><trkpt lat="43.2973033" lon="10.7236783"><ele>187.0</ele><time>2026-05-05T08:31:10.638Z</time></trkpt><trkpt lat="43.297265" lon="10.7235683"><ele>187.5</ele><time>2026-05-05T08:31:11.638Z</time></trkpt><trkpt lat="43.2972433" lon="10.7234583"><ele>188.0</ele><time>2026-05-05T08:31:12.638Z</time></trkpt><trkpt lat="43.2972367" lon="10.7233517"><ele>188.5</ele><time>2026-05-05T08:31:13.638Z</time></trkpt><trkpt lat="43.297245" lon="10.7232433"><ele>189.0</ele><time>2026-05-05T08:31:14.637Z</time></trkpt><trkpt lat="43.29725" lon="10.7231433"><ele>189.5</ele><time>2026-05-05T08:31:15.638Z</time></trkpt><trkpt lat="43.2972317" lon="10.723035"><ele>190.0</ele><time>2026-05-05T08:31:16.638Z</time></trkpt><trkpt lat="43.2972017" lon="10.7229317"><ele>190.0</ele><time>2026-05-05T08:31:17.638Z</time></trkpt><trkpt lat="43.2971533" lon="10.7228367"><ele>190.0</ele><time>2026-05-05T08:31:18.637Z</time></trkpt><trkpt lat="43.29709" lon="10.722745"><ele>190.0</ele><time>2026-05-05T08:31:19.637Z</time></trkpt><trkpt lat="43.2970183" lon="10.722665"><ele>190.0</ele><time>2026-05-05T08:31:20.637Z</time></trkpt><trkpt lat="43.296945" lon="10.7225983"><ele>190.0</ele><time>2026-05-05T08:31:21.638Z</time></trkpt><trkpt lat="43.29687" lon="10.72254"><ele>190.0</ele><time>2026-05-05T08:31:22.638Z</time></trkpt><trkpt lat="43.29681" lon="10.7224617"><ele>188.2</ele><time>2026-05-05T08:31:23.637Z</time></trkpt><trkpt lat="43.296745" lon="10.722365"><ele>186.4</ele><time>2026-05-05T08:31:24.637Z</time></trkpt><trkpt lat="43.2966967" lon="10.72226"><ele>184.60000000000002</ele><time>2026-05-05T08:31:25.638Z</time></trkpt><trkpt lat="43.2966717" lon="10.722125"><ele>182.8</ele><time>2026-05-05T08:31:26.637Z</time></trkpt><trkpt lat="43.2966533" lon="10.721985"><ele>181.0</ele><time>2026-05-05T08:31:27.638Z</time></trkpt><trkpt lat="43.29663" lon="10.7218567"><ele>180.0</ele><time>2026-05-05T08:31:28.636Z</time></trkpt><trkpt lat="43.296605" lon="10.72174"><ele>179.0</ele><time>2026-05-05T08:31:29.636Z</time></trkpt><trkpt lat="43.29658" lon="10.7216333"><ele>178.0</ele><time>2026-05-05T08:31:30.636Z</time></trkpt><trkpt lat="43.2965633" lon="10.7215283"><ele>177.0</ele><time>2026-05-05T08:31:31.637Z</time></trkpt><trkpt lat="43.29657" lon="10.7214217"><ele>176.0</ele><time>2026-05-05T08:31:32.637Z</time></trkpt><trkpt lat="43.29659" lon="10.721325"><ele>175.0</ele><time>2026-05-05T08:31:33.636Z</time></trkpt><trkpt lat="43.2966367" lon="10.7212467"><ele>175.0</ele><time>2026-05-05T08:31:34.637Z</time></trkpt><trkpt lat="43.2966967" lon="10.72116"><ele>175.0</ele><time>2026-05-05T08:31:35.637Z</time></trkpt><trkpt lat="43.2967767" lon="10.7210683"><ele>175.0</ele><time>2026-05-05T08:31:36.637Z</time></trkpt><trkpt lat="43.296865" lon="10.720975"><ele>175.0</ele><time>2026-05-05T08:31:37.637Z</time></trkpt><trkpt lat="43.296955" lon="10.7208883"><ele>175.0</ele><time>2026-05-05T08:31:38.636Z</time></trkpt><trkpt lat="43.2970483" lon="10.7207967"><ele>176.0</ele><time>2026-05-05T08:31:39.636Z</time></trkpt><trkpt lat="43.2971333" lon="10.7206867"><ele>177.0</ele><time>2026-05-05T08:31:40.636Z</time></trkpt><trkpt lat="43.2972067" lon="10.72057"><ele>178.0</ele><time>2026-05-05T08:31:41.636Z</time></trkpt><trkpt lat="43.2972917" lon="10.7204583"><ele>179.0</ele><time>2026-05-05T08:31:42.637Z</time></trkpt><trkpt lat="43.29738" lon="10.7203467"><ele>178.0</ele><time>2026-05-05T08:31:43.636Z</time></trkpt><trkpt lat="43.2974633" lon="10.7202267"><ele>177.0</ele><time>2026-05-05T08:31:44.637Z</time></trkpt><trkpt lat="43.29755" lon="10.720125"><ele>176.0</ele><time>2026-05-05T08:31:45.637Z</time></trkpt><trkpt lat="43.29764" lon="10.720025"><ele>175.0</ele><time>2026-05-05T08:31:46.637Z</time></trkpt><trkpt lat="43.2977233" lon="10.719925"><ele>175.0</ele><time>2026-05-05T08:31:47.637Z</time></trkpt><trkpt lat="43.2977983" lon="10.71983"><ele>175.0</ele><time>2026-05-05T08:31:48.636Z</time></trkpt><trkpt lat="43.29786" lon="10.7197583"><ele>175.0</ele><time>2026-05-05T08:31:49.636Z</time></trkpt><trkpt lat="43.2979083" lon="10.71968"><ele>175.0</ele><time>2026-05-05T08:31:50.637Z</time></trkpt><trkpt lat="43.2979417" lon="10.7196033"><ele>175.0</ele><time>2026-05-05T08:31:51.636Z</time></trkpt><trkpt lat="43.2979583" lon="10.7195117"><ele>175.0</ele><time>2026-05-05T08:31:52.636Z</time></trkpt><trkpt lat="43.2978967" lon="10.7193583"><ele>174.16666666666669</ele><time>2026-05-05T08:31:54.637Z</time></trkpt><trkpt lat="43.2978283" lon="10.7192717"><ele>173.33333333333334</ele><time>2026-05-05T08:31:55.636Z</time></trkpt><trkpt lat="43.2977533" lon="10.7191933"><ele>172.5</ele><time>2026-05-05T08:31:56.637Z</time></trkpt><trkpt lat="43.2976817" lon="10.7191067"><ele>171.66666666666666</ele><time>2026-05-05T08:31:57.637Z</time></trkpt><trkpt lat="43.2976233" lon="10.7190267"><ele>170.83333333333331</ele><time>2026-05-05T08:31:58.636Z</time></trkpt><trkpt lat="43.2975667" lon="10.7189533"><ele>170.0</ele><time>2026-05-05T08:31:59.636Z</time></trkpt><trkpt lat="43.297525" lon="10.7188883"><ele>170.0</ele><time>2026-05-05T08:32:00.637Z</time></trkpt><trkpt lat="43.297475" lon="10.7188117"><ele>170.0</ele><time>2026-05-05T08:32:02.637Z</time></trkpt><trkpt lat="43.297425" lon="10.7187383"><ele>170.0</ele><time>2026-05-05T08:32:05.636Z</time></trkpt><trkpt lat="43.29737" lon="10.7186617"><ele>170.0</ele><time>2026-05-05T08:32:08.636Z</time></trkpt><trkpt lat="43.29729" lon="10.7185467"><ele>170.0</ele><time>2026-05-05T08:32:10.637Z</time></trkpt><trkpt lat="43.2972367" lon="10.718475"><ele>170.0</ele><time>2026-05-05T08:32:11.637Z</time></trkpt><trkpt lat="43.2971783" lon="10.718395"><ele>170.16666666666666</ele><time>2026-05-05T08:32:12.636Z</time></trkpt><trkpt lat="43.2971217" lon="10.7183167"><ele>170.33333333333331</ele><time>2026-05-05T08:32:13.637Z</time></trkpt><trkpt lat="43.2970567" lon="10.7182383"><ele>170.5</ele><time>2026-05-05T08:32:14.637Z</time></trkpt><trkpt lat="43.2969917" lon="10.718155"><ele>170.66666666666666</ele><time>2026-05-05T08:32:15.636Z</time></trkpt><trkpt lat="43.2969383" lon="10.7180717"><ele>170.83333333333334</ele><time>2026-05-05T08:32:16.637Z</time></trkpt><trkpt lat="43.296895" lon="10.7179867"><ele>171.0</ele><time>2026-05-05T08:32:17.637Z</time></trkpt><trkpt lat="43.2968517" lon="10.71789"><ele>171.0</ele><time>2026-05-05T08:32:18.636Z</time></trkpt><trkpt lat="43.2968117" lon="10.7177783"><ele>171.0</ele><time>2026-05-05T08:32:19.637Z</time></trkpt><trkpt lat="43.2967733" lon="10.71767"><ele>171.0</ele><time>2026-05-05T08:32:20.637Z</time></trkpt><trkpt lat="43.2967633" lon="10.7175583"><ele>171.0</ele><time>2026-05-05T08:32:21.637Z</time></trkpt><trkpt lat="43.2967767" lon="10.7174433"><ele>171.0</ele><time>2026-05-05T08:32:22.637Z</time></trkpt><trkpt lat="43.2967883" lon="10.71732"><ele>171.0</ele><time>2026-05-05T08:32:23.637Z</time></trkpt><trkpt lat="43.2968" lon="10.7171917"><ele>170.4</ele><time>2026-05-05T08:32:24.637Z</time></trkpt><trkpt lat="43.2968033" lon="10.7170817"><ele>169.8</ele><time>2026-05-05T08:32:25.637Z</time></trkpt><trkpt lat="43.2968083" lon="10.716955"><ele>169.20000000000002</ele><time>2026-05-05T08:32:26.637Z</time></trkpt><trkpt lat="43.2968117" lon="10.71683"><ele>168.60000000000002</ele><time>2026-05-05T08:32:27.636Z</time></trkpt><trkpt lat="43.2968183" lon="10.7166917"><ele>168.0</ele><time>2026-05-05T08:32:28.637Z</time></trkpt><trkpt lat="43.2968267" lon="10.716565"><ele>167.0</ele><time>2026-05-05T08:32:29.637Z</time></trkpt><trkpt lat="43.2968383" lon="10.7164367"><ele>166.0</ele><time>2026-05-05T08:32:30.636Z</time></trkpt><trkpt lat="43.2968567" lon="10.7163067"><ele>165.0</ele><time>2026-05-05T08:32:31.637Z</time></trkpt><trkpt lat="43.2968733" lon="10.7161717"><ele>164.0</ele><time>2026-05-05T08:32:32.636Z</time></trkpt><trkpt lat="43.2968967" lon="10.7160383"><ele>163.0</ele><time>2026-05-05T08:32:33.637Z</time></trkpt><trkpt lat="43.2969167" lon="10.7159083"><ele>162.60000000000002</ele><time>2026-05-05T08:32:34.637Z</time></trkpt><trkpt lat="43.2969383" lon="10.7157733"><ele>162.20000000000002</ele><time>2026-05-05T08:32:35.637Z</time></trkpt><trkpt lat="43.2969533" lon="10.7156417"><ele>161.8</ele><time>2026-05-05T08:32:36.637Z</time></trkpt><trkpt lat="43.2969717" lon="10.7155133"><ele>161.4</ele><time>2026-05-05T08:32:37.637Z</time></trkpt><trkpt lat="43.2969767" lon="10.715395"><ele>161.0</ele><time>2026-05-05T08:32:38.637Z</time></trkpt><trkpt lat="43.29698" lon="10.71527"><ele>160.0</ele><time>2026-05-05T08:32:39.636Z</time></trkpt><trkpt lat="43.2969667" lon="10.7151367"><ele>159.0</ele><time>2026-05-05T08:32:40.637Z</time></trkpt><trkpt lat="43.2969317" lon="10.7150083"><ele>158.0</ele><time>2026-05-05T08:32:41.637Z</time></trkpt><trkpt lat="43.2968833" lon="10.7148783"><ele>157.0</ele><time>2026-05-05T08:32:42.637Z</time></trkpt><trkpt lat="43.2968267" lon="10.7147483"><ele>156.0</ele><time>2026-05-05T08:32:43.637Z</time></trkpt><trkpt lat="43.2967733" lon="10.71461"><ele>156.0</ele><time>2026-05-05T08:32:44.636Z</time></trkpt><trkpt lat="43.2967267" lon="10.7144567"><ele>156.0</ele><time>2026-05-05T08:32:45.637Z</time></trkpt><trkpt lat="43.29668" lon="10.7143133"><ele>156.0</ele><time>2026-05-05T08:32:46.637Z</time></trkpt><trkpt lat="43.296645" lon="10.7141633"><ele>156.0</ele><time>2026-05-05T08:32:47.636Z</time></trkpt><trkpt lat="43.2966083" lon="10.714035"><ele>155.4</ele><time>2026-05-05T08:32:48.637Z</time></trkpt><trkpt lat="43.296585" lon="10.7138817"><ele>154.8</ele><time>2026-05-05T08:32:49.636Z</time></trkpt><trkpt lat="43.2965633" lon="10.713735"><ele>154.20000000000002</ele><time>2026-05-05T08:32:50.637Z</time></trkpt><trkpt lat="43.296545" lon="10.713585"><ele>153.6</ele><time>2026-05-05T08:32:51.637Z</time></trkpt><trkpt lat="43.29652" lon="10.713435"><ele>153.0</ele><time>2026-05-05T08:32:52.637Z</time></trkpt><trkpt lat="43.2965033" lon="10.7132833"><ele>152.0</ele><time>2026-05-05T08:32:53.637Z</time></trkpt><trkpt lat="43.2964833" lon="10.7131383"><ele>151.0</ele><time>2026-05-05T08:32:54.637Z</time></trkpt><trkpt lat="43.2964617" lon="10.7129983"><ele>150.0</ele><time>2026-05-05T08:32:55.636Z</time></trkpt><trkpt lat="43.2964483" lon="10.7128683"><ele>149.0</ele><time>2026-05-05T08:32:56.636Z</time></trkpt><trkpt lat="43.2964417" lon="10.7127267"><ele>148.0</ele><time>2026-05-05T08:32:57.636Z</time></trkpt><trkpt lat="43.2964417" lon="10.7125867"><ele>146.6</ele><time>2026-05-05T08:32:58.637Z</time></trkpt><trkpt lat="43.2964383" lon="10.7124567"><ele>145.20000000000002</ele><time>2026-05-05T08:32:59.636Z</time></trkpt><trkpt lat="43.296435" lon="10.7123417"><ele>143.8</ele><time>2026-05-05T08:33:00.637Z</time></trkpt><trkpt lat="43.2964333" lon="10.712235"><ele>142.4</ele><time>2026-05-05T08:33:01.636Z</time></trkpt><trkpt lat="43.2963917" lon="10.712075"><ele>141.0</ele><time>2026-05-05T08:33:03.636Z</time></trkpt><trkpt lat="43.2962917" lon="10.7120083"><ele>138.2</ele><time>2026-05-05T08:33:05.636Z</time></trkpt><trkpt lat="43.2962133" lon="10.7120267"><ele>135.39999999999998</ele><time>2026-05-05T08:33:06.637Z</time></trkpt><trkpt lat="43.2961183" lon="10.7120617"><ele>132.6</ele><time>2026-05-05T08:33:07.637Z</time></trkpt><trkpt lat="43.2960167" lon="10.7120983"><ele>129.79999999999998</ele><time>2026-05-05T08:33:08.637Z</time></trkpt><trkpt lat="43.2959033" lon="10.7121333"><ele>127.0</ele><time>2026-05-05T08:33:09.636Z</time></trkpt><trkpt lat="43.29579" lon="10.7121767"><ele>127.0</ele><time>2026-05-05T08:33:10.637Z</time></trkpt><trkpt lat="43.2956667" lon="10.7122167"><ele>126.99999999999999</ele><time>2026-05-05T08:33:11.637Z</time></trkpt><trkpt lat="43.29556" lon="10.7122333"><ele>126.99999999999999</ele><time>2026-05-05T08:33:12.637Z</time></trkpt><trkpt lat="43.295455" lon="10.7122233"><ele>127.0</ele><time>2026-05-05T08:33:13.637Z</time></trkpt><trkpt lat="43.2953517" lon="10.7121917"><ele>127.0</ele><time>2026-05-05T08:33:14.636Z</time></trkpt><trkpt lat="43.2952433" lon="10.71214"><ele>123.6</ele><time>2026-05-05T08:33:15.637Z</time></trkpt><trkpt lat="43.29516" lon="10.7120883"><ele>120.19999999999999</ele><time>2026-05-05T08:33:16.637Z</time></trkpt><trkpt lat="43.2950817" lon="10.7120017"><ele>116.8</ele><time>2026-05-05T08:33:17.637Z</time></trkpt><trkpt lat="43.2950217" lon="10.71191"><ele>113.4</ele><time>2026-05-05T08:33:18.636Z</time></trkpt><trkpt lat="43.294985" lon="10.7118017"><ele>110.0</ele><time>2026-05-05T08:33:19.637Z</time></trkpt><trkpt lat="43.2949783" lon="10.71168"><ele>109.83333333333333</ele><time>2026-05-05T08:33:20.637Z</time></trkpt><trkpt lat="43.2950017" lon="10.7115567"><ele>109.66666666666666</ele><time>2026-05-05T08:33:21.637Z</time></trkpt><trkpt lat="43.2950267" lon="10.71143"><ele>109.5</ele><time>2026-05-05T08:33:22.637Z</time></trkpt><trkpt lat="43.2950217" lon="10.71131"><ele>109.33333333333334</ele><time>2026-05-05T08:33:23.636Z</time></trkpt><trkpt lat="43.2949917" lon="10.7112"><ele>109.16666666666667</ele><time>2026-05-05T08:33:24.637Z</time></trkpt><trkpt lat="43.2949433" lon="10.7111167"><ele>109.0</ele><time>2026-05-05T08:33:25.636Z</time></trkpt><trkpt lat="43.2948867" lon="10.7110367"><ele>107.6</ele><time>2026-05-05T08:33:26.637Z</time></trkpt><trkpt lat="43.294815" lon="10.7109683"><ele>106.2</ele><time>2026-05-05T08:33:27.636Z</time></trkpt><trkpt lat="43.2947317" lon="10.7109033"><ele>104.8</ele><time>2026-05-05T08:33:28.637Z</time></trkpt><trkpt lat="43.29465" lon="10.7108433"><ele>103.39999999999999</ele><time>2026-05-05T08:33:29.636Z</time></trkpt><trkpt lat="43.29457" lon="10.7107533"><ele>102.0</ele><time>2026-05-05T08:33:30.636Z</time></trkpt><trkpt lat="43.2944883" lon="10.7106583"><ele>102.0</ele><time>2026-05-05T08:33:31.636Z</time></trkpt><trkpt lat="43.2944" lon="10.71055"><ele>102.0</ele><time>2026-05-05T08:33:32.636Z</time></trkpt><trkpt lat="43.294315" lon="10.71044"><ele>102.0</ele><time>2026-05-05T08:33:33.636Z</time></trkpt><trkpt lat="43.2942283" lon="10.71034"><ele>102.0</ele><time>2026-05-05T08:33:34.637Z</time></trkpt><trkpt lat="43.2941433" lon="10.71023"><ele>100.8</ele><time>2026-05-05T08:33:35.637Z</time></trkpt><trkpt lat="43.2940733" lon="10.7101367"><ele>99.6</ele><time>2026-05-05T08:33:36.636Z</time></trkpt><trkpt lat="43.294005" lon="10.7100467"><ele>98.39999999999999</ele><time>2026-05-05T08:33:37.637Z</time></trkpt><trkpt lat="43.2939533" lon="10.70996"><ele>97.19999999999999</ele><time>2026-05-05T08:33:38.636Z</time></trkpt><trkpt lat="43.2939233" lon="10.7098533"><ele>96.0</ele><time>2026-05-05T08:33:39.636Z</time></trkpt><trkpt lat="43.29391" lon="10.709725"><ele>96.0</ele><time>2026-05-05T08:33:40.637Z</time></trkpt><trkpt lat="43.2939267" lon="10.7095967"><ele>96.0</ele><time>2026-05-05T08:33:41.636Z</time></trkpt><trkpt lat="43.2939467" lon="10.7094617"><ele>96.0</ele><time>2026-05-05T08:33:42.637Z</time></trkpt><trkpt lat="43.2939533" lon="10.7093283"><ele>96.0</ele><time>2026-05-05T08:33:43.637Z</time></trkpt><trkpt lat="43.29394" lon="10.7091883"><ele>96.0</ele><time>2026-05-05T08:33:44.637Z</time></trkpt><trkpt lat="43.2939267" lon="10.7090367"><ele>93.19999999999999</ele><time>2026-05-05T08:33:45.637Z</time></trkpt><trkpt lat="43.2939133" lon="10.7089"><ele>90.39999999999999</ele><time>2026-05-05T08:33:46.637Z</time></trkpt><trkpt lat="43.2938967" lon="10.7087617"><ele>87.6</ele><time>2026-05-05T08:33:47.636Z</time></trkpt><trkpt lat="43.293885" lon="10.708615"><ele>84.8</ele><time>2026-05-05T08:33:48.636Z</time></trkpt><trkpt lat="43.293855" lon="10.708475"><ele>82.0</ele><time>2026-05-05T08:33:49.637Z</time></trkpt><trkpt lat="43.2938217" lon="10.7083367"><ele>80.0</ele><time>2026-05-05T08:33:50.637Z</time></trkpt><trkpt lat="43.293795" lon="10.708195"><ele>78.0</ele><time>2026-05-05T08:33:51.636Z</time></trkpt><trkpt lat="43.2937617" lon="10.7080667"><ele>76.0</ele><time>2026-05-05T08:33:52.637Z</time></trkpt><trkpt lat="43.293725" lon="10.70795"><ele>74.0</ele><time>2026-05-05T08:33:53.637Z</time></trkpt><trkpt lat="43.293675" lon="10.7078533"><ele>72.0</ele><time>2026-05-05T08:33:54.637Z</time></trkpt><trkpt lat="43.2936183" lon="10.7077733"><ele>70.6</ele><time>2026-05-05T08:33:55.637Z</time></trkpt><trkpt lat="43.29355" lon="10.7077083"><ele>69.2</ele><time>2026-05-05T08:33:56.636Z</time></trkpt><trkpt lat="43.2934717" lon="10.7076567"><ele>67.8</ele><time>2026-05-05T08:33:57.637Z</time></trkpt><trkpt lat="43.2933767" lon="10.707615"><ele>66.4</ele><time>2026-05-05T08:33:58.637Z</time></trkpt><trkpt lat="43.293275" lon="10.7075683"><ele>65.0</ele><time>2026-05-05T08:33:59.637Z</time></trkpt><trkpt lat="43.293175" lon="10.7075183"><ele>65.4</ele><time>2026-05-05T08:34:00.637Z</time></trkpt><trkpt lat="43.2930783" lon="10.707465"><ele>65.8</ele><time>2026-05-05T08:34:01.636Z</time></trkpt><trkpt lat="43.2929817" lon="10.7074117"><ele>66.2</ele><time>2026-05-05T08:34:02.636Z</time></trkpt><trkpt lat="43.2928783" lon="10.7073567"><ele>66.6</ele><time>2026-05-05T08:34:03.636Z</time></trkpt><trkpt lat="43.2927783" lon="10.7073133"><ele>67.0</ele><time>2026-05-05T08:34:04.636Z</time></trkpt><trkpt lat="43.292685" lon="10.7072433"><ele>67.0</ele><time>2026-05-05T08:34:05.637Z</time></trkpt><trkpt lat="43.2925867" lon="10.70719"><ele>67.0</ele><time>2026-05-05T08:34:06.636Z</time></trkpt><trkpt lat="43.2924833" lon="10.707135"><ele>67.0</ele><time>2026-05-05T08:34:07.637Z</time></trkpt><trkpt lat="43.2923983" lon="10.7070867"><ele>67.0</ele><time>2026-05-05T08:34:08.636Z</time></trkpt><trkpt lat="43.29232" lon="10.70703"><ele>67.0</ele><time>2026-05-05T08:34:09.636Z</time></trkpt><trkpt lat="43.2922567" lon="10.70698"><ele>66.83333333333333</ele><time>2026-05-05T08:34:10.637Z</time></trkpt><trkpt lat="43.2921983" lon="10.70691"><ele>66.66666666666666</ele><time>2026-05-05T08:34:11.637Z</time></trkpt><trkpt lat="43.2921533" lon="10.7068017"><ele>66.5</ele><time>2026-05-05T08:34:12.637Z</time></trkpt><trkpt lat="43.29214" lon="10.7066917"><ele>66.33333333333333</ele><time>2026-05-05T08:34:13.636Z</time></trkpt><trkpt lat="43.2921483" lon="10.7065667"><ele>66.16666666666667</ele><time>2026-05-05T08:34:14.637Z</time></trkpt><trkpt lat="43.2921867" lon="10.7064467"><ele>66.0</ele><time>2026-05-05T08:34:15.636Z</time></trkpt><trkpt lat="43.292265" lon="10.7063433"><ele>66.0</ele><time>2026-05-05T08:34:16.636Z</time></trkpt><trkpt lat="43.2923483" lon="10.7062367"><ele>66.0</ele><time>2026-05-05T08:34:17.637Z</time></trkpt><trkpt lat="43.2924333" lon="10.7061083"><ele>66.0</ele><time>2026-05-05T08:34:18.636Z</time></trkpt><trkpt lat="43.2925183" lon="10.70598"><ele>66.0</ele><time>2026-05-05T08:34:19.637Z</time></trkpt><trkpt lat="43.2925967" lon="10.7058517"><ele>66.5</ele><time>2026-05-05T08:34:20.636Z</time></trkpt><trkpt lat="43.2926717" lon="10.70572"><ele>67.0</ele><time>2026-05-05T08:34:21.636Z</time></trkpt><trkpt lat="43.292745" lon="10.7055883"><ele>67.5</ele><time>2026-05-05T08:34:22.637Z</time></trkpt><trkpt lat="43.2928233" lon="10.705455"><ele>68.0</ele><time>2026-05-05T08:34:23.637Z</time></trkpt><trkpt lat="43.2928967" lon="10.7053233"><ele>68.8</ele><time>2026-05-05T08:34:24.636Z</time></trkpt><trkpt lat="43.2929617" lon="10.7052017"><ele>69.6</ele><time>2026-05-05T08:34:25.637Z</time></trkpt><trkpt lat="43.2930267" lon="10.705075"><ele>70.4</ele><time>2026-05-05T08:34:26.637Z</time></trkpt><trkpt lat="43.293095" lon="10.7049383"><ele>71.2</ele><time>2026-05-05T08:34:27.637Z</time></trkpt><trkpt lat="43.2931317" lon="10.7048017"><ele>72.0</ele><time>2026-05-05T08:34:28.637Z</time></trkpt><trkpt lat="43.2931617" lon="10.7046533"><ele>70.0</ele><time>2026-05-05T08:34:29.637Z</time></trkpt><trkpt lat="43.2932" lon="10.704495"><ele>68.0</ele><time>2026-05-05T08:34:30.637Z</time></trkpt><trkpt lat="43.29324" lon="10.704335"><ele>66.0</ele><time>2026-05-05T08:34:31.637Z</time></trkpt><trkpt lat="43.293275" lon="10.7041667"><ele>64.0</ele><time>2026-05-05T08:34:32.637Z</time></trkpt><trkpt lat="43.2933083" lon="10.7040083"><ele>64.0</ele><time>2026-05-05T08:34:33.636Z</time></trkpt><trkpt lat="43.2933533" lon="10.70385"><ele>64.0</ele><time>2026-05-05T08:34:34.637Z</time></trkpt><trkpt lat="43.2933867" lon="10.7036867"><ele>64.0</ele><time>2026-05-05T08:34:35.636Z</time></trkpt><trkpt lat="43.2934233" lon="10.7035183"><ele>64.0</ele><time>2026-05-05T08:34:36.637Z</time></trkpt><trkpt lat="43.2934683" lon="10.70336"><ele>63.5</ele><time>2026-05-05T08:34:37.637Z</time></trkpt><trkpt lat="43.293515" lon="10.70319"><ele>63.0</ele><time>2026-05-05T08:34:38.637Z</time></trkpt><trkpt lat="43.29355" lon="10.7030233"><ele>62.5</ele><time>2026-05-05T08:34:39.637Z</time></trkpt><trkpt lat="43.2935883" lon="10.7028583"><ele>62.0</ele><time>2026-05-05T08:34:40.637Z</time></trkpt><trkpt lat="43.2936233" lon="10.7026983"><ele>61.75</ele><time>2026-05-05T08:34:41.637Z</time></trkpt><trkpt lat="43.2936667" lon="10.7025367"><ele>61.5</ele><time>2026-05-05T08:34:42.637Z</time></trkpt><trkpt lat="43.29371" lon="10.7023767"><ele>61.25</ele><time>2026-05-05T08:34:43.636Z</time></trkpt><trkpt lat="43.2937467" lon="10.7022283"><ele>61.0</ele><time>2026-05-05T08:34:44.636Z</time></trkpt><trkpt lat="43.29378" lon="10.702085"><ele>61.0</ele><time>2026-05-05T08:34:45.636Z</time></trkpt><trkpt lat="43.2938117" lon="10.7019383"><ele>61.0</ele><time>2026-05-05T08:34:46.635Z</time></trkpt><trkpt lat="43.2938417" lon="10.701785"><ele>61.0</ele><time>2026-05-05T08:34:47.635Z</time></trkpt><trkpt lat="43.2938433" lon="10.70164"><ele>61.0</ele><time>2026-05-05T08:34:48.636Z</time></trkpt><trkpt lat="43.29384" lon="10.7014767"><ele>61.5</ele><time>2026-05-05T08:34:49.636Z</time></trkpt><trkpt lat="43.293815" lon="10.7013283"><ele>62.0</ele><time>2026-05-05T08:34:50.636Z</time></trkpt><trkpt lat="43.2937867" lon="10.70118"><ele>62.5</ele><time>2026-05-05T08:34:51.636Z</time></trkpt><trkpt lat="43.293755" lon="10.70102"><ele>63.0</ele><time>2026-05-05T08:34:52.636Z</time></trkpt><trkpt lat="43.293735" lon="10.7008733"><ele>63.5</ele><time>2026-05-05T08:34:53.635Z</time></trkpt><trkpt lat="43.2937067" lon="10.70072"><ele>64.0</ele><time>2026-05-05T08:34:54.636Z</time></trkpt><trkpt lat="43.29368" lon="10.7005617"><ele>64.5</ele><time>2026-05-05T08:34:55.636Z</time></trkpt><trkpt lat="43.2936617" lon="10.7004"><ele>65.0</ele><time>2026-05-05T08:34:56.636Z</time></trkpt><trkpt lat="43.2936367" lon="10.7002533"><ele>64.4</ele><time>2026-05-05T08:34:57.635Z</time></trkpt><trkpt lat="43.2936167" lon="10.7001017"><ele>63.8</ele><time>2026-05-05T08:34:58.636Z</time></trkpt><trkpt lat="43.2935933" lon="10.6999567"><ele>63.2</ele><time>2026-05-05T08:34:59.636Z</time></trkpt><trkpt lat="43.2935683" lon="10.6998133"><ele>62.6</ele><time>2026-05-05T08:35:00.636Z</time></trkpt><trkpt lat="43.2935433" lon="10.6996767"><ele>62.0</ele><time>2026-05-05T08:35:01.636Z</time></trkpt><trkpt lat="43.29352" lon="10.6995417"><ele>61.16666666666667</ele><time>2026-05-05T08:35:02.636Z</time></trkpt><trkpt lat="43.2935017" lon="10.6994167"><ele>60.333333333333336</ele><time>2026-05-05T08:35:03.635Z</time></trkpt><trkpt lat="43.2934933" lon="10.69929"><ele>59.5</ele><time>2026-05-05T08:35:04.636Z</time></trkpt><trkpt lat="43.2934883" lon="10.699175"><ele>58.66666666666667</ele><time>2026-05-05T08:35:05.635Z</time></trkpt><trkpt lat="43.2934817" lon="10.6990583"><ele>57.833333333333336</ele><time>2026-05-05T08:35:06.636Z</time></trkpt><trkpt lat="43.2934783" lon="10.6989383"><ele>57.0</ele><time>2026-05-05T08:35:07.635Z</time></trkpt><trkpt lat="43.2934767" lon="10.6988333"><ele>57.0</ele><time>2026-05-05T08:35:08.636Z</time></trkpt><trkpt lat="43.293485" lon="10.6987317"><ele>57.0</ele><time>2026-05-05T08:35:09.636Z</time></trkpt><trkpt lat="43.293495" lon="10.6985917"><ele>57.0</ele><time>2026-05-05T08:35:11.636Z</time></trkpt><trkpt lat="43.293555" lon="10.6985067"><ele>57.0</ele><time>2026-05-05T08:35:14.635Z</time></trkpt><trkpt lat="43.2936583" lon="10.6984367"><ele>57.0</ele><time>2026-05-05T08:35:16.636Z</time></trkpt><trkpt lat="43.2937267" lon="10.6983883"><ele>55.5</ele><time>2026-05-05T08:35:17.635Z</time></trkpt><trkpt lat="43.2938267" lon="10.6983433"><ele>54.0</ele><time>2026-05-05T08:35:18.636Z</time></trkpt><trkpt lat="43.2939367" lon="10.6982683"><ele>52.5</ele><time>2026-05-05T08:35:19.636Z</time></trkpt><trkpt lat="43.2940517" lon="10.698175"><ele>51.0</ele><time>2026-05-05T08:35:20.636Z</time></trkpt><trkpt lat="43.2941733" lon="10.6980767"><ele>51.0</ele><time>2026-05-05T08:35:21.635Z</time></trkpt><trkpt lat="43.2942883" lon="10.697965"><ele>51.0</ele><time>2026-05-05T08:35:22.635Z</time></trkpt><trkpt lat="43.2944133" lon="10.6978517"><ele>51.0</ele><time>2026-05-05T08:35:23.636Z</time></trkpt><trkpt lat="43.29455" lon="10.6977317"><ele>51.0</ele><time>2026-05-05T08:35:24.635Z</time></trkpt><trkpt lat="43.294695" lon="10.6976117"><ele>51.0</ele><time>2026-05-05T08:35:25.636Z</time></trkpt><trkpt lat="43.29485" lon="10.69748"><ele>51.0</ele><time>2026-05-05T08:35:26.636Z</time></trkpt><trkpt lat="43.2950067" lon="10.6973367"><ele>51.0</ele><time>2026-05-05T08:35:27.636Z</time></trkpt><trkpt lat="43.2951633" lon="10.6971817"><ele>51.0</ele><time>2026-05-05T08:35:28.635Z</time></trkpt><trkpt lat="43.2953233" lon="10.6970317"><ele>51.0</ele><time>2026-05-05T08:35:29.636Z</time></trkpt><trkpt lat="43.2954983" lon="10.6968817"><ele>51.33333333333333</ele><time>2026-05-05T08:35:30.636Z</time></trkpt><trkpt lat="43.29568" lon="10.6967283"><ele>51.666666666666664</ele><time>2026-05-05T08:35:31.636Z</time></trkpt><trkpt lat="43.29587" lon="10.6965617"><ele>52.0</ele><time>2026-05-05T08:35:32.636Z</time></trkpt><trkpt lat="43.2960533" lon="10.6963883"><ele>52.0</ele><time>2026-05-05T08:35:33.636Z</time></trkpt><trkpt lat="43.2962433" lon="10.6962267"><ele>52.0</ele><time>2026-05-05T08:35:34.635Z</time></trkpt><trkpt lat="43.2964267" lon="10.696055"><ele>52.0</ele><time>2026-05-05T08:35:35.636Z</time></trkpt><trkpt lat="43.2966183" lon="10.6958717"><ele>51.0</ele><time>2026-05-05T08:35:36.635Z</time></trkpt><trkpt lat="43.2968133" lon="10.6956883"><ele>50.0</ele><time>2026-05-05T08:35:37.636Z</time></trkpt><trkpt lat="43.297015" lon="10.6954967"><ele>50.0</ele><time>2026-05-05T08:35:38.636Z</time></trkpt><trkpt lat="43.2972067" lon="10.69531"><ele>50.0</ele><time>2026-05-05T08:35:39.636Z</time></trkpt><trkpt lat="43.297395" lon="10.695135"><ele>50.0</ele><time>2026-05-05T08:35:40.636Z</time></trkpt><trkpt lat="43.2975833" lon="10.6949667"><ele>50.0</ele><time>2026-05-05T08:35:41.636Z</time></trkpt><trkpt lat="43.2977683" lon="10.6948033"><ele>50.0</ele><time>2026-05-05T08:35:42.635Z</time></trkpt><trkpt lat="43.297955" lon="10.6946383"><ele>50.0</ele><time>2026-05-05T08:35:43.636Z</time></trkpt><trkpt lat="43.2981417" lon="10.6944867"><ele>50.0</ele><time>2026-05-05T08:35:44.635Z</time></trkpt><trkpt lat="43.2983183" lon="10.6943217"><ele>50.0</ele><time>2026-05-05T08:35:45.636Z</time></trkpt><trkpt lat="43.29849" lon="10.6941667"><ele>49.0</ele><time>2026-05-05T08:35:46.636Z</time></trkpt><trkpt lat="43.298665" lon="10.6940117"><ele>48.0</ele><time>2026-05-05T08:35:47.636Z</time></trkpt><trkpt lat="43.29883" lon="10.69386"><ele>47.0</ele><time>2026-05-05T08:35:48.635Z</time></trkpt><trkpt lat="43.2990017" lon="10.6937033"><ele>46.666666666666664</ele><time>2026-05-05T08:35:49.636Z</time></trkpt><trkpt lat="43.2991817" lon="10.693545"><ele>46.333333333333336</ele><time>2026-05-05T08:35:50.635Z</time></trkpt><trkpt lat="43.2993567" lon="10.6933917"><ele>46.0</ele><time>2026-05-05T08:35:51.636Z</time></trkpt><trkpt lat="43.2995333" lon="10.693235"><ele>46.0</ele><time>2026-05-05T08:35:52.636Z</time></trkpt><trkpt lat="43.2997" lon="10.69308"><ele>46.0</ele><time>2026-05-05T08:35:53.636Z</time></trkpt><trkpt lat="43.2998617" lon="10.692935"><ele>46.0</ele><time>2026-05-05T08:35:54.636Z</time></trkpt><trkpt lat="43.300025" lon="10.6927833"><ele>46.333333333333336</ele><time>2026-05-05T08:35:55.636Z</time></trkpt><trkpt lat="43.300185" lon="10.6926417"><ele>46.666666666666664</ele><time>2026-05-05T08:35:56.636Z</time></trkpt><trkpt lat="43.3003383" lon="10.6924867"><ele>47.0</ele><time>2026-05-05T08:35:57.636Z</time></trkpt><trkpt lat="43.3004917" lon="10.69233"><ele>47.666666666666664</ele><time>2026-05-05T08:35:58.636Z</time></trkpt><trkpt lat="43.3006383" lon="10.6921667"><ele>48.33333333333333</ele><time>2026-05-05T08:35:59.636Z</time></trkpt><trkpt lat="43.3007767" lon="10.6920117"><ele>49.0</ele><time>2026-05-05T08:36:00.635Z</time></trkpt><trkpt lat="43.300915" lon="10.6918333"><ele>49.0</ele><time>2026-05-05T08:36:01.636Z</time></trkpt><trkpt lat="43.3010433" lon="10.6916383"><ele>49.0</ele><time>2026-05-05T08:36:02.636Z</time></trkpt><trkpt lat="43.30116" lon="10.6914267"><ele>49.0</ele><time>2026-05-05T08:36:03.636Z</time></trkpt><trkpt lat="43.3012783" lon="10.6912117"><ele>48.666666666666664</ele><time>2026-05-05T08:36:04.635Z</time></trkpt><trkpt lat="43.3014033" lon="10.6909967"><ele>48.33333333333333</ele><time>2026-05-05T08:36:05.636Z</time></trkpt><trkpt lat="43.3015333" lon="10.690785"><ele>48.0</ele><time>2026-05-05T08:36:06.636Z</time></trkpt><trkpt lat="43.3016583" lon="10.6905683"><ele>48.0</ele><time>2026-05-05T08:36:07.635Z</time></trkpt><trkpt lat="43.3017833" lon="10.6903583"><ele>48.0</ele><time>2026-05-05T08:36:08.635Z</time></trkpt><trkpt lat="43.3019067" lon="10.6901567"><ele>48.0</ele><time>2026-05-05T08:36:09.635Z</time></trkpt><trkpt lat="43.302035" lon="10.6899667"><ele>47.333333333333336</ele><time>2026-05-05T08:36:10.636Z</time></trkpt><trkpt lat="43.3021617" lon="10.6897767"><ele>46.66666666666667</ele><time>2026-05-05T08:36:11.636Z</time></trkpt><trkpt lat="43.302285" lon="10.6895833"><ele>46.0</ele><time>2026-05-05T08:36:12.636Z</time></trkpt><trkpt lat="43.3024117" lon="10.6894"><ele>46.0</ele><time>2026-05-05T08:36:13.636Z</time></trkpt><trkpt lat="43.3025483" lon="10.6892117"><ele>46.0</ele><time>2026-05-05T08:36:14.636Z</time></trkpt><trkpt lat="43.302705" lon="10.6890367"><ele>46.0</ele><time>2026-05-05T08:36:15.636Z</time></trkpt><trkpt lat="43.3028733" lon="10.6888583"><ele>46.0</ele><time>2026-05-05T08:36:16.636Z</time></trkpt><trkpt lat="43.303045" lon="10.68869"><ele>46.0</ele><time>2026-05-05T08:36:17.636Z</time></trkpt><trkpt lat="43.30321" lon="10.6885133"><ele>46.0</ele><time>2026-05-05T08:36:18.635Z</time></trkpt><trkpt lat="43.3033883" lon="10.68833"><ele>46.0</ele><time>2026-05-05T08:36:19.636Z</time></trkpt><trkpt lat="43.3035667" lon="10.6881433"><ele>46.0</ele><time>2026-05-05T08:36:20.636Z</time></trkpt><trkpt lat="43.3037433" lon="10.687955"><ele>46.0</ele><time>2026-05-05T08:36:21.636Z</time></trkpt><trkpt lat="43.3039217" lon="10.687765"><ele>47.0</ele><time>2026-05-05T08:36:22.636Z</time></trkpt><trkpt lat="43.3041167" lon="10.6875733"><ele>48.0</ele><time>2026-05-05T08:36:23.635Z</time></trkpt><trkpt lat="43.30431" lon="10.687375"><ele>48.0</ele><time>2026-05-05T08:36:24.635Z</time></trkpt><trkpt lat="43.304495" lon="10.6871733"><ele>48.0</ele><time>2026-05-05T08:36:25.636Z</time></trkpt><trkpt lat="43.3046833" lon="10.6869767"><ele>47.0</ele><time>2026-05-05T08:36:26.636Z</time></trkpt><trkpt lat="43.304865" lon="10.6867733"><ele>46.0</ele><time>2026-05-05T08:36:27.636Z</time></trkpt><trkpt lat="43.3050517" lon="10.6865683"><ele>46.0</ele><time>2026-05-05T08:36:28.636Z</time></trkpt><trkpt lat="43.3052333" lon="10.6863817"><ele>46.0</ele><time>2026-05-05T08:36:29.636Z</time></trkpt><trkpt lat="43.30541" lon="10.6861833"><ele>45.66666666666667</ele><time>2026-05-05T08:36:30.636Z</time></trkpt><trkpt lat="43.3055867" lon="10.6859917"><ele>45.333333333333336</ele><time>2026-05-05T08:36:31.636Z</time></trkpt><trkpt lat="43.3057433" lon="10.68578"><ele>45.0</ele><time>2026-05-05T08:36:32.635Z</time></trkpt><trkpt lat="43.3058883" lon="10.685555"><ele>45.0</ele><time>2026-05-05T08:36:33.635Z</time></trkpt><trkpt lat="43.306025" lon="10.685305"><ele>45.0</ele><time>2026-05-05T08:36:34.635Z</time></trkpt><trkpt lat="43.30615" lon="10.685045"><ele>45.5</ele><time>2026-05-05T08:36:35.636Z</time></trkpt><trkpt lat="43.3062783" lon="10.6847783"><ele>46.0</ele><time>2026-05-05T08:36:36.636Z</time></trkpt><trkpt lat="43.30642" lon="10.6845217"><ele>45.0</ele><time>2026-05-05T08:36:37.636Z</time></trkpt><trkpt lat="43.3065633" lon="10.684255"><ele>44.0</ele><time>2026-05-05T08:36:38.635Z</time></trkpt><trkpt lat="43.3067033" lon="10.6839933"><ele>44.0</ele><time>2026-05-05T08:36:39.636Z</time></trkpt><trkpt lat="43.3068367" lon="10.683725"><ele>44.0</ele><time>2026-05-05T08:36:40.636Z</time></trkpt><trkpt lat="43.3069767" lon="10.6834583"><ele>43.5</ele><time>2026-05-05T08:36:41.636Z</time></trkpt><trkpt lat="43.3071233" lon="10.6832"><ele>43.0</ele><time>2026-05-05T08:36:42.636Z</time></trkpt><trkpt lat="43.3072667" lon="10.6829117"><ele>46.0</ele><time>2026-05-05T08:36:43.635Z</time></trkpt><trkpt lat="43.3074133" lon="10.6826467"><ele>49.0</ele><time>2026-05-05T08:36:44.636Z</time></trkpt><trkpt lat="43.3075617" lon="10.6823967"><ele>49.0</ele><time>2026-05-05T08:36:45.635Z</time></trkpt><trkpt lat="43.3077067" lon="10.6821383"><ele>49.0</ele><time>2026-05-05T08:36:46.635Z</time></trkpt><trkpt lat="43.307835" lon="10.6818783"><ele>46.0</ele><time>2026-05-05T08:36:47.636Z</time></trkpt><trkpt lat="43.3079933" lon="10.6816283"><ele>43.0</ele><time>2026-05-05T08:36:48.636Z</time></trkpt><trkpt lat="43.3081617" lon="10.6814033"><ele>43.0</ele><time>2026-05-05T08:36:49.636Z</time></trkpt><trkpt lat="43.3083233" lon="10.6811833"><ele>43.0</ele><time>2026-05-05T08:36:50.635Z</time></trkpt><trkpt lat="43.3085" lon="10.6809783"><ele>43.0</ele><time>2026-05-05T08:36:51.636Z</time></trkpt><trkpt lat="43.3086867" lon="10.68076"><ele>43.0</ele><time>2026-05-05T08:36:52.636Z</time></trkpt><trkpt lat="43.3088567" lon="10.68055"><ele>42.5</ele><time>2026-05-05T08:36:53.636Z</time></trkpt><trkpt lat="43.3090433" lon="10.680335"><ele>42.0</ele><time>2026-05-05T08:36:54.636Z</time></trkpt><trkpt lat="43.30923" lon="10.6801167"><ele>41.0</ele><time>2026-05-05T08:36:55.635Z</time></trkpt><trkpt lat="43.309415" lon="10.6798883"><ele>40.0</ele><time>2026-05-05T08:36:56.635Z</time></trkpt><trkpt lat="43.3096083" lon="10.67966"><ele>39.5</ele><time>2026-05-05T08:36:57.635Z</time></trkpt><trkpt lat="43.3097967" lon="10.6794283"><ele>39.0</ele><time>2026-05-05T08:36:58.636Z</time></trkpt><trkpt lat="43.309995" lon="10.6792067"><ele>39.0</ele><time>2026-05-05T08:36:59.636Z</time></trkpt><trkpt lat="43.31018" lon="10.6789783"><ele>39.0</ele><time>2026-05-05T08:37:00.636Z</time></trkpt><trkpt lat="43.31037" lon="10.6787567"><ele>39.0</ele><time>2026-05-05T08:37:01.635Z</time></trkpt><trkpt lat="43.3105533" lon="10.6785417"><ele>39.0</ele><time>2026-05-05T08:37:02.636Z</time></trkpt><trkpt lat="43.3107367" lon="10.6783233"><ele>39.0</ele><time>2026-05-05T08:37:03.635Z</time></trkpt><trkpt lat="43.3109133" lon="10.6781083"><ele>39.0</ele><time>2026-05-05T08:37:04.636Z</time></trkpt><trkpt lat="43.3110867" lon="10.677895"><ele>38.666666666666664</ele><time>2026-05-05T08:37:05.636Z</time></trkpt><trkpt lat="43.3112583" lon="10.6776933"><ele>38.33333333333333</ele><time>2026-05-05T08:37:06.636Z</time></trkpt><trkpt lat="43.3114333" lon="10.6775117"><ele>38.0</ele><time>2026-05-05T08:37:07.636Z</time></trkpt><trkpt lat="43.311595" lon="10.67732"><ele>37.666666666666664</ele><time>2026-05-05T08:37:08.636Z</time></trkpt><trkpt lat="43.3117583" lon="10.677125"><ele>37.333333333333336</ele><time>2026-05-05T08:37:09.636Z</time></trkpt><trkpt lat="43.3119117" lon="10.676945"><ele>37.0</ele><time>2026-05-05T08:37:10.636Z</time></trkpt><trkpt lat="43.31206" lon="10.6767733"><ele>37.333333333333336</ele><time>2026-05-05T08:37:11.635Z</time></trkpt><trkpt lat="43.3121933" lon="10.67661"><ele>37.666666666666664</ele><time>2026-05-05T08:37:12.635Z</time></trkpt><trkpt lat="43.31231" lon="10.6764683"><ele>38.0</ele><time>2026-05-05T08:37:13.636Z</time></trkpt><trkpt lat="43.3124167" lon="10.6763417"><ele>38.0</ele><time>2026-05-05T08:37:14.636Z</time></trkpt><trkpt lat="43.3125183" lon="10.6762333"><ele>38.0</ele><time>2026-05-05T08:37:15.636Z</time></trkpt><trkpt lat="43.3125933" lon="10.67614"><ele>38.0</ele><time>2026-05-05T08:37:16.636Z</time></trkpt><trkpt lat="43.3126617" lon="10.6760583"><ele>38.0</ele><time>2026-05-05T08:37:17.636Z</time></trkpt><trkpt lat="43.3127167" lon="10.6759833"><ele>38.0</ele><time>2026-05-05T08:37:18.636Z</time></trkpt><trkpt lat="43.312735" lon="10.6758433"><ele>38.199999999999996</ele><time>2026-05-05T08:37:20.635Z</time></trkpt><trkpt lat="43.3126767" lon="10.67573"><ele>38.4</ele><time>2026-05-05T08:37:22.636Z</time></trkpt><trkpt lat="43.3126083" lon="10.6756833"><ele>38.599999999999994</ele><time>2026-05-05T08:37:23.636Z</time></trkpt><trkpt lat="43.3125217" lon="10.6756367"><ele>38.8</ele><time>2026-05-05T08:37:24.635Z</time></trkpt><trkpt lat="43.312435" lon="10.6755867"><ele>39.0</ele><time>2026-05-05T08:37:25.635Z</time></trkpt><trkpt lat="43.3123383" lon="10.6755283"><ele>39.0</ele><time>2026-05-05T08:37:26.636Z</time></trkpt><trkpt lat="43.3122417" lon="10.6754483"><ele>39.0</ele><time>2026-05-05T08:37:27.635Z</time></trkpt><trkpt lat="43.3121367" lon="10.6753567"><ele>39.0</ele><time>2026-05-05T08:37:28.635Z</time></trkpt><trkpt lat="43.3120167" lon="10.6752667"><ele>39.0</ele><time>2026-05-05T08:37:29.636Z</time></trkpt><trkpt lat="43.3119" lon="10.6751767"><ele>38.75</ele><time>2026-05-05T08:37:30.636Z</time></trkpt><trkpt lat="43.3117833" lon="10.67508"><ele>38.5</ele><time>2026-05-05T08:37:31.636Z</time></trkpt><trkpt lat="43.3116617" lon="10.6749917"><ele>38.25</ele><time>2026-05-05T08:37:32.636Z</time></trkpt><trkpt lat="43.3115367" lon="10.6748917"><ele>38.0</ele><time>2026-05-05T08:37:33.636Z</time></trkpt><trkpt lat="43.3114183" lon="10.6747833"><ele>38.5</ele><time>2026-05-05T08:37:34.636Z</time></trkpt><trkpt lat="43.3113017" lon="10.674695"><ele>39.0</ele><time>2026-05-05T08:37:35.636Z</time></trkpt><trkpt lat="43.31119" lon="10.6746083"><ele>39.5</ele><time>2026-05-05T08:37:36.636Z</time></trkpt><trkpt lat="43.3110883" lon="10.6745267"><ele>40.0</ele><time>2026-05-05T08:37:37.635Z</time></trkpt><trkpt lat="43.3109883" lon="10.6744417"><ele>40.0</ele><time>2026-05-05T08:37:38.636Z</time></trkpt><trkpt lat="43.3108967" lon="10.674365"><ele>40.0</ele><time>2026-05-05T08:37:39.636Z</time></trkpt><trkpt lat="43.3108067" lon="10.674285"><ele>40.0</ele><time>2026-05-05T08:37:40.636Z</time></trkpt><trkpt lat="43.3107183" lon="10.67423"><ele>40.0</ele><time>2026-05-05T08:37:41.636Z</time></trkpt><trkpt lat="43.3106367" lon="10.67417"><ele>40.0</ele><time>2026-05-05T08:37:42.636Z</time></trkpt><trkpt lat="43.3105267" lon="10.6740933"><ele>40.75</ele><time>2026-05-05T08:37:43.635Z</time></trkpt><trkpt lat="43.3104167" lon="10.6740183"><ele>41.5</ele><time>2026-05-05T08:37:44.636Z</time></trkpt><trkpt lat="43.3103067" lon="10.6739417"><ele>42.25</ele><time>2026-05-05T08:37:45.636Z</time></trkpt><trkpt lat="43.3101917" lon="10.6738467"><ele>43.0</ele><time>2026-05-05T08:37:46.635Z</time></trkpt><trkpt lat="43.31007" lon="10.673735"><ele>43.0</ele><time>2026-05-05T08:37:47.636Z</time></trkpt><trkpt lat="43.3099433" lon="10.67363"><ele>43.0</ele><time>2026-05-05T08:37:48.635Z</time></trkpt><trkpt lat="43.3098117" lon="10.6735267"><ele>43.0</ele><time>2026-05-05T08:37:49.636Z</time></trkpt><trkpt lat="43.3096683" lon="10.6734117"><ele>43.0</ele><time>2026-05-05T08:37:50.635Z</time></trkpt><trkpt lat="43.3095167" lon="10.673285"><ele>43.0</ele><time>2026-05-05T08:37:51.636Z</time></trkpt><trkpt lat="43.3093717" lon="10.6731583"><ele>43.0</ele><time>2026-05-05T08:37:52.636Z</time></trkpt><trkpt lat="43.3092117" lon="10.6730333"><ele>43.0</ele><time>2026-05-05T08:37:53.635Z</time></trkpt><trkpt lat="43.3090583" lon="10.6729033"><ele>43.0</ele><time>2026-05-05T08:37:54.634Z</time></trkpt><trkpt lat="43.3088967" lon="10.67277"><ele>43.0</ele><time>2026-05-05T08:37:55.634Z</time></trkpt><trkpt lat="43.3087517" lon="10.6726433"><ele>42.66666666666667</ele><time>2026-05-05T08:37:56.635Z</time></trkpt><trkpt lat="43.3085967" lon="10.67252"><ele>42.333333333333336</ele><time>2026-05-05T08:37:57.635Z</time></trkpt><trkpt lat="43.30844" lon="10.6723883"><ele>42.0</ele><time>2026-05-05T08:37:58.634Z</time></trkpt><trkpt lat="43.3082933" lon="10.6722617"><ele>42.0</ele><time>2026-05-05T08:37:59.635Z</time></trkpt><trkpt lat="43.3081417" lon="10.6721433"><ele>42.0</ele><time>2026-05-05T08:38:00.634Z</time></trkpt><trkpt lat="43.307985" lon="10.6720283"><ele>42.0</ele><time>2026-05-05T08:38:01.634Z</time></trkpt><trkpt lat="43.3078333" lon="10.6719067"><ele>42.0</ele><time>2026-05-05T08:38:02.635Z</time></trkpt><trkpt lat="43.3076817" lon="10.6717817"><ele>42.0</ele><time>2026-05-05T08:38:03.634Z</time></trkpt><trkpt lat="43.3075167" lon="10.671665"><ele>42.0</ele><time>2026-05-05T08:38:04.635Z</time></trkpt><trkpt lat="43.30736" lon="10.6715367"><ele>43.333333333333336</ele><time>2026-05-05T08:38:05.634Z</time></trkpt><trkpt lat="43.307205" lon="10.6713967"><ele>44.66666666666667</ele><time>2026-05-05T08:38:06.635Z</time></trkpt><trkpt lat="43.3070483" lon="10.6712667"><ele>46.0</ele><time>2026-05-05T08:38:07.635Z</time></trkpt><trkpt lat="43.3068833" lon="10.6711417"><ele>43.66666666666667</ele><time>2026-05-05T08:38:08.635Z</time></trkpt><trkpt lat="43.3067267" lon="10.6710067"><ele>41.333333333333336</ele><time>2026-05-05T08:38:09.635Z</time></trkpt><trkpt lat="43.3065733" lon="10.6708717"><ele>39.0</ele><time>2026-05-05T08:38:10.635Z</time></trkpt><trkpt lat="43.3064267" lon="10.6707433"><ele>41.0</ele><time>2026-05-05T08:38:11.635Z</time></trkpt><trkpt lat="43.3062883" lon="10.6705967"><ele>43.0</ele><time>2026-05-05T08:38:12.635Z</time></trkpt><trkpt lat="43.3061617" lon="10.6704433"><ele>45.0</ele><time>2026-05-05T08:38:13.635Z</time></trkpt><trkpt lat="43.3060333" lon="10.6702667"><ele>45.0</ele><time>2026-05-05T08:38:14.635Z</time></trkpt><trkpt lat="43.305905" lon="10.6700733"><ele>45.0</ele><time>2026-05-05T08:38:15.634Z</time></trkpt><trkpt lat="43.3057683" lon="10.669875"><ele>45.0</ele><time>2026-05-05T08:38:16.635Z</time></trkpt><trkpt lat="43.30563" lon="10.669685"><ele>45.333333333333336</ele><time>2026-05-05T08:38:17.635Z</time></trkpt><trkpt lat="43.30549" lon="10.6694833"><ele>45.66666666666667</ele><time>2026-05-05T08:38:18.634Z</time></trkpt><trkpt lat="43.3053433" lon="10.6692617"><ele>46.0</ele><time>2026-05-05T08:38:19.635Z</time></trkpt><trkpt lat="43.3052117" lon="10.6690583"><ele>46.0</ele><time>2026-05-05T08:38:20.634Z</time></trkpt><trkpt lat="43.3050767" lon="10.6688617"><ele>46.0</ele><time>2026-05-05T08:38:21.635Z</time></trkpt><trkpt lat="43.3049333" lon="10.6686633"><ele>46.0</ele><time>2026-05-05T08:38:22.635Z</time></trkpt><trkpt lat="43.3047917" lon="10.6684583"><ele>47.333333333333336</ele><time>2026-05-05T08:38:23.635Z</time></trkpt><trkpt lat="43.3046483" lon="10.6682483"><ele>48.66666666666667</ele><time>2026-05-05T08:38:24.635Z</time></trkpt><trkpt lat="43.3045083" lon="10.66804"><ele>50.0</ele><time>2026-05-05T08:38:25.635Z</time></trkpt><trkpt lat="43.3043717" lon="10.6678133"><ele>49.333333333333336</ele><time>2026-05-05T08:38:26.635Z</time></trkpt><trkpt lat="43.3042233" lon="10.66759"><ele>48.66666666666667</ele><time>2026-05-05T08:38:27.634Z</time></trkpt><trkpt lat="43.3040817" lon="10.6673883"><ele>48.0</ele><time>2026-05-05T08:38:28.635Z</time></trkpt><trkpt lat="43.3039467" lon="10.667185"><ele>48.0</ele><time>2026-05-05T08:38:29.634Z</time></trkpt><trkpt lat="43.30381" lon="10.6669833"><ele>48.0</ele><time>2026-05-05T08:38:30.635Z</time></trkpt><trkpt lat="43.3036667" lon="10.66678"><ele>48.0</ele><time>2026-05-05T08:38:31.635Z</time></trkpt><trkpt lat="43.3035267" lon="10.6665917"><ele>48.0</ele><time>2026-05-05T08:38:32.635Z</time></trkpt><trkpt lat="43.3033833" lon="10.6664033"><ele>48.0</ele><time>2026-05-05T08:38:33.634Z</time></trkpt><trkpt lat="43.3032467" lon="10.6661983"><ele>48.0</ele><time>2026-05-05T08:38:34.635Z</time></trkpt><trkpt lat="43.3031133" lon="10.6660083"><ele>50.66666666666667</ele><time>2026-05-05T08:38:35.635Z</time></trkpt><trkpt lat="43.3029833" lon="10.6658083"><ele>53.333333333333336</ele><time>2026-05-05T08:38:36.635Z</time></trkpt><trkpt lat="43.3028517" lon="10.66561"><ele>56.0</ele><time>2026-05-05T08:38:37.635Z</time></trkpt><trkpt lat="43.30272" lon="10.66542"><ele>56.0</ele><time>2026-05-05T08:38:38.635Z</time></trkpt><trkpt lat="43.3025933" lon="10.6652233"><ele>56.0</ele><time>2026-05-05T08:38:39.635Z</time></trkpt><trkpt lat="43.3024783" lon="10.6650383"><ele>56.0</ele><time>2026-05-05T08:38:40.634Z</time></trkpt><trkpt lat="43.3023533" lon="10.6648567"><ele>56.0</ele><time>2026-05-05T08:38:41.634Z</time></trkpt><trkpt lat="43.3022583" lon="10.6646717"><ele>56.0</ele><time>2026-05-05T08:38:42.634Z</time></trkpt><trkpt lat="43.3021717" lon="10.664465"><ele>56.0</ele><time>2026-05-05T08:38:43.635Z</time></trkpt><trkpt lat="43.3020733" lon="10.6642583"><ele>59.0</ele><time>2026-05-05T08:38:44.635Z</time></trkpt><trkpt lat="43.301965" lon="10.6640483"><ele>62.0</ele><time>2026-05-05T08:38:45.635Z</time></trkpt><trkpt lat="43.3018683" lon="10.66382"><ele>65.0</ele><time>2026-05-05T08:38:46.634Z</time></trkpt><trkpt lat="43.3017483" lon="10.6636233"><ele>65.66666666666667</ele><time>2026-05-05T08:38:47.635Z</time></trkpt><trkpt lat="43.301625" lon="10.6634167"><ele>66.33333333333333</ele><time>2026-05-05T08:38:48.634Z</time></trkpt><trkpt lat="43.3015067" lon="10.6632133"><ele>67.0</ele><time>2026-05-05T08:38:49.635Z</time></trkpt><trkpt lat="43.3014067" lon="10.6630167"><ele>67.0</ele><time>2026-05-05T08:38:50.635Z</time></trkpt><trkpt lat="43.301285" lon="10.6627867"><ele>67.0</ele><time>2026-05-05T08:38:51.635Z</time></trkpt><trkpt lat="43.30117" lon="10.6625683"><ele>67.0</ele><time>2026-05-05T08:38:52.635Z</time></trkpt><trkpt lat="43.3010517" lon="10.66235"><ele>62.33333333333333</ele><time>2026-05-05T08:38:53.635Z</time></trkpt><trkpt lat="43.30093" lon="10.6621333"><ele>57.66666666666667</ele><time>2026-05-05T08:38:54.634Z</time></trkpt><trkpt lat="43.3008233" lon="10.6619283"><ele>53.0</ele><time>2026-05-05T08:38:55.635Z</time></trkpt><trkpt lat="43.3007233" lon="10.6617217"><ele>53.0</ele><time>2026-05-05T08:38:56.634Z</time></trkpt><trkpt lat="43.30061" lon="10.6615117"><ele>53.0</ele><time>2026-05-05T08:38:57.634Z</time></trkpt><trkpt lat="43.30052" lon="10.6612883"><ele>53.0</ele><time>2026-05-05T08:38:58.634Z</time></trkpt><trkpt lat="43.3004467" lon="10.661055"><ele>53.333333333333336</ele><time>2026-05-05T08:38:59.635Z</time></trkpt><trkpt lat="43.3003583" lon="10.6608233"><ele>53.66666666666667</ele><time>2026-05-05T08:39:00.634Z</time></trkpt><trkpt lat="43.30028" lon="10.660615"><ele>54.0</ele><time>2026-05-05T08:39:01.634Z</time></trkpt><trkpt lat="43.3002167" lon="10.660405"><ele>55.33333333333333</ele><time>2026-05-05T08:39:02.635Z</time></trkpt><trkpt lat="43.3001517" lon="10.660195"><ele>56.666666666666664</ele><time>2026-05-05T08:39:03.635Z</time></trkpt><trkpt lat="43.3001117" lon="10.659995"><ele>58.0</ele><time>2026-05-05T08:39:04.635Z</time></trkpt><trkpt lat="43.3000767" lon="10.6598033"><ele>58.0</ele><time>2026-05-05T08:39:05.635Z</time></trkpt><trkpt lat="43.3000717" lon="10.6596317"><ele>58.0</ele><time>2026-05-05T08:39:06.635Z</time></trkpt><trkpt lat="43.3001" lon="10.65945"><ele>58.0</ele><time>2026-05-05T08:39:07.634Z</time></trkpt><trkpt lat="43.3001533" lon="10.6592783"><ele>58.0</ele><time>2026-05-05T08:39:08.634Z</time></trkpt><trkpt lat="43.3002017" lon="10.6591033"><ele>58.25</ele><time>2026-05-05T08:39:09.634Z</time></trkpt><trkpt lat="43.3002467" lon="10.6589433"><ele>58.5</ele><time>2026-05-05T08:39:10.634Z</time></trkpt><trkpt lat="43.3002633" lon="10.6587867"><ele>58.75</ele><time>2026-05-05T08:39:11.635Z</time></trkpt><trkpt lat="43.3002583" lon="10.658615"><ele>59.0</ele><time>2026-05-05T08:39:12.635Z</time></trkpt><trkpt lat="43.3002283" lon="10.6584583"><ele>60.0</ele><time>2026-05-05T08:39:13.635Z</time></trkpt><trkpt lat="43.3001767" lon="10.6582867"><ele>61.0</ele><time>2026-05-05T08:39:14.635Z</time></trkpt><trkpt lat="43.30012" lon="10.65811"><ele>62.0</ele><time>2026-05-05T08:39:15.634Z</time></trkpt><trkpt lat="43.300065" lon="10.6579417"><ele>63.0</ele><time>2026-05-05T08:39:16.635Z</time></trkpt><trkpt lat="43.300015" lon="10.657765"><ele>64.75</ele><time>2026-05-05T08:39:17.635Z</time></trkpt><trkpt lat="43.2999583" lon="10.6575867"><ele>66.5</ele><time>2026-05-05T08:39:18.635Z</time></trkpt><trkpt lat="43.2999017" lon="10.6574117"><ele>68.25</ele><time>2026-05-05T08:39:19.635Z</time></trkpt><trkpt lat="43.2998467" lon="10.6572467"><ele>70.0</ele><time>2026-05-05T08:39:20.635Z</time></trkpt><trkpt lat="43.2998067" lon="10.6570917"><ele>70.4</ele><time>2026-05-05T08:39:21.635Z</time></trkpt><trkpt lat="43.2997767" lon="10.656935"><ele>70.8</ele><time>2026-05-05T08:39:22.635Z</time></trkpt><trkpt lat="43.2997917" lon="10.6567883"><ele>71.2</ele><time>2026-05-05T08:39:23.634Z</time></trkpt><trkpt lat="43.2998267" lon="10.6566467"><ele>71.6</ele><time>2026-05-05T08:39:24.634Z</time></trkpt><trkpt lat="43.299885" lon="10.6565183"><ele>72.0</ele><time>2026-05-05T08:39:25.635Z</time></trkpt><trkpt lat="43.29996" lon="10.6564067"><ele>72.0</ele><time>2026-05-05T08:39:26.635Z</time></trkpt><trkpt lat="43.3000417" lon="10.6563"><ele>72.0</ele><time>2026-05-05T08:39:27.635Z</time></trkpt><trkpt lat="43.30013" lon="10.6561833"><ele>72.0</ele><time>2026-05-05T08:39:28.635Z</time></trkpt><trkpt lat="43.3002333" lon="10.656065"><ele>72.0</ele><time>2026-05-05T08:39:29.634Z</time></trkpt><trkpt lat="43.300315" lon="10.6559317"><ele>72.0</ele><time>2026-05-05T08:39:30.635Z</time></trkpt><trkpt lat="43.300375" lon="10.6557817"><ele>72.0</ele><time>2026-05-05T08:39:31.634Z</time></trkpt><trkpt lat="43.3004033" lon="10.6556283"><ele>72.0</ele><time>2026-05-05T08:39:32.635Z</time></trkpt><trkpt lat="43.3004217" lon="10.6554367"><ele>72.0</ele><time>2026-05-05T08:39:33.634Z</time></trkpt><trkpt lat="43.3004267" lon="10.655235"><ele>74.25</ele><time>2026-05-05T08:39:34.635Z</time></trkpt><trkpt lat="43.3004233" lon="10.65504"><ele>76.5</ele><time>2026-05-05T08:39:35.635Z</time></trkpt><trkpt lat="43.30042" lon="10.6548517"><ele>78.75</ele><time>2026-05-05T08:39:36.635Z</time></trkpt><trkpt lat="43.30043" lon="10.654655"><ele>81.0</ele><time>2026-05-05T08:39:37.635Z</time></trkpt><trkpt lat="43.300445" lon="10.65445"><ele>83.66666666666667</ele><time>2026-05-05T08:39:38.634Z</time></trkpt><trkpt lat="43.300455" lon="10.6542317"><ele>86.33333333333334</ele><time>2026-05-05T08:39:39.635Z</time></trkpt><trkpt lat="43.30047" lon="10.6540017"><ele>89.0</ele><time>2026-05-05T08:39:40.634Z</time></trkpt><trkpt lat="43.3004733" lon="10.65377"><ele>90.66666666666667</ele><time>2026-05-05T08:39:41.635Z</time></trkpt><trkpt lat="43.3004783" lon="10.6535267"><ele>92.33333333333333</ele><time>2026-05-05T08:39:42.634Z</time></trkpt><trkpt lat="43.3004867" lon="10.6532967"><ele>94.0</ele><time>2026-05-05T08:39:43.635Z</time></trkpt><trkpt lat="43.3005083" lon="10.6530533"><ele>94.0</ele><time>2026-05-05T08:39:44.635Z</time></trkpt><trkpt lat="43.3005333" lon="10.65283"><ele>94.0</ele><time>2026-05-05T08:39:45.634Z</time></trkpt><trkpt lat="43.300555" lon="10.6526267"><ele>94.0</ele><time>2026-05-05T08:39:46.634Z</time></trkpt><trkpt lat="43.3005667" lon="10.6524367"><ele>94.75</ele><time>2026-05-05T08:39:47.635Z</time></trkpt><trkpt lat="43.300565" lon="10.6522617"><ele>95.5</ele><time>2026-05-05T08:39:48.635Z</time></trkpt><trkpt lat="43.3005367" lon="10.6521117"><ele>96.25</ele><time>2026-05-05T08:39:49.635Z</time></trkpt><trkpt lat="43.3004867" lon="10.651975"><ele>97.0</ele><time>2026-05-05T08:39:50.635Z</time></trkpt><trkpt lat="43.300405" lon="10.6518617"><ele>97.25</ele><time>2026-05-05T08:39:51.634Z</time></trkpt><trkpt lat="43.3003167" lon="10.651745"><ele>97.5</ele><time>2026-05-05T08:39:52.635Z</time></trkpt><trkpt lat="43.3002233" lon="10.6516333"><ele>97.75</ele><time>2026-05-05T08:39:53.635Z</time></trkpt><trkpt lat="43.3001283" lon="10.6515"><ele>98.0</ele><time>2026-05-05T08:39:54.635Z</time></trkpt><trkpt lat="43.30005" lon="10.6513417"><ele>98.0</ele><time>2026-05-05T08:39:55.635Z</time></trkpt><trkpt lat="43.2999767" lon="10.651165"><ele>98.0</ele><time>2026-05-05T08:39:56.635Z</time></trkpt><trkpt lat="43.2998983" lon="10.650975"><ele>98.0</ele><time>2026-05-05T08:39:57.634Z</time></trkpt><trkpt lat="43.2998267" lon="10.6507817"><ele>98.66666666666666</ele><time>2026-05-05T08:39:58.635Z</time></trkpt><trkpt lat="43.2997467" lon="10.6505883"><ele>99.33333333333334</ele><time>2026-05-05T08:39:59.635Z</time></trkpt><trkpt lat="43.2996717" lon="10.650395"><ele>100.0</ele><time>2026-05-05T08:40:00.635Z</time></trkpt><trkpt lat="43.2995983" lon="10.65022"><ele>100.0</ele><time>2026-05-05T08:40:01.635Z</time></trkpt><trkpt lat="43.2995183" lon="10.65004"><ele>100.0</ele><time>2026-05-05T08:40:02.635Z</time></trkpt><trkpt lat="43.2994567" lon="10.649845"><ele>100.0</ele><time>2026-05-05T08:40:03.634Z</time></trkpt><trkpt lat="43.299405" lon="10.6496467"><ele>100.25</ele><time>2026-05-05T08:40:04.635Z</time></trkpt><trkpt lat="43.29937" lon="10.64945"><ele>100.5</ele><time>2026-05-05T08:40:05.635Z</time></trkpt><trkpt lat="43.29935" lon="10.64925"><ele>100.75</ele><time>2026-05-05T08:40:06.634Z</time></trkpt><trkpt lat="43.2993283" lon="10.64906"><ele>101.0</ele><time>2026-05-05T08:40:07.635Z</time></trkpt><trkpt lat="43.2993167" lon="10.6488617"><ele>101.0</ele><time>2026-05-05T08:40:08.634Z</time></trkpt><trkpt lat="43.2993" lon="10.648675"><ele>101.0</ele><time>2026-05-05T08:40:09.635Z</time></trkpt><trkpt lat="43.29929" lon="10.6484933"><ele>101.0</ele><time>2026-05-05T08:40:10.635Z</time></trkpt><trkpt lat="43.2992817" lon="10.6483233"><ele>101.0</ele><time>2026-05-05T08:40:11.634Z</time></trkpt><trkpt lat="43.2992783" lon="10.6481533"><ele>102.19999999999999</ele><time>2026-05-05T08:40:12.635Z</time></trkpt><trkpt lat="43.2992717" lon="10.64801"><ele>103.39999999999999</ele><time>2026-05-05T08:40:13.634Z</time></trkpt><trkpt lat="43.29926" lon="10.64788"><ele>104.6</ele><time>2026-05-05T08:40:14.635Z</time></trkpt><trkpt lat="43.29924" lon="10.647755"><ele>105.8</ele><time>2026-05-05T08:40:15.635Z</time></trkpt><trkpt lat="43.2992283" lon="10.6476283"><ele>107.0</ele><time>2026-05-05T08:40:16.635Z</time></trkpt><trkpt lat="43.29922" lon="10.6474917"><ele>108.39999999999999</ele><time>2026-05-05T08:40:17.635Z</time></trkpt><trkpt lat="43.29921" lon="10.6473583"><ele>109.79999999999998</ele><time>2026-05-05T08:40:18.635Z</time></trkpt><trkpt lat="43.2992033" lon="10.6472117"><ele>111.2</ele><time>2026-05-05T08:40:19.635Z</time></trkpt><trkpt lat="43.299195" lon="10.64707"><ele>112.6</ele><time>2026-05-05T08:40:20.635Z</time></trkpt><trkpt lat="43.2991867" lon="10.64692"><ele>114.0</ele><time>2026-05-05T08:40:21.634Z</time></trkpt><trkpt lat="43.2991667" lon="10.6467767"><ele>115.0</ele><time>2026-05-05T08:40:22.635Z</time></trkpt><trkpt lat="43.2991533" lon="10.6466183"><ele>116.0</ele><time>2026-05-05T08:40:23.635Z</time></trkpt><trkpt lat="43.29914" lon="10.6464617"><ele>117.0</ele><time>2026-05-05T08:40:24.635Z</time></trkpt><trkpt lat="43.2991317" lon="10.6463167"><ele>118.0</ele><time>2026-05-05T08:40:25.635Z</time></trkpt><trkpt lat="43.299125" lon="10.6461667"><ele>119.0</ele><time>2026-05-05T08:40:26.634Z</time></trkpt><trkpt lat="43.2991233" lon="10.64604"><ele>119.4</ele><time>2026-05-05T08:40:27.635Z</time></trkpt><trkpt lat="43.2991117" lon="10.6459333"><ele>119.80000000000001</ele><time>2026-05-05T08:40:28.635Z</time></trkpt><trkpt lat="43.2991" lon="10.64584"><ele>120.19999999999999</ele><time>2026-05-05T08:40:29.635Z</time></trkpt><trkpt lat="43.2990833" lon="10.64569"><ele>120.6</ele><time>2026-05-05T08:40:31.634Z</time></trkpt><trkpt lat="43.29903" lon="10.645575"><ele>121.0</ele><time>2026-05-05T08:40:33.635Z</time></trkpt><trkpt lat="43.298925" lon="10.64553"><ele>123.19999999999999</ele><time>2026-05-05T08:40:35.634Z</time></trkpt><trkpt lat="43.2988067" lon="10.645625"><ele>125.39999999999999</ele><time>2026-05-05T08:40:37.634Z</time></trkpt><trkpt lat="43.2987517" lon="10.6457183"><ele>127.6</ele><time>2026-05-05T08:40:38.635Z</time></trkpt><trkpt lat="43.2986883" lon="10.64582"><ele>129.79999999999998</ele><time>2026-05-05T08:40:39.635Z</time></trkpt><trkpt lat="43.2986133" lon="10.6459133"><ele>132.0</ele><time>2026-05-05T08:40:40.634Z</time></trkpt><trkpt lat="43.29853" lon="10.6459767"><ele>132.0</ele><time>2026-05-05T08:40:41.635Z</time></trkpt><trkpt lat="43.298435" lon="10.6459983"><ele>132.0</ele><time>2026-05-05T08:40:42.635Z</time></trkpt><trkpt lat="43.298335" lon="10.64599"><ele>132.0</ele><time>2026-05-05T08:40:43.635Z</time></trkpt><trkpt lat="43.29824" lon="10.64597"><ele>132.0</ele><time>2026-05-05T08:40:44.634Z</time></trkpt><trkpt lat="43.2981367" lon="10.645935"><ele>132.0</ele><time>2026-05-05T08:40:45.634Z</time></trkpt><trkpt lat="43.2980317" lon="10.6458833"><ele>132.0</ele><time>2026-05-05T08:40:46.635Z</time></trkpt><trkpt lat="43.2979233" lon="10.645815"><ele>132.0</ele><time>2026-05-05T08:40:47.635Z</time></trkpt><trkpt lat="43.2978083" lon="10.645735"><ele>132.0</ele><time>2026-05-05T08:40:48.635Z</time></trkpt><trkpt lat="43.2977067" lon="10.6456517"><ele>132.0</ele><time>2026-05-05T08:40:49.635Z</time></trkpt><trkpt lat="43.2976083" lon="10.64556"><ele>132.0</ele><time>2026-05-05T08:40:50.634Z</time></trkpt><trkpt lat="43.2975017" lon="10.6454717"><ele>132.0</ele><time>2026-05-05T08:40:51.635Z</time></trkpt><trkpt lat="43.297385" lon="10.645385"><ele>132.0</ele><time>2026-05-05T08:40:52.635Z</time></trkpt><trkpt lat="43.29727" lon="10.6452917"><ele>132.0</ele><time>2026-05-05T08:40:53.635Z</time></trkpt><trkpt lat="43.2971517" lon="10.6451917"><ele>134.25</ele><time>2026-05-05T08:40:54.635Z</time></trkpt><trkpt lat="43.2970433" lon="10.64509"><ele>136.5</ele><time>2026-05-05T08:40:55.635Z</time></trkpt><trkpt lat="43.2969483" lon="10.6449817"><ele>138.75</ele><time>2026-05-05T08:40:56.635Z</time></trkpt><trkpt lat="43.296845" lon="10.64487"><ele>141.0</ele><time>2026-05-05T08:40:57.635Z</time></trkpt><trkpt lat="43.2967433" lon="10.64476"><ele>141.0</ele><time>2026-05-05T08:40:58.634Z</time></trkpt><trkpt lat="43.2966367" lon="10.64466"><ele>141.0</ele><time>2026-05-05T08:40:59.635Z</time></trkpt><trkpt lat="43.296525" lon="10.644565"><ele>141.0</ele><time>2026-05-05T08:41:00.635Z</time></trkpt><trkpt lat="43.2964133" lon="10.644465"><ele>141.0</ele><time>2026-05-05T08:41:01.634Z</time></trkpt><trkpt lat="43.2962933" lon="10.644365"><ele>143.33333333333334</ele><time>2026-05-05T08:41:02.635Z</time></trkpt><trkpt lat="43.29617" lon="10.6442517"><ele>145.66666666666669</ele><time>2026-05-05T08:41:03.634Z</time></trkpt><trkpt lat="43.2960517" lon="10.6441167"><ele>148.0</ele><time>2026-05-05T08:41:04.635Z</time></trkpt><trkpt lat="43.29594" lon="10.6439817"><ele>148.0</ele><time>2026-05-05T08:41:05.635Z</time></trkpt><trkpt lat="43.2958283" lon="10.6438633"><ele>148.0</ele><time>2026-05-05T08:41:06.633Z</time></trkpt><trkpt lat="43.2957133" lon="10.64375"><ele>148.0</ele><time>2026-05-05T08:41:07.634Z</time></trkpt><trkpt lat="43.2956" lon="10.6436383"><ele>148.0</ele><time>2026-05-05T08:41:08.634Z</time></trkpt><trkpt lat="43.2954967" lon="10.6435333"><ele>148.75</ele><time>2026-05-05T08:41:09.634Z</time></trkpt><trkpt lat="43.2954033" lon="10.6434383"><ele>149.5</ele><time>2026-05-05T08:41:10.634Z</time></trkpt><trkpt lat="43.2953183" lon="10.643315"><ele>150.25</ele><time>2026-05-05T08:41:11.634Z</time></trkpt><trkpt lat="43.2952317" lon="10.6431733"><ele>151.0</ele><time>2026-05-05T08:41:12.633Z</time></trkpt><trkpt lat="43.295165" lon="10.64302"><ele>151.0</ele><time>2026-05-05T08:41:13.634Z</time></trkpt><trkpt lat="43.2950967" lon="10.642845"><ele>151.0</ele><time>2026-05-05T08:41:14.634Z</time></trkpt><trkpt lat="43.2950317" lon="10.642675"><ele>151.0</ele><time>2026-05-05T08:41:15.634Z</time></trkpt><trkpt lat="43.2949483" lon="10.6425"><ele>151.0</ele><time>2026-05-05T08:41:16.634Z</time></trkpt><trkpt lat="43.2948567" lon="10.64235"><ele>152.0</ele><time>2026-05-05T08:41:17.633Z</time></trkpt><trkpt lat="43.2947433" lon="10.6422017"><ele>153.0</ele><time>2026-05-05T08:41:18.633Z</time></trkpt><trkpt lat="43.2946183" lon="10.6420617"><ele>154.0</ele><time>2026-05-05T08:41:19.633Z</time></trkpt><trkpt lat="43.2944983" lon="10.6419283"><ele>154.0</ele><time>2026-05-05T08:41:20.634Z</time></trkpt><trkpt lat="43.2943883" lon="10.6417817"><ele>154.0</ele><time>2026-05-05T08:41:21.634Z</time></trkpt><trkpt lat="43.2942967" lon="10.641635"><ele>154.0</ele><time>2026-05-05T08:41:22.634Z</time></trkpt><trkpt lat="43.2942083" lon="10.6414767"><ele>154.0</ele><time>2026-05-05T08:41:23.633Z</time></trkpt><trkpt lat="43.2941267" lon="10.6413267"><ele>154.0</ele><time>2026-05-05T08:41:24.633Z</time></trkpt><trkpt lat="43.294045" lon="10.6411633"><ele>154.0</ele><time>2026-05-05T08:41:25.634Z</time></trkpt><trkpt lat="43.2939667" lon="10.6410067"><ele>154.0</ele><time>2026-05-05T08:41:26.634Z</time></trkpt><trkpt lat="43.2939033" lon="10.6408417"><ele>154.0</ele><time>2026-05-05T08:41:27.633Z</time></trkpt><trkpt lat="43.2938617" lon="10.6406833"><ele>153.25</ele><time>2026-05-05T08:41:28.634Z</time></trkpt><trkpt lat="43.2938267" lon="10.6405117"><ele>152.5</ele><time>2026-05-05T08:41:29.634Z</time></trkpt><trkpt lat="43.2938033" lon="10.6403367"><ele>151.75</ele><time>2026-05-05T08:41:30.634Z</time></trkpt><trkpt lat="43.29378" lon="10.64016"><ele>151.0</ele><time>2026-05-05T08:41:31.633Z</time></trkpt><trkpt lat="43.2937533" lon="10.6399833"><ele>151.0</ele><time>2026-05-05T08:41:32.633Z</time></trkpt><trkpt lat="43.293715" lon="10.6398167"><ele>151.0</ele><time>2026-05-05T08:41:33.633Z</time></trkpt><trkpt lat="43.2936567" lon="10.6396633"><ele>151.0</ele><time>2026-05-05T08:41:34.634Z</time></trkpt><trkpt lat="43.2935833" lon="10.6395217"><ele>151.0</ele><time>2026-05-05T08:41:35.634Z</time></trkpt><trkpt lat="43.29351" lon="10.6393817"><ele>154.25</ele><time>2026-05-05T08:41:36.633Z</time></trkpt><trkpt lat="43.2934283" lon="10.6392383"><ele>157.5</ele><time>2026-05-05T08:41:37.633Z</time></trkpt><trkpt lat="43.2933317" lon="10.6391133"><ele>160.75</ele><time>2026-05-05T08:41:38.634Z</time></trkpt><trkpt lat="43.29326" lon="10.638975"><ele>164.0</ele><time>2026-05-05T08:41:39.634Z</time></trkpt><trkpt lat="43.2932017" lon="10.6388333"><ele>164.0</ele><time>2026-05-05T08:41:40.634Z</time></trkpt><trkpt lat="43.29317" lon="10.6386767"><ele>164.0</ele><time>2026-05-05T08:41:41.634Z</time></trkpt><trkpt lat="43.2931617" lon="10.6385133"><ele>164.0</ele><time>2026-05-05T08:41:42.634Z</time></trkpt><trkpt lat="43.2931717" lon="10.6383333"><ele>164.0</ele><time>2026-05-05T08:41:43.634Z</time></trkpt><trkpt lat="43.2931933" lon="10.6381533"><ele>164.75</ele><time>2026-05-05T08:41:44.634Z</time></trkpt><trkpt lat="43.2932183" lon="10.6379867"><ele>165.5</ele><time>2026-05-05T08:41:45.633Z</time></trkpt><trkpt lat="43.293235" lon="10.63782"><ele>166.25</ele><time>2026-05-05T08:41:46.634Z</time></trkpt><trkpt lat="43.2932367" lon="10.637645"><ele>167.0</ele><time>2026-05-05T08:41:47.634Z</time></trkpt><trkpt lat="43.29324" lon="10.63748"><ele>167.0</ele><time>2026-05-05T08:41:48.634Z</time></trkpt><trkpt lat="43.2932467" lon="10.637345"><ele>167.0</ele><time>2026-05-05T08:41:49.634Z</time></trkpt><trkpt lat="43.2932433" lon="10.63725"><ele>167.0</ele><time>2026-05-05T08:41:50.633Z</time></trkpt><trkpt lat="43.2932183" lon="10.637135"><ele>167.0</ele><time>2026-05-05T08:41:52.634Z</time></trkpt><trkpt lat="43.2931617" lon="10.6371917"><ele>167.0</ele><time>2026-05-05T08:41:55.633Z</time></trkpt><trkpt lat="43.2931583" lon="10.637315"><ele>167.0</ele><time>2026-05-05T08:41:57.634Z</time></trkpt><trkpt lat="43.293155" lon="10.6374567"><ele>164.79999999999998</ele><time>2026-05-05T08:41:59.634Z</time></trkpt><trkpt lat="43.2930733" lon="10.6376067"><ele>162.6</ele><time>2026-05-05T08:42:01.634Z</time></trkpt><trkpt lat="43.2930083" lon="10.6376733"><ele>160.39999999999998</ele><time>2026-05-05T08:42:02.633Z</time></trkpt><trkpt lat="43.2929167" lon="10.6377283"><ele>158.2</ele><time>2026-05-05T08:42:03.634Z</time></trkpt><trkpt lat="43.2928083" lon="10.6377667"><ele>156.0</ele><time>2026-05-05T08:42:04.634Z</time></trkpt><trkpt lat="43.2927033" lon="10.6378067"><ele>156.0</ele><time>2026-05-05T08:42:05.633Z</time></trkpt><trkpt lat="43.292605" lon="10.6378433"><ele>156.0</ele><time>2026-05-05T08:42:06.633Z</time></trkpt><trkpt lat="43.2925167" lon="10.63788"><ele>156.0</ele><time>2026-05-05T08:42:07.634Z</time></trkpt><trkpt lat="43.2924233" lon="10.637915"><ele>156.0</ele><time>2026-05-05T08:42:08.634Z</time></trkpt><trkpt lat="43.2923233" lon="10.6379317"><ele>156.0</ele><time>2026-05-05T08:42:09.633Z</time></trkpt><trkpt lat="43.29223" lon="10.6379483"><ele>155.83333333333334</ele><time>2026-05-05T08:42:10.634Z</time></trkpt><trkpt lat="43.292145" lon="10.63795"><ele>155.66666666666666</ele><time>2026-05-05T08:42:11.633Z</time></trkpt><trkpt lat="43.2920517" lon="10.6379383"><ele>155.5</ele><time>2026-05-05T08:42:12.634Z</time></trkpt><trkpt lat="43.291965" lon="10.637895"><ele>155.33333333333331</ele><time>2026-05-05T08:42:13.634Z</time></trkpt><trkpt lat="43.29188" lon="10.6378583"><ele>155.16666666666666</ele><time>2026-05-05T08:42:14.633Z</time></trkpt><trkpt lat="43.291795" lon="10.6378283"><ele>155.0</ele><time>2026-05-05T08:42:15.633Z</time></trkpt><trkpt lat="43.29171" lon="10.63779"><ele>155.0</ele><time>2026-05-05T08:42:16.634Z</time></trkpt><trkpt lat="43.29162" lon="10.63773"><ele>155.0</ele><time>2026-05-05T08:42:17.634Z</time></trkpt><trkpt lat="43.2915367" lon="10.63768"><ele>155.0</ele><time>2026-05-05T08:42:18.633Z</time></trkpt><trkpt lat="43.291455" lon="10.6376317"><ele>155.0</ele><time>2026-05-05T08:42:19.634Z</time></trkpt><trkpt lat="43.2913833" lon="10.6375867"><ele>155.0</ele><time>2026-05-05T08:42:20.634Z</time></trkpt><trkpt lat="43.291305" lon="10.6375383"><ele>155.0</ele><time>2026-05-05T08:42:21.634Z</time></trkpt><trkpt lat="43.29123" lon="10.63749"><ele>156.83333333333331</ele><time>2026-05-05T08:42:22.634Z</time></trkpt><trkpt lat="43.2911667" lon="10.6374367"><ele>158.66666666666666</ele><time>2026-05-05T08:42:23.634Z</time></trkpt><trkpt lat="43.2911217" lon="10.637375"><ele>160.5</ele><time>2026-05-05T08:42:24.634Z</time></trkpt><trkpt lat="43.29109" lon="10.6372967"><ele>162.33333333333334</ele><time>2026-05-05T08:42:25.634Z</time></trkpt><trkpt lat="43.29107" lon="10.6372083"><ele>164.16666666666669</ele><time>2026-05-05T08:42:26.634Z</time></trkpt><trkpt lat="43.2910067" lon="10.6370667"><ele>166.0</ele><time>2026-05-05T08:42:28.633Z</time></trkpt><trkpt lat="43.29093" lon="10.63695"><ele>166.0</ele><time>2026-05-05T08:42:30.634Z</time></trkpt><trkpt lat="43.2908833" lon="10.6368833"><ele>166.0</ele><time>2026-05-05T08:42:31.633Z</time></trkpt><trkpt lat="43.29083" lon="10.6368083"><ele>166.0</ele><time>2026-05-05T08:42:32.633Z</time></trkpt><trkpt lat="43.2907817" lon="10.636735"><ele>166.0</ele><time>2026-05-05T08:42:33.634Z</time></trkpt><trkpt lat="43.2907233" lon="10.636655"><ele>166.0</ele><time>2026-05-05T08:42:34.634Z</time></trkpt><trkpt lat="43.2906717" lon="10.63657"><ele>166.0</ele><time>2026-05-05T08:42:35.634Z</time></trkpt><trkpt lat="43.2906167" lon="10.6364933"><ele>167.5</ele><time>2026-05-05T08:42:36.634Z</time></trkpt><trkpt lat="43.2905683" lon="10.63643"><ele>169.0</ele><time>2026-05-05T08:42:37.634Z</time></trkpt><trkpt lat="43.290525" lon="10.6363667"><ele>170.5</ele><time>2026-05-05T08:42:38.633Z</time></trkpt><trkpt lat="43.2904267" lon="10.6362867"><ele>172.0</ele><time>2026-05-05T08:42:40.633Z</time></trkpt><trkpt lat="43.290365" lon="10.6362583"><ele>173.5</ele><time>2026-05-05T08:42:41.634Z</time></trkpt><trkpt lat="43.2902383" lon="10.6362333"><ele>175.0</ele><time>2026-05-05T08:42:43.634Z</time></trkpt><trkpt lat="43.2901633" lon="10.636245"><ele>175.0</ele><time>2026-05-05T08:42:44.633Z</time></trkpt><trkpt lat="43.29009" lon="10.6362683"><ele>175.0</ele><time>2026-05-05T08:42:45.634Z</time></trkpt><trkpt lat="43.29001" lon="10.6362983"><ele>175.0</ele><time>2026-05-05T08:42:46.634Z</time></trkpt><trkpt lat="43.2899367" lon="10.636315"><ele>175.0</ele><time>2026-05-05T08:42:47.634Z</time></trkpt><trkpt lat="43.2898283" lon="10.6362733"><ele>175.0</ele><time>2026-05-05T08:42:49.633Z</time></trkpt><trkpt lat="43.2897833" lon="10.6361267"><ele>176.33333333333334</ele><time>2026-05-05T08:42:51.633Z</time></trkpt><trkpt lat="43.2897967" lon="10.6360333"><ele>177.66666666666669</ele><time>2026-05-05T08:42:52.634Z</time></trkpt><trkpt lat="43.2897983" lon="10.6359467"><ele>179.0</ele><time>2026-05-05T08:42:53.634Z</time></trkpt><trkpt lat="43.2897967" lon="10.6358533"><ele>180.33333333333334</ele><time>2026-05-05T08:42:54.634Z</time></trkpt><trkpt lat="43.2897883" lon="10.6357633"><ele>181.66666666666666</ele><time>2026-05-05T08:42:55.634Z</time></trkpt><trkpt lat="43.2897267" lon="10.6356117"><ele>183.0</ele><time>2026-05-05T08:42:57.634Z</time></trkpt><trkpt lat="43.2896767" lon="10.6355433"><ele>183.0</ele><time>2026-05-05T08:42:58.634Z</time></trkpt><trkpt lat="43.2896217" lon="10.6354767"><ele>183.0</ele><time>2026-05-05T08:42:59.634Z</time></trkpt><trkpt lat="43.289545" lon="10.63542"><ele>183.0</ele><time>2026-05-05T08:43:00.633Z</time></trkpt><trkpt lat="43.2894633" lon="10.6353567"><ele>183.0</ele><time>2026-05-05T08:43:01.634Z</time></trkpt><trkpt lat="43.28938" lon="10.635305"><ele>183.0</ele><time>2026-05-05T08:43:02.634Z</time></trkpt><trkpt lat="43.2893033" lon="10.6352383"><ele>183.0</ele><time>2026-05-05T08:43:03.634Z</time></trkpt><trkpt lat="43.28921" lon="10.6351767"><ele>182.5</ele><time>2026-05-05T08:43:04.634Z</time></trkpt><trkpt lat="43.289135" lon="10.6351167"><ele>182.0</ele><time>2026-05-05T08:43:05.634Z</time></trkpt><trkpt lat="43.28906" lon="10.6350617"><ele>181.5</ele><time>2026-05-05T08:43:06.634Z</time></trkpt><trkpt lat="43.288995" lon="10.6350183"><ele>181.0</ele><time>2026-05-05T08:43:07.634Z</time></trkpt><trkpt lat="43.2889167" lon="10.6349517"><ele>180.5</ele><time>2026-05-05T08:43:08.634Z</time></trkpt><trkpt lat="43.28885" lon="10.6349"><ele>180.0</ele><time>2026-05-05T08:43:09.634Z</time></trkpt><trkpt lat="43.2888" lon="10.6348217"><ele>180.0</ele><time>2026-05-05T08:43:10.634Z</time></trkpt><trkpt lat="43.288765" lon="10.63474"><ele>180.0</ele><time>2026-05-05T08:43:11.634Z</time></trkpt><trkpt lat="43.288735" lon="10.6346383"><ele>180.0</ele><time>2026-05-05T08:43:12.634Z</time></trkpt><trkpt lat="43.2887133" lon="10.6345167"><ele>180.0</ele><time>2026-05-05T08:43:13.634Z</time></trkpt><trkpt lat="43.2886867" lon="10.634395"><ele>180.0</ele><time>2026-05-05T08:43:14.634Z</time></trkpt><trkpt lat="43.2886717" lon="10.6342883"><ele>180.0</ele><time>2026-05-05T08:43:15.634Z</time></trkpt><trkpt lat="43.2886383" lon="10.6341833"><ele>178.5</ele><time>2026-05-05T08:43:16.634Z</time></trkpt><trkpt lat="43.2885983" lon="10.6340767"><ele>177.0</ele><time>2026-05-05T08:43:17.634Z</time></trkpt><trkpt lat="43.2885633" lon="10.6339683"><ele>175.5</ele><time>2026-05-05T08:43:18.634Z</time></trkpt><trkpt lat="43.2885233" lon="10.6338483"><ele>174.0</ele><time>2026-05-05T08:43:19.634Z</time></trkpt><trkpt lat="43.2884867" lon="10.633745"><ele>172.5</ele><time>2026-05-05T08:43:20.634Z</time></trkpt><trkpt lat="43.2884483" lon="10.6336467"><ele>171.0</ele><time>2026-05-05T08:43:21.633Z</time></trkpt><trkpt lat="43.2884083" lon="10.6335617"><ele>170.0</ele><time>2026-05-05T08:43:22.633Z</time></trkpt><trkpt lat="43.2883417" lon="10.63343"><ele>169.0</ele><time>2026-05-05T08:43:24.634Z</time></trkpt><trkpt lat="43.2882733" lon="10.633345"><ele>168.0</ele><time>2026-05-05T08:43:26.634Z</time></trkpt><trkpt lat="43.2881667" lon="10.6333083"><ele>167.0</ele><time>2026-05-05T08:43:28.634Z</time></trkpt><trkpt lat="43.2880933" lon="10.63329"><ele>166.0</ele><time>2026-05-05T08:43:29.634Z</time></trkpt><trkpt lat="43.288025" lon="10.63326"><ele>166.0</ele><time>2026-05-05T08:43:30.634Z</time></trkpt><trkpt lat="43.28796" lon="10.6332283"><ele>166.0</ele><time>2026-05-05T08:43:31.634Z</time></trkpt><trkpt lat="43.2878917" lon="10.6331983"><ele>166.0</ele><time>2026-05-05T08:43:32.633Z</time></trkpt><trkpt lat="43.287825" lon="10.6331817"><ele>166.0</ele><time>2026-05-05T08:43:33.633Z</time></trkpt><trkpt lat="43.287755" lon="10.633155"><ele>166.0</ele><time>2026-05-05T08:43:34.634Z</time></trkpt><trkpt lat="43.28767" lon="10.6331133"><ele>166.0</ele><time>2026-05-05T08:43:35.634Z</time></trkpt><trkpt lat="43.2875833" lon="10.6330517"><ele>166.0</ele><time>2026-05-05T08:43:36.634Z</time></trkpt><trkpt lat="43.2875067" lon="10.63299"><ele>166.0</ele><time>2026-05-05T08:43:37.634Z</time></trkpt><trkpt lat="43.2874317" lon="10.632905"><ele>166.0</ele><time>2026-05-05T08:43:38.634Z</time></trkpt><trkpt lat="43.2873617" lon="10.6328233"><ele>166.0</ele><time>2026-05-05T08:43:39.634Z</time></trkpt><trkpt lat="43.2872867" lon="10.6327483"><ele>166.0</ele><time>2026-05-05T08:43:40.634Z</time></trkpt><trkpt lat="43.2872133" lon="10.6326983"><ele>165.0</ele><time>2026-05-05T08:43:41.633Z</time></trkpt><trkpt lat="43.2871283" lon="10.632675"><ele>164.0</ele><time>2026-05-05T08:43:42.633Z</time></trkpt><trkpt lat="43.287045" lon="10.6326667"><ele>163.0</ele><time>2026-05-05T08:43:43.634Z</time></trkpt><trkpt lat="43.28696" lon="10.6326767"><ele>162.0</ele><time>2026-05-05T08:43:44.633Z</time></trkpt><trkpt lat="43.2868683" lon="10.6326867"><ele>161.0</ele><time>2026-05-05T08:43:45.634Z</time></trkpt><trkpt lat="43.2867817" lon="10.6327033"><ele>160.0</ele><time>2026-05-05T08:43:46.633Z</time></trkpt><trkpt lat="43.2866933" lon="10.6327217"><ele>160.0</ele><time>2026-05-05T08:43:47.634Z</time></trkpt><trkpt lat="43.28661" lon="10.632745"><ele>160.0</ele><time>2026-05-05T08:43:48.634Z</time></trkpt><trkpt lat="43.286535" lon="10.6327667"><ele>160.0</ele><time>2026-05-05T08:43:49.634Z</time></trkpt><trkpt lat="43.2864633" lon="10.63279"><ele>160.0</ele><time>2026-05-05T08:43:50.634Z</time></trkpt><trkpt lat="43.2863833" lon="10.632815"><ele>160.0</ele><time>2026-05-05T08:43:51.634Z</time></trkpt><trkpt lat="43.2862983" lon="10.6328433"><ele>160.0</ele><time>2026-05-05T08:43:52.633Z</time></trkpt><trkpt lat="43.28621" lon="10.6328717"><ele>162.0</ele><time>2026-05-05T08:43:53.634Z</time></trkpt><trkpt lat="43.286125" lon="10.6329033"><ele>164.0</ele><time>2026-05-05T08:43:54.633Z</time></trkpt><trkpt lat="43.28604" lon="10.6329433"><ele>166.0</ele><time>2026-05-05T08:43:55.633Z</time></trkpt><trkpt lat="43.2859517" lon="10.632985"><ele>168.0</ele><time>2026-05-05T08:43:56.633Z</time></trkpt><trkpt lat="43.2858633" lon="10.6330283"><ele>170.0</ele><time>2026-05-05T08:43:57.634Z</time></trkpt><trkpt lat="43.2857817" lon="10.6330767"><ele>170.0</ele><time>2026-05-05T08:43:58.634Z</time></trkpt><trkpt lat="43.2857067" lon="10.6331267"><ele>170.0</ele><time>2026-05-05T08:43:59.634Z</time></trkpt><trkpt lat="43.2856367" lon="10.6331817"><ele>170.0</ele><time>2026-05-05T08:44:00.633Z</time></trkpt><trkpt lat="43.285565" lon="10.6332283"><ele>170.0</ele><time>2026-05-05T08:44:01.633Z</time></trkpt><trkpt lat="43.2854883" lon="10.6332817"><ele>170.0</ele><time>2026-05-05T08:44:02.634Z</time></trkpt><trkpt lat="43.2854117" lon="10.6333267"><ele>170.0</ele><time>2026-05-05T08:44:03.634Z</time></trkpt><trkpt lat="43.2853383" lon="10.63338"><ele>170.0</ele><time>2026-05-05T08:44:04.634Z</time></trkpt><trkpt lat="43.285265" lon="10.633435"><ele>170.0</ele><time>2026-05-05T08:44:05.634Z</time></trkpt><trkpt lat="43.28519" lon="10.6334883"><ele>170.0</ele><time>2026-05-05T08:44:06.634Z</time></trkpt><trkpt lat="43.2851083" lon="10.6335383"><ele>170.0</ele><time>2026-05-05T08:44:07.633Z</time></trkpt><trkpt lat="43.28503" lon="10.6335967"><ele>170.0</ele><time>2026-05-05T08:44:08.634Z</time></trkpt><trkpt lat="43.2849533" lon="10.63365"><ele>170.0</ele><time>2026-05-05T08:44:09.634Z</time></trkpt><trkpt lat="43.28488" lon="10.6336867"><ele>172.16666666666666</ele><time>2026-05-05T08:44:10.634Z</time></trkpt><trkpt lat="43.2848017" lon="10.63372"><ele>174.33333333333331</ele><time>2026-05-05T08:44:11.634Z</time></trkpt><trkpt lat="43.284725" lon="10.6337483"><ele>176.5</ele><time>2026-05-05T08:44:12.634Z</time></trkpt><trkpt lat="43.2846467" lon="10.6337583"><ele>178.66666666666666</ele><time>2026-05-05T08:44:13.634Z</time></trkpt><trkpt lat="43.28457" lon="10.633765"><ele>180.83333333333334</ele><time>2026-05-05T08:44:14.633Z</time></trkpt><trkpt lat="43.2844967" lon="10.6337717"><ele>183.0</ele><time>2026-05-05T08:44:15.633Z</time></trkpt><trkpt lat="43.2844317" lon="10.63376"><ele>182.0</ele><time>2026-05-05T08:44:16.633Z</time></trkpt><trkpt lat="43.2842967" lon="10.6337183"><ele>181.0</ele><time>2026-05-05T08:44:18.633Z</time></trkpt><trkpt lat="43.28422" lon="10.6336983"><ele>180.0</ele><time>2026-05-05T08:44:19.633Z</time></trkpt><trkpt lat="43.2841467" lon="10.6336833"><ele>179.0</ele><time>2026-05-05T08:44:20.633Z</time></trkpt><trkpt lat="43.2840767" lon="10.63366"><ele>178.0</ele><time>2026-05-05T08:44:21.633Z</time></trkpt><trkpt lat="43.2839583" lon="10.6336317"><ele>178.60000000000002</ele><time>2026-05-05T08:44:23.633Z</time></trkpt><trkpt lat="43.2838817" lon="10.6335917"><ele>179.20000000000002</ele><time>2026-05-05T08:44:25.633Z</time></trkpt><trkpt lat="43.28385" lon="10.6334817"><ele>179.8</ele><time>2026-05-05T08:44:28.633Z</time></trkpt><trkpt lat="43.2838333" lon="10.6333517"><ele>180.4</ele><time>2026-05-05T08:44:30.633Z</time></trkpt><trkpt lat="43.2838033" lon="10.6331767"><ele>181.0</ele><time>2026-05-05T08:44:32.632Z</time></trkpt><trkpt lat="43.2837833" lon="10.6330883"><ele>181.0</ele><time>2026-05-05T08:44:33.632Z</time></trkpt><trkpt lat="43.28376" lon="10.6330017"><ele>181.0</ele><time>2026-05-05T08:44:34.633Z</time></trkpt><trkpt lat="43.2837333" lon="10.6329067"><ele>181.0</ele><time>2026-05-05T08:44:35.632Z</time></trkpt><trkpt lat="43.283705" lon="10.6328067"><ele>181.0</ele><time>2026-05-05T08:44:36.633Z</time></trkpt><trkpt lat="43.2836833" lon="10.6327233"><ele>181.0</ele><time>2026-05-05T08:44:37.633Z</time></trkpt><trkpt lat="43.2836217" lon="10.6325817"><ele>181.0</ele><time>2026-05-05T08:44:39.633Z</time></trkpt><trkpt lat="43.283555" lon="10.6324733"><ele>180.20000000000002</ele><time>2026-05-05T08:44:41.632Z</time></trkpt><trkpt lat="43.2834867" lon="10.6324"><ele>179.4</ele><time>2026-05-05T08:44:43.633Z</time></trkpt><trkpt lat="43.2834367" lon="10.6322783"><ele>178.6</ele><time>2026-05-05T08:44:45.632Z</time></trkpt><trkpt lat="43.2834317" lon="10.6321417"><ele>177.8</ele><time>2026-05-05T08:44:47.633Z</time></trkpt><trkpt lat="43.2834583" lon="10.631975"><ele>177.0</ele><time>2026-05-05T08:44:49.633Z</time></trkpt><trkpt lat="43.283485" lon="10.631885"><ele>175.71428571428572</ele><time>2026-05-05T08:44:50.632Z</time></trkpt><trkpt lat="43.2835167" lon="10.631805"><ele>174.42857142857142</ele><time>2026-05-05T08:44:51.633Z</time></trkpt><trkpt lat="43.283555" lon="10.6317233"><ele>173.14285714285714</ele><time>2026-05-05T08:44:52.632Z</time></trkpt><trkpt lat="43.2835917" lon="10.6316367"><ele>171.85714285714286</ele><time>2026-05-05T08:44:53.633Z</time></trkpt><trkpt lat="43.2836183" lon="10.631555"><ele>170.57142857142856</ele><time>2026-05-05T08:44:54.633Z</time></trkpt><trkpt lat="43.2836417" lon="10.6314683"><ele>169.28571428571428</ele><time>2026-05-05T08:44:55.633Z</time></trkpt><trkpt lat="43.2836683" lon="10.6313883"><ele>168.0</ele><time>2026-05-05T08:44:56.632Z</time></trkpt><trkpt lat="43.283705" lon="10.631295"><ele>168.0</ele><time>2026-05-05T08:44:57.632Z</time></trkpt><trkpt lat="43.283745" lon="10.6312017"><ele>168.0</ele><time>2026-05-05T08:44:58.633Z</time></trkpt><trkpt lat="43.2837867" lon="10.6311217"><ele>168.0</ele><time>2026-05-05T08:44:59.632Z</time></trkpt><trkpt lat="43.2838217" lon="10.6310417"><ele>168.0</ele><time>2026-05-05T08:45:00.633Z</time></trkpt><trkpt lat="43.283855" lon="10.630965"><ele>168.0</ele><time>2026-05-05T08:45:01.633Z</time></trkpt><trkpt lat="43.28388" lon="10.63088"><ele>168.0</ele><time>2026-05-05T08:45:02.632Z</time></trkpt><trkpt lat="43.2838867" lon="10.6307933"><ele>168.0</ele><time>2026-05-05T08:45:03.633Z</time></trkpt><trkpt lat="43.283895" lon="10.6306417"><ele>166.33333333333334</ele><time>2026-05-05T08:45:05.633Z</time></trkpt><trkpt lat="43.28391" lon="10.6304967"><ele>164.66666666666666</ele><time>2026-05-05T08:45:07.633Z</time></trkpt><trkpt lat="43.283925" lon="10.6303383"><ele>163.0</ele><time>2026-05-05T08:45:09.632Z</time></trkpt><trkpt lat="43.283915" lon="10.630245"><ele>161.33333333333331</ele><time>2026-05-05T08:45:10.633Z</time></trkpt><trkpt lat="43.2838983" lon="10.6301517"><ele>159.66666666666666</ele><time>2026-05-05T08:45:11.633Z</time></trkpt><trkpt lat="43.2838733" lon="10.6300533"><ele>158.0</ele><time>2026-05-05T08:45:12.632Z</time></trkpt><trkpt lat="43.2838617" lon="10.6299233"><ele>156.20000000000002</ele><time>2026-05-05T08:45:13.633Z</time></trkpt><trkpt lat="43.2838517" lon="10.6298067"><ele>154.4</ele><time>2026-05-05T08:45:14.633Z</time></trkpt><trkpt lat="43.2838467" lon="10.629675"><ele>152.60000000000002</ele><time>2026-05-05T08:45:15.632Z</time></trkpt><trkpt lat="43.283835" lon="10.62954"><ele>150.8</ele><time>2026-05-05T08:45:16.633Z</time></trkpt><trkpt lat="43.2838233" lon="10.629405"><ele>149.0</ele><time>2026-05-05T08:45:17.633Z</time></trkpt><trkpt lat="43.2838217" lon="10.62926"><ele>147.4</ele><time>2026-05-05T08:45:18.633Z</time></trkpt><trkpt lat="43.283815" lon="10.62912"><ele>145.8</ele><time>2026-05-05T08:45:19.633Z</time></trkpt><trkpt lat="43.2838083" lon="10.6289933"><ele>144.2</ele><time>2026-05-05T08:45:20.632Z</time></trkpt><trkpt lat="43.2837867" lon="10.6288583"><ele>142.6</ele><time>2026-05-05T08:45:21.632Z</time></trkpt><trkpt lat="43.2837717" lon="10.6287217"><ele>141.0</ele><time>2026-05-05T08:45:22.632Z</time></trkpt><trkpt lat="43.28375" lon="10.6285967"><ele>140.16666666666666</ele><time>2026-05-05T08:45:23.633Z</time></trkpt><trkpt lat="43.2837283" lon="10.6284683"><ele>139.33333333333334</ele><time>2026-05-05T08:45:24.632Z</time></trkpt><trkpt lat="43.2837083" lon="10.6283483"><ele>138.5</ele><time>2026-05-05T08:45:25.632Z</time></trkpt><trkpt lat="43.2836967" lon="10.6282583"><ele>137.66666666666669</ele><time>2026-05-05T08:45:26.633Z</time></trkpt><trkpt lat="43.2836917" lon="10.6281383"><ele>136.83333333333334</ele><time>2026-05-05T08:45:28.633Z</time></trkpt><trkpt lat="43.283685" lon="10.6279967"><ele>136.0</ele><time>2026-05-05T08:45:30.632Z</time></trkpt><trkpt lat="43.2836783" lon="10.6278217"><ele>135.33333333333334</ele><time>2026-05-05T08:45:32.632Z</time></trkpt><trkpt lat="43.2836733" lon="10.627655"><ele>134.66666666666669</ele><time>2026-05-05T08:45:34.633Z</time></trkpt><trkpt lat="43.28367" lon="10.6275583"><ele>134.0</ele><time>2026-05-05T08:45:35.632Z</time></trkpt><trkpt lat="43.2836617" lon="10.6274583"><ele>133.33333333333334</ele><time>2026-05-05T08:45:36.632Z</time></trkpt><trkpt lat="43.2836483" lon="10.6273583"><ele>132.66666666666666</ele><time>2026-05-05T08:45:37.632Z</time></trkpt><trkpt lat="43.2836283" lon="10.6272633"><ele>132.0</ele><time>2026-05-05T08:45:38.633Z</time></trkpt><trkpt lat="43.2836133" lon="10.6271717"><ele>132.0</ele><time>2026-05-05T08:45:39.632Z</time></trkpt><trkpt lat="43.2836" lon="10.6270717"><ele>132.0</ele><time>2026-05-05T08:45:40.633Z</time></trkpt><trkpt lat="43.2835783" lon="10.62697"><ele>132.0</ele><time>2026-05-05T08:45:41.632Z</time></trkpt><trkpt lat="43.2835633" lon="10.6268617"><ele>132.0</ele><time>2026-05-05T08:45:42.633Z</time></trkpt><trkpt lat="43.2835467" lon="10.62675"><ele>132.0</ele><time>2026-05-05T08:45:43.633Z</time></trkpt><trkpt lat="43.2835217" lon="10.62664"><ele>132.0</ele><time>2026-05-05T08:45:44.633Z</time></trkpt><trkpt lat="43.2834917" lon="10.6265167"><ele>131.5</ele><time>2026-05-05T08:45:45.632Z</time></trkpt><trkpt lat="43.2834717" lon="10.6263933"><ele>131.0</ele><time>2026-05-05T08:45:46.633Z</time></trkpt><trkpt lat="43.2834583" lon="10.6262667"><ele>130.5</ele><time>2026-05-05T08:45:47.633Z</time></trkpt><trkpt lat="43.2834517" lon="10.6261467"><ele>130.0</ele><time>2026-05-05T08:45:48.633Z</time></trkpt><trkpt lat="43.2834467" lon="10.6260417"><ele>129.5</ele><time>2026-05-05T08:45:49.632Z</time></trkpt><trkpt lat="43.2834367" lon="10.6259433"><ele>129.0</ele><time>2026-05-05T08:45:50.633Z</time></trkpt><trkpt lat="43.283455" lon="10.625805"><ele>127.4</ele><time>2026-05-05T08:45:52.633Z</time></trkpt><trkpt lat="43.2835317" lon="10.6257367"><ele>125.80000000000001</ele><time>2026-05-05T08:45:54.633Z</time></trkpt><trkpt lat="43.283665" lon="10.6257167"><ele>124.19999999999999</ele><time>2026-05-05T08:45:56.633Z</time></trkpt><trkpt lat="43.2837483" lon="10.625715"><ele>122.6</ele><time>2026-05-05T08:45:57.633Z</time></trkpt><trkpt lat="43.2838233" lon="10.625715"><ele>121.0</ele><time>2026-05-05T08:45:58.633Z</time></trkpt><trkpt lat="43.2838983" lon="10.6257117"><ele>118.4</ele><time>2026-05-05T08:45:59.632Z</time></trkpt><trkpt lat="43.2839683" lon="10.62571"><ele>115.8</ele><time>2026-05-05T08:46:00.632Z</time></trkpt><trkpt lat="43.2840883" lon="10.6256933"><ele>113.20000000000002</ele><time>2026-05-05T08:46:02.632Z</time></trkpt><trkpt lat="43.2842067" lon="10.6256867"><ele>110.60000000000001</ele><time>2026-05-05T08:46:04.633Z</time></trkpt><trkpt lat="43.284275" lon="10.6256817"><ele>108.0</ele><time>2026-05-05T08:46:05.633Z</time></trkpt><trkpt lat="43.2843483" lon="10.62568"><ele>108.0</ele><time>2026-05-05T08:46:06.633Z</time></trkpt><trkpt lat="43.28443" lon="10.6256867"><ele>108.0</ele><time>2026-05-05T08:46:07.633Z</time></trkpt><trkpt lat="43.2845133" lon="10.6256867"><ele>108.0</ele><time>2026-05-05T08:46:08.633Z</time></trkpt><trkpt lat="43.284605" lon="10.6256817"><ele>108.0</ele><time>2026-05-05T08:46:09.633Z</time></trkpt><trkpt lat="43.2846867" lon="10.6256767"><ele>108.0</ele><time>2026-05-05T08:46:10.633Z</time></trkpt><trkpt lat="43.2847583" lon="10.625665"><ele>108.0</ele><time>2026-05-05T08:46:11.633Z</time></trkpt><trkpt lat="43.28483" lon="10.62565"><ele>107.85714285714286</ele><time>2026-05-05T08:46:12.633Z</time></trkpt><trkpt lat="43.2849017" lon="10.6256383"><ele>107.71428571428571</ele><time>2026-05-05T08:46:13.633Z</time></trkpt><trkpt lat="43.28497" lon="10.6256217"><ele>107.57142857142858</ele><time>2026-05-05T08:46:14.632Z</time></trkpt><trkpt lat="43.2850467" lon="10.6256217"><ele>107.42857142857143</ele><time>2026-05-05T08:46:15.633Z</time></trkpt><trkpt lat="43.28512" lon="10.6256183"><ele>107.28571428571429</ele><time>2026-05-05T08:46:16.633Z</time></trkpt><trkpt lat="43.2851933" lon="10.6256183"><ele>107.14285714285715</ele><time>2026-05-05T08:46:17.632Z</time></trkpt><trkpt lat="43.2852667" lon="10.625615"><ele>107.0</ele><time>2026-05-05T08:46:18.632Z</time></trkpt><trkpt lat="43.285335" lon="10.6256067"><ele>106.99999999999999</ele><time>2026-05-05T08:46:19.633Z</time></trkpt><trkpt lat="43.2854083" lon="10.6256033"><ele>107.0</ele><time>2026-05-05T08:46:20.633Z</time></trkpt><trkpt lat="43.2854867" lon="10.6256133"><ele>107.0</ele><time>2026-05-05T08:46:21.633Z</time></trkpt><trkpt lat="43.28557" lon="10.6256217"><ele>107.0</ele><time>2026-05-05T08:46:22.633Z</time></trkpt><trkpt lat="43.2856517" lon="10.6256317"><ele>106.99999999999999</ele><time>2026-05-05T08:46:23.633Z</time></trkpt><trkpt lat="43.2857383" lon="10.6256383"><ele>107.0</ele><time>2026-05-05T08:46:24.633Z</time></trkpt><trkpt lat="43.2858217" lon="10.6256433"><ele>106.33333333333333</ele><time>2026-05-05T08:46:25.633Z</time></trkpt><trkpt lat="43.285905" lon="10.6256483"><ele>105.66666666666666</ele><time>2026-05-05T08:46:26.632Z</time></trkpt><trkpt lat="43.28599" lon="10.625655"><ele>105.0</ele><time>2026-05-05T08:46:27.633Z</time></trkpt><trkpt lat="43.286065" lon="10.6256667"><ele>104.33333333333334</ele><time>2026-05-05T08:46:28.633Z</time></trkpt><trkpt lat="43.2861367" lon="10.625675"><ele>103.66666666666667</ele><time>2026-05-05T08:46:29.632Z</time></trkpt><trkpt lat="43.2862" lon="10.6256767"><ele>103.0</ele><time>2026-05-05T08:46:30.633Z</time></trkpt><trkpt lat="43.2863" lon="10.6256617"><ele>103.00000000000001</ele><time>2026-05-05T08:46:32.633Z</time></trkpt><trkpt lat="43.2863967" lon="10.6255483"><ele>103.0</ele><time>2026-05-05T08:46:34.633Z</time></trkpt><trkpt lat="43.2864383" lon="10.6254817"><ele>103.0</ele><time>2026-05-05T08:46:35.632Z</time></trkpt><trkpt lat="43.2864867" lon="10.6253967"><ele>103.0</ele><time>2026-05-05T08:46:36.632Z</time></trkpt><trkpt lat="43.286525" lon="10.6253033"><ele>103.00000000000001</ele><time>2026-05-05T08:46:37.633Z</time></trkpt><trkpt lat="43.28656" lon="10.6252133"><ele>103.0</ele><time>2026-05-05T08:46:38.633Z</time></trkpt><trkpt lat="43.2866" lon="10.6251217"><ele>101.0</ele><time>2026-05-05T08:46:39.632Z</time></trkpt><trkpt lat="43.2866317" lon="10.62502"><ele>99.0</ele><time>2026-05-05T08:46:40.632Z</time></trkpt><trkpt lat="43.2866617" lon="10.6248567"><ele>97.0</ele><time>2026-05-05T08:46:42.632Z</time></trkpt><trkpt lat="43.286705" lon="10.6247267"><ele>95.0</ele><time>2026-05-05T08:46:44.633Z</time></trkpt><trkpt lat="43.2867433" lon="10.624655"><ele>93.0</ele><time>2026-05-05T08:46:45.632Z</time></trkpt><trkpt lat="43.2868367" lon="10.6245417"><ele>93.00000000000001</ele><time>2026-05-05T08:46:47.633Z</time></trkpt><trkpt lat="43.2868917" lon="10.6244883"><ele>93.0</ele><time>2026-05-05T08:46:48.633Z</time></trkpt><trkpt lat="43.286955" lon="10.6244317"><ele>93.0</ele><time>2026-05-05T08:46:49.632Z</time></trkpt><trkpt lat="43.2870233" lon="10.62438"><ele>93.0</ele><time>2026-05-05T08:46:50.633Z</time></trkpt><trkpt lat="43.28709" lon="10.62433"><ele>93.0</ele><time>2026-05-05T08:46:51.632Z</time></trkpt><trkpt lat="43.2871533" lon="10.6242833"><ele>93.00000000000001</ele><time>2026-05-05T08:46:52.632Z</time></trkpt><trkpt lat="43.2872133" lon="10.6242417"><ele>93.0</ele><time>2026-05-05T08:46:53.633Z</time></trkpt><trkpt lat="43.287275" lon="10.6241917"><ele>94.0</ele><time>2026-05-05T08:46:54.633Z</time></trkpt><trkpt lat="43.2873383" lon="10.6241467"><ele>95.0</ele><time>2026-05-05T08:46:55.633Z</time></trkpt><trkpt lat="43.2874183" lon="10.6240617"><ele>96.0</ele><time>2026-05-05T08:46:57.633Z</time></trkpt><trkpt lat="43.2875" lon="10.6239967"><ele>97.0</ele><time>2026-05-05T08:46:59.633Z</time></trkpt><trkpt lat="43.2875383" lon="10.6238917"><ele>98.0</ele><time>2026-05-05T08:47:01.633Z</time></trkpt><trkpt lat="43.2874783" lon="10.6237817"><ele>97.99999999999999</ele><time>2026-05-05T08:47:03.632Z</time></trkpt><trkpt lat="43.28743" lon="10.6237233"><ele>98.0</ele><time>2026-05-05T08:47:04.632Z</time></trkpt><trkpt lat="43.2873783" lon="10.6236733"><ele>98.0</ele><time>2026-05-05T08:47:05.633Z</time></trkpt><trkpt lat="43.28732" lon="10.62361"><ele>98.0</ele><time>2026-05-05T08:47:06.632Z</time></trkpt><trkpt lat="43.2872567" lon="10.6235283"><ele>97.99999999999999</ele><time>2026-05-05T08:47:07.633Z</time></trkpt><trkpt lat="43.2871917" lon="10.6234483"><ele>98.0</ele><time>2026-05-05T08:47:08.633Z</time></trkpt><trkpt lat="43.2871367" lon="10.6233567"><ele>96.83333333333333</ele><time>2026-05-05T08:47:09.633Z</time></trkpt><trkpt lat="43.2870883" lon="10.6232717"><ele>95.66666666666666</ele><time>2026-05-05T08:47:10.633Z</time></trkpt><trkpt lat="43.287045" lon="10.6231767"><ele>94.5</ele><time>2026-05-05T08:47:11.633Z</time></trkpt><trkpt lat="43.2870033" lon="10.6230833"><ele>93.33333333333333</ele><time>2026-05-05T08:47:12.633Z</time></trkpt><trkpt lat="43.2869733" lon="10.6229783"><ele>92.16666666666666</ele><time>2026-05-05T08:47:13.632Z</time></trkpt><trkpt lat="43.286955" lon="10.622865"><ele>91.0</ele><time>2026-05-05T08:47:14.633Z</time></trkpt><trkpt lat="43.2869333" lon="10.6227283"><ele>91.0</ele><time>2026-05-05T08:47:15.632Z</time></trkpt><trkpt lat="43.2869033" lon="10.6226017"><ele>91.0</ele><time>2026-05-05T08:47:16.633Z</time></trkpt><trkpt lat="43.28687" lon="10.62248"><ele>91.0</ele><time>2026-05-05T08:47:17.633Z</time></trkpt><trkpt lat="43.286835" lon="10.6223533"><ele>91.0</ele><time>2026-05-05T08:47:18.633Z</time></trkpt><trkpt lat="43.2867983" lon="10.6222333"><ele>91.0</ele><time>2026-05-05T08:47:19.633Z</time></trkpt><trkpt lat="43.2867533" lon="10.622115"><ele>91.0</ele><time>2026-05-05T08:47:20.632Z</time></trkpt><trkpt lat="43.2867133" lon="10.6219967"><ele>91.0</ele><time>2026-05-05T08:47:21.632Z</time></trkpt><trkpt lat="43.28667" lon="10.6218783"><ele>91.0</ele><time>2026-05-05T08:47:22.633Z</time></trkpt><trkpt lat="43.2866233" lon="10.62176"><ele>91.0</ele><time>2026-05-05T08:47:23.633Z</time></trkpt><trkpt lat="43.2865783" lon="10.6216417"><ele>91.0</ele><time>2026-05-05T08:47:24.632Z</time></trkpt><trkpt lat="43.2865283" lon="10.6215233"><ele>90.33333333333333</ele><time>2026-05-05T08:47:25.633Z</time></trkpt><trkpt lat="43.2864867" lon="10.621405"><ele>89.66666666666666</ele><time>2026-05-05T08:47:26.632Z</time></trkpt><trkpt lat="43.2864433" lon="10.6213067"><ele>89.0</ele><time>2026-05-05T08:47:27.632Z</time></trkpt><trkpt lat="43.2863967" lon="10.6212233"><ele>88.33333333333333</ele><time>2026-05-05T08:47:28.632Z</time></trkpt><trkpt lat="43.2863533" lon="10.62114"><ele>87.66666666666667</ele><time>2026-05-05T08:47:29.632Z</time></trkpt><trkpt lat="43.2863017" lon="10.6210067"><ele>87.0</ele><time>2026-05-05T08:47:31.632Z</time></trkpt><trkpt lat="43.2862833" lon="10.62092"><ele>86.19999999999999</ele><time>2026-05-05T08:47:34.632Z</time></trkpt><trkpt lat="43.2861933" lon="10.620825"><ele>85.4</ele><time>2026-05-05T08:47:37.632Z</time></trkpt><trkpt lat="43.2861433" lon="10.62077"><ele>84.6</ele><time>2026-05-05T08:47:38.631Z</time></trkpt><trkpt lat="43.2860783" lon="10.6207"><ele>83.80000000000001</ele><time>2026-05-05T08:47:39.632Z</time></trkpt><trkpt lat="43.2860067" lon="10.6206133"><ele>83.0</ele><time>2026-05-05T08:47:40.631Z</time></trkpt><trkpt lat="43.2859367" lon="10.6205067"><ele>83.0</ele><time>2026-05-05T08:47:41.632Z</time></trkpt><trkpt lat="43.28586" lon="10.6203967"><ele>83.0</ele><time>2026-05-05T08:47:42.632Z</time></trkpt><trkpt lat="43.28579" lon="10.6202883"><ele>83.0</ele><time>2026-05-05T08:47:43.631Z</time></trkpt><trkpt lat="43.28572" lon="10.620175"><ele>83.0</ele><time>2026-05-05T08:47:44.632Z</time></trkpt><trkpt lat="43.285645" lon="10.620065"><ele>83.0</ele><time>2026-05-05T08:47:45.632Z</time></trkpt><trkpt lat="43.2855667" lon="10.619965"><ele>82.4</ele><time>2026-05-05T08:47:46.631Z</time></trkpt><trkpt lat="43.2855033" lon="10.619875"><ele>81.80000000000001</ele><time>2026-05-05T08:47:47.631Z</time></trkpt><trkpt lat="43.285445" lon="10.619785"><ele>81.2</ele><time>2026-05-05T08:47:48.632Z</time></trkpt><trkpt lat="43.2853817" lon="10.6196883"><ele>80.6</ele><time>2026-05-05T08:47:49.631Z</time></trkpt><trkpt lat="43.2853167" lon="10.6195983"><ele>80.0</ele><time>2026-05-05T08:47:50.632Z</time></trkpt><trkpt lat="43.2852633" lon="10.6195"><ele>81.0</ele><time>2026-05-05T08:47:51.632Z</time></trkpt><trkpt lat="43.2852033" lon="10.6194033"><ele>82.0</ele><time>2026-05-05T08:47:52.632Z</time></trkpt><trkpt lat="43.2851417" lon="10.6193117"><ele>83.0</ele><time>2026-05-05T08:47:53.632Z</time></trkpt><trkpt lat="43.28509" lon="10.6192183"><ele>84.0</ele><time>2026-05-05T08:47:54.632Z</time></trkpt><trkpt lat="43.285035" lon="10.619125"><ele>85.0</ele><time>2026-05-05T08:47:55.632Z</time></trkpt><trkpt lat="43.284975" lon="10.6190267"><ele>86.0</ele><time>2026-05-05T08:47:56.632Z</time></trkpt><trkpt lat="43.28492" lon="10.618925"><ele>86.0</ele><time>2026-05-05T08:47:57.632Z</time></trkpt><trkpt lat="43.2848617" lon="10.6188267"><ele>86.0</ele><time>2026-05-05T08:47:58.632Z</time></trkpt><trkpt lat="43.2848183" lon="10.618735"><ele>86.0</ele><time>2026-05-05T08:47:59.631Z</time></trkpt><trkpt lat="43.2847733" lon="10.6186433"><ele>86.0</ele><time>2026-05-05T08:48:00.631Z</time></trkpt><trkpt lat="43.284735" lon="10.618545"><ele>86.0</ele><time>2026-05-05T08:48:01.632Z</time></trkpt><trkpt lat="43.2847133" lon="10.6184617"><ele>86.0</ele><time>2026-05-05T08:48:02.632Z</time></trkpt><trkpt lat="43.2846867" lon="10.6183817"><ele>86.0</ele><time>2026-05-05T08:48:03.631Z</time></trkpt><trkpt lat="43.2846617" lon="10.6183017"><ele>86.0</ele><time>2026-05-05T08:48:04.632Z</time></trkpt><trkpt lat="43.28462" lon="10.618135"><ele>86.0</ele><time>2026-05-05T08:48:06.632Z</time></trkpt><trkpt lat="43.2846" lon="10.618035"><ele>86.0</ele><time>2026-05-05T08:48:07.631Z</time></trkpt><trkpt lat="43.2845533" lon="10.617885"><ele>86.0</ele><time>2026-05-05T08:48:09.632Z</time></trkpt><trkpt lat="43.2845167" lon="10.6178033"><ele>86.0</ele><time>2026-05-05T08:48:10.631Z</time></trkpt><trkpt lat="43.2844617" lon="10.61772"><ele>86.0</ele><time>2026-05-05T08:48:11.631Z</time></trkpt><trkpt lat="43.284395" lon="10.6176183"><ele>86.0</ele><time>2026-05-05T08:48:12.632Z</time></trkpt><trkpt lat="43.28433" lon="10.6175467"><ele>86.0</ele><time>2026-05-05T08:48:13.632Z</time></trkpt><trkpt lat="43.2842617" lon="10.6174333"><ele>86.0</ele><time>2026-05-05T08:48:14.632Z</time></trkpt><trkpt lat="43.2842" lon="10.6173333"><ele>86.0</ele><time>2026-05-05T08:48:15.631Z</time></trkpt><trkpt lat="43.28414" lon="10.6172167"><ele>86.0</ele><time>2026-05-05T08:48:16.631Z</time></trkpt><trkpt lat="43.284085" lon="10.6171167"><ele>86.0</ele><time>2026-05-05T08:48:17.631Z</time></trkpt><trkpt lat="43.2840367" lon="10.6170167"><ele>86.0</ele><time>2026-05-05T08:48:18.632Z</time></trkpt><trkpt lat="43.28399" lon="10.6169233"><ele>86.0</ele><time>2026-05-05T08:48:19.631Z</time></trkpt><trkpt lat="43.2839433" lon="10.6168267"><ele>86.0</ele><time>2026-05-05T08:48:20.631Z</time></trkpt><trkpt lat="43.2838867" lon="10.616725"><ele>84.6</ele><time>2026-05-05T08:48:21.631Z</time></trkpt><trkpt lat="43.2838133" lon="10.6166183"><ele>83.19999999999999</ele><time>2026-05-05T08:48:22.632Z</time></trkpt><trkpt lat="43.2837417" lon="10.6165067"><ele>81.80000000000001</ele><time>2026-05-05T08:48:23.632Z</time></trkpt><trkpt lat="43.2836733" lon="10.616405"><ele>80.4</ele><time>2026-05-05T08:48:24.632Z</time></trkpt><trkpt lat="43.2836083" lon="10.61631"><ele>79.0</ele><time>2026-05-05T08:48:25.632Z</time></trkpt><trkpt lat="43.2835517" lon="10.61622"><ele>78.2</ele><time>2026-05-05T08:48:26.631Z</time></trkpt><trkpt lat="43.2834883" lon="10.61611"><ele>77.4</ele><time>2026-05-05T08:48:27.632Z</time></trkpt><trkpt lat="43.2834383" lon="10.6159933"><ele>76.6</ele><time>2026-05-05T08:48:28.631Z</time></trkpt><trkpt lat="43.28338" lon="10.61589"><ele>75.8</ele><time>2026-05-05T08:48:29.632Z</time></trkpt><trkpt lat="43.2833183" lon="10.6157733"><ele>75.0</ele><time>2026-05-05T08:48:30.632Z</time></trkpt><trkpt lat="43.2832567" lon="10.6156667"><ele>75.0</ele><time>2026-05-05T08:48:31.632Z</time></trkpt><trkpt lat="43.2832017" lon="10.61557"><ele>75.0</ele><time>2026-05-05T08:48:32.631Z</time></trkpt><trkpt lat="43.2831567" lon="10.6155017"><ele>75.0</ele><time>2026-05-05T08:48:33.631Z</time></trkpt><trkpt lat="43.2830983" lon="10.615375"><ele>75.0</ele><time>2026-05-05T08:48:35.631Z</time></trkpt><trkpt lat="43.2830983" lon="10.61528"><ele>75.0</ele><time>2026-05-05T08:48:38.631Z</time></trkpt><trkpt lat="43.28311" lon="10.6151883"><ele>75.0</ele><time>2026-05-05T08:48:40.632Z</time></trkpt><trkpt lat="43.2831317" lon="10.615035"><ele>74.5</ele><time>2026-05-05T08:48:42.632Z</time></trkpt><trkpt lat="43.2831633" lon="10.6148917"><ele>74.0</ele><time>2026-05-05T08:48:44.632Z</time></trkpt><trkpt lat="43.28318" lon="10.6148083"><ele>73.5</ele><time>2026-05-05T08:48:45.632Z</time></trkpt><trkpt lat="43.2832167" lon="10.6146767"><ele>73.0</ele><time>2026-05-05T08:48:47.632Z</time></trkpt><trkpt lat="43.2832233" lon="10.614575"><ele>72.5</ele><time>2026-05-05T08:48:49.632Z</time></trkpt><trkpt lat="43.2832133" lon="10.6144617"><ele>72.0</ele><time>2026-05-05T08:48:51.632Z</time></trkpt><trkpt lat="43.28321" lon="10.614345"><ele>71.83333333333333</ele><time>2026-05-05T08:48:53.632Z</time></trkpt><trkpt lat="43.28318" lon="10.6142433"><ele>71.66666666666667</ele><time>2026-05-05T08:48:55.632Z</time></trkpt><trkpt lat="43.2831583" lon="10.6141567"><ele>71.5</ele><time>2026-05-05T08:48:56.631Z</time></trkpt><trkpt lat="43.2831367" lon="10.6140733"><ele>71.33333333333334</ele><time>2026-05-05T08:48:57.632Z</time></trkpt><trkpt lat="43.283115" lon="10.61399"><ele>71.16666666666667</ele><time>2026-05-05T08:48:58.632Z</time></trkpt><trkpt lat="43.2830867" lon="10.6138933"><ele>71.0</ele><time>2026-05-05T08:48:59.632Z</time></trkpt><trkpt lat="43.2830283" lon="10.6137467"><ele>70.5</ele><time>2026-05-05T08:49:01.632Z</time></trkpt><trkpt lat="43.2829983" lon="10.6136083"><ele>70.0</ele><time>2026-05-05T08:49:03.632Z</time></trkpt><trkpt lat="43.283005" lon="10.6134717"><ele>69.5</ele><time>2026-05-05T08:49:05.631Z</time></trkpt><trkpt lat="43.2829867" lon="10.6133017"><ele>69.0</ele><time>2026-05-05T08:49:07.631Z</time></trkpt><trkpt lat="43.2829383" lon="10.61313"><ele>69.0</ele><time>2026-05-05T08:49:09.632Z</time></trkpt><trkpt lat="43.2829033" lon="10.613035"><ele>69.0</ele><time>2026-05-05T08:49:10.632Z</time></trkpt><trkpt lat="43.282865" lon="10.6129333"><ele>69.0</ele><time>2026-05-05T08:49:11.632Z</time></trkpt><trkpt lat="43.2828217" lon="10.612825"><ele>69.0</ele><time>2026-05-05T08:49:12.631Z</time></trkpt><trkpt lat="43.2827817" lon="10.6127083"><ele>69.0</ele><time>2026-05-05T08:49:13.631Z</time></trkpt><trkpt lat="43.2827417" lon="10.6125917"><ele>69.0</ele><time>2026-05-05T08:49:14.632Z</time></trkpt><trkpt lat="43.2827033" lon="10.612485"><ele>68.0</ele><time>2026-05-05T08:49:15.632Z</time></trkpt><trkpt lat="43.2826667" lon="10.6123717"><ele>67.0</ele><time>2026-05-05T08:49:16.632Z</time></trkpt><trkpt lat="43.28263" lon="10.6122567"><ele>66.0</ele><time>2026-05-05T08:49:17.632Z</time></trkpt><trkpt lat="43.2825867" lon="10.61214"><ele>65.0</ele><time>2026-05-05T08:49:18.632Z</time></trkpt><trkpt lat="43.282545" lon="10.6120117"><ele>64.0</ele><time>2026-05-05T08:49:19.632Z</time></trkpt><trkpt lat="43.2825117" lon="10.6118833"><ele>63.0</ele><time>2026-05-05T08:49:20.632Z</time></trkpt><trkpt lat="43.2824783" lon="10.611765"><ele>62.00000000000001</ele><time>2026-05-05T08:49:21.632Z</time></trkpt><trkpt lat="43.2824383" lon="10.6116433"><ele>61.00000000000001</ele><time>2026-05-05T08:49:22.631Z</time></trkpt><trkpt lat="43.2824083" lon="10.6115317"><ele>60.0</ele><time>2026-05-05T08:49:23.631Z</time></trkpt><trkpt lat="43.28238" lon="10.6114167"><ele>59.0</ele><time>2026-05-05T08:49:24.632Z</time></trkpt><trkpt lat="43.2823417" lon="10.6112933"><ele>59.0</ele><time>2026-05-05T08:49:25.632Z</time></trkpt><trkpt lat="43.2823" lon="10.611175"><ele>59.00000000000001</ele><time>2026-05-05T08:49:26.632Z</time></trkpt><trkpt lat="43.2822617" lon="10.6110467"><ele>59.00000000000001</ele><time>2026-05-05T08:49:27.632Z</time></trkpt><trkpt lat="43.282225" lon="10.6109217"><ele>59.0</ele><time>2026-05-05T08:49:28.631Z</time></trkpt><trkpt lat="43.2821933" lon="10.6108"><ele>59.0</ele><time>2026-05-05T08:49:29.632Z</time></trkpt><trkpt lat="43.28216" lon="10.61069"><ele>59.2</ele><time>2026-05-05T08:49:30.631Z</time></trkpt><trkpt lat="43.2821283" lon="10.610575"><ele>59.400000000000006</ele><time>2026-05-05T08:49:31.631Z</time></trkpt><trkpt lat="43.2820933" lon="10.6104533"><ele>59.6</ele><time>2026-05-05T08:49:32.632Z</time></trkpt><trkpt lat="43.282065" lon="10.6103317"><ele>59.8</ele><time>2026-05-05T08:49:33.632Z</time></trkpt><trkpt lat="43.2820367" lon="10.610205"><ele>60.0</ele><time>2026-05-05T08:49:34.631Z</time></trkpt><trkpt lat="43.282015" lon="10.6100817"><ele>60.0</ele><time>2026-05-05T08:49:35.632Z</time></trkpt><trkpt lat="43.2820117" lon="10.6099617"><ele>60.0</ele><time>2026-05-05T08:49:36.632Z</time></trkpt><trkpt lat="43.2820083" lon="10.609835"><ele>60.0</ele><time>2026-05-05T08:49:37.632Z</time></trkpt><trkpt lat="43.282005" lon="10.6097217"><ele>60.0</ele><time>2026-05-05T08:49:38.631Z</time></trkpt><trkpt lat="43.282" lon="10.609615"><ele>60.0</ele><time>2026-05-05T08:49:39.632Z</time></trkpt><trkpt lat="43.2819983" lon="10.6095133"><ele>60.0</ele><time>2026-05-05T08:49:40.632Z</time></trkpt><trkpt lat="43.2819883" lon="10.6094233"><ele>61.666666666666664</ele><time>2026-05-05T08:49:41.632Z</time></trkpt><trkpt lat="43.2819767" lon="10.6093283"><ele>63.33333333333333</ele><time>2026-05-05T08:49:42.631Z</time></trkpt><trkpt lat="43.281965" lon="10.6092417"><ele>65.0</ele><time>2026-05-05T08:49:43.632Z</time></trkpt><trkpt lat="43.281945" lon="10.6090717"><ele>66.66666666666666</ele><time>2026-05-05T08:49:45.631Z</time></trkpt><trkpt lat="43.28194" lon="10.608975"><ele>68.33333333333333</ele><time>2026-05-05T08:49:46.632Z</time></trkpt><trkpt lat="43.2819283" lon="10.608875"><ele>70.0</ele><time>2026-05-05T08:49:47.631Z</time></trkpt><trkpt lat="43.2819167" lon="10.6087567"><ele>70.33333333333333</ele><time>2026-05-05T08:49:48.631Z</time></trkpt><trkpt lat="43.2818967" lon="10.60864"><ele>70.66666666666666</ele><time>2026-05-05T08:49:49.632Z</time></trkpt><trkpt lat="43.2818817" lon="10.6085267"><ele>71.0</ele><time>2026-05-05T08:49:50.632Z</time></trkpt><trkpt lat="43.2818683" lon="10.6084233"><ele>71.33333333333333</ele><time>2026-05-05T08:49:51.631Z</time></trkpt><trkpt lat="43.281845" lon="10.6083383"><ele>71.66666666666667</ele><time>2026-05-05T08:49:52.632Z</time></trkpt><trkpt lat="43.2817483" lon="10.608255"><ele>72.0</ele><time>2026-05-05T08:49:54.631Z</time></trkpt><trkpt lat="43.28168" lon="10.6082483"><ele>72.0</ele><time>2026-05-05T08:49:55.632Z</time></trkpt><trkpt lat="43.2815967" lon="10.60826"><ele>72.0</ele><time>2026-05-05T08:49:56.632Z</time></trkpt><trkpt lat="43.2815067" lon="10.6082883"><ele>72.0</ele><time>2026-05-05T08:49:57.632Z</time></trkpt><trkpt lat="43.2814117" lon="10.6082967"><ele>72.0</ele><time>2026-05-05T08:49:58.632Z</time></trkpt><trkpt lat="43.281325" lon="10.608285"><ele>72.0</ele><time>2026-05-05T08:49:59.632Z</time></trkpt><trkpt lat="43.281255" lon="10.6082683"><ele>72.0</ele><time>2026-05-05T08:50:00.632Z</time></trkpt><trkpt lat="43.28119" lon="10.608235"><ele>71.4</ele><time>2026-05-05T08:50:01.632Z</time></trkpt><trkpt lat="43.28112" lon="10.6082"><ele>70.80000000000001</ele><time>2026-05-05T08:50:02.631Z</time></trkpt><trkpt lat="43.2810367" lon="10.6081533"><ele>70.2</ele><time>2026-05-05T08:50:03.632Z</time></trkpt><trkpt lat="43.28094" lon="10.6081067"><ele>69.60000000000001</ele><time>2026-05-05T08:50:04.632Z</time></trkpt><trkpt lat="43.2808317" lon="10.6080667"><ele>69.0</ele><time>2026-05-05T08:50:05.632Z</time></trkpt><trkpt lat="43.28073" lon="10.608025"><ele>69.0</ele><time>2026-05-05T08:50:06.632Z</time></trkpt><trkpt lat="43.28064" lon="10.6079833"><ele>69.0</ele><time>2026-05-05T08:50:07.632Z</time></trkpt><trkpt lat="43.2805733" lon="10.6079517"><ele>69.0</ele><time>2026-05-05T08:50:08.632Z</time></trkpt><trkpt lat="43.2805033" lon="10.60792"><ele>69.0</ele><time>2026-05-05T08:50:10.632Z</time></trkpt><trkpt lat="43.2804917" lon="10.6077983"><ele>69.0</ele><time>2026-05-05T08:50:15.632Z</time></trkpt><trkpt lat="43.28051" lon="10.607665"><ele>69.0</ele><time>2026-05-05T08:50:17.632Z</time></trkpt><trkpt lat="43.280545" lon="10.6074867"><ele>68.66666666666667</ele><time>2026-05-05T08:50:19.631Z</time></trkpt><trkpt lat="43.280565" lon="10.6073833"><ele>68.33333333333333</ele><time>2026-05-05T08:50:20.632Z</time></trkpt><trkpt lat="43.280585" lon="10.607275"><ele>68.0</ele><time>2026-05-05T08:50:21.632Z</time></trkpt><trkpt lat="43.2806083" lon="10.6071617"><ele>67.66666666666666</ele><time>2026-05-05T08:50:22.631Z</time></trkpt><trkpt lat="43.2806317" lon="10.6070433"><ele>67.33333333333333</ele><time>2026-05-05T08:50:23.632Z</time></trkpt><trkpt lat="43.28065" lon="10.6069183"><ele>67.0</ele><time>2026-05-05T08:50:24.632Z</time></trkpt><trkpt lat="43.2806717" lon="10.606785"><ele>67.8</ele><time>2026-05-05T08:50:25.632Z</time></trkpt><trkpt lat="43.2806833" lon="10.6066633"><ele>68.6</ele><time>2026-05-05T08:50:26.631Z</time></trkpt><trkpt lat="43.280695" lon="10.606545"><ele>69.39999999999999</ele><time>2026-05-05T08:50:27.632Z</time></trkpt><trkpt lat="43.28071" lon="10.60642"><ele>70.2</ele><time>2026-05-05T08:50:28.632Z</time></trkpt><trkpt lat="43.2807267" lon="10.6062867"><ele>71.0</ele><time>2026-05-05T08:50:29.631Z</time></trkpt><trkpt lat="43.2807417" lon="10.60616"><ele>71.5</ele><time>2026-05-05T08:50:30.632Z</time></trkpt><trkpt lat="43.2807567" lon="10.6060267"><ele>72.0</ele><time>2026-05-05T08:50:31.631Z</time></trkpt><trkpt lat="43.2807817" lon="10.6059033"><ele>72.5</ele><time>2026-05-05T08:50:32.632Z</time></trkpt><trkpt lat="43.2808067" lon="10.605785"><ele>73.0</ele><time>2026-05-05T08:50:33.632Z</time></trkpt><trkpt lat="43.28083" lon="10.6056917"><ele>73.5</ele><time>2026-05-05T08:50:34.632Z</time></trkpt><trkpt lat="43.2808433" lon="10.6056067"><ele>74.0</ele><time>2026-05-05T08:50:35.632Z</time></trkpt><trkpt lat="43.280845" lon="10.6055167"><ele>74.0</ele><time>2026-05-05T08:50:37.632Z</time></trkpt><trkpt lat="43.2809317" lon="10.6054567"><ele>74.0</ele><time>2026-05-05T08:50:41.63Z</time></trkpt><trkpt lat="43.2810683" lon="10.605435"><ele>74.0</ele><time>2026-05-05T08:50:43.631Z</time></trkpt><trkpt lat="43.28116" lon="10.6054217"><ele>74.0</ele><time>2026-05-05T08:50:44.631Z</time></trkpt><trkpt lat="43.28127" lon="10.6054"><ele>74.0</ele><time>2026-05-05T08:50:45.631Z</time></trkpt><trkpt lat="43.2813867" lon="10.6053633"><ele>73.5</ele><time>2026-05-05T08:50:46.631Z</time></trkpt><trkpt lat="43.2815083" lon="10.605335"><ele>73.0</ele><time>2026-05-05T08:50:47.631Z</time></trkpt><trkpt lat="43.2816433" lon="10.6052933"><ele>72.5</ele><time>2026-05-05T08:50:48.631Z</time></trkpt><trkpt lat="43.281785" lon="10.60524"><ele>72.0</ele><time>2026-05-05T08:50:49.631Z</time></trkpt><trkpt lat="43.2819383" lon="10.6051933"><ele>72.0</ele><time>2026-05-05T08:50:50.631Z</time></trkpt><trkpt lat="43.282095" lon="10.6051417"><ele>72.0</ele><time>2026-05-05T08:50:51.63Z</time></trkpt><trkpt lat="43.28225" lon="10.605095"><ele>72.0</ele><time>2026-05-05T08:50:52.63Z</time></trkpt><trkpt lat="43.2824133" lon="10.6050383"><ele>72.0</ele><time>2026-05-05T08:50:53.631Z</time></trkpt><trkpt lat="43.2825783" lon="10.60498"><ele>72.0</ele><time>2026-05-05T08:50:54.631Z</time></trkpt><trkpt lat="43.2827467" lon="10.6048967"><ele>72.0</ele><time>2026-05-05T08:50:55.63Z</time></trkpt><trkpt lat="43.2829117" lon="10.6048467"><ele>72.0</ele><time>2026-05-05T08:50:56.631Z</time></trkpt><trkpt lat="43.2830833" lon="10.604805"><ele>72.0</ele><time>2026-05-05T08:50:57.631Z</time></trkpt><trkpt lat="43.2832433" lon="10.6047933"><ele>72.0</ele><time>2026-05-05T08:50:58.631Z</time></trkpt><trkpt lat="43.2833967" lon="10.6048033"><ele>73.0</ele><time>2026-05-05T08:50:59.631Z</time></trkpt><trkpt lat="43.28355" lon="10.6048233"><ele>74.0</ele><time>2026-05-05T08:51:00.63Z</time></trkpt><trkpt lat="43.283695" lon="10.604815"><ele>75.0</ele><time>2026-05-05T08:51:01.631Z</time></trkpt><trkpt lat="43.28385" lon="10.60477"><ele>74.33333333333333</ele><time>2026-05-05T08:51:02.631Z</time></trkpt><trkpt lat="43.28401" lon="10.604715"><ele>73.66666666666666</ele><time>2026-05-05T08:51:03.63Z</time></trkpt><trkpt lat="43.2841817" lon="10.6046517"><ele>73.0</ele><time>2026-05-05T08:51:04.631Z</time></trkpt><trkpt lat="43.284355" lon="10.6046"><ele>73.0</ele><time>2026-05-05T08:51:05.631Z</time></trkpt><trkpt lat="43.2845283" lon="10.60455"><ele>73.0</ele><time>2026-05-05T08:51:06.631Z</time></trkpt><trkpt lat="43.2846933" lon="10.6044883"><ele>73.0</ele><time>2026-05-05T08:51:07.631Z</time></trkpt><trkpt lat="43.284855" lon="10.6044283"><ele>74.66666666666666</ele><time>2026-05-05T08:51:08.631Z</time></trkpt><trkpt lat="43.2850133" lon="10.6043767"><ele>76.33333333333333</ele><time>2026-05-05T08:51:09.631Z</time></trkpt><trkpt lat="43.2851567" lon="10.60432"><ele>78.0</ele><time>2026-05-05T08:51:10.631Z</time></trkpt><trkpt lat="43.2852933" lon="10.60428"><ele>78.0</ele><time>2026-05-05T08:51:11.63Z</time></trkpt><trkpt lat="43.28542" lon="10.6042783"><ele>78.0</ele><time>2026-05-05T08:51:12.631Z</time></trkpt><trkpt lat="43.2855183" lon="10.6043267"><ele>78.0</ele><time>2026-05-05T08:51:13.63Z</time></trkpt><trkpt lat="43.2856133" lon="10.6044267"><ele>78.0</ele><time>2026-05-05T08:51:14.631Z</time></trkpt><trkpt lat="43.2857117" lon="10.6045683"><ele>77.75</ele><time>2026-05-05T08:51:15.63Z</time></trkpt><trkpt lat="43.2857983" lon="10.604725"><ele>77.5</ele><time>2026-05-05T08:51:16.631Z</time></trkpt><trkpt lat="43.2858767" lon="10.6048867"><ele>77.25</ele><time>2026-05-05T08:51:17.631Z</time></trkpt><trkpt lat="43.285955" lon="10.6050583"><ele>77.0</ele><time>2026-05-05T08:51:18.631Z</time></trkpt><trkpt lat="43.2860433" lon="10.6052367"><ele>76.66666666666667</ele><time>2026-05-05T08:51:19.631Z</time></trkpt><trkpt lat="43.2861333" lon="10.605415"><ele>76.33333333333333</ele><time>2026-05-05T08:51:20.631Z</time></trkpt><trkpt lat="43.2862317" lon="10.6056067"><ele>76.0</ele><time>2026-05-05T08:51:21.631Z</time></trkpt><trkpt lat="43.2863217" lon="10.605815"><ele>76.0</ele><time>2026-05-05T08:51:22.631Z</time></trkpt><trkpt lat="43.28642" lon="10.6060317"><ele>76.0</ele><time>2026-05-05T08:51:23.631Z</time></trkpt><trkpt lat="43.28653" lon="10.6062583"><ele>76.0</ele><time>2026-05-05T08:51:24.631Z</time></trkpt><trkpt lat="43.2866417" lon="10.6064933"><ele>78.66666666666666</ele><time>2026-05-05T08:51:25.631Z</time></trkpt><trkpt lat="43.2867433" lon="10.6067233"><ele>81.33333333333333</ele><time>2026-05-05T08:51:26.631Z</time></trkpt><trkpt lat="43.28685" lon="10.6069483"><ele>84.0</ele><time>2026-05-05T08:51:27.631Z</time></trkpt><trkpt lat="43.286965" lon="10.6071767"><ele>84.33333333333333</ele><time>2026-05-05T08:51:28.631Z</time></trkpt><trkpt lat="43.28708" lon="10.6074083"><ele>84.66666666666666</ele><time>2026-05-05T08:51:29.63Z</time></trkpt><trkpt lat="43.287195" lon="10.60763"><ele>85.0</ele><time>2026-05-05T08:51:30.63Z</time></trkpt><trkpt lat="43.2872983" lon="10.607855"><ele>85.0</ele><time>2026-05-05T08:51:31.631Z</time></trkpt><trkpt lat="43.2874133" lon="10.6080817"><ele>85.0</ele><time>2026-05-05T08:51:32.63Z</time></trkpt><trkpt lat="43.2875183" lon="10.6083017"><ele>85.0</ele><time>2026-05-05T08:51:33.631Z</time></trkpt><trkpt lat="43.28762" lon="10.6085167"><ele>86.0</ele><time>2026-05-05T08:51:34.631Z</time></trkpt><trkpt lat="43.2877233" lon="10.6087233"><ele>87.0</ele><time>2026-05-05T08:51:35.631Z</time></trkpt><trkpt lat="43.287815" lon="10.60892"><ele>88.0</ele><time>2026-05-05T08:51:36.63Z</time></trkpt><trkpt lat="43.2879083" lon="10.609125"><ele>88.0</ele><time>2026-05-05T08:51:37.63Z</time></trkpt><trkpt lat="43.28796" lon="10.609305"><ele>88.0</ele><time>2026-05-05T08:51:38.631Z</time></trkpt><trkpt lat="43.287995" lon="10.6094933"><ele>88.0</ele><time>2026-05-05T08:51:39.631Z</time></trkpt><trkpt lat="43.2880033" lon="10.6097"><ele>88.0</ele><time>2026-05-05T08:51:40.631Z</time></trkpt><trkpt lat="43.2879867" lon="10.60991"><ele>88.66666666666666</ele><time>2026-05-05T08:51:41.63Z</time></trkpt><trkpt lat="43.28796" lon="10.6101367"><ele>89.33333333333333</ele><time>2026-05-05T08:51:42.631Z</time></trkpt><trkpt lat="43.28793" lon="10.6103717"><ele>90.0</ele><time>2026-05-05T08:51:43.631Z</time></trkpt><trkpt lat="43.2879" lon="10.61061"><ele>90.33333333333333</ele><time>2026-05-05T08:51:44.631Z</time></trkpt><trkpt lat="43.2878967" lon="10.610845"><ele>90.66666666666666</ele><time>2026-05-05T08:51:45.631Z</time></trkpt><trkpt lat="43.287895" lon="10.6110933"><ele>91.0</ele><time>2026-05-05T08:51:46.631Z</time></trkpt><trkpt lat="43.2879133" lon="10.611315"><ele>92.0</ele><time>2026-05-05T08:51:47.63Z</time></trkpt><trkpt lat="43.2879417" lon="10.6115533"><ele>93.0</ele><time>2026-05-05T08:51:48.631Z</time></trkpt><trkpt lat="43.2879783" lon="10.6117733"><ele>94.0</ele><time>2026-05-05T08:51:49.63Z</time></trkpt><trkpt lat="43.2880383" lon="10.6119883"><ele>94.0</ele><time>2026-05-05T08:51:50.631Z</time></trkpt><trkpt lat="43.28811" lon="10.6122083"><ele>94.0</ele><time>2026-05-05T08:51:51.631Z</time></trkpt><trkpt lat="43.2882017" lon="10.6123783"><ele>94.0</ele><time>2026-05-05T08:51:52.63Z</time></trkpt><trkpt lat="43.288305" lon="10.612565"><ele>94.0</ele><time>2026-05-05T08:51:53.631Z</time></trkpt><trkpt lat="43.2884117" lon="10.61272"><ele>94.0</ele><time>2026-05-05T08:51:54.631Z</time></trkpt><trkpt lat="43.2885183" lon="10.6128633"><ele>94.0</ele><time>2026-05-05T08:51:55.63Z</time></trkpt><trkpt lat="43.2886233" lon="10.6130033"><ele>94.0</ele><time>2026-05-05T08:51:56.631Z</time></trkpt><trkpt lat="43.2887233" lon="10.6131233"><ele>94.0</ele><time>2026-05-05T08:51:57.631Z</time></trkpt><trkpt lat="43.288825" lon="10.6132167"><ele>94.0</ele><time>2026-05-05T08:51:58.631Z</time></trkpt><trkpt lat="43.2889117" lon="10.6132817"><ele>94.0</ele><time>2026-05-05T08:51:59.631Z</time></trkpt><trkpt lat="43.28901" lon="10.6132967"><ele>94.0</ele><time>2026-05-05T08:52:00.631Z</time></trkpt><trkpt lat="43.2891117" lon="10.61329"><ele>94.0</ele><time>2026-05-05T08:52:01.631Z</time></trkpt><trkpt lat="43.28921" lon="10.6133183"><ele>94.0</ele><time>2026-05-05T08:52:02.631Z</time></trkpt><trkpt lat="43.289305" lon="10.6133917"><ele>94.0</ele><time>2026-05-05T08:52:03.631Z</time></trkpt><trkpt lat="43.2894083" lon="10.6135117"><ele>94.0</ele><time>2026-05-05T08:52:04.631Z</time></trkpt><trkpt lat="43.289525" lon="10.61364"><ele>94.66666666666666</ele><time>2026-05-05T08:52:05.63Z</time></trkpt><trkpt lat="43.28966" lon="10.6137817"><ele>95.33333333333333</ele><time>2026-05-05T08:52:06.631Z</time></trkpt><trkpt lat="43.2897883" lon="10.6139117"><ele>96.0</ele><time>2026-05-05T08:52:07.631Z</time></trkpt><trkpt lat="43.28993" lon="10.6140567"><ele>96.0</ele><time>2026-05-05T08:52:08.631Z</time></trkpt><trkpt lat="43.2900667" lon="10.6142133"><ele>96.0</ele><time>2026-05-05T08:52:09.63Z</time></trkpt><trkpt lat="43.290205" lon="10.61436"><ele>96.0</ele><time>2026-05-05T08:52:10.631Z</time></trkpt><trkpt lat="43.29035" lon="10.6144917"><ele>96.33333333333334</ele><time>2026-05-05T08:52:11.631Z</time></trkpt><trkpt lat="43.2904933" lon="10.6146267"><ele>96.66666666666667</ele><time>2026-05-05T08:52:12.631Z</time></trkpt><trkpt lat="43.2906367" lon="10.61474"><ele>97.0</ele><time>2026-05-05T08:52:13.63Z</time></trkpt><trkpt lat="43.2907667" lon="10.614835"><ele>97.0</ele><time>2026-05-05T08:52:14.631Z</time></trkpt><trkpt lat="43.2908967" lon="10.6148917"><ele>97.0</ele><time>2026-05-05T08:52:15.631Z</time></trkpt><trkpt lat="43.2910433" lon="10.6149383"><ele>97.0</ele><time>2026-05-05T08:52:16.631Z</time></trkpt><trkpt lat="43.291195" lon="10.614965"><ele>97.0</ele><time>2026-05-05T08:52:17.631Z</time></trkpt><trkpt lat="43.2913533" lon="10.6149367"><ele>99.33333333333334</ele><time>2026-05-05T08:52:18.631Z</time></trkpt><trkpt lat="43.29151" lon="10.6148817"><ele>101.66666666666666</ele><time>2026-05-05T08:52:19.63Z</time></trkpt><trkpt lat="43.2916483" lon="10.614785"><ele>104.0</ele><time>2026-05-05T08:52:20.63Z</time></trkpt><trkpt lat="43.29178" lon="10.6146583"><ele>104.0</ele><time>2026-05-05T08:52:21.63Z</time></trkpt><trkpt lat="43.2918933" lon="10.6144933"><ele>104.0</ele><time>2026-05-05T08:52:22.631Z</time></trkpt><trkpt lat="43.2920083" lon="10.61431"><ele>104.0</ele><time>2026-05-05T08:52:23.631Z</time></trkpt><trkpt lat="43.292115" lon="10.6141217"><ele>104.75</ele><time>2026-05-05T08:52:24.631Z</time></trkpt><trkpt lat="43.2922017" lon="10.6139467"><ele>105.5</ele><time>2026-05-05T08:52:25.631Z</time></trkpt><trkpt lat="43.2922933" lon="10.6137833"><ele>106.25</ele><time>2026-05-05T08:52:26.631Z</time></trkpt><trkpt lat="43.2923867" lon="10.6136467"><ele>107.0</ele><time>2026-05-05T08:52:27.631Z</time></trkpt><trkpt lat="43.2924967" lon="10.6135383"><ele>107.0</ele><time>2026-05-05T08:52:28.631Z</time></trkpt><trkpt lat="43.2926217" lon="10.6134817"><ele>107.0</ele><time>2026-05-05T08:52:29.63Z</time></trkpt><trkpt lat="43.2927667" lon="10.6134883"><ele>107.0</ele><time>2026-05-05T08:52:30.631Z</time></trkpt><trkpt lat="43.2929017" lon="10.61353"><ele>107.0</ele><time>2026-05-05T08:52:31.631Z</time></trkpt><trkpt lat="43.2930333" lon="10.6135883"><ele>108.75</ele><time>2026-05-05T08:52:32.63Z</time></trkpt><trkpt lat="43.293165" lon="10.6136467"><ele>110.5</ele><time>2026-05-05T08:52:33.631Z</time></trkpt><trkpt lat="43.293295" lon="10.6137033"><ele>112.25</ele><time>2026-05-05T08:52:34.631Z</time></trkpt><trkpt lat="43.2934283" lon="10.6137567"><ele>114.0</ele><time>2026-05-05T08:52:35.631Z</time></trkpt><trkpt lat="43.2935683" lon="10.6138017"><ele>115.75</ele><time>2026-05-05T08:52:36.631Z</time></trkpt><trkpt lat="43.2937083" lon="10.6138567"><ele>117.5</ele><time>2026-05-05T08:52:37.63Z</time></trkpt><trkpt lat="43.29386" lon="10.6139133"><ele>119.25</ele><time>2026-05-05T08:52:38.631Z</time></trkpt><trkpt lat="43.293995" lon="10.6139717"><ele>121.0</ele><time>2026-05-05T08:52:39.63Z</time></trkpt><trkpt lat="43.294145" lon="10.6140233"><ele>122.75</ele><time>2026-05-05T08:52:40.631Z</time></trkpt><trkpt lat="43.29429" lon="10.614075"><ele>124.5</ele><time>2026-05-05T08:52:41.631Z</time></trkpt><trkpt lat="43.2944317" lon="10.6140833"><ele>126.25</ele><time>2026-05-05T08:52:42.631Z</time></trkpt><trkpt lat="43.2945783" lon="10.6140433"><ele>128.0</ele><time>2026-05-05T08:52:43.63Z</time></trkpt><trkpt lat="43.294735" lon="10.613975"><ele>131.33333333333331</ele><time>2026-05-05T08:52:44.631Z</time></trkpt><trkpt lat="43.2948867" lon="10.6138883"><ele>134.66666666666666</ele><time>2026-05-05T08:52:45.631Z</time></trkpt><trkpt lat="43.2950267" lon="10.613805"><ele>138.0</ele><time>2026-05-05T08:52:46.631Z</time></trkpt><trkpt lat="43.295155" lon="10.6137233"><ele>136.8</ele><time>2026-05-05T08:52:47.631Z</time></trkpt><trkpt lat="43.295255" lon="10.61363"><ele>135.60000000000002</ele><time>2026-05-05T08:52:48.631Z</time></trkpt><trkpt lat="43.29535" lon="10.61356"><ele>134.39999999999998</ele><time>2026-05-05T08:52:49.63Z</time></trkpt><trkpt lat="43.295455" lon="10.61353"><ele>133.2</ele><time>2026-05-05T08:52:50.631Z</time></trkpt><trkpt lat="43.2955617" lon="10.6135483"><ele>132.0</ele><time>2026-05-05T08:52:51.63Z</time></trkpt><trkpt lat="43.2956433" lon="10.6136283"><ele>133.2</ele><time>2026-05-05T08:52:52.631Z</time></trkpt><trkpt lat="43.295685" lon="10.61374"><ele>134.39999999999998</ele><time>2026-05-05T08:52:53.63Z</time></trkpt><trkpt lat="43.295695" lon="10.6138683"><ele>135.60000000000002</ele><time>2026-05-05T08:52:54.631Z</time></trkpt><trkpt lat="43.2956567" lon="10.6140033"><ele>136.8</ele><time>2026-05-05T08:52:55.631Z</time></trkpt><trkpt lat="43.2956017" lon="10.6141517"><ele>138.0</ele><time>2026-05-05T08:52:56.63Z</time></trkpt><trkpt lat="43.2955583" lon="10.6143017"><ele>138.0</ele><time>2026-05-05T08:52:57.631Z</time></trkpt><trkpt lat="43.2955017" lon="10.6144633"><ele>138.0</ele><time>2026-05-05T08:52:58.631Z</time></trkpt><trkpt lat="43.2954583" lon="10.6146267"><ele>138.0</ele><time>2026-05-05T08:52:59.631Z</time></trkpt><trkpt lat="43.2954183" lon="10.6147817"><ele>138.0</ele><time>2026-05-05T08:53:00.631Z</time></trkpt><trkpt lat="43.2953817" lon="10.61495"><ele>139.75</ele><time>2026-05-05T08:53:01.63Z</time></trkpt><trkpt lat="43.295365" lon="10.6151117"><ele>141.5</ele><time>2026-05-05T08:53:02.631Z</time></trkpt><trkpt lat="43.295355" lon="10.615275"><ele>143.25</ele><time>2026-05-05T08:53:03.631Z</time></trkpt><trkpt lat="43.2953733" lon="10.6154433"><ele>145.0</ele><time>2026-05-05T08:53:04.63Z</time></trkpt><trkpt lat="43.2953867" lon="10.6156217"><ele>145.5</ele><time>2026-05-05T08:53:05.631Z</time></trkpt><trkpt lat="43.2954033" lon="10.6157967"><ele>146.0</ele><time>2026-05-05T08:53:06.63Z</time></trkpt><trkpt lat="43.2954433" lon="10.61597"><ele>146.5</ele><time>2026-05-05T08:53:07.631Z</time></trkpt><trkpt lat="43.2954867" lon="10.6161483"><ele>147.0</ele><time>2026-05-05T08:53:08.631Z</time></trkpt><trkpt lat="43.2955417" lon="10.6163383"><ele>147.0</ele><time>2026-05-05T08:53:09.631Z</time></trkpt><trkpt lat="43.2955867" lon="10.61654"><ele>147.0</ele><time>2026-05-05T08:53:10.63Z</time></trkpt><trkpt lat="43.295645" lon="10.61674"><ele>147.0</ele><time>2026-05-05T08:53:11.631Z</time></trkpt><trkpt lat="43.2956983" lon="10.6169383"><ele>151.0</ele><time>2026-05-05T08:53:12.631Z</time></trkpt><trkpt lat="43.2957583" lon="10.61713"><ele>155.0</ele><time>2026-05-05T08:53:13.631Z</time></trkpt><trkpt lat="43.2958083" lon="10.61732"><ele>159.0</ele><time>2026-05-05T08:53:14.631Z</time></trkpt><trkpt lat="43.2958767" lon="10.6174867"><ele>163.0</ele><time>2026-05-05T08:53:15.631Z</time></trkpt><trkpt lat="43.2959417" lon="10.61764"><ele>163.0</ele><time>2026-05-05T08:53:16.63Z</time></trkpt><trkpt lat="43.2959883" lon="10.6177683"><ele>163.0</ele><time>2026-05-05T08:53:17.631Z</time></trkpt><trkpt lat="43.2960433" lon="10.6179167"><ele>163.0</ele><time>2026-05-05T08:53:18.63Z</time></trkpt><trkpt lat="43.2960817" lon="10.618055"><ele>163.0</ele><time>2026-05-05T08:53:19.63Z</time></trkpt><trkpt lat="43.2961117" lon="10.61819"><ele>163.0</ele><time>2026-05-05T08:53:20.631Z</time></trkpt><trkpt lat="43.2961567" lon="10.618305"><ele>162.0</ele><time>2026-05-05T08:53:21.631Z</time></trkpt><trkpt lat="43.296215" lon="10.618405"><ele>161.0</ele><time>2026-05-05T08:53:22.631Z</time></trkpt><trkpt lat="43.2962767" lon="10.6184533"><ele>160.0</ele><time>2026-05-05T08:53:23.63Z</time></trkpt><trkpt lat="43.2963567" lon="10.6184583"><ele>159.0</ele><time>2026-05-05T08:53:24.631Z</time></trkpt><trkpt lat="43.2964383" lon="10.6184333"><ele>158.0</ele><time>2026-05-05T08:53:25.63Z</time></trkpt><trkpt lat="43.2964933" lon="10.61839"><ele>157.0</ele><time>2026-05-05T08:53:26.631Z</time></trkpt><trkpt lat="43.2965683" lon="10.6182683"><ele>157.0</ele><time>2026-05-05T08:53:28.631Z</time></trkpt><trkpt lat="43.2965483" lon="10.61813"><ele>157.0</ele><time>2026-05-05T08:53:30.631Z</time></trkpt><trkpt lat="43.2964933" lon="10.6180433"><ele>157.0</ele><time>2026-05-05T08:53:31.631Z</time></trkpt><trkpt lat="43.2964217" lon="10.6179417"><ele>157.0</ele><time>2026-05-05T08:53:32.631Z</time></trkpt><trkpt lat="43.29636" lon="10.6178317"><ele>157.0</ele><time>2026-05-05T08:53:33.631Z</time></trkpt><trkpt lat="43.2962967" lon="10.61771"><ele>158.5</ele><time>2026-05-05T08:53:34.631Z</time></trkpt><trkpt lat="43.2962367" lon="10.61758"><ele>160.0</ele><time>2026-05-05T08:53:35.631Z</time></trkpt><trkpt lat="43.29617" lon="10.61746"><ele>161.5</ele><time>2026-05-05T08:53:36.631Z</time></trkpt><trkpt lat="43.2961067" lon="10.61733"><ele>163.0</ele><time>2026-05-05T08:53:37.631Z</time></trkpt><trkpt lat="43.2960417" lon="10.61719"><ele>163.0</ele><time>2026-05-05T08:53:38.631Z</time></trkpt><trkpt lat="43.2959867" lon="10.6170517"><ele>163.0</ele><time>2026-05-05T08:53:39.631Z</time></trkpt><trkpt lat="43.2959383" lon="10.6169117"><ele>163.0</ele><time>2026-05-05T08:53:40.63Z</time></trkpt><trkpt lat="43.2958883" lon="10.616785"><ele>163.0</ele><time>2026-05-05T08:53:41.63Z</time></trkpt><trkpt lat="43.2958467" lon="10.61666"><ele>163.0</ele><time>2026-05-05T08:53:42.631Z</time></trkpt><trkpt lat="43.2958083" lon="10.6165117"><ele>164.0</ele><time>2026-05-05T08:53:43.631Z</time></trkpt><trkpt lat="43.29577" lon="10.61634"><ele>165.0</ele><time>2026-05-05T08:53:44.63Z</time></trkpt><trkpt lat="43.295745" lon="10.6161717"><ele>166.0</ele><time>2026-05-05T08:53:45.63Z</time></trkpt><trkpt lat="43.2957367" lon="10.615995"><ele>167.0</ele><time>2026-05-05T08:53:46.631Z</time></trkpt><trkpt lat="43.2957533" lon="10.6158067"><ele>167.0</ele><time>2026-05-05T08:53:47.631Z</time></trkpt><trkpt lat="43.2957767" lon="10.6156367"><ele>167.0</ele><time>2026-05-05T08:53:48.631Z</time></trkpt><trkpt lat="43.2958233" lon="10.6154683"><ele>167.0</ele><time>2026-05-05T08:53:49.631Z</time></trkpt><trkpt lat="43.295865" lon="10.6153017"><ele>167.0</ele><time>2026-05-05T08:53:50.631Z</time></trkpt><trkpt lat="43.29591" lon="10.61513"><ele>166.25</ele><time>2026-05-05T08:53:51.631Z</time></trkpt><trkpt lat="43.2959667" lon="10.6149617"><ele>165.5</ele><time>2026-05-05T08:53:52.63Z</time></trkpt><trkpt lat="43.2960383" lon="10.6147983"><ele>164.75</ele><time>2026-05-05T08:53:53.63Z</time></trkpt><trkpt lat="43.296105" lon="10.6146317"><ele>164.0</ele><time>2026-05-05T08:53:54.63Z</time></trkpt><trkpt lat="43.2961767" lon="10.6144767"><ele>162.0</ele><time>2026-05-05T08:53:55.629Z</time></trkpt><trkpt lat="43.2962567" lon="10.614325"><ele>160.0</ele><time>2026-05-05T08:53:56.629Z</time></trkpt><trkpt lat="43.2963483" lon="10.61418"><ele>158.0</ele><time>2026-05-05T08:53:57.629Z</time></trkpt><trkpt lat="43.2964417" lon="10.614065"><ele>156.0</ele><time>2026-05-05T08:53:58.63Z</time></trkpt><trkpt lat="43.2965317" lon="10.6139533"><ele>156.25</ele><time>2026-05-05T08:53:59.629Z</time></trkpt><trkpt lat="43.2966233" lon="10.6138483"><ele>156.5</ele><time>2026-05-05T08:54:00.63Z</time></trkpt><trkpt lat="43.2967267" lon="10.6137583"><ele>156.75</ele><time>2026-05-05T08:54:01.63Z</time></trkpt><trkpt lat="43.2968467" lon="10.61368"><ele>157.0</ele><time>2026-05-05T08:54:02.63Z</time></trkpt><trkpt lat="43.296965" lon="10.6136333"><ele>157.0</ele><time>2026-05-05T08:54:03.63Z</time></trkpt><trkpt lat="43.29707" lon="10.61362"><ele>157.0</ele><time>2026-05-05T08:54:04.63Z</time></trkpt><trkpt lat="43.297175" lon="10.6136167"><ele>157.0</ele><time>2026-05-05T08:54:05.63Z</time></trkpt><trkpt lat="43.297275" lon="10.61363"><ele>157.0</ele><time>2026-05-05T08:54:06.629Z</time></trkpt><trkpt lat="43.2973833" lon="10.6136717"><ele>157.0</ele><time>2026-05-05T08:54:07.63Z</time></trkpt><trkpt lat="43.297495" lon="10.6137017"><ele>162.5</ele><time>2026-05-05T08:54:08.63Z</time></trkpt><trkpt lat="43.2976033" lon="10.6137567"><ele>168.0</ele><time>2026-05-05T08:54:09.63Z</time></trkpt><trkpt lat="43.2977133" lon="10.6138083"><ele>173.5</ele><time>2026-05-05T08:54:10.63Z</time></trkpt><trkpt lat="43.29782" lon="10.6138983"><ele>179.0</ele><time>2026-05-05T08:54:11.63Z</time></trkpt><trkpt lat="43.2979117" lon="10.6140033"><ele>179.0</ele><time>2026-05-05T08:54:12.629Z</time></trkpt><trkpt lat="43.2979783" lon="10.614135"><ele>179.0</ele><time>2026-05-05T08:54:13.63Z</time></trkpt><trkpt lat="43.2980267" lon="10.614265"><ele>179.0</ele><time>2026-05-05T08:54:14.63Z</time></trkpt><trkpt lat="43.2980617" lon="10.6143733"><ele>179.0</ele><time>2026-05-05T08:54:15.63Z</time></trkpt><trkpt lat="43.29811" lon="10.614455"><ele>179.0</ele><time>2026-05-05T08:54:16.63Z</time></trkpt><trkpt lat="43.2981617" lon="10.614505"><ele>179.0</ele><time>2026-05-05T08:54:17.63Z</time></trkpt><trkpt lat="43.2982283" lon="10.6145267"><ele>179.6</ele><time>2026-05-05T08:54:18.629Z</time></trkpt><trkpt lat="43.2982933" lon="10.6145433"><ele>180.2</ele><time>2026-05-05T08:54:19.63Z</time></trkpt><trkpt lat="43.2984017" lon="10.614615"><ele>180.79999999999998</ele><time>2026-05-05T08:54:21.63Z</time></trkpt><trkpt lat="43.29842" lon="10.6147983"><ele>181.39999999999998</ele><time>2026-05-05T08:54:23.629Z</time></trkpt><trkpt lat="43.2984167" lon="10.614925"><ele>182.0</ele><time>2026-05-05T08:54:24.63Z</time></trkpt><trkpt lat="43.298415" lon="10.6150583"><ele>182.0</ele><time>2026-05-05T08:54:25.63Z</time></trkpt><trkpt lat="43.298425" lon="10.615195"><ele>182.0</ele><time>2026-05-05T08:54:26.629Z</time></trkpt><trkpt lat="43.29845" lon="10.6153467"><ele>182.0</ele><time>2026-05-05T08:54:27.63Z</time></trkpt><trkpt lat="43.2984883" lon="10.6155133"><ele>182.0</ele><time>2026-05-05T08:54:28.63Z</time></trkpt><trkpt lat="43.29853" lon="10.615705"><ele>183.75</ele><time>2026-05-05T08:54:29.629Z</time></trkpt><trkpt lat="43.2985833" lon="10.615875"><ele>185.5</ele><time>2026-05-05T08:54:30.63Z</time></trkpt><trkpt lat="43.29865" lon="10.6160533"><ele>187.25</ele><time>2026-05-05T08:54:31.629Z</time></trkpt><trkpt lat="43.2987133" lon="10.616215"><ele>189.0</ele><time>2026-05-05T08:54:32.63Z</time></trkpt><trkpt lat="43.2987683" lon="10.6163767"><ele>191.5</ele><time>2026-05-05T08:54:33.63Z</time></trkpt><trkpt lat="43.2988167" lon="10.6165533"><ele>194.0</ele><time>2026-05-05T08:54:34.629Z</time></trkpt><trkpt lat="43.29885" lon="10.616725"><ele>196.5</ele><time>2026-05-05T08:54:35.63Z</time></trkpt><trkpt lat="43.2988933" lon="10.6169067"><ele>199.0</ele><time>2026-05-05T08:54:36.629Z</time></trkpt><trkpt lat="43.2989117" lon="10.6171017"><ele>196.33333333333331</ele><time>2026-05-05T08:54:37.63Z</time></trkpt><trkpt lat="43.29892" lon="10.6173083"><ele>193.66666666666666</ele><time>2026-05-05T08:54:38.63Z</time></trkpt><trkpt lat="43.2989367" lon="10.617525"><ele>191.0</ele><time>2026-05-05T08:54:39.629Z</time></trkpt><trkpt lat="43.2989517" lon="10.6177433"><ele>190.66666666666666</ele><time>2026-05-05T08:54:40.629Z</time></trkpt><trkpt lat="43.2989667" lon="10.6179633"><ele>190.33333333333334</ele><time>2026-05-05T08:54:41.629Z</time></trkpt><trkpt lat="43.298975" lon="10.61819"><ele>190.0</ele><time>2026-05-05T08:54:42.629Z</time></trkpt><trkpt lat="43.2989833" lon="10.618405"><ele>190.0</ele><time>2026-05-05T08:54:43.629Z</time></trkpt><trkpt lat="43.2990133" lon="10.6186017"><ele>190.0</ele><time>2026-05-05T08:54:44.63Z</time></trkpt><trkpt lat="43.2990467" lon="10.6188"><ele>190.0</ele><time>2026-05-05T08:54:45.629Z</time></trkpt><trkpt lat="43.29912" lon="10.61899"><ele>191.66666666666669</ele><time>2026-05-05T08:54:46.63Z</time></trkpt><trkpt lat="43.2991967" lon="10.6191683"><ele>193.33333333333334</ele><time>2026-05-05T08:54:47.63Z</time></trkpt><trkpt lat="43.299285" lon="10.6193383"><ele>195.0</ele><time>2026-05-05T08:54:48.63Z</time></trkpt><trkpt lat="43.2994017" lon="10.61949"><ele>195.66666666666669</ele><time>2026-05-05T08:54:49.629Z</time></trkpt><trkpt lat="43.2995483" lon="10.61963"><ele>196.33333333333334</ele><time>2026-05-05T08:54:50.63Z</time></trkpt><trkpt lat="43.2996967" lon="10.619765"><ele>197.0</ele><time>2026-05-05T08:54:51.63Z</time></trkpt><trkpt lat="43.2998433" lon="10.6198983"><ele>197.0</ele><time>2026-05-05T08:54:52.629Z</time></trkpt><trkpt lat="43.2999867" lon="10.62003"><ele>197.0</ele><time>2026-05-05T08:54:53.63Z</time></trkpt><trkpt lat="43.30013" lon="10.620155"><ele>197.0</ele><time>2026-05-05T08:54:54.629Z</time></trkpt><trkpt lat="43.3002817" lon="10.6202767"><ele>199.66666666666669</ele><time>2026-05-05T08:54:55.63Z</time></trkpt><trkpt lat="43.3004083" lon="10.6204067"><ele>202.33333333333331</ele><time>2026-05-05T08:54:56.629Z</time></trkpt><trkpt lat="43.3005433" lon="10.620535"><ele>205.0</ele><time>2026-05-05T08:54:57.63Z</time></trkpt><trkpt lat="43.300665" lon="10.6206717"><ele>205.0</ele><time>2026-05-05T08:54:58.63Z</time></trkpt><trkpt lat="43.3008133" lon="10.6207967"><ele>205.0</ele><time>2026-05-05T08:54:59.63Z</time></trkpt><trkpt lat="43.3009583" lon="10.6209233"><ele>205.0</ele><time>2026-05-05T08:55:00.63Z</time></trkpt><trkpt lat="43.301075" lon="10.62107"><ele>207.33333333333331</ele><time>2026-05-05T08:55:01.63Z</time></trkpt><trkpt lat="43.301195" lon="10.6212267"><ele>209.66666666666669</ele><time>2026-05-05T08:55:02.63Z</time></trkpt><trkpt lat="43.3013233" lon="10.6214"><ele>212.0</ele><time>2026-05-05T08:55:03.629Z</time></trkpt><trkpt lat="43.3014483" lon="10.6215933"><ele>212.0</ele><time>2026-05-05T08:55:04.629Z</time></trkpt><trkpt lat="43.3015683" lon="10.6217733"><ele>212.0</ele><time>2026-05-05T08:55:05.63Z</time></trkpt><trkpt lat="43.3016867" lon="10.6219817"><ele>212.0</ele><time>2026-05-05T08:55:06.63Z</time></trkpt><trkpt lat="43.3017833" lon="10.6221933"><ele>211.33333333333334</ele><time>2026-05-05T08:55:07.629Z</time></trkpt><trkpt lat="43.301875" lon="10.6224167"><ele>210.66666666666669</ele><time>2026-05-05T08:55:08.63Z</time></trkpt><trkpt lat="43.3019667" lon="10.622625"><ele>210.0</ele><time>2026-05-05T08:55:09.63Z</time></trkpt><trkpt lat="43.3020617" lon="10.622835"><ele>212.0</ele><time>2026-05-05T08:55:10.629Z</time></trkpt><trkpt lat="43.3021517" lon="10.6230417"><ele>214.0</ele><time>2026-05-05T08:55:11.63Z</time></trkpt><trkpt lat="43.3022417" lon="10.6232483"><ele>216.0</ele><time>2026-05-05T08:55:12.629Z</time></trkpt><trkpt lat="43.3023233" lon="10.62344"><ele>217.66666666666669</ele><time>2026-05-05T08:55:13.63Z</time></trkpt><trkpt lat="43.3024133" lon="10.6236383"><ele>219.33333333333334</ele><time>2026-05-05T08:55:14.629Z</time></trkpt><trkpt lat="43.3024867" lon="10.6238483"><ele>221.0</ele><time>2026-05-05T08:55:15.63Z</time></trkpt><trkpt lat="43.30253" lon="10.624055"><ele>221.0</ele><time>2026-05-05T08:55:16.63Z</time></trkpt><trkpt lat="43.3025583" lon="10.624275"><ele>221.0</ele><time>2026-05-05T08:55:17.63Z</time></trkpt><trkpt lat="43.3025767" lon="10.624475"><ele>221.0</ele><time>2026-05-05T08:55:18.63Z</time></trkpt><trkpt lat="43.3025817" lon="10.624655"><ele>221.0</ele><time>2026-05-05T08:55:19.63Z</time></trkpt><trkpt lat="43.3026083" lon="10.6248483"><ele>221.75</ele><time>2026-05-05T08:55:20.63Z</time></trkpt><trkpt lat="43.30266" lon="10.625035"><ele>222.5</ele><time>2026-05-05T08:55:21.63Z</time></trkpt><trkpt lat="43.3027233" lon="10.6252183"><ele>223.25</ele><time>2026-05-05T08:55:22.629Z</time></trkpt><trkpt lat="43.302795" lon="10.6253867"><ele>224.0</ele><time>2026-05-05T08:55:23.63Z</time></trkpt><trkpt lat="43.3028717" lon="10.6255667"><ele>224.25</ele><time>2026-05-05T08:55:24.63Z</time></trkpt><trkpt lat="43.3029667" lon="10.62571"><ele>224.5</ele><time>2026-05-05T08:55:25.629Z</time></trkpt><trkpt lat="43.3030633" lon="10.6258433"><ele>224.75</ele><time>2026-05-05T08:55:26.629Z</time></trkpt><trkpt lat="43.3031717" lon="10.6259783"><ele>225.0</ele><time>2026-05-05T08:55:27.63Z</time></trkpt><trkpt lat="43.3032833" lon="10.62612"><ele>230.0</ele><time>2026-05-05T08:55:28.63Z</time></trkpt><trkpt lat="43.30341" lon="10.626255"><ele>235.0</ele><time>2026-05-05T08:55:29.63Z</time></trkpt><trkpt lat="43.30351" lon="10.626405"><ele>240.0</ele><time>2026-05-05T08:55:30.629Z</time></trkpt><trkpt lat="43.3035933" lon="10.6265867"><ele>240.0</ele><time>2026-05-05T08:55:31.63Z</time></trkpt><trkpt lat="43.3036633" lon="10.6267783"><ele>240.0</ele><time>2026-05-05T08:55:32.63Z</time></trkpt><trkpt lat="43.3037217" lon="10.62699"><ele>240.0</ele><time>2026-05-05T08:55:33.63Z</time></trkpt><trkpt lat="43.3037967" lon="10.6272083"><ele>240.33333333333331</ele><time>2026-05-05T08:55:34.63Z</time></trkpt><trkpt lat="43.3038533" lon="10.627425"><ele>240.66666666666666</ele><time>2026-05-05T08:55:35.629Z</time></trkpt><trkpt lat="43.303905" lon="10.62764"><ele>241.0</ele><time>2026-05-05T08:55:36.63Z</time></trkpt><trkpt lat="43.3039633" lon="10.62786"><ele>241.0</ele><time>2026-05-05T08:55:37.629Z</time></trkpt><trkpt lat="43.3040367" lon="10.6280833"><ele>241.0</ele><time>2026-05-05T08:55:38.63Z</time></trkpt><trkpt lat="43.3041167" lon="10.6283017"><ele>241.0</ele><time>2026-05-05T08:55:39.629Z</time></trkpt><trkpt lat="43.3042183" lon="10.6285117"><ele>244.33333333333331</ele><time>2026-05-05T08:55:40.63Z</time></trkpt><trkpt lat="43.3043317" lon="10.6287183"><ele>247.66666666666669</ele><time>2026-05-05T08:55:41.63Z</time></trkpt><trkpt lat="43.3044383" lon="10.62893"><ele>251.0</ele><time>2026-05-05T08:55:42.63Z</time></trkpt><trkpt lat="43.3045667" lon="10.6291217"><ele>251.0</ele><time>2026-05-05T08:55:43.63Z</time></trkpt><trkpt lat="43.30469" lon="10.629295"><ele>251.0</ele><time>2026-05-05T08:55:44.63Z</time></trkpt><trkpt lat="43.3048517" lon="10.6294383"><ele>251.0</ele><time>2026-05-05T08:55:45.629Z</time></trkpt><trkpt lat="43.3050317" lon="10.6295617"><ele>246.33333333333334</ele><time>2026-05-05T08:55:46.63Z</time></trkpt><trkpt lat="43.3052017" lon="10.6296617"><ele>241.66666666666669</ele><time>2026-05-05T08:55:47.629Z</time></trkpt><trkpt lat="43.3053717" lon="10.6297617"><ele>237.0</ele><time>2026-05-05T08:55:48.629Z</time></trkpt><trkpt lat="43.305555" lon="10.6298567"><ele>234.0</ele><time>2026-05-05T08:55:49.63Z</time></trkpt><trkpt lat="43.3057483" lon="10.6299283"><ele>231.0</ele><time>2026-05-05T08:55:50.629Z</time></trkpt><trkpt lat="43.3059517" lon="10.6300183"><ele>228.0</ele><time>2026-05-05T08:55:51.629Z</time></trkpt><trkpt lat="43.3061333" lon="10.6301217"><ele>228.0</ele><time>2026-05-05T08:55:52.63Z</time></trkpt><trkpt lat="43.3063117" lon="10.6302267"><ele>228.0</ele><time>2026-05-05T08:55:53.63Z</time></trkpt><trkpt lat="43.3065117" lon="10.6303233"><ele>228.0</ele><time>2026-05-05T08:55:54.629Z</time></trkpt><trkpt lat="43.3066933" lon="10.6304133"><ele>226.33333333333331</ele><time>2026-05-05T08:55:55.63Z</time></trkpt><trkpt lat="43.3068683" lon="10.630505"><ele>224.66666666666666</ele><time>2026-05-05T08:55:56.63Z</time></trkpt><trkpt lat="43.30705" lon="10.6305967"><ele>223.0</ele><time>2026-05-05T08:55:57.63Z</time></trkpt><trkpt lat="43.3072367" lon="10.6306983"><ele>228.66666666666666</ele><time>2026-05-05T08:55:58.63Z</time></trkpt><trkpt lat="43.3074183" lon="10.6308067"><ele>234.33333333333331</ele><time>2026-05-05T08:55:59.63Z</time></trkpt><trkpt lat="43.30761" lon="10.6308983"><ele>240.0</ele><time>2026-05-05T08:56:00.63Z</time></trkpt><trkpt lat="43.30777" lon="10.63099"><ele>240.0</ele><time>2026-05-05T08:56:01.63Z</time></trkpt><trkpt lat="43.3079183" lon="10.6310867"><ele>240.0</ele><time>2026-05-05T08:56:02.63Z</time></trkpt><trkpt lat="43.3080617" lon="10.6311633"><ele>240.0</ele><time>2026-05-05T08:56:03.629Z</time></trkpt><trkpt lat="43.3081917" lon="10.6312167"><ele>237.25</ele><time>2026-05-05T08:56:04.63Z</time></trkpt><trkpt lat="43.3083167" lon="10.63124"><ele>234.5</ele><time>2026-05-05T08:56:05.629Z</time></trkpt><trkpt lat="43.3084583" lon="10.6311917"><ele>231.75</ele><time>2026-05-05T08:56:06.63Z</time></trkpt><trkpt lat="43.3085967" lon="10.6311033"><ele>229.0</ele><time>2026-05-05T08:56:07.63Z</time></trkpt><trkpt lat="43.3087117" lon="10.6309733"><ele>231.66666666666666</ele><time>2026-05-05T08:56:08.63Z</time></trkpt><trkpt lat="43.30882" lon="10.6308133"><ele>234.33333333333331</ele><time>2026-05-05T08:56:09.629Z</time></trkpt><trkpt lat="43.308925" lon="10.6306517"><ele>237.0</ele><time>2026-05-05T08:56:10.629Z</time></trkpt><trkpt lat="43.3090217" lon="10.6304667"><ele>239.66666666666669</ele><time>2026-05-05T08:56:11.63Z</time></trkpt><trkpt lat="43.3091183" lon="10.6302833"><ele>242.33333333333334</ele><time>2026-05-05T08:56:12.63Z</time></trkpt><trkpt lat="43.3092333" lon="10.6301017"><ele>245.0</ele><time>2026-05-05T08:56:13.629Z</time></trkpt><trkpt lat="43.3093433" lon="10.62992"><ele>245.0</ele><time>2026-05-05T08:56:14.629Z</time></trkpt><trkpt lat="43.3094567" lon="10.6297617"><ele>245.0</ele><time>2026-05-05T08:56:15.63Z</time></trkpt><trkpt lat="43.3095833" lon="10.6296133"><ele>245.0</ele><time>2026-05-05T08:56:16.63Z</time></trkpt><trkpt lat="43.309715" lon="10.6295"><ele>245.0</ele><time>2026-05-05T08:56:17.63Z</time></trkpt><trkpt lat="43.309865" lon="10.6294367"><ele>245.0</ele><time>2026-05-05T08:56:18.629Z</time></trkpt><trkpt lat="43.3100317" lon="10.6293983"><ele>245.0</ele><time>2026-05-05T08:56:19.63Z</time></trkpt><trkpt lat="43.3102017" lon="10.62938"><ele>245.0</ele><time>2026-05-05T08:56:20.63Z</time></trkpt><trkpt lat="43.3103717" lon="10.629365"><ele>245.0</ele><time>2026-05-05T08:56:21.63Z</time></trkpt><trkpt lat="43.3105367" lon="10.629355"><ele>245.0</ele><time>2026-05-05T08:56:22.63Z</time></trkpt><trkpt lat="43.3106867" lon="10.6293683"><ele>247.25</ele><time>2026-05-05T08:56:23.63Z</time></trkpt><trkpt lat="43.3108167" lon="10.629355"><ele>249.5</ele><time>2026-05-05T08:56:24.63Z</time></trkpt><trkpt lat="43.310945" lon="10.6293817"><ele>251.75</ele><time>2026-05-05T08:56:25.63Z</time></trkpt><trkpt lat="43.31105" lon="10.6294417"><ele>254.0</ele><time>2026-05-05T08:56:26.63Z</time></trkpt><trkpt lat="43.3111317" lon="10.6294867"><ele>254.0</ele><time>2026-05-05T08:56:27.63Z</time></trkpt><trkpt lat="43.3111933" lon="10.6295183"><ele>253.99999999999997</ele><time>2026-05-05T08:56:28.63Z</time></trkpt><trkpt lat="43.3112783" lon="10.6295"><ele>253.99999999999997</ele><time>2026-05-05T08:56:30.63Z</time></trkpt><trkpt lat="43.3113667" lon="10.629365"><ele>254.0</ele><time>2026-05-05T08:56:32.63Z</time></trkpt><trkpt lat="43.31143" lon="10.62926"><ele>254.0</ele><time>2026-05-05T08:56:33.63Z</time></trkpt><trkpt lat="43.311505" lon="10.62916"><ele>256.4</ele><time>2026-05-05T08:56:34.629Z</time></trkpt><trkpt lat="43.3115867" lon="10.62908"><ele>258.79999999999995</ele><time>2026-05-05T08:56:35.629Z</time></trkpt><trkpt lat="43.3116733" lon="10.6290217"><ele>261.20000000000005</ele><time>2026-05-05T08:56:36.63Z</time></trkpt><trkpt lat="43.31177" lon="10.6289617"><ele>263.6</ele><time>2026-05-05T08:56:37.629Z</time></trkpt><trkpt lat="43.3118633" lon="10.628895"><ele>266.0</ele><time>2026-05-05T08:56:38.629Z</time></trkpt><trkpt lat="43.3119633" lon="10.6288283"><ele>266.0</ele><time>2026-05-05T08:56:39.63Z</time></trkpt><trkpt lat="43.31207" lon="10.628775"><ele>266.0</ele><time>2026-05-05T08:56:40.63Z</time></trkpt><trkpt lat="43.31218" lon="10.6287383"><ele>266.0</ele><time>2026-05-05T08:56:41.629Z</time></trkpt><trkpt lat="43.3122733" lon="10.6287183"><ele>266.0</ele><time>2026-05-05T08:56:42.63Z</time></trkpt><trkpt lat="43.3123633" lon="10.6287133"><ele>266.0</ele><time>2026-05-05T08:56:43.629Z</time></trkpt><trkpt lat="43.3124567" lon="10.6287333"><ele>268.5</ele><time>2026-05-05T08:56:44.629Z</time></trkpt><trkpt lat="43.3125483" lon="10.6288"><ele>271.0</ele><time>2026-05-05T08:56:45.629Z</time></trkpt><trkpt lat="43.3126317" lon="10.6289383"><ele>273.5</ele><time>2026-05-05T08:56:46.63Z</time></trkpt><trkpt lat="43.3126883" lon="10.6290983"><ele>276.0</ele><time>2026-05-05T08:56:47.63Z</time></trkpt><trkpt lat="43.3127267" lon="10.629275"><ele>276.0</ele><time>2026-05-05T08:56:48.63Z</time></trkpt><trkpt lat="43.3127433" lon="10.6294583"><ele>276.0</ele><time>2026-05-05T08:56:49.63Z</time></trkpt><trkpt lat="43.3127533" lon="10.629655"><ele>276.0</ele><time>2026-05-05T08:56:50.629Z</time></trkpt><trkpt lat="43.312765" lon="10.6298617"><ele>276.0</ele><time>2026-05-05T08:56:51.629Z</time></trkpt><trkpt lat="43.3127883" lon="10.6300633"><ele>276.25</ele><time>2026-05-05T08:56:52.63Z</time></trkpt><trkpt lat="43.312805" lon="10.6302533"><ele>276.5</ele><time>2026-05-05T08:56:53.63Z</time></trkpt><trkpt lat="43.312835" lon="10.6304317"><ele>276.75</ele><time>2026-05-05T08:56:54.629Z</time></trkpt><trkpt lat="43.31289" lon="10.6305817"><ele>277.0</ele><time>2026-05-05T08:56:55.629Z</time></trkpt><trkpt lat="43.3129683" lon="10.63071"><ele>274.75</ele><time>2026-05-05T08:56:56.63Z</time></trkpt><trkpt lat="43.3130733" lon="10.6308117"><ele>272.5</ele><time>2026-05-05T08:56:57.63Z</time></trkpt><trkpt lat="43.3131817" lon="10.63089"><ele>270.25</ele><time>2026-05-05T08:56:58.629Z</time></trkpt><trkpt lat="43.313295" lon="10.6309483"><ele>268.0</ele><time>2026-05-05T08:56:59.629Z</time></trkpt><trkpt lat="43.3134167" lon="10.6309933"><ele>268.0</ele><time>2026-05-05T08:57:00.63Z</time></trkpt><trkpt lat="43.3135467" lon="10.6309983"><ele>268.0</ele><time>2026-05-05T08:57:01.63Z</time></trkpt><trkpt lat="43.3136867" lon="10.6310083"><ele>268.0</ele><time>2026-05-05T08:57:02.63Z</time></trkpt><trkpt lat="43.3138317" lon="10.6309733"><ele>268.0</ele><time>2026-05-05T08:57:03.629Z</time></trkpt><trkpt lat="43.3139567" lon="10.6308983"><ele>268.3333333333333</ele><time>2026-05-05T08:57:04.63Z</time></trkpt><trkpt lat="43.3140783" lon="10.6307983"><ele>268.6666666666667</ele><time>2026-05-05T08:57:05.629Z</time></trkpt><trkpt lat="43.3142" lon="10.63067"><ele>269.0</ele><time>2026-05-05T08:57:06.629Z</time></trkpt><trkpt lat="43.3143083" lon="10.6305167"><ele>269.0</ele><time>2026-05-05T08:57:07.629Z</time></trkpt><trkpt lat="43.3144117" lon="10.6303567"><ele>269.0</ele><time>2026-05-05T08:57:08.629Z</time></trkpt><trkpt lat="43.31451" lon="10.6302017"><ele>269.0</ele><time>2026-05-05T08:57:09.629Z</time></trkpt><trkpt lat="43.3146" lon="10.630015"><ele>269.0</ele><time>2026-05-05T08:57:10.629Z</time></trkpt><trkpt lat="43.3147" lon="10.6298283"><ele>269.0</ele><time>2026-05-05T08:57:11.629Z</time></trkpt><trkpt lat="43.3147867" lon="10.629665"><ele>269.0</ele><time>2026-05-05T08:57:12.629Z</time></trkpt><trkpt lat="43.31488" lon="10.6294967"><ele>266.0</ele><time>2026-05-05T08:57:13.628Z</time></trkpt><trkpt lat="43.3149733" lon="10.6293283"><ele>263.0</ele><time>2026-05-05T08:57:14.629Z</time></trkpt><trkpt lat="43.3150717" lon="10.62915"><ele>260.0</ele><time>2026-05-05T08:57:15.628Z</time></trkpt><trkpt lat="43.3151717" lon="10.6289633"><ele>260.0</ele><time>2026-05-05T08:57:16.629Z</time></trkpt><trkpt lat="43.315265" lon="10.6287933"><ele>260.0</ele><time>2026-05-05T08:57:17.628Z</time></trkpt><trkpt lat="43.3153567" lon="10.6286267"><ele>260.0</ele><time>2026-05-05T08:57:18.629Z</time></trkpt><trkpt lat="43.3154717" lon="10.6284667"><ele>260.33333333333337</ele><time>2026-05-05T08:57:19.629Z</time></trkpt><trkpt lat="43.31558" lon="10.6283067"><ele>260.6666666666667</ele><time>2026-05-05T08:57:20.629Z</time></trkpt><trkpt lat="43.31569" lon="10.6281533"><ele>261.0</ele><time>2026-05-05T08:57:21.629Z</time></trkpt><trkpt lat="43.3158033" lon="10.62801"><ele>261.0</ele><time>2026-05-05T08:57:22.629Z</time></trkpt><trkpt lat="43.3159233" lon="10.6278483"><ele>261.0</ele><time>2026-05-05T08:57:23.628Z</time></trkpt><trkpt lat="43.3160467" lon="10.6276983"><ele>261.0</ele><time>2026-05-05T08:57:24.629Z</time></trkpt><trkpt lat="43.3161817" lon="10.62755"><ele>261.0</ele><time>2026-05-05T08:57:25.628Z</time></trkpt><trkpt lat="43.31633" lon="10.6274367"><ele>261.0</ele><time>2026-05-05T08:57:26.629Z</time></trkpt><trkpt lat="43.3164733" lon="10.627325"><ele>261.0</ele><time>2026-05-05T08:57:27.628Z</time></trkpt><trkpt lat="43.3166217" lon="10.62723"><ele>261.6666666666667</ele><time>2026-05-05T08:57:28.629Z</time></trkpt><trkpt lat="43.3167717" lon="10.6271417"><ele>262.33333333333337</ele><time>2026-05-05T08:57:29.629Z</time></trkpt><trkpt lat="43.3169267" lon="10.6270583"><ele>263.0</ele><time>2026-05-05T08:57:30.629Z</time></trkpt><trkpt lat="43.317085" lon="10.6269933"><ele>262.6666666666667</ele><time>2026-05-05T08:57:31.629Z</time></trkpt><trkpt lat="43.3172433" lon="10.6269267"><ele>262.3333333333333</ele><time>2026-05-05T08:57:32.629Z</time></trkpt><trkpt lat="43.317405" lon="10.6268517"><ele>262.0</ele><time>2026-05-05T08:57:33.629Z</time></trkpt><trkpt lat="43.3175633" lon="10.6267767"><ele>262.0</ele><time>2026-05-05T08:57:34.629Z</time></trkpt><trkpt lat="43.3177233" lon="10.6267067"><ele>262.0</ele><time>2026-05-05T08:57:35.628Z</time></trkpt><trkpt lat="43.3178833" lon="10.6266383"><ele>262.0</ele><time>2026-05-05T08:57:36.628Z</time></trkpt><trkpt lat="43.31805" lon="10.62657"><ele>261.0</ele><time>2026-05-05T08:57:37.629Z</time></trkpt><trkpt lat="43.3182083" lon="10.6265017"><ele>260.0</ele><time>2026-05-05T08:57:38.629Z</time></trkpt><trkpt lat="43.3183567" lon="10.6264417"><ele>259.0</ele><time>2026-05-05T08:57:39.629Z</time></trkpt><trkpt lat="43.3184967" lon="10.6263633"><ele>259.0</ele><time>2026-05-05T08:57:40.629Z</time></trkpt><trkpt lat="43.3186167" lon="10.6262767"><ele>259.0</ele><time>2026-05-05T08:57:41.628Z</time></trkpt><trkpt lat="43.3187167" lon="10.6261917"><ele>259.0</ele><time>2026-05-05T08:57:42.628Z</time></trkpt><trkpt lat="43.318805" lon="10.626095"><ele>259.0</ele><time>2026-05-05T08:57:43.628Z</time></trkpt><trkpt lat="43.318895" lon="10.6259333"><ele>257.75</ele><time>2026-05-05T08:57:44.629Z</time></trkpt><trkpt lat="43.3189517" lon="10.6257683"><ele>256.5</ele><time>2026-05-05T08:57:45.628Z</time></trkpt><trkpt lat="43.319" lon="10.6255933"><ele>255.25</ele><time>2026-05-05T08:57:46.628Z</time></trkpt><trkpt lat="43.31905" lon="10.6253933"><ele>254.0</ele><time>2026-05-05T08:57:47.628Z</time></trkpt><trkpt lat="43.3191033" lon="10.6252017"><ele>253.0</ele><time>2026-05-05T08:57:48.629Z</time></trkpt><trkpt lat="43.319165" lon="10.625025"><ele>252.0</ele><time>2026-05-05T08:57:49.628Z</time></trkpt><trkpt lat="43.3192333" lon="10.6248633"><ele>251.0</ele><time>2026-05-05T08:57:50.629Z</time></trkpt><trkpt lat="43.319315" lon="10.624725"><ele>250.0</ele><time>2026-05-05T08:57:51.629Z</time></trkpt><trkpt lat="43.3194133" lon="10.62463"><ele>250.0</ele><time>2026-05-05T08:57:52.628Z</time></trkpt><trkpt lat="43.3195433" lon="10.6246133"><ele>250.0</ele><time>2026-05-05T08:57:53.629Z</time></trkpt><trkpt lat="43.3196683" lon="10.6246467"><ele>250.0</ele><time>2026-05-05T08:57:54.628Z</time></trkpt><trkpt lat="43.3198167" lon="10.6247433"><ele>250.0</ele><time>2026-05-05T08:57:55.629Z</time></trkpt><trkpt lat="43.3199383" lon="10.6248983"><ele>247.33333333333331</ele><time>2026-05-05T08:57:56.629Z</time></trkpt><trkpt lat="43.3200267" lon="10.625075"><ele>244.66666666666669</ele><time>2026-05-05T08:57:57.629Z</time></trkpt><trkpt lat="43.3200933" lon="10.62532"><ele>242.0</ele><time>2026-05-05T08:57:58.628Z</time></trkpt><trkpt lat="43.32011" lon="10.6255733"><ele>242.0</ele><time>2026-05-05T08:57:59.628Z</time></trkpt><trkpt lat="43.3201017" lon="10.6258067"><ele>242.0</ele><time>2026-05-05T08:58:00.628Z</time></trkpt><trkpt lat="43.320065" lon="10.62603"><ele>242.0</ele><time>2026-05-05T08:58:01.628Z</time></trkpt><trkpt lat="43.3200367" lon="10.6262183"><ele>242.0</ele><time>2026-05-05T08:58:02.629Z</time></trkpt><trkpt lat="43.3200033" lon="10.6264067"><ele>242.0</ele><time>2026-05-05T08:58:03.628Z</time></trkpt><trkpt lat="43.3199917" lon="10.62661"><ele>242.0</ele><time>2026-05-05T08:58:04.629Z</time></trkpt><trkpt lat="43.320025" lon="10.6267983"><ele>242.0</ele><time>2026-05-05T08:58:05.629Z</time></trkpt><trkpt lat="43.3200833" lon="10.6269783"><ele>243.33333333333334</ele><time>2026-05-05T08:58:06.628Z</time></trkpt><trkpt lat="43.320155" lon="10.6271533"><ele>244.66666666666669</ele><time>2026-05-05T08:58:07.629Z</time></trkpt><trkpt lat="43.3202533" lon="10.6273183"><ele>246.0</ele><time>2026-05-05T08:58:08.629Z</time></trkpt><trkpt lat="43.3203717" lon="10.6274717"><ele>246.0</ele><time>2026-05-05T08:58:09.628Z</time></trkpt><trkpt lat="43.3204867" lon="10.62763"><ele>246.0</ele><time>2026-05-05T08:58:10.629Z</time></trkpt><trkpt lat="43.3206" lon="10.6277933"><ele>246.0</ele><time>2026-05-05T08:58:11.629Z</time></trkpt><trkpt lat="43.32071" lon="10.627975"><ele>239.0</ele><time>2026-05-05T08:58:12.629Z</time></trkpt><trkpt lat="43.3208283" lon="10.6281417"><ele>232.0</ele><time>2026-05-05T08:58:13.628Z</time></trkpt><trkpt lat="43.3209533" lon="10.6283017"><ele>225.0</ele><time>2026-05-05T08:58:14.629Z</time></trkpt><trkpt lat="43.3210683" lon="10.6284667"><ele>225.0</ele><time>2026-05-05T08:58:15.629Z</time></trkpt><trkpt lat="43.3211883" lon="10.6286367"><ele>225.0</ele><time>2026-05-05T08:58:16.629Z</time></trkpt><trkpt lat="43.3212917" lon="10.628795"><ele>225.0</ele><time>2026-05-05T08:58:17.629Z</time></trkpt><trkpt lat="43.3214067" lon="10.6289683"><ele>221.33333333333331</ele><time>2026-05-05T08:58:18.628Z</time></trkpt><trkpt lat="43.3215033" lon="10.62915"><ele>217.66666666666666</ele><time>2026-05-05T08:58:19.629Z</time></trkpt><trkpt lat="43.3215933" lon="10.6293283"><ele>214.0</ele><time>2026-05-05T08:58:20.629Z</time></trkpt><trkpt lat="43.32167" lon="10.6295167"><ele>213.33333333333331</ele><time>2026-05-05T08:58:21.628Z</time></trkpt><trkpt lat="43.32172" lon="10.629705"><ele>212.66666666666669</ele><time>2026-05-05T08:58:22.629Z</time></trkpt><trkpt lat="43.3217367" lon="10.62993"><ele>212.0</ele><time>2026-05-05T08:58:23.629Z</time></trkpt><trkpt lat="43.3217183" lon="10.6301567"><ele>210.66666666666669</ele><time>2026-05-05T08:58:24.629Z</time></trkpt><trkpt lat="43.321685" lon="10.6303717"><ele>209.33333333333331</ele><time>2026-05-05T08:58:25.629Z</time></trkpt><trkpt lat="43.3216633" lon="10.6306017"><ele>208.0</ele><time>2026-05-05T08:58:26.629Z</time></trkpt><trkpt lat="43.3216467" lon="10.6308283"><ele>208.0</ele><time>2026-05-05T08:58:27.628Z</time></trkpt><trkpt lat="43.32163" lon="10.6310667"><ele>208.0</ele><time>2026-05-05T08:58:28.628Z</time></trkpt><trkpt lat="43.3216167" lon="10.63129"><ele>208.0</ele><time>2026-05-05T08:58:29.629Z</time></trkpt><trkpt lat="43.3216017" lon="10.6315083"><ele>207.0</ele><time>2026-05-05T08:58:30.629Z</time></trkpt><trkpt lat="43.3216" lon="10.6317033"><ele>206.0</ele><time>2026-05-05T08:58:31.629Z</time></trkpt><trkpt lat="43.3216033" lon="10.6318667"><ele>205.0</ele><time>2026-05-05T08:58:32.628Z</time></trkpt><trkpt lat="43.3216467" lon="10.6320383"><ele>204.0</ele><time>2026-05-05T08:58:33.629Z</time></trkpt><trkpt lat="43.3216983" lon="10.632175"><ele>201.5</ele><time>2026-05-05T08:58:34.628Z</time></trkpt><trkpt lat="43.3217733" lon="10.6322717"><ele>199.0</ele><time>2026-05-05T08:58:35.628Z</time></trkpt><trkpt lat="43.321885" lon="10.6323217"><ele>196.5</ele><time>2026-05-05T08:58:36.629Z</time></trkpt><trkpt lat="43.3220083" lon="10.63235"><ele>194.0</ele><time>2026-05-05T08:58:37.629Z</time></trkpt><trkpt lat="43.3221367" lon="10.6323333"><ele>198.25</ele><time>2026-05-05T08:58:38.628Z</time></trkpt><trkpt lat="43.3222583" lon="10.6322867"><ele>202.5</ele><time>2026-05-05T08:58:39.628Z</time></trkpt><trkpt lat="43.3223783" lon="10.632225"><ele>206.75</ele><time>2026-05-05T08:58:40.629Z</time></trkpt><trkpt lat="43.322495" lon="10.6321183"><ele>211.0</ele><time>2026-05-05T08:58:41.629Z</time></trkpt><trkpt lat="43.3226017" lon="10.6319833"><ele>209.25</ele><time>2026-05-05T08:58:42.628Z</time></trkpt><trkpt lat="43.322705" lon="10.63184"><ele>207.5</ele><time>2026-05-05T08:58:43.629Z</time></trkpt><trkpt lat="43.32281" lon="10.6317"><ele>205.75</ele><time>2026-05-05T08:58:44.629Z</time></trkpt><trkpt lat="43.3229217" lon="10.6315533"><ele>204.0</ele><time>2026-05-05T08:58:45.629Z</time></trkpt><trkpt lat="43.32303" lon="10.6313983"><ele>208.0</ele><time>2026-05-05T08:58:46.628Z</time></trkpt><trkpt lat="43.323125" lon="10.6312433"><ele>212.0</ele><time>2026-05-05T08:58:47.629Z</time></trkpt><trkpt lat="43.3231983" lon="10.631065"><ele>216.0</ele><time>2026-05-05T08:58:48.629Z</time></trkpt><trkpt lat="43.323275" lon="10.6308817"><ele>216.0</ele><time>2026-05-05T08:58:49.629Z</time></trkpt><trkpt lat="43.3233567" lon="10.6307017"><ele>216.0</ele><time>2026-05-05T08:58:50.629Z</time></trkpt><trkpt lat="43.32344" lon="10.6305417"><ele>216.0</ele><time>2026-05-05T08:58:51.628Z</time></trkpt><trkpt lat="43.323535" lon="10.6303767"><ele>213.75</ele><time>2026-05-05T08:58:52.629Z</time></trkpt><trkpt lat="43.3236417" lon="10.6302233"><ele>211.5</ele><time>2026-05-05T08:58:53.629Z</time></trkpt><trkpt lat="43.32373" lon="10.6300633"><ele>209.25</ele><time>2026-05-05T08:58:54.628Z</time></trkpt><trkpt lat="43.3238183" lon="10.6299283"><ele>207.0</ele><time>2026-05-05T08:58:55.628Z</time></trkpt><trkpt lat="43.3238883" lon="10.6297867"><ele>210.2</ele><time>2026-05-05T08:58:56.629Z</time></trkpt><trkpt lat="43.323965" lon="10.6296667"><ele>213.39999999999998</ele><time>2026-05-05T08:58:57.629Z</time></trkpt><trkpt lat="43.3240217" lon="10.6295467"><ele>216.60000000000002</ele><time>2026-05-05T08:58:58.629Z</time></trkpt><trkpt lat="43.3240533" lon="10.62942"><ele>219.8</ele><time>2026-05-05T08:58:59.629Z</time></trkpt><trkpt lat="43.3240817" lon="10.6292917"><ele>223.0</ele><time>2026-05-05T08:59:00.628Z</time></trkpt><trkpt lat="43.3241167" lon="10.62917"><ele>223.0</ele><time>2026-05-05T08:59:01.629Z</time></trkpt><trkpt lat="43.3241683" lon="10.6290033"><ele>223.0</ele><time>2026-05-05T08:59:02.629Z</time></trkpt><trkpt lat="43.3242183" lon="10.6288717"><ele>223.0</ele><time>2026-05-05T08:59:03.629Z</time></trkpt><trkpt lat="43.3242733" lon="10.6287367"><ele>223.0</ele><time>2026-05-05T08:59:04.629Z</time></trkpt><trkpt lat="43.3243333" lon="10.6286067"><ele>221.2</ele><time>2026-05-05T08:59:05.629Z</time></trkpt><trkpt lat="43.3244" lon="10.6284783"><ele>219.4</ele><time>2026-05-05T08:59:06.629Z</time></trkpt><trkpt lat="43.324465" lon="10.62837"><ele>217.59999999999997</ele><time>2026-05-05T08:59:07.628Z</time></trkpt><trkpt lat="43.32452" lon="10.628245"><ele>215.79999999999998</ele><time>2026-05-05T08:59:08.629Z</time></trkpt><trkpt lat="43.3245717" lon="10.6281233"><ele>214.0</ele><time>2026-05-05T08:59:09.629Z</time></trkpt><trkpt lat="43.3246283" lon="10.6280217"><ele>214.0</ele><time>2026-05-05T08:59:10.629Z</time></trkpt><trkpt lat="43.3246917" lon="10.6279383"><ele>213.99999999999997</ele><time>2026-05-05T08:59:11.629Z</time></trkpt><trkpt lat="43.3247717" lon="10.6278733"><ele>213.99999999999997</ele><time>2026-05-05T08:59:12.628Z</time></trkpt><trkpt lat="43.3248733" lon="10.6278433"><ele>214.0</ele><time>2026-05-05T08:59:13.628Z</time></trkpt><trkpt lat="43.3249667" lon="10.6278283"><ele>214.0</ele><time>2026-05-05T08:59:14.629Z</time></trkpt><trkpt lat="43.32507" lon="10.6278117"><ele>215.79999999999998</ele><time>2026-05-05T08:59:15.628Z</time></trkpt><trkpt lat="43.3251717" lon="10.6277817"><ele>217.59999999999997</ele><time>2026-05-05T08:59:16.628Z</time></trkpt><trkpt lat="43.3252717" lon="10.6277433"><ele>219.4</ele><time>2026-05-05T08:59:17.628Z</time></trkpt><trkpt lat="43.3253717" lon="10.6277033"><ele>221.2</ele><time>2026-05-05T08:59:18.628Z</time></trkpt><trkpt lat="43.3254517" lon="10.6276517"><ele>223.0</ele><time>2026-05-05T08:59:19.628Z</time></trkpt><trkpt lat="43.32552" lon="10.627565"><ele>225.8</ele><time>2026-05-05T08:59:20.629Z</time></trkpt><trkpt lat="43.325575" lon="10.6274633"><ele>228.60000000000002</ele><time>2026-05-05T08:59:21.629Z</time></trkpt><trkpt lat="43.3256267" lon="10.6273483"><ele>231.39999999999998</ele><time>2026-05-05T08:59:22.629Z</time></trkpt><trkpt lat="43.325675" lon="10.6272367"><ele>234.2</ele><time>2026-05-05T08:59:23.628Z</time></trkpt><trkpt lat="43.3257217" lon="10.6271217"><ele>237.0</ele><time>2026-05-05T08:59:24.629Z</time></trkpt><trkpt lat="43.3257633" lon="10.6270133"><ele>236.16666666666666</ele><time>2026-05-05T08:59:25.629Z</time></trkpt><trkpt lat="43.325805" lon="10.626905"><ele>235.33333333333331</ele><time>2026-05-05T08:59:26.628Z</time></trkpt><trkpt lat="43.325855" lon="10.626805"><ele>234.5</ele><time>2026-05-05T08:59:27.628Z</time></trkpt><trkpt lat="43.3259067" lon="10.62671"><ele>233.66666666666666</ele><time>2026-05-05T08:59:28.629Z</time></trkpt><trkpt lat="43.3259517" lon="10.6266183"><ele>232.83333333333331</ele><time>2026-05-05T08:59:29.629Z</time></trkpt><trkpt lat="43.325985" lon="10.6265433"><ele>232.0</ele><time>2026-05-05T08:59:30.629Z</time></trkpt><trkpt lat="43.3260317" lon="10.6264733"><ele>231.99999999999997</ele><time>2026-05-05T08:59:32.628Z</time></trkpt><trkpt lat="43.3260867" lon="10.626565"><ele>232.0</ele><time>2026-05-05T08:59:36.629Z</time></trkpt><trkpt lat="43.3260667" lon="10.62669"><ele>232.0</ele><time>2026-05-05T08:59:38.628Z</time></trkpt><trkpt lat="43.326035" lon="10.6268483"><ele>232.0</ele><time>2026-05-05T08:59:40.629Z</time></trkpt><trkpt lat="43.326025" lon="10.6269367"><ele>231.99999999999997</ele><time>2026-05-05T08:59:41.629Z</time></trkpt><trkpt lat="43.32602" lon="10.6270367"><ele>232.0</ele><time>2026-05-05T08:59:42.629Z</time></trkpt><trkpt lat="43.3260167" lon="10.62715"><ele>233.0</ele><time>2026-05-05T08:59:43.628Z</time></trkpt><trkpt lat="43.326015" lon="10.6272683"><ele>234.0</ele><time>2026-05-05T08:59:44.628Z</time></trkpt><trkpt lat="43.3260167" lon="10.6273933"><ele>235.0</ele><time>2026-05-05T08:59:45.628Z</time></trkpt><trkpt lat="43.3260133" lon="10.627525"><ele>236.0</ele><time>2026-05-05T08:59:46.629Z</time></trkpt><trkpt lat="43.3260083" lon="10.6276667"><ele>237.0</ele><time>2026-05-05T08:59:47.629Z</time></trkpt><trkpt lat="43.3260017" lon="10.6277933"><ele>237.66666666666666</ele><time>2026-05-05T08:59:48.628Z</time></trkpt><trkpt lat="43.32598" lon="10.6279117"><ele>238.33333333333331</ele><time>2026-05-05T08:59:49.629Z</time></trkpt><trkpt lat="43.3259683" lon="10.6280133"><ele>239.0</ele><time>2026-05-05T08:59:50.628Z</time></trkpt><trkpt lat="43.32596" lon="10.6281067"><ele>239.66666666666666</ele><time>2026-05-05T08:59:51.629Z</time></trkpt><trkpt lat="43.3259333" lon="10.6282633"><ele>240.33333333333331</ele><time>2026-05-05T08:59:53.629Z</time></trkpt><trkpt lat="43.3259" lon="10.62839"><ele>241.0</ele><time>2026-05-05T08:59:55.629Z</time></trkpt><trkpt lat="43.3258683" lon="10.6284867"><ele>241.0</ele><time>2026-05-05T08:59:57.629Z</time></trkpt><trkpt lat="43.3258367" lon="10.628575"><ele>241.0</ele><time>2026-05-05T08:59:59.629Z</time></trkpt><trkpt lat="43.3258" lon="10.628665"><ele>245.0</ele><time>2026-05-05T09:00:02.629Z</time></trkpt></trkseg></trk></gpx>